<?xml version="1.0" encoding="UTF-8" standalone="no" ?>
<gpx xmlns="http://www.topografix.com/GPX/1/1" xmlns:xsi="http://www.w3.org/2001/XMLSchema-instance" xsi:schemaLocation="http://www.topografix.com/GPX/1/1 http://www.topografix.com/GPX/1/1/gpx.xsd" version="1.1" creator="VisuGPX - https://www.visugpx.com">
  <metadata>
    <name>Sortie sur Chaponnay</name>
  </metadata>
  <trk>
    <name><![CDATA[Sortie sur Chaponnay]]></name>
    <extensions>
      <line xmlns="http://www.topografix.com/GPX/gpx_style/0/2">
        <color>0000FF</color>
        <width>4</width>
      </line>
    </extensions>
    <trkseg>
      <trkpt lat="45.62644" lon="4.93072">
        <ele>213.6</ele>
        <time>2020-06-28T06:13:00.000Z</time>
      </trkpt>
      <trkpt lat="45.62634" lon="4.93073">
        <ele>214</ele>
        <time>2020-06-28T06:13:05.000Z</time>
      </trkpt>
      <trkpt lat="45.62632" lon="4.93074">
        <ele>214.1</ele>
        <time>2020-06-28T06:13:06.000Z</time>
      </trkpt>
      <trkpt lat="45.62627" lon="4.93075">
        <ele>214.2</ele>
        <time>2020-06-28T06:13:08.000Z</time>
      </trkpt>
      <trkpt lat="45.62622" lon="4.93076">
        <ele>214.4</ele>
        <time>2020-06-28T06:13:10.000Z</time>
      </trkpt>
      <trkpt lat="45.62618" lon="4.93077">
        <ele>214.6</ele>
        <time>2020-06-28T06:13:12.000Z</time>
      </trkpt>
      <trkpt lat="45.62613" lon="4.93078">
        <ele>214.9</ele>
        <time>2020-06-28T06:13:14.000Z</time>
      </trkpt>
      <trkpt lat="45.62609" lon="4.93079">
        <ele>215.1</ele>
        <time>2020-06-28T06:13:16.000Z</time>
      </trkpt>
      <trkpt lat="45.62607" lon="4.93081">
        <ele>215.2</ele>
        <time>2020-06-28T06:13:17.000Z</time>
      </trkpt>
      <trkpt lat="45.62601" lon="4.9309">
        <ele>215.5</ele>
        <time>2020-06-28T06:13:21.000Z</time>
      </trkpt>
      <trkpt lat="45.62595" lon="4.931">
        <ele>215.8</ele>
        <time>2020-06-28T06:13:25.000Z</time>
      </trkpt>
      <trkpt lat="45.62594" lon="4.93109">
        <ele>216</ele>
        <time>2020-06-28T06:13:28.000Z</time>
      </trkpt>
      <trkpt lat="45.62594" lon="4.93129">
        <ele>216.5</ele>
        <time>2020-06-28T06:13:34.000Z</time>
      </trkpt>
      <trkpt lat="45.62593" lon="4.93136">
        <ele>216.7</ele>
        <time>2020-06-28T06:13:36.000Z</time>
      </trkpt>
      <trkpt lat="45.62593" lon="4.9314">
        <ele>216.8</ele>
        <time>2020-06-28T06:13:37.000Z</time>
      </trkpt>
      <trkpt lat="45.62592" lon="4.93155">
        <ele>217.3</ele>
        <time>2020-06-28T06:13:41.000Z</time>
      </trkpt>
      <trkpt lat="45.62592" lon="4.93163">
        <ele>217.5</ele>
        <time>2020-06-28T06:13:43.000Z</time>
      </trkpt>
      <trkpt lat="45.62591" lon="4.93193">
        <ele>218.4</ele>
        <time>2020-06-28T06:13:50.000Z</time>
      </trkpt>
      <trkpt lat="45.62591" lon="4.93197">
        <ele>218.5</ele>
        <time>2020-06-28T06:13:51.000Z</time>
      </trkpt>
      <trkpt lat="45.62592" lon="4.93238">
        <ele>219.7</ele>
        <time>2020-06-28T06:14:00.000Z</time>
      </trkpt>
      <trkpt lat="45.62592" lon="4.93243">
        <ele>219.9</ele>
        <time>2020-06-28T06:14:01.000Z</time>
      </trkpt>
      <trkpt lat="45.62592" lon="4.93278">
        <ele>221.1</ele>
        <time>2020-06-28T06:14:09.000Z</time>
      </trkpt>
      <trkpt lat="45.62587" lon="4.93299">
        <ele>222</ele>
        <time>2020-06-28T06:14:15.000Z</time>
      </trkpt>
      <trkpt lat="45.62583" lon="4.933">
        <ele>222.2</ele>
        <time>2020-06-28T06:14:17.000Z</time>
      </trkpt>
      <trkpt lat="45.62576" lon="4.93303">
        <ele>222.7</ele>
        <time>2020-06-28T06:14:20.000Z</time>
      </trkpt>
      <trkpt lat="45.62566" lon="4.93309">
        <ele>223.3</ele>
        <time>2020-06-28T06:14:24.000Z</time>
      </trkpt>
      <trkpt lat="45.62562" lon="4.93312">
        <ele>223.7</ele>
        <time>2020-06-28T06:14:26.000Z</time>
      </trkpt>
      <trkpt lat="45.62542" lon="4.93318">
        <ele>225.5</ele>
        <time>2020-06-28T06:14:34.000Z</time>
      </trkpt>
      <trkpt lat="45.6254" lon="4.93319">
        <ele>225.7</ele>
        <time>2020-06-28T06:14:35.000Z</time>
      </trkpt>
      <trkpt lat="45.6253" lon="4.93321">
        <ele>226.6</ele>
        <time>2020-06-28T06:14:40.000Z</time>
      </trkpt>
      <trkpt lat="45.62528" lon="4.9332">
        <ele>226.7</ele>
        <time>2020-06-28T06:14:41.000Z</time>
      </trkpt>
      <trkpt lat="45.62522" lon="4.93321">
        <ele>227.2</ele>
        <time>2020-06-28T06:14:44.000Z</time>
      </trkpt>
      <trkpt lat="45.62514" lon="4.93324">
        <ele>228</ele>
        <time>2020-06-28T06:14:47.000Z</time>
      </trkpt>
      <trkpt lat="45.62509" lon="4.93325">
        <ele>228.4</ele>
        <time>2020-06-28T06:14:49.000Z</time>
      </trkpt>
      <trkpt lat="45.62497" lon="4.93328">
        <ele>229.4</ele>
        <time>2020-06-28T06:14:54.000Z</time>
      </trkpt>
      <trkpt lat="45.62492" lon="4.9333">
        <ele>229.8</ele>
        <time>2020-06-28T06:14:56.000Z</time>
      </trkpt>
      <trkpt lat="45.62485" lon="4.93331">
        <ele>230.4</ele>
        <time>2020-06-28T06:14:59.000Z</time>
      </trkpt>
      <trkpt lat="45.62472" lon="4.93335">
        <ele>231.6</ele>
        <time>2020-06-28T06:15:05.000Z</time>
      </trkpt>
      <trkpt lat="45.62469" lon="4.93335">
        <ele>231.8</ele>
        <time>2020-06-28T06:15:06.000Z</time>
      </trkpt>
      <trkpt lat="45.62458" lon="4.93337">
        <ele>232.9</ele>
        <time>2020-06-28T06:15:11.000Z</time>
      </trkpt>
      <trkpt lat="45.62456" lon="4.93337">
        <ele>233</ele>
        <time>2020-06-28T06:15:12.000Z</time>
      </trkpt>
      <trkpt lat="45.62448" lon="4.93339">
        <ele>233.8</ele>
        <time>2020-06-28T06:15:16.000Z</time>
      </trkpt>
      <trkpt lat="45.62437" lon="4.9334">
        <ele>234.7</ele>
        <time>2020-06-28T06:15:21.000Z</time>
      </trkpt>
      <trkpt lat="45.62425" lon="4.93342">
        <ele>235.8</ele>
        <time>2020-06-28T06:15:27.000Z</time>
      </trkpt>
      <trkpt lat="45.62421" lon="4.93342">
        <ele>236.2</ele>
        <time>2020-06-28T06:15:29.000Z</time>
      </trkpt>
      <trkpt lat="45.62412" lon="4.93342">
        <ele>237</ele>
        <time>2020-06-28T06:15:33.000Z</time>
      </trkpt>
      <trkpt lat="45.62406" lon="4.93342">
        <ele>237.5</ele>
        <time>2020-06-28T06:15:36.000Z</time>
      </trkpt>
      <trkpt lat="45.62399" lon="4.93341">
        <ele>238</ele>
        <time>2020-06-28T06:15:39.000Z</time>
      </trkpt>
      <trkpt lat="45.62387" lon="4.93338">
        <ele>239</ele>
        <time>2020-06-28T06:15:44.000Z</time>
      </trkpt>
      <trkpt lat="45.62385" lon="4.93338">
        <ele>239.2</ele>
        <time>2020-06-28T06:15:45.000Z</time>
      </trkpt>
      <trkpt lat="45.62377" lon="4.93336">
        <ele>239.8</ele>
        <time>2020-06-28T06:15:48.000Z</time>
      </trkpt>
      <trkpt lat="45.62364" lon="4.93334">
        <ele>241</ele>
        <time>2020-06-28T06:15:53.000Z</time>
      </trkpt>
      <trkpt lat="45.62358" lon="4.93334">
        <ele>241.4</ele>
        <time>2020-06-28T06:15:55.000Z</time>
      </trkpt>
      <trkpt lat="45.62345" lon="4.93333">
        <ele>242.6</ele>
        <time>2020-06-28T06:16:00.000Z</time>
      </trkpt>
      <trkpt lat="45.62331" lon="4.93336">
        <ele>243.9</ele>
        <time>2020-06-28T06:16:06.000Z</time>
      </trkpt>
      <trkpt lat="45.62328" lon="4.93336">
        <ele>244.2</ele>
        <time>2020-06-28T06:16:07.000Z</time>
      </trkpt>
      <trkpt lat="45.62318" lon="4.93338">
        <ele>245.2</ele>
        <time>2020-06-28T06:16:12.000Z</time>
      </trkpt>
      <trkpt lat="45.62313" lon="4.93337">
        <ele>245.6</ele>
        <time>2020-06-28T06:16:14.000Z</time>
      </trkpt>
      <trkpt lat="45.62304" lon="4.93336">
        <ele>246.6</ele>
        <time>2020-06-28T06:16:18.000Z</time>
      </trkpt>
      <trkpt lat="45.62295" lon="4.93335">
        <ele>247.8</ele>
        <time>2020-06-28T06:16:22.000Z</time>
      </trkpt>
      <trkpt lat="45.62289" lon="4.93334">
        <ele>248.5</ele>
        <time>2020-06-28T06:16:24.000Z</time>
      </trkpt>
      <trkpt lat="45.62277" lon="4.93326">
        <ele>250.3</ele>
        <time>2020-06-28T06:16:29.000Z</time>
      </trkpt>
      <trkpt lat="45.62268" lon="4.93321">
        <ele>251.5</ele>
        <time>2020-06-28T06:16:33.000Z</time>
      </trkpt>
      <trkpt lat="45.62261" lon="4.93318">
        <ele>252.6</ele>
        <time>2020-06-28T06:16:37.000Z</time>
      </trkpt>
      <trkpt lat="45.62259" lon="4.93317">
        <ele>252.9</ele>
        <time>2020-06-28T06:16:38.000Z</time>
      </trkpt>
      <trkpt lat="45.62251" lon="4.93316">
        <ele>253.9</ele>
        <time>2020-06-28T06:16:42.000Z</time>
      </trkpt>
      <trkpt lat="45.62242" lon="4.93312">
        <ele>255.3</ele>
        <time>2020-06-28T06:16:47.000Z</time>
      </trkpt>
      <trkpt lat="45.62235" lon="4.9331">
        <ele>256.4</ele>
        <time>2020-06-28T06:16:51.000Z</time>
      </trkpt>
      <trkpt lat="45.62227" lon="4.93307">
        <ele>257.5</ele>
        <time>2020-06-28T06:16:55.000Z</time>
      </trkpt>
      <trkpt lat="45.62226" lon="4.93306">
        <ele>257.8</ele>
        <time>2020-06-28T06:16:56.000Z</time>
      </trkpt>
      <trkpt lat="45.6222" lon="4.93304">
        <ele>258.6</ele>
        <time>2020-06-28T06:16:59.000Z</time>
      </trkpt>
      <trkpt lat="45.62213" lon="4.93301">
        <ele>259.7</ele>
        <time>2020-06-28T06:17:03.000Z</time>
      </trkpt>
      <trkpt lat="45.62212" lon="4.93301">
        <ele>260</ele>
        <time>2020-06-28T06:17:04.000Z</time>
      </trkpt>
      <trkpt lat="45.62204" lon="4.93297">
        <ele>261.5</ele>
        <time>2020-06-28T06:17:09.000Z</time>
      </trkpt>
      <trkpt lat="45.62199" lon="4.93295">
        <ele>262.6</ele>
        <time>2020-06-28T06:17:13.000Z</time>
      </trkpt>
      <trkpt lat="45.62197" lon="4.93294">
        <ele>262.9</ele>
        <time>2020-06-28T06:17:14.000Z</time>
      </trkpt>
      <trkpt lat="45.62191" lon="4.93292">
        <ele>264.1</ele>
        <time>2020-06-28T06:17:18.000Z</time>
      </trkpt>
      <trkpt lat="45.62187" lon="4.9329">
        <ele>264.9</ele>
        <time>2020-06-28T06:17:21.000Z</time>
      </trkpt>
      <trkpt lat="45.62185" lon="4.93289">
        <ele>265.2</ele>
        <time>2020-06-28T06:17:22.000Z</time>
      </trkpt>
      <trkpt lat="45.62181" lon="4.93288">
        <ele>265.9</ele>
        <time>2020-06-28T06:17:25.000Z</time>
      </trkpt>
      <trkpt lat="45.62176" lon="4.93286">
        <ele>266.7</ele>
        <time>2020-06-28T06:17:28.000Z</time>
      </trkpt>
      <trkpt lat="45.6217" lon="4.93281">
        <ele>267.8</ele>
        <time>2020-06-28T06:17:33.000Z</time>
      </trkpt>
      <trkpt lat="45.62163" lon="4.93277">
        <ele>268.8</ele>
        <time>2020-06-28T06:17:38.000Z</time>
      </trkpt>
      <trkpt lat="45.62156" lon="4.93273">
        <ele>269.8</ele>
        <time>2020-06-28T06:17:43.000Z</time>
      </trkpt>
      <trkpt lat="45.62151" lon="4.93269">
        <ele>270.5</ele>
        <time>2020-06-28T06:17:46.000Z</time>
      </trkpt>
      <trkpt lat="45.62148" lon="4.93267">
        <ele>270.9</ele>
        <time>2020-06-28T06:17:48.000Z</time>
      </trkpt>
      <trkpt lat="45.6214" lon="4.93261">
        <ele>272</ele>
        <time>2020-06-28T06:17:53.000Z</time>
      </trkpt>
      <trkpt lat="45.62136" lon="4.93259">
        <ele>272.5</ele>
        <time>2020-06-28T06:17:55.000Z</time>
      </trkpt>
      <trkpt lat="45.62133" lon="4.93257">
        <ele>272.9</ele>
        <time>2020-06-28T06:17:57.000Z</time>
      </trkpt>
      <trkpt lat="45.62125" lon="4.93253">
        <ele>273.8</ele>
        <time>2020-06-28T06:18:02.000Z</time>
      </trkpt>
      <trkpt lat="45.62121" lon="4.93252">
        <ele>274.1</ele>
        <time>2020-06-28T06:18:04.000Z</time>
      </trkpt>
      <trkpt lat="45.62115" lon="4.9325">
        <ele>274.7</ele>
        <time>2020-06-28T06:18:07.000Z</time>
      </trkpt>
      <trkpt lat="45.62105" lon="4.93248">
        <ele>276.1</ele>
        <time>2020-06-28T06:18:12.000Z</time>
      </trkpt>
      <trkpt lat="45.62103" lon="4.93247">
        <ele>276.3</ele>
        <time>2020-06-28T06:18:13.000Z</time>
      </trkpt>
      <trkpt lat="45.62091" lon="4.93246">
        <ele>277.6</ele>
        <time>2020-06-28T06:18:19.000Z</time>
      </trkpt>
      <trkpt lat="45.62084" lon="4.93245">
        <ele>278.4</ele>
        <time>2020-06-28T06:18:23.000Z</time>
      </trkpt>
      <trkpt lat="45.62077" lon="4.93245">
        <ele>279.1</ele>
        <time>2020-06-28T06:18:27.000Z</time>
      </trkpt>
      <trkpt lat="45.62075" lon="4.93245">
        <ele>279.3</ele>
        <time>2020-06-28T06:18:28.000Z</time>
      </trkpt>
      <trkpt lat="45.62065" lon="4.93246">
        <ele>280.4</ele>
        <time>2020-06-28T06:18:33.000Z</time>
      </trkpt>
      <trkpt lat="45.62055" lon="4.93247">
        <ele>281.5</ele>
        <time>2020-06-28T06:18:38.000Z</time>
      </trkpt>
      <trkpt lat="45.62053" lon="4.93247">
        <ele>281.7</ele>
        <time>2020-06-28T06:18:39.000Z</time>
      </trkpt>
      <trkpt lat="45.62042" lon="4.93248">
        <ele>282.9</ele>
        <time>2020-06-28T06:18:45.000Z</time>
      </trkpt>
      <trkpt lat="45.62039" lon="4.93247">
        <ele>283.4</ele>
        <time>2020-06-28T06:18:47.000Z</time>
      </trkpt>
      <trkpt lat="45.62035" lon="4.93246">
        <ele>283.9</ele>
        <time>2020-06-28T06:18:50.000Z</time>
      </trkpt>
      <trkpt lat="45.62029" lon="4.93245">
        <ele>284.6</ele>
        <time>2020-06-28T06:18:54.000Z</time>
      </trkpt>
      <trkpt lat="45.62027" lon="4.93245">
        <ele>284.9</ele>
        <time>2020-06-28T06:18:55.000Z</time>
      </trkpt>
      <trkpt lat="45.62019" lon="4.93245">
        <ele>286</ele>
        <time>2020-06-28T06:19:00.000Z</time>
      </trkpt>
      <trkpt lat="45.62017" lon="4.93246">
        <ele>286.2</ele>
        <time>2020-06-28T06:19:01.000Z</time>
      </trkpt>
      <trkpt lat="45.6201" lon="4.93246">
        <ele>287.2</ele>
        <time>2020-06-28T06:19:05.000Z</time>
      </trkpt>
      <trkpt lat="45.61999" lon="4.93245">
        <ele>288.6</ele>
        <time>2020-06-28T06:19:10.000Z</time>
      </trkpt>
      <trkpt lat="45.61997" lon="4.93244">
        <ele>288.8</ele>
        <time>2020-06-28T06:19:11.000Z</time>
      </trkpt>
      <trkpt lat="45.61989" lon="4.93241">
        <ele>289.8</ele>
        <time>2020-06-28T06:19:15.000Z</time>
      </trkpt>
      <trkpt lat="45.6198" lon="4.93237">
        <ele>290.9</ele>
        <time>2020-06-28T06:19:19.000Z</time>
      </trkpt>
      <trkpt lat="45.61978" lon="4.93236">
        <ele>291.2</ele>
        <time>2020-06-28T06:19:20.000Z</time>
      </trkpt>
      <trkpt lat="45.61968" lon="4.93231">
        <ele>292.4</ele>
        <time>2020-06-28T06:19:24.000Z</time>
      </trkpt>
      <trkpt lat="45.61959" lon="4.93227">
        <ele>293.5</ele>
        <time>2020-06-28T06:19:28.000Z</time>
      </trkpt>
      <trkpt lat="45.61957" lon="4.93225">
        <ele>293.7</ele>
        <time>2020-06-28T06:19:29.000Z</time>
      </trkpt>
      <trkpt lat="45.61949" lon="4.93222">
        <ele>294.8</ele>
        <time>2020-06-28T06:19:33.000Z</time>
      </trkpt>
      <trkpt lat="45.6194" lon="4.93219">
        <ele>295.8</ele>
        <time>2020-06-28T06:19:37.000Z</time>
      </trkpt>
      <trkpt lat="45.61932" lon="4.93217">
        <ele>296.8</ele>
        <time>2020-06-28T06:19:41.000Z</time>
      </trkpt>
      <trkpt lat="45.61924" lon="4.93217">
        <ele>297.7</ele>
        <time>2020-06-28T06:19:45.000Z</time>
      </trkpt>
      <trkpt lat="45.61922" lon="4.93217">
        <ele>297.9</ele>
        <time>2020-06-28T06:19:46.000Z</time>
      </trkpt>
      <trkpt lat="45.61914" lon="4.93217">
        <ele>298.8</ele>
        <time>2020-06-28T06:19:51.000Z</time>
      </trkpt>
      <trkpt lat="45.61911" lon="4.93219">
        <ele>299.2</ele>
        <time>2020-06-28T06:19:53.000Z</time>
      </trkpt>
      <trkpt lat="45.61904" lon="4.93221">
        <ele>299.9</ele>
        <time>2020-06-28T06:19:57.000Z</time>
      </trkpt>
      <trkpt lat="45.61896" lon="4.93224">
        <ele>300.7</ele>
        <time>2020-06-28T06:20:01.000Z</time>
      </trkpt>
      <trkpt lat="45.61893" lon="4.93225">
        <ele>301</ele>
        <time>2020-06-28T06:20:03.000Z</time>
      </trkpt>
      <trkpt lat="45.61886" lon="4.93228">
        <ele>301.6</ele>
        <time>2020-06-28T06:20:07.000Z</time>
      </trkpt>
      <trkpt lat="45.61883" lon="4.9323">
        <ele>301.9</ele>
        <time>2020-06-28T06:20:09.000Z</time>
      </trkpt>
      <trkpt lat="45.61874" lon="4.93233">
        <ele>302.6</ele>
        <time>2020-06-28T06:20:14.000Z</time>
      </trkpt>
      <trkpt lat="45.6186" lon="4.93238">
        <ele>303.5</ele>
        <time>2020-06-28T06:20:21.000Z</time>
      </trkpt>
      <trkpt lat="45.6185" lon="4.93238">
        <ele>304.1</ele>
        <time>2020-06-28T06:20:26.000Z</time>
      </trkpt>
      <trkpt lat="45.61849" lon="4.93236">
        <ele>304</ele>
        <time>2020-06-28T06:20:27.000Z</time>
      </trkpt>
      <trkpt lat="45.61852" lon="4.9323">
        <ele>303.9</ele>
        <time>2020-06-28T06:20:30.000Z</time>
      </trkpt>
      <trkpt lat="45.61853" lon="4.93228">
        <ele>303.9</ele>
        <time>2020-06-28T06:20:31.000Z</time>
      </trkpt>
      <trkpt lat="45.61861" lon="4.9321">
        <ele>303.4</ele>
        <time>2020-06-28T06:20:37.000Z</time>
      </trkpt>
      <trkpt lat="45.61864" lon="4.93201">
        <ele>303.1</ele>
        <time>2020-06-28T06:20:39.000Z</time>
      </trkpt>
      <trkpt lat="45.61869" lon="4.93188">
        <ele>302.5</ele>
        <time>2020-06-28T06:20:42.000Z</time>
      </trkpt>
      <trkpt lat="45.61872" lon="4.93177">
        <ele>302</ele>
        <time>2020-06-28T06:20:44.000Z</time>
      </trkpt>
      <trkpt lat="45.6188" lon="4.93147">
        <ele>300.3</ele>
        <time>2020-06-28T06:20:49.000Z</time>
      </trkpt>
      <trkpt lat="45.61883" lon="4.93133">
        <ele>299.4</ele>
        <time>2020-06-28T06:20:51.000Z</time>
      </trkpt>
      <trkpt lat="45.61885" lon="4.93125">
        <ele>298.8</ele>
        <time>2020-06-28T06:20:52.000Z</time>
      </trkpt>
      <trkpt lat="45.61889" lon="4.93108">
        <ele>297.6</ele>
        <time>2020-06-28T06:20:54.000Z</time>
      </trkpt>
      <trkpt lat="45.61898" lon="4.9308">
        <ele>295.5</ele>
        <time>2020-06-28T06:20:57.000Z</time>
      </trkpt>
      <trkpt lat="45.61901" lon="4.93072">
        <ele>294.8</ele>
        <time>2020-06-28T06:20:58.000Z</time>
      </trkpt>
      <trkpt lat="45.61908" lon="4.93048">
        <ele>293.1</ele>
        <time>2020-06-28T06:21:01.000Z</time>
      </trkpt>
      <trkpt lat="45.6191" lon="4.93041">
        <ele>292.5</ele>
        <time>2020-06-28T06:21:02.000Z</time>
      </trkpt>
      <trkpt lat="45.61911" lon="4.93034">
        <ele>292</ele>
        <time>2020-06-28T06:21:03.000Z</time>
      </trkpt>
      <trkpt lat="45.61912" lon="4.93019">
        <ele>290.9</ele>
        <time>2020-06-28T06:21:05.000Z</time>
      </trkpt>
      <trkpt lat="45.61911" lon="4.93004">
        <ele>289.7</ele>
        <time>2020-06-28T06:21:07.000Z</time>
      </trkpt>
      <trkpt lat="45.61911" lon="4.92995">
        <ele>289</ele>
        <time>2020-06-28T06:21:08.000Z</time>
      </trkpt>
      <trkpt lat="45.61912" lon="4.92965">
        <ele>286.6</ele>
        <time>2020-06-28T06:21:11.000Z</time>
      </trkpt>
      <trkpt lat="45.61913" lon="4.92954">
        <ele>285.8</ele>
        <time>2020-06-28T06:21:12.000Z</time>
      </trkpt>
      <trkpt lat="45.61916" lon="4.92931">
        <ele>284.1</ele>
        <time>2020-06-28T06:21:14.000Z</time>
      </trkpt>
      <trkpt lat="45.61918" lon="4.92908">
        <ele>282.8</ele>
        <time>2020-06-28T06:21:16.000Z</time>
      </trkpt>
      <trkpt lat="45.61921" lon="4.92891">
        <ele>281.9</ele>
        <time>2020-06-28T06:21:18.000Z</time>
      </trkpt>
      <trkpt lat="45.61929" lon="4.92881">
        <ele>281.2</ele>
        <time>2020-06-28T06:21:20.000Z</time>
      </trkpt>
      <trkpt lat="45.61934" lon="4.92879">
        <ele>280.8</ele>
        <time>2020-06-28T06:21:21.000Z</time>
      </trkpt>
      <trkpt lat="45.61938" lon="4.92877">
        <ele>280.5</ele>
        <time>2020-06-28T06:21:22.000Z</time>
      </trkpt>
      <trkpt lat="45.61945" lon="4.92876">
        <ele>280</ele>
        <time>2020-06-28T06:21:24.000Z</time>
      </trkpt>
      <trkpt lat="45.61948" lon="4.92875">
        <ele>279.2</ele>
        <time>2020-06-28T06:21:25.000Z</time>
      </trkpt>
      <trkpt lat="45.61954" lon="4.92863">
        <ele>278.5</ele>
        <time>2020-06-28T06:21:28.000Z</time>
      </trkpt>
      <trkpt lat="45.61955" lon="4.92857">
        <ele>278.2</ele>
        <time>2020-06-28T06:21:29.000Z</time>
      </trkpt>
      <trkpt lat="45.61956" lon="4.92851">
        <ele>277.8</ele>
        <time>2020-06-28T06:21:30.000Z</time>
      </trkpt>
      <trkpt lat="45.61958" lon="4.92837">
        <ele>277.1</ele>
        <time>2020-06-28T06:21:32.000Z</time>
      </trkpt>
      <trkpt lat="45.61962" lon="4.92821">
        <ele>276.3</ele>
        <time>2020-06-28T06:21:34.000Z</time>
      </trkpt>
      <trkpt lat="45.61964" lon="4.92813">
        <ele>275.8</ele>
        <time>2020-06-28T06:21:35.000Z</time>
      </trkpt>
      <trkpt lat="45.61967" lon="4.92785">
        <ele>274.5</ele>
        <time>2020-06-28T06:21:38.000Z</time>
      </trkpt>
      <trkpt lat="45.61967" lon="4.92765">
        <ele>273.5</ele>
        <time>2020-06-28T06:21:40.000Z</time>
      </trkpt>
      <trkpt lat="45.61966" lon="4.92736">
        <ele>271.4</ele>
        <time>2020-06-28T06:21:43.000Z</time>
      </trkpt>
      <trkpt lat="45.61966" lon="4.92727">
        <ele>270.6</ele>
        <time>2020-06-28T06:21:44.000Z</time>
      </trkpt>
      <trkpt lat="45.61967" lon="4.92717">
        <ele>269.8</ele>
        <time>2020-06-28T06:21:45.000Z</time>
      </trkpt>
      <trkpt lat="45.61967" lon="4.92707">
        <ele>268.9</ele>
        <time>2020-06-28T06:21:46.000Z</time>
      </trkpt>
      <trkpt lat="45.61969" lon="4.92697">
        <ele>267.9</ele>
        <time>2020-06-28T06:21:47.000Z</time>
      </trkpt>
      <trkpt lat="45.61971" lon="4.92686">
        <ele>266.9</ele>
        <time>2020-06-28T06:21:48.000Z</time>
      </trkpt>
      <trkpt lat="45.61974" lon="4.92675">
        <ele>265.8</ele>
        <time>2020-06-28T06:21:49.000Z</time>
      </trkpt>
      <trkpt lat="45.61983" lon="4.92642">
        <ele>262.8</ele>
        <time>2020-06-28T06:21:52.000Z</time>
      </trkpt>
      <trkpt lat="45.61986" lon="4.92631">
        <ele>261.8</ele>
        <time>2020-06-28T06:21:53.000Z</time>
      </trkpt>
      <trkpt lat="45.6199" lon="4.92619">
        <ele>260.6</ele>
        <time>2020-06-28T06:21:54.000Z</time>
      </trkpt>
      <trkpt lat="45.62" lon="4.92595">
        <ele>258.2</ele>
        <time>2020-06-28T06:21:56.000Z</time>
      </trkpt>
      <trkpt lat="45.62006" lon="4.92584">
        <ele>257.1</ele>
        <time>2020-06-28T06:21:57.000Z</time>
      </trkpt>
      <trkpt lat="45.62017" lon="4.92562">
        <ele>255.3</ele>
        <time>2020-06-28T06:21:59.000Z</time>
      </trkpt>
      <trkpt lat="45.62026" lon="4.92545">
        <ele>253.8</ele>
        <time>2020-06-28T06:22:01.000Z</time>
      </trkpt>
      <trkpt lat="45.62031" lon="4.92539">
        <ele>253.2</ele>
        <time>2020-06-28T06:22:02.000Z</time>
      </trkpt>
      <trkpt lat="45.62038" lon="4.92534">
        <ele>252.5</ele>
        <time>2020-06-28T06:22:03.000Z</time>
      </trkpt>
      <trkpt lat="45.62045" lon="4.92533">
        <ele>251.8</ele>
        <time>2020-06-28T06:22:04.000Z</time>
      </trkpt>
      <trkpt lat="45.62052" lon="4.92533">
        <ele>251.1</ele>
        <time>2020-06-28T06:22:05.000Z</time>
      </trkpt>
      <trkpt lat="45.62058" lon="4.92534">
        <ele>250.4</ele>
        <time>2020-06-28T06:22:06.000Z</time>
      </trkpt>
      <trkpt lat="45.62064" lon="4.92537">
        <ele>249.7</ele>
        <time>2020-06-28T06:22:07.000Z</time>
      </trkpt>
      <trkpt lat="45.62071" lon="4.92538">
        <ele>249</ele>
        <time>2020-06-28T06:22:08.000Z</time>
      </trkpt>
      <trkpt lat="45.62081" lon="4.92536">
        <ele>247.7</ele>
        <time>2020-06-28T06:22:10.000Z</time>
      </trkpt>
      <trkpt lat="45.62086" lon="4.92533">
        <ele>247.1</ele>
        <time>2020-06-28T06:22:11.000Z</time>
      </trkpt>
      <trkpt lat="45.62096" lon="4.92523">
        <ele>245.8</ele>
        <time>2020-06-28T06:22:13.000Z</time>
      </trkpt>
      <trkpt lat="45.62105" lon="4.92514">
        <ele>244.6</ele>
        <time>2020-06-28T06:22:15.000Z</time>
      </trkpt>
      <trkpt lat="45.6212" lon="4.92501">
        <ele>243.1</ele>
        <time>2020-06-28T06:22:18.000Z</time>
      </trkpt>
      <trkpt lat="45.62125" lon="4.92496">
        <ele>242.6</ele>
        <time>2020-06-28T06:22:19.000Z</time>
      </trkpt>
      <trkpt lat="45.62134" lon="4.92486">
        <ele>241.6</ele>
        <time>2020-06-28T06:22:21.000Z</time>
      </trkpt>
      <trkpt lat="45.62137" lon="4.92478">
        <ele>241.1</ele>
        <time>2020-06-28T06:22:22.000Z</time>
      </trkpt>
      <trkpt lat="45.62139" lon="4.9246">
        <ele>240.1</ele>
        <time>2020-06-28T06:22:24.000Z</time>
      </trkpt>
      <trkpt lat="45.6214" lon="4.9245">
        <ele>239.6</ele>
        <time>2020-06-28T06:22:25.000Z</time>
      </trkpt>
      <trkpt lat="45.62139" lon="4.92439">
        <ele>239</ele>
        <time>2020-06-28T06:22:26.000Z</time>
      </trkpt>
      <trkpt lat="45.62138" lon="4.92419">
        <ele>237.9</ele>
        <time>2020-06-28T06:22:28.000Z</time>
      </trkpt>
      <trkpt lat="45.6214" lon="4.92412">
        <ele>237.4</ele>
        <time>2020-06-28T06:22:29.000Z</time>
      </trkpt>
      <trkpt lat="45.62146" lon="4.92402">
        <ele>236.6</ele>
        <time>2020-06-28T06:22:31.000Z</time>
      </trkpt>
      <trkpt lat="45.62151" lon="4.924">
        <ele>236.2</ele>
        <time>2020-06-28T06:22:32.000Z</time>
      </trkpt>
      <trkpt lat="45.62157" lon="4.92397">
        <ele>235.7</ele>
        <time>2020-06-28T06:22:33.000Z</time>
      </trkpt>
      <trkpt lat="45.62163" lon="4.92394">
        <ele>235.1</ele>
        <time>2020-06-28T06:22:34.000Z</time>
      </trkpt>
      <trkpt lat="45.62168" lon="4.9239">
        <ele>234.6</ele>
        <time>2020-06-28T06:22:35.000Z</time>
      </trkpt>
      <trkpt lat="45.62171" lon="4.92384">
        <ele>234.1</ele>
        <time>2020-06-28T06:22:36.000Z</time>
      </trkpt>
      <trkpt lat="45.62172" lon="4.92371">
        <ele>233.2</ele>
        <time>2020-06-28T06:22:38.000Z</time>
      </trkpt>
      <trkpt lat="45.6217" lon="4.92363">
        <ele>232.4</ele>
        <time>2020-06-28T06:22:39.000Z</time>
      </trkpt>
      <trkpt lat="45.62167" lon="4.92355">
        <ele>232</ele>
        <time>2020-06-28T06:22:40.000Z</time>
      </trkpt>
      <trkpt lat="45.62165" lon="4.92348">
        <ele>231.6</ele>
        <time>2020-06-28T06:22:41.000Z</time>
      </trkpt>
      <trkpt lat="45.62161" lon="4.92338">
        <ele>231</ele>
        <time>2020-06-28T06:22:43.000Z</time>
      </trkpt>
      <trkpt lat="45.6216" lon="4.92334">
        <ele>230.8</ele>
        <time>2020-06-28T06:22:44.000Z</time>
      </trkpt>
      <trkpt lat="45.62155" lon="4.92318">
        <ele>229.8</ele>
        <time>2020-06-28T06:22:47.000Z</time>
      </trkpt>
      <trkpt lat="45.62152" lon="4.92312">
        <ele>229.4</ele>
        <time>2020-06-28T06:22:48.000Z</time>
      </trkpt>
      <trkpt lat="45.62142" lon="4.92282">
        <ele>227.4</ele>
        <time>2020-06-28T06:22:52.000Z</time>
      </trkpt>
      <trkpt lat="45.62138" lon="4.92269">
        <ele>226.6</ele>
        <time>2020-06-28T06:22:54.000Z</time>
      </trkpt>
      <trkpt lat="45.62138" lon="4.92263">
        <ele>226.1</ele>
        <time>2020-06-28T06:22:55.000Z</time>
      </trkpt>
      <trkpt lat="45.62139" lon="4.92257">
        <ele>225.6</ele>
        <time>2020-06-28T06:22:56.000Z</time>
      </trkpt>
      <trkpt lat="45.6214" lon="4.92252">
        <ele>225.1</ele>
        <time>2020-06-28T06:22:57.000Z</time>
      </trkpt>
      <trkpt lat="45.62143" lon="4.92245">
        <ele>224.3</ele>
        <time>2020-06-28T06:22:58.000Z</time>
      </trkpt>
      <trkpt lat="45.62151" lon="4.92229">
        <ele>222.4</ele>
        <time>2020-06-28T06:23:00.000Z</time>
      </trkpt>
      <trkpt lat="45.62156" lon="4.9222">
        <ele>221.1</ele>
        <time>2020-06-28T06:23:01.000Z</time>
      </trkpt>
      <trkpt lat="45.62168" lon="4.92199">
        <ele>218.9</ele>
        <time>2020-06-28T06:23:03.000Z</time>
      </trkpt>
      <trkpt lat="45.62173" lon="4.9219">
        <ele>218.3</ele>
        <time>2020-06-28T06:23:04.000Z</time>
      </trkpt>
      <trkpt lat="45.62177" lon="4.92181">
        <ele>217.9</ele>
        <time>2020-06-28T06:23:05.000Z</time>
      </trkpt>
      <trkpt lat="45.62182" lon="4.92174">
        <ele>217.5</ele>
        <time>2020-06-28T06:23:06.000Z</time>
      </trkpt>
      <trkpt lat="45.62187" lon="4.92169">
        <ele>217.5</ele>
        <time>2020-06-28T06:23:07.000Z</time>
      </trkpt>
      <trkpt lat="45.62192" lon="4.92167">
        <ele>217.6</ele>
        <time>2020-06-28T06:23:08.000Z</time>
      </trkpt>
      <trkpt lat="45.62197" lon="4.92164">
        <ele>217.5</ele>
        <time>2020-06-28T06:23:09.000Z</time>
      </trkpt>
      <trkpt lat="45.62202" lon="4.9216">
        <ele>217.6</ele>
        <time>2020-06-28T06:23:10.000Z</time>
      </trkpt>
      <trkpt lat="45.62206" lon="4.92156">
        <ele>217.6</ele>
        <time>2020-06-28T06:23:11.000Z</time>
      </trkpt>
      <trkpt lat="45.62213" lon="4.9215">
        <ele>217.8</ele>
        <time>2020-06-28T06:23:13.000Z</time>
      </trkpt>
      <trkpt lat="45.6222" lon="4.9214">
        <ele>218</ele>
        <time>2020-06-28T06:23:17.000Z</time>
      </trkpt>
      <trkpt lat="45.62221" lon="4.92137">
        <ele>218.1</ele>
        <time>2020-06-28T06:23:18.000Z</time>
      </trkpt>
      <trkpt lat="45.62218" lon="4.9212">
        <ele>218.5</ele>
        <time>2020-06-28T06:23:22.000Z</time>
      </trkpt>
      <trkpt lat="45.62214" lon="4.9211">
        <ele>218.5</ele>
        <time>2020-06-28T06:23:24.000Z</time>
      </trkpt>
      <trkpt lat="45.62205" lon="4.9209">
        <ele>218.7</ele>
        <time>2020-06-28T06:23:28.000Z</time>
      </trkpt>
      <trkpt lat="45.62201" lon="4.9208">
        <ele>218.8</ele>
        <time>2020-06-28T06:23:30.000Z</time>
      </trkpt>
      <trkpt lat="45.62173" lon="4.92033">
        <ele>219.6</ele>
        <time>2020-06-28T06:23:40.000Z</time>
      </trkpt>
      <trkpt lat="45.62161" lon="4.92032">
        <ele>219.8</ele>
        <time>2020-06-28T06:23:43.000Z</time>
      </trkpt>
      <trkpt lat="45.62142" lon="4.92045">
        <ele>220.4</ele>
        <time>2020-06-28T06:23:48.000Z</time>
      </trkpt>
      <trkpt lat="45.62124" lon="4.92063">
        <ele>221.4</ele>
        <time>2020-06-28T06:23:54.000Z</time>
      </trkpt>
      <trkpt lat="45.62115" lon="4.9207">
        <ele>221.9</ele>
        <time>2020-06-28T06:23:57.000Z</time>
      </trkpt>
      <trkpt lat="45.62112" lon="4.92073">
        <ele>222.1</ele>
        <time>2020-06-28T06:23:58.000Z</time>
      </trkpt>
      <trkpt lat="45.62095" lon="4.92083">
        <ele>223.2</ele>
        <time>2020-06-28T06:24:04.000Z</time>
      </trkpt>
      <trkpt lat="45.62092" lon="4.92084">
        <ele>223.4</ele>
        <time>2020-06-28T06:24:05.000Z</time>
      </trkpt>
      <trkpt lat="45.6208" lon="4.9209">
        <ele>224.6</ele>
        <time>2020-06-28T06:24:09.000Z</time>
      </trkpt>
      <trkpt lat="45.62065" lon="4.92099">
        <ele>225.6</ele>
        <time>2020-06-28T06:24:14.000Z</time>
      </trkpt>
      <trkpt lat="45.6204" lon="4.92116">
        <ele>227.2</ele>
        <time>2020-06-28T06:24:23.000Z</time>
      </trkpt>
      <trkpt lat="45.62038" lon="4.92118">
        <ele>227.4</ele>
        <time>2020-06-28T06:24:24.000Z</time>
      </trkpt>
      <trkpt lat="45.62023" lon="4.9213">
        <ele>229.1</ele>
        <time>2020-06-28T06:24:30.000Z</time>
      </trkpt>
      <trkpt lat="45.6202" lon="4.92132">
        <ele>229.4</ele>
        <time>2020-06-28T06:24:31.000Z</time>
      </trkpt>
      <trkpt lat="45.62011" lon="4.92139">
        <ele>230.7</ele>
        <time>2020-06-28T06:24:35.000Z</time>
      </trkpt>
      <trkpt lat="45.62003" lon="4.92145">
        <ele>232</ele>
        <time>2020-06-28T06:24:39.000Z</time>
      </trkpt>
      <trkpt lat="45.61996" lon="4.92149">
        <ele>233</ele>
        <time>2020-06-28T06:24:42.000Z</time>
      </trkpt>
      <trkpt lat="45.6199" lon="4.92155">
        <ele>234</ele>
        <time>2020-06-28T06:24:45.000Z</time>
      </trkpt>
      <trkpt lat="45.61989" lon="4.92157">
        <ele>234.2</ele>
        <time>2020-06-28T06:24:46.000Z</time>
      </trkpt>
      <trkpt lat="45.61985" lon="4.9216">
        <ele>234.7</ele>
        <time>2020-06-28T06:24:48.000Z</time>
      </trkpt>
      <trkpt lat="45.61981" lon="4.92167">
        <ele>235.5</ele>
        <time>2020-06-28T06:24:51.000Z</time>
      </trkpt>
      <trkpt lat="45.61977" lon="4.92174">
        <ele>236.2</ele>
        <time>2020-06-28T06:24:54.000Z</time>
      </trkpt>
      <trkpt lat="45.61975" lon="4.92176">
        <ele>236.4</ele>
        <time>2020-06-28T06:24:55.000Z</time>
      </trkpt>
      <trkpt lat="45.61968" lon="4.92178">
        <ele>237.1</ele>
        <time>2020-06-28T06:24:59.000Z</time>
      </trkpt>
      <trkpt lat="45.61966" lon="4.92177">
        <ele>237.2</ele>
        <time>2020-06-28T06:25:00.000Z</time>
      </trkpt>
      <trkpt lat="45.61964" lon="4.92169">
        <ele>237.7</ele>
        <time>2020-06-28T06:25:03.000Z</time>
      </trkpt>
      <trkpt lat="45.61963" lon="4.92165">
        <ele>237.9</ele>
        <time>2020-06-28T06:25:04.000Z</time>
      </trkpt>
      <trkpt lat="45.61964" lon="4.92159">
        <ele>238.2</ele>
        <time>2020-06-28T06:25:06.000Z</time>
      </trkpt>
      <trkpt lat="45.61965" lon="4.92146">
        <ele>238.9</ele>
        <time>2020-06-28T06:25:10.000Z</time>
      </trkpt>
      <trkpt lat="45.61966" lon="4.92143">
        <ele>239.1</ele>
        <time>2020-06-28T06:25:11.000Z</time>
      </trkpt>
      <trkpt lat="45.61969" lon="4.92121">
        <ele>240.4</ele>
        <time>2020-06-28T06:25:18.000Z</time>
      </trkpt>
      <trkpt lat="45.61969" lon="4.92117">
        <ele>240.6</ele>
        <time>2020-06-28T06:25:19.000Z</time>
      </trkpt>
      <trkpt lat="45.61969" lon="4.92089">
        <ele>242.3</ele>
        <time>2020-06-28T06:25:27.000Z</time>
      </trkpt>
      <trkpt lat="45.61964" lon="4.92068">
        <ele>244</ele>
        <time>2020-06-28T06:25:34.000Z</time>
      </trkpt>
      <trkpt lat="45.61963" lon="4.92065">
        <ele>244.2</ele>
        <time>2020-06-28T06:25:35.000Z</time>
      </trkpt>
      <trkpt lat="45.6196" lon="4.92057">
        <ele>245.1</ele>
        <time>2020-06-28T06:25:38.000Z</time>
      </trkpt>
      <trkpt lat="45.61956" lon="4.92044">
        <ele>246.4</ele>
        <time>2020-06-28T06:25:43.000Z</time>
      </trkpt>
      <trkpt lat="45.61952" lon="4.92031">
        <ele>247.7</ele>
        <time>2020-06-28T06:25:48.000Z</time>
      </trkpt>
      <trkpt lat="45.6195" lon="4.92026">
        <ele>248.2</ele>
        <time>2020-06-28T06:25:50.000Z</time>
      </trkpt>
      <trkpt lat="45.61948" lon="4.9202">
        <ele>248.9</ele>
        <time>2020-06-28T06:25:53.000Z</time>
      </trkpt>
      <trkpt lat="45.61944" lon="4.92009">
        <ele>250.1</ele>
        <time>2020-06-28T06:25:58.000Z</time>
      </trkpt>
      <trkpt lat="45.61939" lon="4.91999">
        <ele>251.3</ele>
        <time>2020-06-28T06:26:03.000Z</time>
      </trkpt>
      <trkpt lat="45.61935" lon="4.91991">
        <ele>252.3</ele>
        <time>2020-06-28T06:26:07.000Z</time>
      </trkpt>
      <trkpt lat="45.61933" lon="4.91989">
        <ele>252.6</ele>
        <time>2020-06-28T06:26:08.000Z</time>
      </trkpt>
      <trkpt lat="45.61928" lon="4.91979">
        <ele>253.7</ele>
        <time>2020-06-28T06:26:13.000Z</time>
      </trkpt>
      <trkpt lat="45.61927" lon="4.91978">
        <ele>253.9</ele>
        <time>2020-06-28T06:26:14.000Z</time>
      </trkpt>
      <trkpt lat="45.61926" lon="4.91977">
        <ele>254.1</ele>
        <time>2020-06-28T06:26:15.000Z</time>
      </trkpt>
      <trkpt lat="45.61924" lon="4.91972">
        <ele>254.8</ele>
        <time>2020-06-28T06:26:18.000Z</time>
      </trkpt>
      <trkpt lat="45.61923" lon="4.91971">
        <ele>255.1</ele>
        <time>2020-06-28T06:26:19.000Z</time>
      </trkpt>
      <trkpt lat="45.6192" lon="4.91968">
        <ele>255.8</ele>
        <time>2020-06-28T06:26:22.000Z</time>
      </trkpt>
      <trkpt lat="45.61919" lon="4.91968">
        <ele>256</ele>
        <time>2020-06-28T06:26:24.000Z</time>
      </trkpt>
      <trkpt lat="45.61917" lon="4.91974">
        <ele>256.9</ele>
        <time>2020-06-28T06:26:28.000Z</time>
      </trkpt>
      <trkpt lat="45.61915" lon="4.91979">
        <ele>257.6</ele>
        <time>2020-06-28T06:26:31.000Z</time>
      </trkpt>
      <trkpt lat="45.61913" lon="4.91989">
        <ele>258.8</ele>
        <time>2020-06-28T06:26:36.000Z</time>
      </trkpt>
      <trkpt lat="45.61911" lon="4.91998">
        <ele>259.8</ele>
        <time>2020-06-28T06:26:41.000Z</time>
      </trkpt>
      <trkpt lat="45.61911" lon="4.92005">
        <ele>260.5</ele>
        <time>2020-06-28T06:26:44.000Z</time>
      </trkpt>
      <trkpt lat="45.6191" lon="4.92011">
        <ele>261</ele>
        <time>2020-06-28T06:26:47.000Z</time>
      </trkpt>
      <trkpt lat="45.61904" lon="4.92016">
        <ele>261.9</ele>
        <time>2020-06-28T06:26:51.000Z</time>
      </trkpt>
      <trkpt lat="45.61902" lon="4.92017">
        <ele>262.2</ele>
        <time>2020-06-28T06:26:52.000Z</time>
      </trkpt>
      <trkpt lat="45.61894" lon="4.92022">
        <ele>263.2</ele>
        <time>2020-06-28T06:26:56.000Z</time>
      </trkpt>
      <trkpt lat="45.61892" lon="4.92023">
        <ele>263.4</ele>
        <time>2020-06-28T06:26:57.000Z</time>
      </trkpt>
      <trkpt lat="45.61881" lon="4.92033">
        <ele>264.7</ele>
        <time>2020-06-28T06:27:03.000Z</time>
      </trkpt>
      <trkpt lat="45.61879" lon="4.92035">
        <ele>264.9</ele>
        <time>2020-06-28T06:27:04.000Z</time>
      </trkpt>
      <trkpt lat="45.61867" lon="4.92045">
        <ele>266</ele>
        <time>2020-06-28T06:27:10.000Z</time>
      </trkpt>
      <trkpt lat="45.61864" lon="4.92047">
        <ele>266.3</ele>
        <time>2020-06-28T06:27:12.000Z</time>
      </trkpt>
      <trkpt lat="45.6185" lon="4.92057">
        <ele>267.5</ele>
        <time>2020-06-28T06:27:19.000Z</time>
      </trkpt>
      <trkpt lat="45.61847" lon="4.92059">
        <ele>267.9</ele>
        <time>2020-06-28T06:27:21.000Z</time>
      </trkpt>
      <trkpt lat="45.61839" lon="4.92065">
        <ele>268.7</ele>
        <time>2020-06-28T06:27:25.000Z</time>
      </trkpt>
      <trkpt lat="45.61833" lon="4.92068">
        <ele>269.3</ele>
        <time>2020-06-28T06:27:28.000Z</time>
      </trkpt>
      <trkpt lat="45.61827" lon="4.92073">
        <ele>269.9</ele>
        <time>2020-06-28T06:27:31.000Z</time>
      </trkpt>
      <trkpt lat="45.61816" lon="4.92084">
        <ele>270.9</ele>
        <time>2020-06-28T06:27:37.000Z</time>
      </trkpt>
      <trkpt lat="45.61803" lon="4.92095">
        <ele>272.1</ele>
        <time>2020-06-28T06:27:43.000Z</time>
      </trkpt>
      <trkpt lat="45.61798" lon="4.92101">
        <ele>272.7</ele>
        <time>2020-06-28T06:27:46.000Z</time>
      </trkpt>
      <trkpt lat="45.61793" lon="4.92107">
        <ele>273.2</ele>
        <time>2020-06-28T06:27:49.000Z</time>
      </trkpt>
      <trkpt lat="45.61789" lon="4.92115">
        <ele>273.7</ele>
        <time>2020-06-28T06:27:52.000Z</time>
      </trkpt>
      <trkpt lat="45.61787" lon="4.9212">
        <ele>274</ele>
        <time>2020-06-28T06:27:54.000Z</time>
      </trkpt>
      <trkpt lat="45.61779" lon="4.92135">
        <ele>274.9</ele>
        <time>2020-06-28T06:27:59.000Z</time>
      </trkpt>
      <trkpt lat="45.6177" lon="4.92156">
        <ele>275.5</ele>
        <time>2020-06-28T06:28:05.000Z</time>
      </trkpt>
      <trkpt lat="45.6176" lon="4.92173">
        <ele>275.7</ele>
        <time>2020-06-28T06:28:10.000Z</time>
      </trkpt>
      <trkpt lat="45.61753" lon="4.92178">
        <ele>275.8</ele>
        <time>2020-06-28T06:28:12.000Z</time>
      </trkpt>
      <trkpt lat="45.61733" lon="4.92188">
        <ele>276.2</ele>
        <time>2020-06-28T06:28:18.000Z</time>
      </trkpt>
      <trkpt lat="45.6173" lon="4.9219">
        <ele>276.3</ele>
        <time>2020-06-28T06:28:19.000Z</time>
      </trkpt>
      <trkpt lat="45.61707" lon="4.92202">
        <ele>277.5</ele>
        <time>2020-06-28T06:28:27.000Z</time>
      </trkpt>
      <trkpt lat="45.61701" lon="4.92205">
        <ele>277.8</ele>
        <time>2020-06-28T06:28:29.000Z</time>
      </trkpt>
      <trkpt lat="45.61685" lon="4.92213">
        <ele>279.1</ele>
        <time>2020-06-28T06:28:35.000Z</time>
      </trkpt>
      <trkpt lat="45.6168" lon="4.92214">
        <ele>279.6</ele>
        <time>2020-06-28T06:28:37.000Z</time>
      </trkpt>
      <trkpt lat="45.61673" lon="4.92214">
        <ele>280.3</ele>
        <time>2020-06-28T06:28:40.000Z</time>
      </trkpt>
      <trkpt lat="45.61663" lon="4.92211">
        <ele>281.4</ele>
        <time>2020-06-28T06:28:44.000Z</time>
      </trkpt>
      <trkpt lat="45.61661" lon="4.9221">
        <ele>281.6</ele>
        <time>2020-06-28T06:28:45.000Z</time>
      </trkpt>
      <trkpt lat="45.61655" lon="4.92205">
        <ele>282.5</ele>
        <time>2020-06-28T06:28:48.000Z</time>
      </trkpt>
      <trkpt lat="45.6165" lon="4.92199">
        <ele>283.3</ele>
        <time>2020-06-28T06:28:51.000Z</time>
      </trkpt>
      <trkpt lat="45.61647" lon="4.92195">
        <ele>283.8</ele>
        <time>2020-06-28T06:28:53.000Z</time>
      </trkpt>
      <trkpt lat="45.61639" lon="4.92186">
        <ele>285</ele>
        <time>2020-06-28T06:28:58.000Z</time>
      </trkpt>
      <trkpt lat="45.61635" lon="4.92182">
        <ele>285.4</ele>
        <time>2020-06-28T06:29:00.000Z</time>
      </trkpt>
      <trkpt lat="45.61632" lon="4.92179">
        <ele>285.9</ele>
        <time>2020-06-28T06:29:02.000Z</time>
      </trkpt>
      <trkpt lat="45.61625" lon="4.92172">
        <ele>286.8</ele>
        <time>2020-06-28T06:29:06.000Z</time>
      </trkpt>
      <trkpt lat="45.61619" lon="4.92167">
        <ele>287.4</ele>
        <time>2020-06-28T06:29:09.000Z</time>
      </trkpt>
      <trkpt lat="45.61615" lon="4.92164">
        <ele>287.8</ele>
        <time>2020-06-28T06:29:11.000Z</time>
      </trkpt>
      <trkpt lat="45.61608" lon="4.9216">
        <ele>288.7</ele>
        <time>2020-06-28T06:29:15.000Z</time>
      </trkpt>
      <trkpt lat="45.61599" lon="4.92158">
        <ele>289.5</ele>
        <time>2020-06-28T06:29:20.000Z</time>
      </trkpt>
      <trkpt lat="45.61597" lon="4.92157">
        <ele>289.7</ele>
        <time>2020-06-28T06:29:21.000Z</time>
      </trkpt>
      <trkpt lat="45.61592" lon="4.92156">
        <ele>290.1</ele>
        <time>2020-06-28T06:29:25.000Z</time>
      </trkpt>
      <trkpt lat="45.61588" lon="4.92154">
        <ele>290.4</ele>
        <time>2020-06-28T06:29:28.000Z</time>
      </trkpt>
      <trkpt lat="45.61577" lon="4.9215">
        <ele>291.1</ele>
        <time>2020-06-28T06:29:35.000Z</time>
      </trkpt>
      <trkpt lat="45.61575" lon="4.92149">
        <ele>291.2</ele>
        <time>2020-06-28T06:29:36.000Z</time>
      </trkpt>
      <trkpt lat="45.61566" lon="4.92146">
        <ele>291.7</ele>
        <time>2020-06-28T06:29:40.000Z</time>
      </trkpt>
      <trkpt lat="45.61561" lon="4.92143">
        <ele>292</ele>
        <time>2020-06-28T06:29:43.000Z</time>
      </trkpt>
      <trkpt lat="45.61541" lon="4.92138">
        <ele>293.1</ele>
        <time>2020-06-28T06:29:51.000Z</time>
      </trkpt>
      <trkpt lat="45.61518" lon="4.92145">
        <ele>294.6</ele>
        <time>2020-06-28T06:29:58.000Z</time>
      </trkpt>
      <trkpt lat="45.615" lon="4.92149">
        <ele>295.7</ele>
        <time>2020-06-28T06:30:03.000Z</time>
      </trkpt>
      <trkpt lat="45.61494" lon="4.92151">
        <ele>296</ele>
        <time>2020-06-28T06:30:05.000Z</time>
      </trkpt>
      <trkpt lat="45.61481" lon="4.92154">
        <ele>296.8</ele>
        <time>2020-06-28T06:30:10.000Z</time>
      </trkpt>
      <trkpt lat="45.61468" lon="4.92158">
        <ele>297.5</ele>
        <time>2020-06-28T06:30:15.000Z</time>
      </trkpt>
      <trkpt lat="45.61458" lon="4.9216">
        <ele>298.2</ele>
        <time>2020-06-28T06:30:19.000Z</time>
      </trkpt>
      <trkpt lat="45.61443" lon="4.92164">
        <ele>299.3</ele>
        <time>2020-06-28T06:30:25.000Z</time>
      </trkpt>
      <trkpt lat="45.61436" lon="4.92168">
        <ele>299.9</ele>
        <time>2020-06-28T06:30:28.000Z</time>
      </trkpt>
      <trkpt lat="45.61428" lon="4.92172">
        <ele>300.5</ele>
        <time>2020-06-28T06:30:32.000Z</time>
      </trkpt>
      <trkpt lat="45.61424" lon="4.92174">
        <ele>300.8</ele>
        <time>2020-06-28T06:30:34.000Z</time>
      </trkpt>
      <trkpt lat="45.61419" lon="4.92177">
        <ele>301.2</ele>
        <time>2020-06-28T06:30:38.000Z</time>
      </trkpt>
      <trkpt lat="45.61413" lon="4.9218">
        <ele>301.7</ele>
        <time>2020-06-28T06:30:41.000Z</time>
      </trkpt>
      <trkpt lat="45.61407" lon="4.92183">
        <ele>302.2</ele>
        <time>2020-06-28T06:30:44.000Z</time>
      </trkpt>
      <trkpt lat="45.61404" lon="4.92185">
        <ele>302.5</ele>
        <time>2020-06-28T06:30:46.000Z</time>
      </trkpt>
      <trkpt lat="45.61396" lon="4.92186">
        <ele>304.7</ele>
        <time>2020-06-28T06:30:52.000Z</time>
      </trkpt>
      <trkpt lat="45.61395" lon="4.92185">
        <ele>304.8</ele>
        <time>2020-06-28T06:30:53.000Z</time>
      </trkpt>
      <trkpt lat="45.61392" lon="4.92178">
        <ele>305.7</ele>
        <time>2020-06-28T06:30:58.000Z</time>
      </trkpt>
      <trkpt lat="45.61392" lon="4.92176">
        <ele>305.8</ele>
        <time>2020-06-28T06:30:59.000Z</time>
      </trkpt>
      <trkpt lat="45.61387" lon="4.92162">
        <ele>307</ele>
        <time>2020-06-28T06:31:06.000Z</time>
      </trkpt>
      <trkpt lat="45.61385" lon="4.92151">
        <ele>307.8</ele>
        <time>2020-06-28T06:31:11.000Z</time>
      </trkpt>
      <trkpt lat="45.61385" lon="4.92143">
        <ele>308.2</ele>
        <time>2020-06-28T06:31:14.000Z</time>
      </trkpt>
      <trkpt lat="45.61383" lon="4.92133">
        <ele>308.8</ele>
        <time>2020-06-28T06:31:17.000Z</time>
      </trkpt>
      <trkpt lat="45.61382" lon="4.92116">
        <ele>309.6</ele>
        <time>2020-06-28T06:31:22.000Z</time>
      </trkpt>
      <trkpt lat="45.61382" lon="4.92112">
        <ele>309.7</ele>
        <time>2020-06-28T06:31:23.000Z</time>
      </trkpt>
      <trkpt lat="45.6138" lon="4.92092">
        <ele>310.6</ele>
        <time>2020-06-28T06:31:29.000Z</time>
      </trkpt>
      <trkpt lat="45.61378" lon="4.92079">
        <ele>311.3</ele>
        <time>2020-06-28T06:31:33.000Z</time>
      </trkpt>
      <trkpt lat="45.61375" lon="4.92066">
        <ele>311.9</ele>
        <time>2020-06-28T06:31:37.000Z</time>
      </trkpt>
      <trkpt lat="45.61374" lon="4.92064">
        <ele>312.1</ele>
        <time>2020-06-28T06:31:38.000Z</time>
      </trkpt>
      <trkpt lat="45.61365" lon="4.92047">
        <ele>312.9</ele>
        <time>2020-06-28T06:31:44.000Z</time>
      </trkpt>
      <trkpt lat="45.61363" lon="4.92044">
        <ele>312.9</ele>
        <time>2020-06-28T06:31:45.000Z</time>
      </trkpt>
      <trkpt lat="45.61352" lon="4.92029">
        <ele>313.4</ele>
        <time>2020-06-28T06:31:53.000Z</time>
      </trkpt>
      <trkpt lat="45.6135" lon="4.92027">
        <ele>313.5</ele>
        <time>2020-06-28T06:31:56.000Z</time>
      </trkpt>
      <trkpt lat="45.61351" lon="4.92024">
        <ele>313.6</ele>
        <time>2020-06-28T06:31:58.000Z</time>
      </trkpt>
      <trkpt lat="45.61352" lon="4.9202">
        <ele>313.7</ele>
        <time>2020-06-28T06:32:00.000Z</time>
      </trkpt>
      <trkpt lat="45.61351" lon="4.92017">
        <ele>313.8</ele>
        <time>2020-06-28T06:32:02.000Z</time>
      </trkpt>
      <trkpt lat="45.61347" lon="4.92023">
        <ele>313.9</ele>
        <time>2020-06-28T06:32:07.000Z</time>
      </trkpt>
      <trkpt lat="45.6135" lon="4.92021">
        <ele>314</ele>
        <time>2020-06-28T06:32:10.000Z</time>
      </trkpt>
      <trkpt lat="45.61348" lon="4.9202">
        <ele>314.1</ele>
        <time>2020-06-28T06:32:12.000Z</time>
      </trkpt>
      <trkpt lat="45.61346" lon="4.92021">
        <ele>314.2</ele>
        <time>2020-06-28T06:32:13.000Z</time>
      </trkpt>
      <trkpt lat="45.61331" lon="4.92029">
        <ele>315</ele>
        <time>2020-06-28T06:32:19.000Z</time>
      </trkpt>
      <trkpt lat="45.61321" lon="4.92034">
        <ele>315.5</ele>
        <time>2020-06-28T06:32:23.000Z</time>
      </trkpt>
      <trkpt lat="45.61309" lon="4.92041">
        <ele>316.2</ele>
        <time>2020-06-28T06:32:28.000Z</time>
      </trkpt>
      <trkpt lat="45.61292" lon="4.92049">
        <ele>317.3</ele>
        <time>2020-06-28T06:32:36.000Z</time>
      </trkpt>
      <trkpt lat="45.6129" lon="4.9205">
        <ele>317.5</ele>
        <time>2020-06-28T06:32:37.000Z</time>
      </trkpt>
      <trkpt lat="45.61276" lon="4.92054">
        <ele>318.4</ele>
        <time>2020-06-28T06:32:43.000Z</time>
      </trkpt>
      <trkpt lat="45.61267" lon="4.92056">
        <ele>319.1</ele>
        <time>2020-06-28T06:32:47.000Z</time>
      </trkpt>
      <trkpt lat="45.6126" lon="4.92058">
        <ele>319.6</ele>
        <time>2020-06-28T06:32:50.000Z</time>
      </trkpt>
      <trkpt lat="45.61247" lon="4.92057">
        <ele>320.6</ele>
        <time>2020-06-28T06:32:55.000Z</time>
      </trkpt>
      <trkpt lat="45.61243" lon="4.92056">
        <ele>321</ele>
        <time>2020-06-28T06:32:57.000Z</time>
      </trkpt>
      <trkpt lat="45.61235" lon="4.92055">
        <ele>321.5</ele>
        <time>2020-06-28T06:33:00.000Z</time>
      </trkpt>
      <trkpt lat="45.61223" lon="4.92053">
        <ele>322.3</ele>
        <time>2020-06-28T06:33:05.000Z</time>
      </trkpt>
      <trkpt lat="45.61221" lon="4.92053">
        <ele>322.5</ele>
        <time>2020-06-28T06:33:06.000Z</time>
      </trkpt>
      <trkpt lat="45.61204" lon="4.92054">
        <ele>323.1</ele>
        <time>2020-06-28T06:33:12.000Z</time>
      </trkpt>
      <trkpt lat="45.61192" lon="4.92054">
        <ele>323.5</ele>
        <time>2020-06-28T06:33:16.000Z</time>
      </trkpt>
      <trkpt lat="45.61168" lon="4.92053">
        <ele>324.1</ele>
        <time>2020-06-28T06:33:24.000Z</time>
      </trkpt>
      <trkpt lat="45.61165" lon="4.92053">
        <ele>324.2</ele>
        <time>2020-06-28T06:33:25.000Z</time>
      </trkpt>
      <trkpt lat="45.61145" lon="4.92052">
        <ele>324.6</ele>
        <time>2020-06-28T06:33:32.000Z</time>
      </trkpt>
      <trkpt lat="45.61142" lon="4.92052">
        <ele>324.6</ele>
        <time>2020-06-28T06:33:33.000Z</time>
      </trkpt>
      <trkpt lat="45.61137" lon="4.92051">
        <ele>324.7</ele>
        <time>2020-06-28T06:33:35.000Z</time>
      </trkpt>
      <trkpt lat="45.61134" lon="4.92046">
        <ele>324.8</ele>
        <time>2020-06-28T06:33:37.000Z</time>
      </trkpt>
      <trkpt lat="45.61134" lon="4.92036">
        <ele>324.9</ele>
        <time>2020-06-28T06:33:39.000Z</time>
      </trkpt>
      <trkpt lat="45.61134" lon="4.9202">
        <ele>324.5</ele>
        <time>2020-06-28T06:33:42.000Z</time>
      </trkpt>
      <trkpt lat="45.61137" lon="4.91972">
        <ele>323.8</ele>
        <time>2020-06-28T06:33:50.000Z</time>
      </trkpt>
      <trkpt lat="45.61145" lon="4.91937">
        <ele>323.2</ele>
        <time>2020-06-28T06:33:57.000Z</time>
      </trkpt>
      <trkpt lat="45.61159" lon="4.91907">
        <ele>322.1</ele>
        <time>2020-06-28T06:34:03.000Z</time>
      </trkpt>
      <trkpt lat="45.61164" lon="4.91878">
        <ele>321.4</ele>
        <time>2020-06-28T06:34:07.000Z</time>
      </trkpt>
      <trkpt lat="45.61164" lon="4.91872">
        <ele>321.3</ele>
        <time>2020-06-28T06:34:08.000Z</time>
      </trkpt>
      <trkpt lat="45.61164" lon="4.91857">
        <ele>321.2</ele>
        <time>2020-06-28T06:34:11.000Z</time>
      </trkpt>
      <trkpt lat="45.61164" lon="4.91854">
        <ele>321.2</ele>
        <time>2020-06-28T06:34:12.000Z</time>
      </trkpt>
      <trkpt lat="45.61161" lon="4.91842">
        <ele>321.2</ele>
        <time>2020-06-28T06:34:17.000Z</time>
      </trkpt>
      <trkpt lat="45.61151" lon="4.91819">
        <ele>321.7</ele>
        <time>2020-06-28T06:34:24.000Z</time>
      </trkpt>
      <trkpt lat="45.61149" lon="4.91816">
        <ele>321.8</ele>
        <time>2020-06-28T06:34:25.000Z</time>
      </trkpt>
      <trkpt lat="45.6114" lon="4.91797">
        <ele>322.7</ele>
        <time>2020-06-28T06:34:30.000Z</time>
      </trkpt>
      <trkpt lat="45.61136" lon="4.91791">
        <ele>323.1</ele>
        <time>2020-06-28T06:34:32.000Z</time>
      </trkpt>
      <trkpt lat="45.6113" lon="4.91781">
        <ele>323.7</ele>
        <time>2020-06-28T06:34:35.000Z</time>
      </trkpt>
      <trkpt lat="45.61126" lon="4.91775">
        <ele>324.2</ele>
        <time>2020-06-28T06:34:37.000Z</time>
      </trkpt>
      <trkpt lat="45.61125" lon="4.91771">
        <ele>324.4</ele>
        <time>2020-06-28T06:34:38.000Z</time>
      </trkpt>
      <trkpt lat="45.6112" lon="4.9176">
        <ele>324.9</ele>
        <time>2020-06-28T06:34:41.000Z</time>
      </trkpt>
      <trkpt lat="45.61118" lon="4.91756">
        <ele>325</ele>
        <time>2020-06-28T06:34:42.000Z</time>
      </trkpt>
      <trkpt lat="45.61115" lon="4.91749">
        <ele>325.3</ele>
        <time>2020-06-28T06:34:43.000Z</time>
      </trkpt>
      <trkpt lat="45.61103" lon="4.91723">
        <ele>325.9</ele>
        <time>2020-06-28T06:34:48.000Z</time>
      </trkpt>
      <trkpt lat="45.61101" lon="4.91718">
        <ele>325.9</ele>
        <time>2020-06-28T06:34:49.000Z</time>
      </trkpt>
      <trkpt lat="45.61092" lon="4.91695">
        <ele>326</ele>
        <time>2020-06-28T06:34:54.000Z</time>
      </trkpt>
      <trkpt lat="45.61089" lon="4.91681">
        <ele>326</ele>
        <time>2020-06-28T06:34:58.000Z</time>
      </trkpt>
      <trkpt lat="45.61088" lon="4.91664">
        <ele>325.7</ele>
        <time>2020-06-28T06:35:03.000Z</time>
      </trkpt>
      <trkpt lat="45.61089" lon="4.91656">
        <ele>325.5</ele>
        <time>2020-06-28T06:35:05.000Z</time>
      </trkpt>
      <trkpt lat="45.6109" lon="4.91631">
        <ele>324.3</ele>
        <time>2020-06-28T06:35:10.000Z</time>
      </trkpt>
      <trkpt lat="45.6109" lon="4.91625">
        <ele>323.9</ele>
        <time>2020-06-28T06:35:11.000Z</time>
      </trkpt>
      <trkpt lat="45.61091" lon="4.91619">
        <ele>323.4</ele>
        <time>2020-06-28T06:35:12.000Z</time>
      </trkpt>
      <trkpt lat="45.61094" lon="4.916">
        <ele>321.9</ele>
        <time>2020-06-28T06:35:15.000Z</time>
      </trkpt>
      <trkpt lat="45.61096" lon="4.91595">
        <ele>321.5</ele>
        <time>2020-06-28T06:35:16.000Z</time>
      </trkpt>
      <trkpt lat="45.61099" lon="4.91586">
        <ele>320.7</ele>
        <time>2020-06-28T06:35:18.000Z</time>
      </trkpt>
      <trkpt lat="45.61102" lon="4.91577">
        <ele>319.9</ele>
        <time>2020-06-28T06:35:20.000Z</time>
      </trkpt>
      <trkpt lat="45.61108" lon="4.91562">
        <ele>318.5</ele>
        <time>2020-06-28T06:35:23.000Z</time>
      </trkpt>
      <trkpt lat="45.6111" lon="4.91557">
        <ele>318</ele>
        <time>2020-06-28T06:35:24.000Z</time>
      </trkpt>
      <trkpt lat="45.61121" lon="4.91533">
        <ele>315.3</ele>
        <time>2020-06-28T06:35:28.000Z</time>
      </trkpt>
      <trkpt lat="45.61124" lon="4.91526">
        <ele>314.7</ele>
        <time>2020-06-28T06:35:29.000Z</time>
      </trkpt>
      <trkpt lat="45.61126" lon="4.9152">
        <ele>314.2</ele>
        <time>2020-06-28T06:35:30.000Z</time>
      </trkpt>
      <trkpt lat="45.61129" lon="4.91515">
        <ele>313.6</ele>
        <time>2020-06-28T06:35:31.000Z</time>
      </trkpt>
      <trkpt lat="45.61136" lon="4.91508">
        <ele>312.6</ele>
        <time>2020-06-28T06:35:33.000Z</time>
      </trkpt>
      <trkpt lat="45.61141" lon="4.91503">
        <ele>311.8</ele>
        <time>2020-06-28T06:35:35.000Z</time>
      </trkpt>
      <trkpt lat="45.61146" lon="4.91499">
        <ele>311</ele>
        <time>2020-06-28T06:35:37.000Z</time>
      </trkpt>
      <trkpt lat="45.61151" lon="4.91495">
        <ele>310.2</ele>
        <time>2020-06-28T06:35:39.000Z</time>
      </trkpt>
      <trkpt lat="45.61153" lon="4.91493">
        <ele>309.8</ele>
        <time>2020-06-28T06:35:40.000Z</time>
      </trkpt>
      <trkpt lat="45.61158" lon="4.91489">
        <ele>309</ele>
        <time>2020-06-28T06:35:42.000Z</time>
      </trkpt>
      <trkpt lat="45.61164" lon="4.91479">
        <ele>307.3</ele>
        <time>2020-06-28T06:35:45.000Z</time>
      </trkpt>
      <trkpt lat="45.61168" lon="4.91476">
        <ele>306.6</ele>
        <time>2020-06-28T06:35:46.000Z</time>
      </trkpt>
      <trkpt lat="45.61176" lon="4.91469">
        <ele>304.7</ele>
        <time>2020-06-28T06:35:49.000Z</time>
      </trkpt>
      <trkpt lat="45.61181" lon="4.91465">
        <ele>302.8</ele>
        <time>2020-06-28T06:35:51.000Z</time>
      </trkpt>
      <trkpt lat="45.61184" lon="4.91463">
        <ele>302.3</ele>
        <time>2020-06-28T06:35:52.000Z</time>
      </trkpt>
      <trkpt lat="45.61186" lon="4.9146">
        <ele>301.8</ele>
        <time>2020-06-28T06:35:53.000Z</time>
      </trkpt>
      <trkpt lat="45.61188" lon="4.91459">
        <ele>301.3</ele>
        <time>2020-06-28T06:35:54.000Z</time>
      </trkpt>
      <trkpt lat="45.61191" lon="4.9146">
        <ele>300.8</ele>
        <time>2020-06-28T06:35:55.000Z</time>
      </trkpt>
      <trkpt lat="45.61194" lon="4.9146">
        <ele>300.1</ele>
        <time>2020-06-28T06:35:56.000Z</time>
      </trkpt>
      <trkpt lat="45.61201" lon="4.91461">
        <ele>298.5</ele>
        <time>2020-06-28T06:35:58.000Z</time>
      </trkpt>
      <trkpt lat="45.61206" lon="4.91461">
        <ele>297.6</ele>
        <time>2020-06-28T06:35:59.000Z</time>
      </trkpt>
      <trkpt lat="45.6121" lon="4.91461">
        <ele>296.7</ele>
        <time>2020-06-28T06:36:00.000Z</time>
      </trkpt>
      <trkpt lat="45.61217" lon="4.91464">
        <ele>295.1</ele>
        <time>2020-06-28T06:36:02.000Z</time>
      </trkpt>
      <trkpt lat="45.61228" lon="4.9147">
        <ele>292.6</ele>
        <time>2020-06-28T06:36:05.000Z</time>
      </trkpt>
      <trkpt lat="45.61235" lon="4.91473">
        <ele>291.2</ele>
        <time>2020-06-28T06:36:07.000Z</time>
      </trkpt>
      <trkpt lat="45.61238" lon="4.91474">
        <ele>290.5</ele>
        <time>2020-06-28T06:36:08.000Z</time>
      </trkpt>
      <trkpt lat="45.61241" lon="4.91475">
        <ele>289.8</ele>
        <time>2020-06-28T06:36:09.000Z</time>
      </trkpt>
      <trkpt lat="45.61245" lon="4.91477">
        <ele>289</ele>
        <time>2020-06-28T06:36:10.000Z</time>
      </trkpt>
      <trkpt lat="45.61248" lon="4.91479">
        <ele>288.3</ele>
        <time>2020-06-28T06:36:11.000Z</time>
      </trkpt>
      <trkpt lat="45.61255" lon="4.91483">
        <ele>286.9</ele>
        <time>2020-06-28T06:36:13.000Z</time>
      </trkpt>
      <trkpt lat="45.61262" lon="4.91485">
        <ele>285.5</ele>
        <time>2020-06-28T06:36:15.000Z</time>
      </trkpt>
      <trkpt lat="45.61266" lon="4.91484">
        <ele>284.8</ele>
        <time>2020-06-28T06:36:16.000Z</time>
      </trkpt>
      <trkpt lat="45.6127" lon="4.91482">
        <ele>284.2</ele>
        <time>2020-06-28T06:36:17.000Z</time>
      </trkpt>
      <trkpt lat="45.61275" lon="4.91479">
        <ele>283.3</ele>
        <time>2020-06-28T06:36:19.000Z</time>
      </trkpt>
      <trkpt lat="45.61277" lon="4.91478">
        <ele>282.9</ele>
        <time>2020-06-28T06:36:20.000Z</time>
      </trkpt>
      <trkpt lat="45.61279" lon="4.91478">
        <ele>282.5</ele>
        <time>2020-06-28T06:36:21.000Z</time>
      </trkpt>
      <trkpt lat="45.61283" lon="4.91476">
        <ele>281.8</ele>
        <time>2020-06-28T06:36:23.000Z</time>
      </trkpt>
      <trkpt lat="45.61286" lon="4.91475">
        <ele>281.4</ele>
        <time>2020-06-28T06:36:24.000Z</time>
      </trkpt>
      <trkpt lat="45.61292" lon="4.91473">
        <ele>280.5</ele>
        <time>2020-06-28T06:36:26.000Z</time>
      </trkpt>
      <trkpt lat="45.61295" lon="4.91472">
        <ele>279.9</ele>
        <time>2020-06-28T06:36:27.000Z</time>
      </trkpt>
      <trkpt lat="45.61307" lon="4.9147">
        <ele>278.1</ele>
        <time>2020-06-28T06:36:30.000Z</time>
      </trkpt>
      <trkpt lat="45.61318" lon="4.91466">
        <ele>276.2</ele>
        <time>2020-06-28T06:36:33.000Z</time>
      </trkpt>
      <trkpt lat="45.61324" lon="4.91456">
        <ele>274.5</ele>
        <time>2020-06-28T06:36:36.000Z</time>
      </trkpt>
      <trkpt lat="45.61325" lon="4.91452">
        <ele>274</ele>
        <time>2020-06-28T06:36:37.000Z</time>
      </trkpt>
      <trkpt lat="45.61326" lon="4.91448">
        <ele>273.5</ele>
        <time>2020-06-28T06:36:38.000Z</time>
      </trkpt>
      <trkpt lat="45.61327" lon="4.91439">
        <ele>272.5</ele>
        <time>2020-06-28T06:36:40.000Z</time>
      </trkpt>
      <trkpt lat="45.61328" lon="4.9143">
        <ele>270.9</ele>
        <time>2020-06-28T06:36:42.000Z</time>
      </trkpt>
      <trkpt lat="45.61327" lon="4.91426">
        <ele>270.6</ele>
        <time>2020-06-28T06:36:43.000Z</time>
      </trkpt>
      <trkpt lat="45.61325" lon="4.91415">
        <ele>269.9</ele>
        <time>2020-06-28T06:36:45.000Z</time>
      </trkpt>
      <trkpt lat="45.61323" lon="4.91401">
        <ele>269.1</ele>
        <time>2020-06-28T06:36:48.000Z</time>
      </trkpt>
      <trkpt lat="45.61322" lon="4.91393">
        <ele>268.6</ele>
        <time>2020-06-28T06:36:50.000Z</time>
      </trkpt>
      <trkpt lat="45.61321" lon="4.91381">
        <ele>268</ele>
        <time>2020-06-28T06:36:53.000Z</time>
      </trkpt>
      <trkpt lat="45.61321" lon="4.91373">
        <ele>267.6</ele>
        <time>2020-06-28T06:36:55.000Z</time>
      </trkpt>
      <trkpt lat="45.61321" lon="4.91363">
        <ele>267.2</ele>
        <time>2020-06-28T06:36:57.000Z</time>
      </trkpt>
      <trkpt lat="45.61326" lon="4.91347">
        <ele>266.5</ele>
        <time>2020-06-28T06:37:00.000Z</time>
      </trkpt>
      <trkpt lat="45.61328" lon="4.91342">
        <ele>266.2</ele>
        <time>2020-06-28T06:37:01.000Z</time>
      </trkpt>
      <trkpt lat="45.61332" lon="4.91331">
        <ele>265.6</ele>
        <time>2020-06-28T06:37:03.000Z</time>
      </trkpt>
      <trkpt lat="45.61335" lon="4.91326">
        <ele>265.3</ele>
        <time>2020-06-28T06:37:04.000Z</time>
      </trkpt>
      <trkpt lat="45.61339" lon="4.9132">
        <ele>264.8</ele>
        <time>2020-06-28T06:37:05.000Z</time>
      </trkpt>
      <trkpt lat="45.61342" lon="4.91315">
        <ele>264.4</ele>
        <time>2020-06-28T06:37:06.000Z</time>
      </trkpt>
      <trkpt lat="45.61349" lon="4.91307">
        <ele>263</ele>
        <time>2020-06-28T06:37:08.000Z</time>
      </trkpt>
      <trkpt lat="45.61353" lon="4.91303">
        <ele>262.4</ele>
        <time>2020-06-28T06:37:09.000Z</time>
      </trkpt>
      <trkpt lat="45.61356" lon="4.91298">
        <ele>261.8</ele>
        <time>2020-06-28T06:37:10.000Z</time>
      </trkpt>
      <trkpt lat="45.61362" lon="4.91289">
        <ele>260.8</ele>
        <time>2020-06-28T06:37:12.000Z</time>
      </trkpt>
      <trkpt lat="45.61367" lon="4.91282">
        <ele>260</ele>
        <time>2020-06-28T06:37:14.000Z</time>
      </trkpt>
      <trkpt lat="45.61376" lon="4.91271">
        <ele>258.6</ele>
        <time>2020-06-28T06:37:17.000Z</time>
      </trkpt>
      <trkpt lat="45.6138" lon="4.91264">
        <ele>257.7</ele>
        <time>2020-06-28T06:37:19.000Z</time>
      </trkpt>
      <trkpt lat="45.61381" lon="4.91261">
        <ele>257.3</ele>
        <time>2020-06-28T06:37:20.000Z</time>
      </trkpt>
      <trkpt lat="45.61384" lon="4.91259">
        <ele>256.9</ele>
        <time>2020-06-28T06:37:21.000Z</time>
      </trkpt>
      <trkpt lat="45.61393" lon="4.91246">
        <ele>254.4</ele>
        <time>2020-06-28T06:37:25.000Z</time>
      </trkpt>
      <trkpt lat="45.61395" lon="4.91242">
        <ele>253.7</ele>
        <time>2020-06-28T06:37:26.000Z</time>
      </trkpt>
      <trkpt lat="45.614" lon="4.91234">
        <ele>252.2</ele>
        <time>2020-06-28T06:37:28.000Z</time>
      </trkpt>
      <trkpt lat="45.61407" lon="4.91225">
        <ele>250.3</ele>
        <time>2020-06-28T06:37:30.000Z</time>
      </trkpt>
      <trkpt lat="45.6141" lon="4.91222">
        <ele>249.4</ele>
        <time>2020-06-28T06:37:31.000Z</time>
      </trkpt>
      <trkpt lat="45.61418" lon="4.91214">
        <ele>247.5</ele>
        <time>2020-06-28T06:37:33.000Z</time>
      </trkpt>
      <trkpt lat="45.61422" lon="4.91205">
        <ele>246.2</ele>
        <time>2020-06-28T06:37:35.000Z</time>
      </trkpt>
      <trkpt lat="45.61422" lon="4.912">
        <ele>245.5</ele>
        <time>2020-06-28T06:37:36.000Z</time>
      </trkpt>
      <trkpt lat="45.61422" lon="4.91195">
        <ele>245</ele>
        <time>2020-06-28T06:37:37.000Z</time>
      </trkpt>
      <trkpt lat="45.61419" lon="4.91188">
        <ele>244.2</ele>
        <time>2020-06-28T06:37:39.000Z</time>
      </trkpt>
      <trkpt lat="45.61413" lon="4.91182">
        <ele>243.3</ele>
        <time>2020-06-28T06:37:41.000Z</time>
      </trkpt>
      <trkpt lat="45.61406" lon="4.91177">
        <ele>242.5</ele>
        <time>2020-06-28T06:37:43.000Z</time>
      </trkpt>
      <trkpt lat="45.61398" lon="4.91174">
        <ele>241.6</ele>
        <time>2020-06-28T06:37:45.000Z</time>
      </trkpt>
      <trkpt lat="45.61386" lon="4.9117">
        <ele>240.1</ele>
        <time>2020-06-28T06:37:48.000Z</time>
      </trkpt>
      <trkpt lat="45.61383" lon="4.91167">
        <ele>239.5</ele>
        <time>2020-06-28T06:37:49.000Z</time>
      </trkpt>
      <trkpt lat="45.61378" lon="4.9116">
        <ele>237.5</ele>
        <time>2020-06-28T06:37:51.000Z</time>
      </trkpt>
      <trkpt lat="45.61378" lon="4.91156">
        <ele>237.5</ele>
        <time>2020-06-28T06:37:52.000Z</time>
      </trkpt>
      <trkpt lat="45.61378" lon="4.91148">
        <ele>237.5</ele>
        <time>2020-06-28T06:37:53.000Z</time>
      </trkpt>
      <trkpt lat="45.61382" lon="4.9114">
        <ele>237.6</ele>
        <time>2020-06-28T06:37:55.000Z</time>
      </trkpt>
      <trkpt lat="45.61384" lon="4.91137">
        <ele>237.6</ele>
        <time>2020-06-28T06:37:56.000Z</time>
      </trkpt>
      <trkpt lat="45.61387" lon="4.91131">
        <ele>237.7</ele>
        <time>2020-06-28T06:37:57.000Z</time>
      </trkpt>
      <trkpt lat="45.61391" lon="4.91127">
        <ele>237.8</ele>
        <time>2020-06-28T06:37:59.000Z</time>
      </trkpt>
      <trkpt lat="45.61393" lon="4.91124">
        <ele>237.8</ele>
        <time>2020-06-28T06:38:02.000Z</time>
      </trkpt>
      <trkpt lat="45.61397" lon="4.91121">
        <ele>237.9</ele>
        <time>2020-06-28T06:38:10.000Z</time>
      </trkpt>
      <trkpt lat="45.61405" lon="4.91118">
        <ele>238</ele>
        <time>2020-06-28T06:38:33.000Z</time>
      </trkpt>
      <trkpt lat="45.61411" lon="4.91116">
        <ele>238.1</ele>
        <time>2020-06-28T06:38:36.000Z</time>
      </trkpt>
      <trkpt lat="45.61421" lon="4.91106">
        <ele>238</ele>
        <time>2020-06-28T06:38:40.000Z</time>
      </trkpt>
      <trkpt lat="45.61424" lon="4.91103">
        <ele>238</ele>
        <time>2020-06-28T06:38:41.000Z</time>
      </trkpt>
      <trkpt lat="45.61438" lon="4.91083">
        <ele>237</ele>
        <time>2020-06-28T06:38:47.000Z</time>
      </trkpt>
      <trkpt lat="45.61447" lon="4.9107">
        <ele>236.2</ele>
        <time>2020-06-28T06:38:51.000Z</time>
      </trkpt>
      <trkpt lat="45.61467" lon="4.91047">
        <ele>234.7</ele>
        <time>2020-06-28T06:38:57.000Z</time>
      </trkpt>
      <trkpt lat="45.61477" lon="4.91032">
        <ele>233.9</ele>
        <time>2020-06-28T06:39:00.000Z</time>
      </trkpt>
      <trkpt lat="45.61481" lon="4.91027">
        <ele>233.6</ele>
        <time>2020-06-28T06:39:01.000Z</time>
      </trkpt>
      <trkpt lat="45.61484" lon="4.91021">
        <ele>233.4</ele>
        <time>2020-06-28T06:39:02.000Z</time>
      </trkpt>
      <trkpt lat="45.61491" lon="4.9101">
        <ele>232.9</ele>
        <time>2020-06-28T06:39:04.000Z</time>
      </trkpt>
      <trkpt lat="45.61497" lon="4.90998">
        <ele>232.4</ele>
        <time>2020-06-28T06:39:06.000Z</time>
      </trkpt>
      <trkpt lat="45.61503" lon="4.90986">
        <ele>232</ele>
        <time>2020-06-28T06:39:08.000Z</time>
      </trkpt>
      <trkpt lat="45.61514" lon="4.90968">
        <ele>231.4</ele>
        <time>2020-06-28T06:39:11.000Z</time>
      </trkpt>
      <trkpt lat="45.61517" lon="4.90962">
        <ele>231.2</ele>
        <time>2020-06-28T06:39:12.000Z</time>
      </trkpt>
      <trkpt lat="45.61528" lon="4.90943">
        <ele>230.7</ele>
        <time>2020-06-28T06:39:15.000Z</time>
      </trkpt>
      <trkpt lat="45.61535" lon="4.9093">
        <ele>230.4</ele>
        <time>2020-06-28T06:39:16.000Z</time>
      </trkpt>
      <trkpt lat="45.61553" lon="4.90901">
        <ele>229.9</ele>
        <time>2020-06-28T06:39:22.000Z</time>
      </trkpt>
      <trkpt lat="45.61557" lon="4.90896">
        <ele>229.8</ele>
        <time>2020-06-28T06:39:23.000Z</time>
      </trkpt>
      <trkpt lat="45.61562" lon="4.90884">
        <ele>229.6</ele>
        <time>2020-06-28T06:39:25.000Z</time>
      </trkpt>
      <trkpt lat="45.61568" lon="4.90865">
        <ele>229.4</ele>
        <time>2020-06-28T06:39:28.000Z</time>
      </trkpt>
      <trkpt lat="45.6157" lon="4.9086">
        <ele>229.3</ele>
        <time>2020-06-28T06:39:29.000Z</time>
      </trkpt>
      <trkpt lat="45.61574" lon="4.90849">
        <ele>229.4</ele>
        <time>2020-06-28T06:39:32.000Z</time>
      </trkpt>
      <trkpt lat="45.61568" lon="4.90841">
        <ele>230.7</ele>
        <time>2020-06-28T06:39:36.000Z</time>
      </trkpt>
      <trkpt lat="45.61564" lon="4.9084">
        <ele>231.1</ele>
        <time>2020-06-28T06:39:38.000Z</time>
      </trkpt>
      <trkpt lat="45.61556" lon="4.90837">
        <ele>232</ele>
        <time>2020-06-28T06:39:42.000Z</time>
      </trkpt>
      <trkpt lat="45.61551" lon="4.90834">
        <ele>232.5</ele>
        <time>2020-06-28T06:39:45.000Z</time>
      </trkpt>
      <trkpt lat="45.61547" lon="4.90831">
        <ele>233</ele>
        <time>2020-06-28T06:39:48.000Z</time>
      </trkpt>
      <trkpt lat="45.61543" lon="4.90829">
        <ele>233.6</ele>
        <time>2020-06-28T06:39:51.000Z</time>
      </trkpt>
      <trkpt lat="45.61541" lon="4.90828">
        <ele>233.8</ele>
        <time>2020-06-28T06:39:52.000Z</time>
      </trkpt>
      <trkpt lat="45.61536" lon="4.90826">
        <ele>234.4</ele>
        <time>2020-06-28T06:39:55.000Z</time>
      </trkpt>
      <trkpt lat="45.61529" lon="4.90823">
        <ele>235.3</ele>
        <time>2020-06-28T06:39:59.000Z</time>
      </trkpt>
      <trkpt lat="45.61522" lon="4.90821">
        <ele>236.2</ele>
        <time>2020-06-28T06:40:03.000Z</time>
      </trkpt>
      <trkpt lat="45.61517" lon="4.90818">
        <ele>236.9</ele>
        <time>2020-06-28T06:40:06.000Z</time>
      </trkpt>
      <trkpt lat="45.61513" lon="4.90817">
        <ele>237.3</ele>
        <time>2020-06-28T06:40:08.000Z</time>
      </trkpt>
      <trkpt lat="45.6151" lon="4.90816">
        <ele>237.7</ele>
        <time>2020-06-28T06:40:10.000Z</time>
      </trkpt>
      <trkpt lat="45.61504" lon="4.90813">
        <ele>238.3</ele>
        <time>2020-06-28T06:40:14.000Z</time>
      </trkpt>
      <trkpt lat="45.61499" lon="4.90813">
        <ele>238.8</ele>
        <time>2020-06-28T06:40:17.000Z</time>
      </trkpt>
      <trkpt lat="45.61495" lon="4.90813">
        <ele>239.9</ele>
        <time>2020-06-28T06:40:20.000Z</time>
      </trkpt>
      <trkpt lat="45.61493" lon="4.90813">
        <ele>240.3</ele>
        <time>2020-06-28T06:40:22.000Z</time>
      </trkpt>
      <trkpt lat="45.6149" lon="4.90812">
        <ele>240.8</ele>
        <time>2020-06-28T06:40:24.000Z</time>
      </trkpt>
      <trkpt lat="45.61485" lon="4.90808">
        <ele>241.9</ele>
        <time>2020-06-28T06:40:28.000Z</time>
      </trkpt>
      <trkpt lat="45.61484" lon="4.90808">
        <ele>242.2</ele>
        <time>2020-06-28T06:40:29.000Z</time>
      </trkpt>
      <trkpt lat="45.61481" lon="4.90806">
        <ele>242.8</ele>
        <time>2020-06-28T06:40:31.000Z</time>
      </trkpt>
      <trkpt lat="45.61478" lon="4.90805">
        <ele>243.3</ele>
        <time>2020-06-28T06:40:33.000Z</time>
      </trkpt>
      <trkpt lat="45.61473" lon="4.90804">
        <ele>244.3</ele>
        <time>2020-06-28T06:40:37.000Z</time>
      </trkpt>
      <trkpt lat="45.61472" lon="4.90803">
        <ele>244.6</ele>
        <time>2020-06-28T06:40:38.000Z</time>
      </trkpt>
      <trkpt lat="45.61469" lon="4.90802">
        <ele>245.3</ele>
        <time>2020-06-28T06:40:41.000Z</time>
      </trkpt>
      <trkpt lat="45.61466" lon="4.90801">
        <ele>246</ele>
        <time>2020-06-28T06:40:44.000Z</time>
      </trkpt>
      <trkpt lat="45.61464" lon="4.90801">
        <ele>246.4</ele>
        <time>2020-06-28T06:40:46.000Z</time>
      </trkpt>
      <trkpt lat="45.61459" lon="4.90801">
        <ele>247.4</ele>
        <time>2020-06-28T06:40:50.000Z</time>
      </trkpt>
      <trkpt lat="45.61456" lon="4.90802">
        <ele>248.1</ele>
        <time>2020-06-28T06:40:53.000Z</time>
      </trkpt>
      <trkpt lat="45.61453" lon="4.90803">
        <ele>248.8</ele>
        <time>2020-06-28T06:40:56.000Z</time>
      </trkpt>
      <trkpt lat="45.61449" lon="4.90804">
        <ele>249.6</ele>
        <time>2020-06-28T06:41:00.000Z</time>
      </trkpt>
      <trkpt lat="45.61444" lon="4.90808">
        <ele>251</ele>
        <time>2020-06-28T06:41:06.000Z</time>
      </trkpt>
      <trkpt lat="45.61442" lon="4.90809">
        <ele>251.3</ele>
        <time>2020-06-28T06:41:07.000Z</time>
      </trkpt>
      <trkpt lat="45.61439" lon="4.90811">
        <ele>252</ele>
        <time>2020-06-28T06:41:10.000Z</time>
      </trkpt>
      <trkpt lat="45.61435" lon="4.90817">
        <ele>253.2</ele>
        <time>2020-06-28T06:41:14.000Z</time>
      </trkpt>
      <trkpt lat="45.61434" lon="4.90818">
        <ele>253.5</ele>
        <time>2020-06-28T06:41:15.000Z</time>
      </trkpt>
      <trkpt lat="45.6143" lon="4.90823">
        <ele>254.8</ele>
        <time>2020-06-28T06:41:19.000Z</time>
      </trkpt>
      <trkpt lat="45.61428" lon="4.90824">
        <ele>255.1</ele>
        <time>2020-06-28T06:41:20.000Z</time>
      </trkpt>
      <trkpt lat="45.61426" lon="4.90826">
        <ele>255.7</ele>
        <time>2020-06-28T06:41:22.000Z</time>
      </trkpt>
      <trkpt lat="45.61421" lon="4.9083">
        <ele>256.8</ele>
        <time>2020-06-28T06:41:25.000Z</time>
      </trkpt>
      <trkpt lat="45.61419" lon="4.90831">
        <ele>257.4</ele>
        <time>2020-06-28T06:41:27.000Z</time>
      </trkpt>
      <trkpt lat="45.61415" lon="4.90834">
        <ele>258.2</ele>
        <time>2020-06-28T06:41:30.000Z</time>
      </trkpt>
      <trkpt lat="45.61413" lon="4.90835">
        <ele>258.7</ele>
        <time>2020-06-28T06:41:32.000Z</time>
      </trkpt>
      <trkpt lat="45.61412" lon="4.90836">
        <ele>259</ele>
        <time>2020-06-28T06:41:33.000Z</time>
      </trkpt>
      <trkpt lat="45.6141" lon="4.90837">
        <ele>259.2</ele>
        <time>2020-06-28T06:41:34.000Z</time>
      </trkpt>
      <trkpt lat="45.61407" lon="4.90838">
        <ele>260</ele>
        <time>2020-06-28T06:41:38.000Z</time>
      </trkpt>
      <trkpt lat="45.61402" lon="4.9084">
        <ele>260.8</ele>
        <time>2020-06-28T06:41:42.000Z</time>
      </trkpt>
      <trkpt lat="45.61401" lon="4.90841">
        <ele>261.1</ele>
        <time>2020-06-28T06:41:43.000Z</time>
      </trkpt>
      <trkpt lat="45.61395" lon="4.90844">
        <ele>262.2</ele>
        <time>2020-06-28T06:41:48.000Z</time>
      </trkpt>
      <trkpt lat="45.61393" lon="4.90845">
        <ele>262.7</ele>
        <time>2020-06-28T06:41:50.000Z</time>
      </trkpt>
      <trkpt lat="45.61392" lon="4.90845">
        <ele>262.9</ele>
        <time>2020-06-28T06:41:51.000Z</time>
      </trkpt>
      <trkpt lat="45.61384" lon="4.9085">
        <ele>264.4</ele>
        <time>2020-06-28T06:41:56.000Z</time>
      </trkpt>
      <trkpt lat="45.61383" lon="4.9085">
        <ele>264.7</ele>
        <time>2020-06-28T06:41:57.000Z</time>
      </trkpt>
      <trkpt lat="45.61375" lon="4.90854">
        <ele>266.1</ele>
        <time>2020-06-28T06:42:02.000Z</time>
      </trkpt>
      <trkpt lat="45.61374" lon="4.90856">
        <ele>266.5</ele>
        <time>2020-06-28T06:42:04.000Z</time>
      </trkpt>
      <trkpt lat="45.61371" lon="4.90857">
        <ele>267</ele>
        <time>2020-06-28T06:42:06.000Z</time>
      </trkpt>
      <trkpt lat="45.61365" lon="4.90861">
        <ele>268.2</ele>
        <time>2020-06-28T06:42:11.000Z</time>
      </trkpt>
      <trkpt lat="45.61363" lon="4.90863">
        <ele>268.6</ele>
        <time>2020-06-28T06:42:13.000Z</time>
      </trkpt>
      <trkpt lat="45.61356" lon="4.90866">
        <ele>269.8</ele>
        <time>2020-06-28T06:42:18.000Z</time>
      </trkpt>
      <trkpt lat="45.61354" lon="4.90867">
        <ele>270.1</ele>
        <time>2020-06-28T06:42:20.000Z</time>
      </trkpt>
      <trkpt lat="45.61352" lon="4.9087">
        <ele>270.6</ele>
        <time>2020-06-28T06:42:23.000Z</time>
      </trkpt>
      <trkpt lat="45.61346" lon="4.90873">
        <ele>271.5</ele>
        <time>2020-06-28T06:42:28.000Z</time>
      </trkpt>
      <trkpt lat="45.61345" lon="4.90874">
        <ele>271.7</ele>
        <time>2020-06-28T06:42:29.000Z</time>
      </trkpt>
      <trkpt lat="45.61339" lon="4.90876">
        <ele>272.8</ele>
        <time>2020-06-28T06:42:34.000Z</time>
      </trkpt>
      <trkpt lat="45.61336" lon="4.90877">
        <ele>273.2</ele>
        <time>2020-06-28T06:42:36.000Z</time>
      </trkpt>
      <trkpt lat="45.61333" lon="4.90878">
        <ele>273.7</ele>
        <time>2020-06-28T06:42:38.000Z</time>
      </trkpt>
      <trkpt lat="45.61325" lon="4.90879">
        <ele>274.9</ele>
        <time>2020-06-28T06:42:44.000Z</time>
      </trkpt>
      <trkpt lat="45.61319" lon="4.9088">
        <ele>275.7</ele>
        <time>2020-06-28T06:42:48.000Z</time>
      </trkpt>
      <trkpt lat="45.61315" lon="4.9088">
        <ele>276.1</ele>
        <time>2020-06-28T06:42:50.000Z</time>
      </trkpt>
      <trkpt lat="45.61306" lon="4.90882">
        <ele>276.8</ele>
        <time>2020-06-28T06:42:54.000Z</time>
      </trkpt>
      <trkpt lat="45.61296" lon="4.90887">
        <ele>277.2</ele>
        <time>2020-06-28T06:42:58.000Z</time>
      </trkpt>
      <trkpt lat="45.6129" lon="4.90892">
        <ele>277.3</ele>
        <time>2020-06-28T06:43:01.000Z</time>
      </trkpt>
      <trkpt lat="45.61283" lon="4.90897">
        <ele>277.3</ele>
        <time>2020-06-28T06:43:04.000Z</time>
      </trkpt>
      <trkpt lat="45.61267" lon="4.90911">
        <ele>277.2</ele>
        <time>2020-06-28T06:43:09.000Z</time>
      </trkpt>
      <trkpt lat="45.61247" lon="4.90919">
        <ele>277.4</ele>
        <time>2020-06-28T06:43:15.000Z</time>
      </trkpt>
      <trkpt lat="45.61233" lon="4.90918">
        <ele>277.9</ele>
        <time>2020-06-28T06:43:20.000Z</time>
      </trkpt>
      <trkpt lat="45.61214" lon="4.90915">
        <ele>278.4</ele>
        <time>2020-06-28T06:43:27.000Z</time>
      </trkpt>
      <trkpt lat="45.61208" lon="4.90915">
        <ele>278.5</ele>
        <time>2020-06-28T06:43:29.000Z</time>
      </trkpt>
      <trkpt lat="45.61194" lon="4.90919">
        <ele>278.7</ele>
        <time>2020-06-28T06:43:33.000Z</time>
      </trkpt>
      <trkpt lat="45.61164" lon="4.9092">
        <ele>279</ele>
        <time>2020-06-28T06:43:40.000Z</time>
      </trkpt>
      <trkpt lat="45.6113" lon="4.90926">
        <ele>279.1</ele>
        <time>2020-06-28T06:43:47.000Z</time>
      </trkpt>
      <trkpt lat="45.61093" lon="4.90938">
        <ele>279.7</ele>
        <time>2020-06-28T06:43:55.000Z</time>
      </trkpt>
      <trkpt lat="45.6109" lon="4.90939">
        <ele>279.9</ele>
        <time>2020-06-28T06:43:56.000Z</time>
      </trkpt>
      <trkpt lat="45.61087" lon="4.90938">
        <ele>280.3</ele>
        <time>2020-06-28T06:43:59.000Z</time>
      </trkpt>
      <trkpt lat="45.61084" lon="4.90936">
        <ele>280.5</ele>
        <time>2020-06-28T06:44:01.000Z</time>
      </trkpt>
      <trkpt lat="45.61078" lon="4.90932">
        <ele>281.2</ele>
        <time>2020-06-28T06:44:05.000Z</time>
      </trkpt>
      <trkpt lat="45.61076" lon="4.90932">
        <ele>281.4</ele>
        <time>2020-06-28T06:44:06.000Z</time>
      </trkpt>
      <trkpt lat="45.61069" lon="4.90929">
        <ele>282.3</ele>
        <time>2020-06-28T06:44:11.000Z</time>
      </trkpt>
      <trkpt lat="45.61066" lon="4.90929">
        <ele>282.6</ele>
        <time>2020-06-28T06:44:13.000Z</time>
      </trkpt>
      <trkpt lat="45.61063" lon="4.90929">
        <ele>283</ele>
        <time>2020-06-28T06:44:15.000Z</time>
      </trkpt>
      <trkpt lat="45.61056" lon="4.9093">
        <ele>283.8</ele>
        <time>2020-06-28T06:44:19.000Z</time>
      </trkpt>
      <trkpt lat="45.61054" lon="4.9093">
        <ele>284.1</ele>
        <time>2020-06-28T06:44:20.000Z</time>
      </trkpt>
      <trkpt lat="45.61047" lon="4.90926">
        <ele>285.4</ele>
        <time>2020-06-28T06:44:25.000Z</time>
      </trkpt>
      <trkpt lat="45.61047" lon="4.90925">
        <ele>285.6</ele>
        <time>2020-06-28T06:44:26.000Z</time>
      </trkpt>
      <trkpt lat="45.61046" lon="4.90924">
        <ele>285.7</ele>
        <time>2020-06-28T06:44:27.000Z</time>
      </trkpt>
      <trkpt lat="45.61043" lon="4.90921">
        <ele>286.6</ele>
        <time>2020-06-28T06:44:31.000Z</time>
      </trkpt>
      <trkpt lat="45.61043" lon="4.9092">
        <ele>286.8</ele>
        <time>2020-06-28T06:44:33.000Z</time>
      </trkpt>
      <trkpt lat="45.61042" lon="4.9092">
        <ele>286.9</ele>
        <time>2020-06-28T06:44:34.000Z</time>
      </trkpt>
      <trkpt lat="45.61028" lon="4.9087">
        <ele>297.8</ele>
        <time>2020-06-28T06:45:29.000Z</time>
      </trkpt>
      <trkpt lat="45.61028" lon="4.90867">
        <ele>298.2</ele>
        <time>2020-06-28T06:45:30.000Z</time>
      </trkpt>
      <trkpt lat="45.61028" lon="4.90864">
        <ele>298.6</ele>
        <time>2020-06-28T06:45:31.000Z</time>
      </trkpt>
      <trkpt lat="45.61027" lon="4.90861">
        <ele>298.9</ele>
        <time>2020-06-28T06:45:32.000Z</time>
      </trkpt>
      <trkpt lat="45.61025" lon="4.90853">
        <ele>299.8</ele>
        <time>2020-06-28T06:45:36.000Z</time>
      </trkpt>
      <trkpt lat="45.61023" lon="4.90848">
        <ele>300.2</ele>
        <time>2020-06-28T06:45:39.000Z</time>
      </trkpt>
      <trkpt lat="45.61021" lon="4.90842">
        <ele>300.6</ele>
        <time>2020-06-28T06:45:42.000Z</time>
      </trkpt>
      <trkpt lat="45.61018" lon="4.90836">
        <ele>301</ele>
        <time>2020-06-28T06:45:48.000Z</time>
      </trkpt>
      <trkpt lat="45.61015" lon="4.90827">
        <ele>301.4</ele>
        <time>2020-06-28T06:48:30.000Z</time>
      </trkpt>
      <trkpt lat="45.61014" lon="4.90825">
        <ele>301.5</ele>
        <time>2020-06-28T06:48:31.000Z</time>
      </trkpt>
      <trkpt lat="45.61014" lon="4.90823">
        <ele>301.6</ele>
        <time>2020-06-28T06:48:32.000Z</time>
      </trkpt>
      <trkpt lat="45.61011" lon="4.90807">
        <ele>302.2</ele>
        <time>2020-06-28T06:48:37.000Z</time>
      </trkpt>
      <trkpt lat="45.6101" lon="4.90798">
        <ele>302.6</ele>
        <time>2020-06-28T06:48:40.000Z</time>
      </trkpt>
      <trkpt lat="45.61007" lon="4.90767">
        <ele>304</ele>
        <time>2020-06-28T06:48:49.000Z</time>
      </trkpt>
      <trkpt lat="45.61006" lon="4.90764">
        <ele>304.2</ele>
        <time>2020-06-28T06:48:50.000Z</time>
      </trkpt>
      <trkpt lat="45.61003" lon="4.90748">
        <ele>305.4</ele>
        <time>2020-06-28T06:48:55.000Z</time>
      </trkpt>
      <trkpt lat="45.61" lon="4.90738">
        <ele>306.4</ele>
        <time>2020-06-28T06:48:59.000Z</time>
      </trkpt>
      <trkpt lat="45.60995" lon="4.90731">
        <ele>307.3</ele>
        <time>2020-06-28T06:49:03.000Z</time>
      </trkpt>
      <trkpt lat="45.60989" lon="4.90727">
        <ele>308.2</ele>
        <time>2020-06-28T06:49:07.000Z</time>
      </trkpt>
      <trkpt lat="45.60983" lon="4.90727">
        <ele>308.8</ele>
        <time>2020-06-28T06:49:10.000Z</time>
      </trkpt>
      <trkpt lat="45.60978" lon="4.90727">
        <ele>309.4</ele>
        <time>2020-06-28T06:49:13.000Z</time>
      </trkpt>
      <trkpt lat="45.60975" lon="4.90726">
        <ele>309.8</ele>
        <time>2020-06-28T06:49:15.000Z</time>
      </trkpt>
      <trkpt lat="45.60965" lon="4.90724">
        <ele>311</ele>
        <time>2020-06-28T06:49:20.000Z</time>
      </trkpt>
      <trkpt lat="45.60964" lon="4.90723">
        <ele>311.2</ele>
        <time>2020-06-28T06:49:21.000Z</time>
      </trkpt>
      <trkpt lat="45.6096" lon="4.90714">
        <ele>311.9</ele>
        <time>2020-06-28T06:49:26.000Z</time>
      </trkpt>
      <trkpt lat="45.6096" lon="4.90712">
        <ele>311.9</ele>
        <time>2020-06-28T06:49:27.000Z</time>
      </trkpt>
      <trkpt lat="45.60961" lon="4.90705">
        <ele>312.2</ele>
        <time>2020-06-28T06:49:31.000Z</time>
      </trkpt>
      <trkpt lat="45.60962" lon="4.90702">
        <ele>312.3</ele>
        <time>2020-06-28T06:49:33.000Z</time>
      </trkpt>
      <trkpt lat="45.60964" lon="4.907">
        <ele>312.3</ele>
        <time>2020-06-28T06:49:36.000Z</time>
      </trkpt>
      <trkpt lat="45.6097" lon="4.90699">
        <ele>311.5</ele>
        <time>2020-06-28T06:49:39.000Z</time>
      </trkpt>
      <trkpt lat="45.60985" lon="4.90701">
        <ele>308.7</ele>
        <time>2020-06-28T06:49:45.000Z</time>
      </trkpt>
      <trkpt lat="45.61" lon="4.90704">
        <ele>305.8</ele>
        <time>2020-06-28T06:49:49.000Z</time>
      </trkpt>
      <trkpt lat="45.61004" lon="4.90707">
        <ele>304.9</ele>
        <time>2020-06-28T06:49:50.000Z</time>
      </trkpt>
      <trkpt lat="45.6101" lon="4.9071">
        <ele>303.9</ele>
        <time>2020-06-28T06:49:51.000Z</time>
      </trkpt>
      <trkpt lat="45.6102" lon="4.90716">
        <ele>301.7</ele>
        <time>2020-06-28T06:49:53.000Z</time>
      </trkpt>
      <trkpt lat="45.61033" lon="4.9072">
        <ele>299.5</ele>
        <time>2020-06-28T06:49:55.000Z</time>
      </trkpt>
      <trkpt lat="45.61039" lon="4.90721">
        <ele>298.4</ele>
        <time>2020-06-28T06:49:56.000Z</time>
      </trkpt>
      <trkpt lat="45.61044" lon="4.90721">
        <ele>297.5</ele>
        <time>2020-06-28T06:49:57.000Z</time>
      </trkpt>
      <trkpt lat="45.61049" lon="4.9072">
        <ele>296.6</ele>
        <time>2020-06-28T06:49:58.000Z</time>
      </trkpt>
      <trkpt lat="45.61055" lon="4.90718">
        <ele>295.5</ele>
        <time>2020-06-28T06:49:59.000Z</time>
      </trkpt>
      <trkpt lat="45.61061" lon="4.90716">
        <ele>294.5</ele>
        <time>2020-06-28T06:50:00.000Z</time>
      </trkpt>
      <trkpt lat="45.61074" lon="4.90712">
        <ele>292.3</ele>
        <time>2020-06-28T06:50:02.000Z</time>
      </trkpt>
      <trkpt lat="45.61081" lon="4.90708">
        <ele>291.3</ele>
        <time>2020-06-28T06:50:03.000Z</time>
      </trkpt>
      <trkpt lat="45.61087" lon="4.90704">
        <ele>290.4</ele>
        <time>2020-06-28T06:50:04.000Z</time>
      </trkpt>
      <trkpt lat="45.61094" lon="4.90699">
        <ele>289.5</ele>
        <time>2020-06-28T06:50:05.000Z</time>
      </trkpt>
      <trkpt lat="45.61101" lon="4.90694">
        <ele>288.6</ele>
        <time>2020-06-28T06:50:06.000Z</time>
      </trkpt>
      <trkpt lat="45.61106" lon="4.90688">
        <ele>287.9</ele>
        <time>2020-06-28T06:50:07.000Z</time>
      </trkpt>
      <trkpt lat="45.61112" lon="4.90682">
        <ele>287.4</ele>
        <time>2020-06-28T06:50:08.000Z</time>
      </trkpt>
      <trkpt lat="45.61117" lon="4.90677">
        <ele>287</ele>
        <time>2020-06-28T06:50:09.000Z</time>
      </trkpt>
      <trkpt lat="45.61121" lon="4.90672">
        <ele>286.6</ele>
        <time>2020-06-28T06:50:10.000Z</time>
      </trkpt>
      <trkpt lat="45.6113" lon="4.90662">
        <ele>285.8</ele>
        <time>2020-06-28T06:50:12.000Z</time>
      </trkpt>
      <trkpt lat="45.61139" lon="4.90652">
        <ele>285.2</ele>
        <time>2020-06-28T06:50:14.000Z</time>
      </trkpt>
      <trkpt lat="45.61146" lon="4.90641">
        <ele>284.7</ele>
        <time>2020-06-28T06:50:16.000Z</time>
      </trkpt>
      <trkpt lat="45.61154" lon="4.90631">
        <ele>284.3</ele>
        <time>2020-06-28T06:50:18.000Z</time>
      </trkpt>
      <trkpt lat="45.61158" lon="4.90627">
        <ele>284.1</ele>
        <time>2020-06-28T06:50:19.000Z</time>
      </trkpt>
      <trkpt lat="45.6117" lon="4.90615">
        <ele>283.8</ele>
        <time>2020-06-28T06:50:22.000Z</time>
      </trkpt>
      <trkpt lat="45.61182" lon="4.90605">
        <ele>283.6</ele>
        <time>2020-06-28T06:50:25.000Z</time>
      </trkpt>
      <trkpt lat="45.61198" lon="4.90598">
        <ele>283.3</ele>
        <time>2020-06-28T06:50:28.000Z</time>
      </trkpt>
      <trkpt lat="45.61211" lon="4.90594">
        <ele>283.1</ele>
        <time>2020-06-28T06:50:30.000Z</time>
      </trkpt>
      <trkpt lat="45.61227" lon="4.90583">
        <ele>283</ele>
        <time>2020-06-28T06:50:33.000Z</time>
      </trkpt>
      <trkpt lat="45.6125" lon="4.90557">
        <ele>283</ele>
        <time>2020-06-28T06:50:38.000Z</time>
      </trkpt>
      <trkpt lat="45.61277" lon="4.90532">
        <ele>281.8</ele>
        <time>2020-06-28T06:50:43.000Z</time>
      </trkpt>
      <trkpt lat="45.61283" lon="4.90529">
        <ele>281.3</ele>
        <time>2020-06-28T06:50:44.000Z</time>
      </trkpt>
      <trkpt lat="45.6129" lon="4.90528">
        <ele>280.8</ele>
        <time>2020-06-28T06:50:45.000Z</time>
      </trkpt>
      <trkpt lat="45.61309" lon="4.90525">
        <ele>278.9</ele>
        <time>2020-06-28T06:50:47.000Z</time>
      </trkpt>
      <trkpt lat="45.61336" lon="4.90523">
        <ele>275</ele>
        <time>2020-06-28T06:50:50.000Z</time>
      </trkpt>
      <trkpt lat="45.61349" lon="4.90523">
        <ele>272.9</ele>
        <time>2020-06-28T06:50:52.000Z</time>
      </trkpt>
      <trkpt lat="45.61359" lon="4.90522">
        <ele>271.4</ele>
        <time>2020-06-28T06:50:54.000Z</time>
      </trkpt>
      <trkpt lat="45.61364" lon="4.90521">
        <ele>270.7</ele>
        <time>2020-06-28T06:50:55.000Z</time>
      </trkpt>
      <trkpt lat="45.61368" lon="4.9052">
        <ele>270.1</ele>
        <time>2020-06-28T06:50:56.000Z</time>
      </trkpt>
      <trkpt lat="45.61371" lon="4.90518">
        <ele>266.2</ele>
        <time>2020-06-28T06:50:57.000Z</time>
      </trkpt>
      <trkpt lat="45.61374" lon="4.90511">
        <ele>266.3</ele>
        <time>2020-06-28T06:50:59.000Z</time>
      </trkpt>
      <trkpt lat="45.61373" lon="4.90504">
        <ele>266.4</ele>
        <time>2020-06-28T06:51:01.000Z</time>
      </trkpt>
      <trkpt lat="45.6137" lon="4.90496">
        <ele>266.5</ele>
        <time>2020-06-28T06:51:03.000Z</time>
      </trkpt>
      <trkpt lat="45.61368" lon="4.90492">
        <ele>266.6</ele>
        <time>2020-06-28T06:51:04.000Z</time>
      </trkpt>
      <trkpt lat="45.61358" lon="4.90478">
        <ele>267</ele>
        <time>2020-06-28T06:51:09.000Z</time>
      </trkpt>
      <trkpt lat="45.61349" lon="4.90466">
        <ele>267.5</ele>
        <time>2020-06-28T06:51:13.000Z</time>
      </trkpt>
      <trkpt lat="45.61342" lon="4.90454">
        <ele>268</ele>
        <time>2020-06-28T06:51:16.000Z</time>
      </trkpt>
      <trkpt lat="45.61338" lon="4.9044">
        <ele>268.7</ele>
        <time>2020-06-28T06:51:19.000Z</time>
      </trkpt>
      <trkpt lat="45.61335" lon="4.90426">
        <ele>269.3</ele>
        <time>2020-06-28T06:51:22.000Z</time>
      </trkpt>
      <trkpt lat="45.61332" lon="4.90407">
        <ele>270.2</ele>
        <time>2020-06-28T06:51:26.000Z</time>
      </trkpt>
      <trkpt lat="45.61329" lon="4.90397">
        <ele>270.6</ele>
        <time>2020-06-28T06:51:29.000Z</time>
      </trkpt>
      <trkpt lat="45.61327" lon="4.90395">
        <ele>270.8</ele>
        <time>2020-06-28T06:51:30.000Z</time>
      </trkpt>
      <trkpt lat="45.61324" lon="4.90394">
        <ele>272.4</ele>
        <time>2020-06-28T06:51:33.000Z</time>
      </trkpt>
      <trkpt lat="45.61323" lon="4.90394">
        <ele>272.5</ele>
        <time>2020-06-28T06:51:34.000Z</time>
      </trkpt>
      <trkpt lat="45.6132" lon="4.90395">
        <ele>272.8</ele>
        <time>2020-06-28T06:51:36.000Z</time>
      </trkpt>
      <trkpt lat="45.61315" lon="4.90396">
        <ele>273.5</ele>
        <time>2020-06-28T06:51:39.000Z</time>
      </trkpt>
      <trkpt lat="45.6131" lon="4.90397">
        <ele>274.1</ele>
        <time>2020-06-28T06:51:41.000Z</time>
      </trkpt>
      <trkpt lat="45.61308" lon="4.90397">
        <ele>274.4</ele>
        <time>2020-06-28T06:51:43.000Z</time>
      </trkpt>
      <trkpt lat="45.61298" lon="4.904">
        <ele>275.7</ele>
        <time>2020-06-28T06:51:47.000Z</time>
      </trkpt>
      <trkpt lat="45.61296" lon="4.90401">
        <ele>275.9</ele>
        <time>2020-06-28T06:51:48.000Z</time>
      </trkpt>
      <trkpt lat="45.6129" lon="4.90402">
        <ele>276.8</ele>
        <time>2020-06-28T06:51:52.000Z</time>
      </trkpt>
      <trkpt lat="45.61285" lon="4.90402">
        <ele>277.4</ele>
        <time>2020-06-28T06:51:55.000Z</time>
      </trkpt>
      <trkpt lat="45.61284" lon="4.90401">
        <ele>277.6</ele>
        <time>2020-06-28T06:51:56.000Z</time>
      </trkpt>
      <trkpt lat="45.61277" lon="4.90398">
        <ele>278.5</ele>
        <time>2020-06-28T06:52:00.000Z</time>
      </trkpt>
      <trkpt lat="45.61273" lon="4.90386">
        <ele>279.6</ele>
        <time>2020-06-28T06:52:03.000Z</time>
      </trkpt>
      <trkpt lat="45.61272" lon="4.90384">
        <ele>279.8</ele>
        <time>2020-06-28T06:52:04.000Z</time>
      </trkpt>
      <trkpt lat="45.61269" lon="4.90373">
        <ele>280.5</ele>
        <time>2020-06-28T06:52:09.000Z</time>
      </trkpt>
      <trkpt lat="45.61268" lon="4.9037">
        <ele>280.6</ele>
        <time>2020-06-28T06:52:10.000Z</time>
      </trkpt>
      <trkpt lat="45.61265" lon="4.90357">
        <ele>281.2</ele>
        <time>2020-06-28T06:52:14.000Z</time>
      </trkpt>
      <trkpt lat="45.61264" lon="4.90354">
        <ele>281.3</ele>
        <time>2020-06-28T06:52:15.000Z</time>
      </trkpt>
      <trkpt lat="45.61262" lon="4.90351">
        <ele>281.5</ele>
        <time>2020-06-28T06:52:16.000Z</time>
      </trkpt>
      <trkpt lat="45.61256" lon="4.90339">
        <ele>282.1</ele>
        <time>2020-06-28T06:52:21.000Z</time>
      </trkpt>
      <trkpt lat="45.61251" lon="4.90334">
        <ele>282.4</ele>
        <time>2020-06-28T06:52:24.000Z</time>
      </trkpt>
      <trkpt lat="45.61245" lon="4.9033">
        <ele>282.8</ele>
        <time>2020-06-28T06:52:27.000Z</time>
      </trkpt>
      <trkpt lat="45.61239" lon="4.90326">
        <ele>283.2</ele>
        <time>2020-06-28T06:52:31.000Z</time>
      </trkpt>
      <trkpt lat="45.61237" lon="4.90324">
        <ele>283.3</ele>
        <time>2020-06-28T06:52:32.000Z</time>
      </trkpt>
      <trkpt lat="45.61233" lon="4.90322">
        <ele>283.5</ele>
        <time>2020-06-28T06:52:34.000Z</time>
      </trkpt>
      <trkpt lat="45.61219" lon="4.90316">
        <ele>284.4</ele>
        <time>2020-06-28T06:52:41.000Z</time>
      </trkpt>
      <trkpt lat="45.61216" lon="4.90314">
        <ele>284.6</ele>
        <time>2020-06-28T06:52:43.000Z</time>
      </trkpt>
      <trkpt lat="45.61207" lon="4.9031">
        <ele>285.3</ele>
        <time>2020-06-28T06:52:48.000Z</time>
      </trkpt>
      <trkpt lat="45.6119" lon="4.90302">
        <ele>286.2</ele>
        <time>2020-06-28T06:52:55.000Z</time>
      </trkpt>
      <trkpt lat="45.61187" lon="4.90301">
        <ele>286.3</ele>
        <time>2020-06-28T06:52:56.000Z</time>
      </trkpt>
      <trkpt lat="45.61171" lon="4.90296">
        <ele>286.6</ele>
        <time>2020-06-28T06:53:02.000Z</time>
      </trkpt>
      <trkpt lat="45.61153" lon="4.90295">
        <ele>286.6</ele>
        <time>2020-06-28T06:53:09.000Z</time>
      </trkpt>
      <trkpt lat="45.61135" lon="4.90298">
        <ele>286</ele>
        <time>2020-06-28T06:53:14.000Z</time>
      </trkpt>
      <trkpt lat="45.6113" lon="4.903">
        <ele>285.7</ele>
        <time>2020-06-28T06:53:15.000Z</time>
      </trkpt>
      <trkpt lat="45.61103" lon="4.90308">
        <ele>284.3</ele>
        <time>2020-06-28T06:53:20.000Z</time>
      </trkpt>
      <trkpt lat="45.61097" lon="4.90309">
        <ele>284</ele>
        <time>2020-06-28T06:53:21.000Z</time>
      </trkpt>
      <trkpt lat="45.61073" lon="4.90312">
        <ele>283</ele>
        <time>2020-06-28T06:53:25.000Z</time>
      </trkpt>
      <trkpt lat="45.61067" lon="4.90312">
        <ele>282.8</ele>
        <time>2020-06-28T06:53:26.000Z</time>
      </trkpt>
      <trkpt lat="45.61045" lon="4.90309">
        <ele>282.5</ele>
        <time>2020-06-28T06:53:30.000Z</time>
      </trkpt>
      <trkpt lat="45.61031" lon="4.90309">
        <ele>282.4</ele>
        <time>2020-06-28T06:53:33.000Z</time>
      </trkpt>
      <trkpt lat="45.61026" lon="4.90308">
        <ele>282.4</ele>
        <time>2020-06-28T06:53:34.000Z</time>
      </trkpt>
      <trkpt lat="45.61017" lon="4.90307">
        <ele>282.3</ele>
        <time>2020-06-28T06:53:36.000Z</time>
      </trkpt>
      <trkpt lat="45.61012" lon="4.90307">
        <ele>282.3</ele>
        <time>2020-06-28T06:53:37.000Z</time>
      </trkpt>
      <trkpt lat="45.61008" lon="4.90306">
        <ele>282.3</ele>
        <time>2020-06-28T06:53:38.000Z</time>
      </trkpt>
      <trkpt lat="45.60976" lon="4.90306">
        <ele>282.2</ele>
        <time>2020-06-28T06:53:45.000Z</time>
      </trkpt>
      <trkpt lat="45.60943" lon="4.90306">
        <ele>281.1</ele>
        <time>2020-06-28T06:53:52.000Z</time>
      </trkpt>
      <trkpt lat="45.60937" lon="4.90306">
        <ele>280.8</ele>
        <time>2020-06-28T06:53:53.000Z</time>
      </trkpt>
      <trkpt lat="45.60925" lon="4.90306">
        <ele>280.4</ele>
        <time>2020-06-28T06:53:55.000Z</time>
      </trkpt>
      <trkpt lat="45.6092" lon="4.90303">
        <ele>280.4</ele>
        <time>2020-06-28T06:53:56.000Z</time>
      </trkpt>
      <trkpt lat="45.60911" lon="4.9029">
        <ele>280.5</ele>
        <time>2020-06-28T06:53:59.000Z</time>
      </trkpt>
      <trkpt lat="45.6091" lon="4.90285">
        <ele>280.5</ele>
        <time>2020-06-28T06:54:00.000Z</time>
      </trkpt>
      <trkpt lat="45.6091" lon="4.90272">
        <ele>281</ele>
        <time>2020-06-28T06:54:03.000Z</time>
      </trkpt>
      <trkpt lat="45.60908" lon="4.90255">
        <ele>281.7</ele>
        <time>2020-06-28T06:54:07.000Z</time>
      </trkpt>
      <trkpt lat="45.60906" lon="4.90245">
        <ele>282.2</ele>
        <time>2020-06-28T06:54:09.000Z</time>
      </trkpt>
      <trkpt lat="45.609" lon="4.90223">
        <ele>283.5</ele>
        <time>2020-06-28T06:54:13.000Z</time>
      </trkpt>
      <trkpt lat="45.60899" lon="4.90219">
        <ele>283.8</ele>
        <time>2020-06-28T06:54:14.000Z</time>
      </trkpt>
      <trkpt lat="45.60896" lon="4.90206">
        <ele>284.8</ele>
        <time>2020-06-28T06:54:16.000Z</time>
      </trkpt>
      <trkpt lat="45.60895" lon="4.902">
        <ele>285.3</ele>
        <time>2020-06-28T06:54:17.000Z</time>
      </trkpt>
      <trkpt lat="45.6089" lon="4.90191">
        <ele>287</ele>
        <time>2020-06-28T06:54:20.000Z</time>
      </trkpt>
      <trkpt lat="45.60888" lon="4.90189">
        <ele>287.5</ele>
        <time>2020-06-28T06:54:22.000Z</time>
      </trkpt>
      <trkpt lat="45.60886" lon="4.90189">
        <ele>287.8</ele>
        <time>2020-06-28T06:54:23.000Z</time>
      </trkpt>
      <trkpt lat="45.60881" lon="4.90191">
        <ele>288.6</ele>
        <time>2020-06-28T06:54:26.000Z</time>
      </trkpt>
      <trkpt lat="45.60879" lon="4.90192">
        <ele>288.8</ele>
        <time>2020-06-28T06:54:27.000Z</time>
      </trkpt>
      <trkpt lat="45.60875" lon="4.90195">
        <ele>289.4</ele>
        <time>2020-06-28T06:54:30.000Z</time>
      </trkpt>
      <trkpt lat="45.60871" lon="4.90197">
        <ele>290.1</ele>
        <time>2020-06-28T06:54:34.000Z</time>
      </trkpt>
      <trkpt lat="45.60866" lon="4.90198">
        <ele>290.8</ele>
        <time>2020-06-28T06:54:37.000Z</time>
      </trkpt>
      <trkpt lat="45.60862" lon="4.902">
        <ele>291.2</ele>
        <time>2020-06-28T06:54:39.000Z</time>
      </trkpt>
      <trkpt lat="45.60857" lon="4.90202">
        <ele>292</ele>
        <time>2020-06-28T06:54:43.000Z</time>
      </trkpt>
      <trkpt lat="45.60854" lon="4.90205">
        <ele>292.4</ele>
        <time>2020-06-28T06:54:46.000Z</time>
      </trkpt>
      <trkpt lat="45.60849" lon="4.90209">
        <ele>293.1</ele>
        <time>2020-06-28T06:54:50.000Z</time>
      </trkpt>
      <trkpt lat="45.60845" lon="4.90216">
        <ele>293.5</ele>
        <time>2020-06-28T06:54:53.000Z</time>
      </trkpt>
      <trkpt lat="45.60842" lon="4.90221">
        <ele>293.8</ele>
        <time>2020-06-28T06:54:55.000Z</time>
      </trkpt>
      <trkpt lat="45.6084" lon="4.90233">
        <ele>294.1</ele>
        <time>2020-06-28T06:54:58.000Z</time>
      </trkpt>
      <trkpt lat="45.6083" lon="4.90257">
        <ele>294.2</ele>
        <time>2020-06-28T06:55:04.000Z</time>
      </trkpt>
      <trkpt lat="45.60817" lon="4.90276">
        <ele>295</ele>
        <time>2020-06-28T06:55:10.000Z</time>
      </trkpt>
      <trkpt lat="45.60805" lon="4.90288">
        <ele>296.3</ele>
        <time>2020-06-28T06:55:16.000Z</time>
      </trkpt>
      <trkpt lat="45.608" lon="4.90291">
        <ele>296.9</ele>
        <time>2020-06-28T06:55:18.000Z</time>
      </trkpt>
      <trkpt lat="45.6079" lon="4.90299">
        <ele>298.4</ele>
        <time>2020-06-28T06:55:23.000Z</time>
      </trkpt>
      <trkpt lat="45.60785" lon="4.90306">
        <ele>299.4</ele>
        <time>2020-06-28T06:55:27.000Z</time>
      </trkpt>
      <trkpt lat="45.60779" lon="4.90312">
        <ele>300.4</ele>
        <time>2020-06-28T06:55:30.000Z</time>
      </trkpt>
      <trkpt lat="45.60778" lon="4.90313">
        <ele>300.7</ele>
        <time>2020-06-28T06:55:31.000Z</time>
      </trkpt>
      <trkpt lat="45.60776" lon="4.90318">
        <ele>301.3</ele>
        <time>2020-06-28T06:55:34.000Z</time>
      </trkpt>
      <trkpt lat="45.60777" lon="4.90325">
        <ele>302</ele>
        <time>2020-06-28T06:55:37.000Z</time>
      </trkpt>
      <trkpt lat="45.60775" lon="4.90327">
        <ele>302.3</ele>
        <time>2020-06-28T06:55:38.000Z</time>
      </trkpt>
      <trkpt lat="45.6077" lon="4.90335">
        <ele>303.5</ele>
        <time>2020-06-28T06:55:42.000Z</time>
      </trkpt>
      <trkpt lat="45.60764" lon="4.90342">
        <ele>304.9</ele>
        <time>2020-06-28T06:55:47.000Z</time>
      </trkpt>
      <trkpt lat="45.60761" lon="4.90344">
        <ele>305.4</ele>
        <time>2020-06-28T06:55:49.000Z</time>
      </trkpt>
      <trkpt lat="45.60757" lon="4.90346">
        <ele>306.2</ele>
        <time>2020-06-28T06:55:52.000Z</time>
      </trkpt>
      <trkpt lat="45.60753" lon="4.90349">
        <ele>307</ele>
        <time>2020-06-28T06:55:56.000Z</time>
      </trkpt>
      <trkpt lat="45.60752" lon="4.9035">
        <ele>307.3</ele>
        <time>2020-06-28T06:55:57.000Z</time>
      </trkpt>
      <trkpt lat="45.6075" lon="4.90355">
        <ele>308</ele>
        <time>2020-06-28T06:56:01.000Z</time>
      </trkpt>
      <trkpt lat="45.60748" lon="4.90358">
        <ele>308.6</ele>
        <time>2020-06-28T06:56:03.000Z</time>
      </trkpt>
      <trkpt lat="45.60745" lon="4.90361">
        <ele>309.3</ele>
        <time>2020-06-28T06:56:06.000Z</time>
      </trkpt>
      <trkpt lat="45.60741" lon="4.90366">
        <ele>310.2</ele>
        <time>2020-06-28T06:56:10.000Z</time>
      </trkpt>
      <trkpt lat="45.6074" lon="4.90367">
        <ele>310.5</ele>
        <time>2020-06-28T06:56:11.000Z</time>
      </trkpt>
      <trkpt lat="45.60734" lon="4.90368">
        <ele>311.6</ele>
        <time>2020-06-28T06:56:16.000Z</time>
      </trkpt>
      <trkpt lat="45.60732" lon="4.90368">
        <ele>311.9</ele>
        <time>2020-06-28T06:56:17.000Z</time>
      </trkpt>
      <trkpt lat="45.60727" lon="4.90367">
        <ele>313</ele>
        <time>2020-06-28T06:56:21.000Z</time>
      </trkpt>
      <trkpt lat="45.60725" lon="4.90367">
        <ele>313.5</ele>
        <time>2020-06-28T06:56:24.000Z</time>
      </trkpt>
      <trkpt lat="45.60724" lon="4.90366">
        <ele>313.6</ele>
        <time>2020-06-28T06:56:25.000Z</time>
      </trkpt>
      <trkpt lat="45.60722" lon="4.90366">
        <ele>314.2</ele>
        <time>2020-06-28T06:56:28.000Z</time>
      </trkpt>
      <trkpt lat="45.6072" lon="4.90366">
        <ele>314.5</ele>
        <time>2020-06-28T06:56:30.000Z</time>
      </trkpt>
      <trkpt lat="45.60719" lon="4.90365">
        <ele>314.8</ele>
        <time>2020-06-28T06:56:32.000Z</time>
      </trkpt>
      <trkpt lat="45.60718" lon="4.90362">
        <ele>315.4</ele>
        <time>2020-06-28T06:56:36.000Z</time>
      </trkpt>
      <trkpt lat="45.60717" lon="4.90361">
        <ele>315.6</ele>
        <time>2020-06-28T06:56:37.000Z</time>
      </trkpt>
      <trkpt lat="45.60715" lon="4.90357">
        <ele>316.5</ele>
        <time>2020-06-28T06:56:41.000Z</time>
      </trkpt>
      <trkpt lat="45.60713" lon="4.90352">
        <ele>317.3</ele>
        <time>2020-06-28T06:56:45.000Z</time>
      </trkpt>
      <trkpt lat="45.60712" lon="4.90351">
        <ele>317.6</ele>
        <time>2020-06-28T06:56:46.000Z</time>
      </trkpt>
      <trkpt lat="45.60709" lon="4.90348">
        <ele>318.5</ele>
        <time>2020-06-28T06:56:50.000Z</time>
      </trkpt>
      <trkpt lat="45.60707" lon="4.90348">
        <ele>319</ele>
        <time>2020-06-28T06:56:52.000Z</time>
      </trkpt>
      <trkpt lat="45.60706" lon="4.90348">
        <ele>319.2</ele>
        <time>2020-06-28T06:56:53.000Z</time>
      </trkpt>
      <trkpt lat="45.60701" lon="4.90348">
        <ele>320.1</ele>
        <time>2020-06-28T06:56:57.000Z</time>
      </trkpt>
      <trkpt lat="45.60698" lon="4.90347">
        <ele>320.6</ele>
        <time>2020-06-28T06:56:59.000Z</time>
      </trkpt>
      <trkpt lat="45.60692" lon="4.90346">
        <ele>321.7</ele>
        <time>2020-06-28T06:57:02.000Z</time>
      </trkpt>
      <trkpt lat="45.60681" lon="4.90346">
        <ele>323.3</ele>
        <time>2020-06-28T06:57:07.000Z</time>
      </trkpt>
      <trkpt lat="45.60676" lon="4.90346">
        <ele>323.9</ele>
        <time>2020-06-28T06:57:09.000Z</time>
      </trkpt>
      <trkpt lat="45.60665" lon="4.90346">
        <ele>325.1</ele>
        <time>2020-06-28T06:57:14.000Z</time>
      </trkpt>
      <trkpt lat="45.60655" lon="4.90346">
        <ele>326</ele>
        <time>2020-06-28T06:57:19.000Z</time>
      </trkpt>
      <trkpt lat="45.60649" lon="4.90347">
        <ele>326.5</ele>
        <time>2020-06-28T06:57:22.000Z</time>
      </trkpt>
      <trkpt lat="45.60635" lon="4.9035">
        <ele>327.7</ele>
        <time>2020-06-28T06:57:30.000Z</time>
      </trkpt>
      <trkpt lat="45.60633" lon="4.9035">
        <ele>327.8</ele>
        <time>2020-06-28T06:57:31.000Z</time>
      </trkpt>
      <trkpt lat="45.60621" lon="4.90349">
        <ele>329.1</ele>
        <time>2020-06-28T06:57:38.000Z</time>
      </trkpt>
      <trkpt lat="45.6062" lon="4.90347">
        <ele>329.1</ele>
        <time>2020-06-28T06:57:39.000Z</time>
      </trkpt>
      <trkpt lat="45.60619" lon="4.90334">
        <ele>329.5</ele>
        <time>2020-06-28T06:57:44.000Z</time>
      </trkpt>
      <trkpt lat="45.60619" lon="4.90331">
        <ele>329.6</ele>
        <time>2020-06-28T06:57:45.000Z</time>
      </trkpt>
      <trkpt lat="45.60618" lon="4.90324">
        <ele>329.8</ele>
        <time>2020-06-28T06:57:47.000Z</time>
      </trkpt>
      <trkpt lat="45.60616" lon="4.90299">
        <ele>330.6</ele>
        <time>2020-06-28T06:57:54.000Z</time>
      </trkpt>
      <trkpt lat="45.60616" lon="4.90294">
        <ele>330.7</ele>
        <time>2020-06-28T06:57:55.000Z</time>
      </trkpt>
      <trkpt lat="45.60616" lon="4.90265">
        <ele>331.7</ele>
        <time>2020-06-28T06:58:02.000Z</time>
      </trkpt>
      <trkpt lat="45.60619" lon="4.90244">
        <ele>332.3</ele>
        <time>2020-06-28T06:58:07.000Z</time>
      </trkpt>
      <trkpt lat="45.6062" lon="4.90236">
        <ele>332.5</ele>
        <time>2020-06-28T06:58:09.000Z</time>
      </trkpt>
      <trkpt lat="45.60625" lon="4.90212">
        <ele>333.1</ele>
        <time>2020-06-28T06:58:15.000Z</time>
      </trkpt>
      <trkpt lat="45.6063" lon="4.90192">
        <ele>333.3</ele>
        <time>2020-06-28T06:58:20.000Z</time>
      </trkpt>
      <trkpt lat="45.60633" lon="4.90155">
        <ele>332.9</ele>
        <time>2020-06-28T06:58:28.000Z</time>
      </trkpt>
      <trkpt lat="45.60633" lon="4.90143">
        <ele>332.6</ele>
        <time>2020-06-28T06:58:30.000Z</time>
      </trkpt>
      <trkpt lat="45.60631" lon="4.90121">
        <ele>331.8</ele>
        <time>2020-06-28T06:58:33.000Z</time>
      </trkpt>
      <trkpt lat="45.60629" lon="4.90113">
        <ele>331.4</ele>
        <time>2020-06-28T06:58:34.000Z</time>
      </trkpt>
      <trkpt lat="45.60622" lon="4.90088">
        <ele>330.3</ele>
        <time>2020-06-28T06:58:37.000Z</time>
      </trkpt>
      <trkpt lat="45.60618" lon="4.90079">
        <ele>329.8</ele>
        <time>2020-06-28T06:58:38.000Z</time>
      </trkpt>
      <trkpt lat="45.60606" lon="4.90053">
        <ele>328.7</ele>
        <time>2020-06-28T06:58:41.000Z</time>
      </trkpt>
      <trkpt lat="45.60597" lon="4.90037">
        <ele>328.2</ele>
        <time>2020-06-28T06:58:43.000Z</time>
      </trkpt>
      <trkpt lat="45.60593" lon="4.90029">
        <ele>328.1</ele>
        <time>2020-06-28T06:58:44.000Z</time>
      </trkpt>
      <trkpt lat="45.60584" lon="4.90013">
        <ele>328.1</ele>
        <time>2020-06-28T06:58:46.000Z</time>
      </trkpt>
      <trkpt lat="45.60572" lon="4.89992">
        <ele>328.3</ele>
        <time>2020-06-28T06:58:49.000Z</time>
      </trkpt>
      <trkpt lat="45.60569" lon="4.89986">
        <ele>328.5</ele>
        <time>2020-06-28T06:58:50.000Z</time>
      </trkpt>
      <trkpt lat="45.6056" lon="4.89969">
        <ele>329.1</ele>
        <time>2020-06-28T06:58:53.000Z</time>
      </trkpt>
      <trkpt lat="45.60555" lon="4.8996">
        <ele>329.5</ele>
        <time>2020-06-28T06:58:55.000Z</time>
      </trkpt>
      <trkpt lat="45.60543" lon="4.89932">
        <ele>331.4</ele>
        <time>2020-06-28T06:59:02.000Z</time>
      </trkpt>
      <trkpt lat="45.60541" lon="4.89929">
        <ele>331.5</ele>
        <time>2020-06-28T06:59:03.000Z</time>
      </trkpt>
      <trkpt lat="45.60537" lon="4.89922">
        <ele>331.8</ele>
        <time>2020-06-28T06:59:07.000Z</time>
      </trkpt>
      <trkpt lat="45.60538" lon="4.8992">
        <ele>331.8</ele>
        <time>2020-06-28T06:59:08.000Z</time>
      </trkpt>
      <trkpt lat="45.6054" lon="4.89912">
        <ele>331.7</ele>
        <time>2020-06-28T06:59:11.000Z</time>
      </trkpt>
      <trkpt lat="45.6054" lon="4.89908">
        <ele>331.6</ele>
        <time>2020-06-28T06:59:12.000Z</time>
      </trkpt>
      <trkpt lat="45.60541" lon="4.89903">
        <ele>331.5</ele>
        <time>2020-06-28T06:59:13.000Z</time>
      </trkpt>
      <trkpt lat="45.60552" lon="4.89882">
        <ele>330.8</ele>
        <time>2020-06-28T06:59:18.000Z</time>
      </trkpt>
      <trkpt lat="45.60567" lon="4.89858">
        <ele>330.4</ele>
        <time>2020-06-28T06:59:24.000Z</time>
      </trkpt>
      <trkpt lat="45.60575" lon="4.89848">
        <ele>330.5</ele>
        <time>2020-06-28T06:59:27.000Z</time>
      </trkpt>
      <trkpt lat="45.60584" lon="4.89835">
        <ele>330.8</ele>
        <time>2020-06-28T06:59:31.000Z</time>
      </trkpt>
      <trkpt lat="45.60596" lon="4.89813">
        <ele>331.1</ele>
        <time>2020-06-28T06:59:37.000Z</time>
      </trkpt>
      <trkpt lat="45.60602" lon="4.89781">
        <ele>330</ele>
        <time>2020-06-28T06:59:42.000Z</time>
      </trkpt>
      <trkpt lat="45.60607" lon="4.89763">
        <ele>328.2</ele>
        <time>2020-06-28T06:59:44.000Z</time>
      </trkpt>
      <trkpt lat="45.60612" lon="4.89746">
        <ele>326.1</ele>
        <time>2020-06-28T06:59:46.000Z</time>
      </trkpt>
      <trkpt lat="45.60615" lon="4.89729">
        <ele>324.1</ele>
        <time>2020-06-28T06:59:48.000Z</time>
      </trkpt>
      <trkpt lat="45.60616" lon="4.8972">
        <ele>323.1</ele>
        <time>2020-06-28T06:59:49.000Z</time>
      </trkpt>
      <trkpt lat="45.60615" lon="4.89711">
        <ele>322.2</ele>
        <time>2020-06-28T06:59:50.000Z</time>
      </trkpt>
      <trkpt lat="45.60612" lon="4.89702">
        <ele>321.3</ele>
        <time>2020-06-28T06:59:51.000Z</time>
      </trkpt>
      <trkpt lat="45.60602" lon="4.89684">
        <ele>319.6</ele>
        <time>2020-06-28T06:59:53.000Z</time>
      </trkpt>
      <trkpt lat="45.60598" lon="4.89677">
        <ele>319.2</ele>
        <time>2020-06-28T06:59:54.000Z</time>
      </trkpt>
      <trkpt lat="45.60594" lon="4.89671">
        <ele>318.8</ele>
        <time>2020-06-28T06:59:55.000Z</time>
      </trkpt>
      <trkpt lat="45.60591" lon="4.89665">
        <ele>318.8</ele>
        <time>2020-06-28T06:59:56.000Z</time>
      </trkpt>
      <trkpt lat="45.60587" lon="4.89649">
        <ele>318.7</ele>
        <time>2020-06-28T06:59:58.000Z</time>
      </trkpt>
      <trkpt lat="45.60587" lon="4.89631">
        <ele>318.3</ele>
        <time>2020-06-28T07:00:00.000Z</time>
      </trkpt>
      <trkpt lat="45.60586" lon="4.8961">
        <ele>317.5</ele>
        <time>2020-06-28T07:00:02.000Z</time>
      </trkpt>
      <trkpt lat="45.60581" lon="4.89594">
        <ele>316.8</ele>
        <time>2020-06-28T07:00:04.000Z</time>
      </trkpt>
      <trkpt lat="45.60574" lon="4.89583">
        <ele>316.4</ele>
        <time>2020-06-28T07:00:06.000Z</time>
      </trkpt>
      <trkpt lat="45.60571" lon="4.89578">
        <ele>316.4</ele>
        <time>2020-06-28T07:00:07.000Z</time>
      </trkpt>
      <trkpt lat="45.60568" lon="4.89572">
        <ele>316.5</ele>
        <time>2020-06-28T07:00:08.000Z</time>
      </trkpt>
      <trkpt lat="45.60557" lon="4.89549">
        <ele>317.2</ele>
        <time>2020-06-28T07:00:13.000Z</time>
      </trkpt>
      <trkpt lat="45.6055" lon="4.89542">
        <ele>317.6</ele>
        <time>2020-06-28T07:00:16.000Z</time>
      </trkpt>
      <trkpt lat="45.60548" lon="4.89539">
        <ele>317.8</ele>
        <time>2020-06-28T07:00:17.000Z</time>
      </trkpt>
      <trkpt lat="45.60542" lon="4.89528">
        <ele>318.5</ele>
        <time>2020-06-28T07:00:20.000Z</time>
      </trkpt>
      <trkpt lat="45.60538" lon="4.89519">
        <ele>318.9</ele>
        <time>2020-06-28T07:00:22.000Z</time>
      </trkpt>
      <trkpt lat="45.60534" lon="4.89511">
        <ele>319.4</ele>
        <time>2020-06-28T07:00:24.000Z</time>
      </trkpt>
      <trkpt lat="45.60528" lon="4.89496">
        <ele>320.2</ele>
        <time>2020-06-28T07:00:28.000Z</time>
      </trkpt>
      <trkpt lat="45.60526" lon="4.89492">
        <ele>320.4</ele>
        <time>2020-06-28T07:00:29.000Z</time>
      </trkpt>
      <trkpt lat="45.60522" lon="4.89484">
        <ele>321</ele>
        <time>2020-06-28T07:00:32.000Z</time>
      </trkpt>
      <trkpt lat="45.60521" lon="4.89481">
        <ele>321.2</ele>
        <time>2020-06-28T07:00:33.000Z</time>
      </trkpt>
      <trkpt lat="45.60515" lon="4.89469">
        <ele>322.2</ele>
        <time>2020-06-28T07:00:37.000Z</time>
      </trkpt>
      <trkpt lat="45.60513" lon="4.89462">
        <ele>322.8</ele>
        <time>2020-06-28T07:00:39.000Z</time>
      </trkpt>
      <trkpt lat="45.60512" lon="4.89447">
        <ele>324</ele>
        <time>2020-06-28T07:00:42.000Z</time>
      </trkpt>
      <trkpt lat="45.6051" lon="4.8944">
        <ele>324.6</ele>
        <time>2020-06-28T07:00:44.000Z</time>
      </trkpt>
      <trkpt lat="45.60508" lon="4.89436">
        <ele>324.8</ele>
        <time>2020-06-28T07:00:45.000Z</time>
      </trkpt>
      <trkpt lat="45.60503" lon="4.89423">
        <ele>325.8</ele>
        <time>2020-06-28T07:00:49.000Z</time>
      </trkpt>
      <trkpt lat="45.60501" lon="4.89416">
        <ele>326.2</ele>
        <time>2020-06-28T07:00:51.000Z</time>
      </trkpt>
      <trkpt lat="45.60496" lon="4.89404">
        <ele>327.3</ele>
        <time>2020-06-28T07:00:55.000Z</time>
      </trkpt>
      <trkpt lat="45.60494" lon="4.894">
        <ele>327.7</ele>
        <time>2020-06-28T07:00:57.000Z</time>
      </trkpt>
      <trkpt lat="45.60489" lon="4.89396">
        <ele>328.4</ele>
        <time>2020-06-28T07:01:00.000Z</time>
      </trkpt>
      <trkpt lat="45.60483" lon="4.89392">
        <ele>329.2</ele>
        <time>2020-06-28T07:01:03.000Z</time>
      </trkpt>
      <trkpt lat="45.60482" lon="4.89392">
        <ele>329.4</ele>
        <time>2020-06-28T07:01:04.000Z</time>
      </trkpt>
      <trkpt lat="45.60479" lon="4.89385">
        <ele>330.3</ele>
        <time>2020-06-28T07:01:07.000Z</time>
      </trkpt>
      <trkpt lat="45.60478" lon="4.89383">
        <ele>330.6</ele>
        <time>2020-06-28T07:01:08.000Z</time>
      </trkpt>
      <trkpt lat="45.60475" lon="4.89375">
        <ele>331.6</ele>
        <time>2020-06-28T07:01:11.000Z</time>
      </trkpt>
      <trkpt lat="45.6047" lon="4.89365">
        <ele>332.9</ele>
        <time>2020-06-28T07:01:15.000Z</time>
      </trkpt>
      <trkpt lat="45.60468" lon="4.89363">
        <ele>333.2</ele>
        <time>2020-06-28T07:01:16.000Z</time>
      </trkpt>
      <trkpt lat="45.60464" lon="4.89356">
        <ele>334.2</ele>
        <time>2020-06-28T07:01:19.000Z</time>
      </trkpt>
      <trkpt lat="45.6046" lon="4.89351">
        <ele>334.9</ele>
        <time>2020-06-28T07:01:22.000Z</time>
      </trkpt>
      <trkpt lat="45.60458" lon="4.89348">
        <ele>335.3</ele>
        <time>2020-06-28T07:01:24.000Z</time>
      </trkpt>
      <trkpt lat="45.60456" lon="4.89339">
        <ele>336.2</ele>
        <time>2020-06-28T07:01:28.000Z</time>
      </trkpt>
      <trkpt lat="45.60456" lon="4.89334">
        <ele>336.6</ele>
        <time>2020-06-28T07:01:29.000Z</time>
      </trkpt>
      <trkpt lat="45.60459" lon="4.89325">
        <ele>337.2</ele>
        <time>2020-06-28T07:01:32.000Z</time>
      </trkpt>
      <trkpt lat="45.6046" lon="4.89323">
        <ele>337.3</ele>
        <time>2020-06-28T07:01:33.000Z</time>
      </trkpt>
      <trkpt lat="45.60468" lon="4.89317">
        <ele>337.6</ele>
        <time>2020-06-28T07:01:39.000Z</time>
      </trkpt>
      <trkpt lat="45.6047" lon="4.89316">
        <ele>337.6</ele>
        <time>2020-06-28T07:01:40.000Z</time>
      </trkpt>
      <trkpt lat="45.60471" lon="4.89316">
        <ele>337.5</ele>
        <time>2020-06-28T07:01:41.000Z</time>
      </trkpt>
      <trkpt lat="45.60476" lon="4.8932">
        <ele>337.4</ele>
        <time>2020-06-28T07:01:44.000Z</time>
      </trkpt>
      <trkpt lat="45.60487" lon="4.89323">
        <ele>336.8</ele>
        <time>2020-06-28T07:01:49.000Z</time>
      </trkpt>
      <trkpt lat="45.60491" lon="4.89327">
        <ele>336.4</ele>
        <time>2020-06-28T07:01:51.000Z</time>
      </trkpt>
      <trkpt lat="45.60495" lon="4.8933">
        <ele>336</ele>
        <time>2020-06-28T07:01:53.000Z</time>
      </trkpt>
      <trkpt lat="45.60497" lon="4.89332">
        <ele>335.8</ele>
        <time>2020-06-28T07:01:54.000Z</time>
      </trkpt>
      <trkpt lat="45.60504" lon="4.89338">
        <ele>334.5</ele>
        <time>2020-06-28T07:01:57.000Z</time>
      </trkpt>
      <trkpt lat="45.60508" lon="4.89339">
        <ele>333.8</ele>
        <time>2020-06-28T07:01:59.000Z</time>
      </trkpt>
      <trkpt lat="45.6051" lon="4.89341">
        <ele>333.4</ele>
        <time>2020-06-28T07:02:00.000Z</time>
      </trkpt>
      <trkpt lat="45.60514" lon="4.89347">
        <ele>332.1</ele>
        <time>2020-06-28T07:02:02.000Z</time>
      </trkpt>
      <trkpt lat="45.60516" lon="4.8935">
        <ele>331.4</ele>
        <time>2020-06-28T07:02:03.000Z</time>
      </trkpt>
      <trkpt lat="45.60521" lon="4.89352">
        <ele>330.2</ele>
        <time>2020-06-28T07:02:04.000Z</time>
      </trkpt>
      <trkpt lat="45.60531" lon="4.89353">
        <ele>328.2</ele>
        <time>2020-06-28T07:02:06.000Z</time>
      </trkpt>
      <trkpt lat="45.60535" lon="4.89351">
        <ele>327.4</ele>
        <time>2020-06-28T07:02:07.000Z</time>
      </trkpt>
      <trkpt lat="45.60542" lon="4.89347">
        <ele>326.2</ele>
        <time>2020-06-28T07:02:09.000Z</time>
      </trkpt>
      <trkpt lat="45.6055" lon="4.89344">
        <ele>325.3</ele>
        <time>2020-06-28T07:02:11.000Z</time>
      </trkpt>
      <trkpt lat="45.60553" lon="4.89342">
        <ele>324.9</ele>
        <time>2020-06-28T07:02:12.000Z</time>
      </trkpt>
      <trkpt lat="45.60563" lon="4.89341">
        <ele>324.2</ele>
        <time>2020-06-28T07:02:13.000Z</time>
      </trkpt>
      <trkpt lat="45.60578" lon="4.89336">
        <ele>323.5</ele>
        <time>2020-06-28T07:02:16.000Z</time>
      </trkpt>
      <trkpt lat="45.60585" lon="4.89334">
        <ele>323.4</ele>
        <time>2020-06-28T07:02:18.000Z</time>
      </trkpt>
      <trkpt lat="45.6059" lon="4.89331">
        <ele>323.3</ele>
        <time>2020-06-28T07:02:20.000Z</time>
      </trkpt>
      <trkpt lat="45.6061" lon="4.89328">
        <ele>323.2</ele>
        <time>2020-06-28T07:02:24.000Z</time>
      </trkpt>
      <trkpt lat="45.60619" lon="4.89328">
        <ele>323.2</ele>
        <time>2020-06-28T07:02:27.000Z</time>
      </trkpt>
      <trkpt lat="45.60626" lon="4.89327">
        <ele>323.3</ele>
        <time>2020-06-28T07:02:29.000Z</time>
      </trkpt>
      <trkpt lat="45.60653" lon="4.89324">
        <ele>322.9</ele>
        <time>2020-06-28T07:02:35.000Z</time>
      </trkpt>
      <trkpt lat="45.60657" lon="4.89323">
        <ele>322.7</ele>
        <time>2020-06-28T07:02:36.000Z</time>
      </trkpt>
      <trkpt lat="45.6066" lon="4.89321">
        <ele>322.5</ele>
        <time>2020-06-28T07:02:37.000Z</time>
      </trkpt>
      <trkpt lat="45.60665" lon="4.89313">
        <ele>322</ele>
        <time>2020-06-28T07:02:40.000Z</time>
      </trkpt>
      <trkpt lat="45.60668" lon="4.89285">
        <ele>320</ele>
        <time>2020-06-28T07:02:46.000Z</time>
      </trkpt>
      <trkpt lat="45.60668" lon="4.8928">
        <ele>319.5</ele>
        <time>2020-06-28T07:02:47.000Z</time>
      </trkpt>
      <trkpt lat="45.60669" lon="4.89274">
        <ele>319</ele>
        <time>2020-06-28T07:02:48.000Z</time>
      </trkpt>
      <trkpt lat="45.60669" lon="4.89268">
        <ele>318.4</ele>
        <time>2020-06-28T07:02:49.000Z</time>
      </trkpt>
      <trkpt lat="45.60674" lon="4.89254">
        <ele>316.9</ele>
        <time>2020-06-28T07:02:51.000Z</time>
      </trkpt>
      <trkpt lat="45.60676" lon="4.89248">
        <ele>316.2</ele>
        <time>2020-06-28T07:02:52.000Z</time>
      </trkpt>
      <trkpt lat="45.60678" lon="4.89242">
        <ele>315.7</ele>
        <time>2020-06-28T07:02:53.000Z</time>
      </trkpt>
      <trkpt lat="45.60679" lon="4.89236">
        <ele>315.2</ele>
        <time>2020-06-28T07:02:54.000Z</time>
      </trkpt>
      <trkpt lat="45.60678" lon="4.89231">
        <ele>314.3</ele>
        <time>2020-06-28T07:02:55.000Z</time>
      </trkpt>
      <trkpt lat="45.60674" lon="4.89221">
        <ele>314.3</ele>
        <time>2020-06-28T07:02:57.000Z</time>
      </trkpt>
      <trkpt lat="45.6067" lon="4.89212">
        <ele>314.3</ele>
        <time>2020-06-28T07:02:59.000Z</time>
      </trkpt>
      <trkpt lat="45.60669" lon="4.89207">
        <ele>314.3</ele>
        <time>2020-06-28T07:03:00.000Z</time>
      </trkpt>
      <trkpt lat="45.60668" lon="4.89203">
        <ele>314.3</ele>
        <time>2020-06-28T07:03:01.000Z</time>
      </trkpt>
      <trkpt lat="45.60661" lon="4.89167">
        <ele>314.3</ele>
        <time>2020-06-28T07:03:08.000Z</time>
      </trkpt>
      <trkpt lat="45.60654" lon="4.89133">
        <ele>314.7</ele>
        <time>2020-06-28T07:03:15.000Z</time>
      </trkpt>
      <trkpt lat="45.60653" lon="4.89128">
        <ele>314.8</ele>
        <time>2020-06-28T07:03:16.000Z</time>
      </trkpt>
      <trkpt lat="45.60646" lon="4.89103">
        <ele>315.4</ele>
        <time>2020-06-28T07:03:22.000Z</time>
      </trkpt>
      <trkpt lat="45.60644" lon="4.89085">
        <ele>315.7</ele>
        <time>2020-06-28T07:03:27.000Z</time>
      </trkpt>
      <trkpt lat="45.6064" lon="4.89065">
        <ele>315.8</ele>
        <time>2020-06-28T07:03:33.000Z</time>
      </trkpt>
      <trkpt lat="45.60637" lon="4.89049">
        <ele>315.3</ele>
        <time>2020-06-28T07:03:39.000Z</time>
      </trkpt>
      <trkpt lat="45.60631" lon="4.89037">
        <ele>314.8</ele>
        <time>2020-06-28T07:03:43.000Z</time>
      </trkpt>
      <trkpt lat="45.60623" lon="4.89014">
        <ele>313.8</ele>
        <time>2020-06-28T07:03:47.000Z</time>
      </trkpt>
      <trkpt lat="45.60621" lon="4.89009">
        <ele>313.7</ele>
        <time>2020-06-28T07:03:48.000Z</time>
      </trkpt>
      <trkpt lat="45.6061" lon="4.89005">
        <ele>313.5</ele>
        <time>2020-06-28T07:03:52.000Z</time>
      </trkpt>
      <trkpt lat="45.60597" lon="4.8901">
        <ele>313.7</ele>
        <time>2020-06-28T07:03:57.000Z</time>
      </trkpt>
      <trkpt lat="45.60594" lon="4.89012">
        <ele>313.8</ele>
        <time>2020-06-28T07:03:58.000Z</time>
      </trkpt>
      <trkpt lat="45.60591" lon="4.89014">
        <ele>314</ele>
        <time>2020-06-28T07:03:59.000Z</time>
      </trkpt>
      <trkpt lat="45.60581" lon="4.89018">
        <ele>314.3</ele>
        <time>2020-06-28T07:04:02.000Z</time>
      </trkpt>
      <trkpt lat="45.60574" lon="4.89019">
        <ele>314.5</ele>
        <time>2020-06-28T07:04:04.000Z</time>
      </trkpt>
      <trkpt lat="45.60554" lon="4.89024">
        <ele>315.1</ele>
        <time>2020-06-28T07:04:10.000Z</time>
      </trkpt>
      <trkpt lat="45.60544" lon="4.89024">
        <ele>315.3</ele>
        <time>2020-06-28T07:04:13.000Z</time>
      </trkpt>
      <trkpt lat="45.6053" lon="4.89021">
        <ele>315.4</ele>
        <time>2020-06-28T07:04:17.000Z</time>
      </trkpt>
      <trkpt lat="45.6052" lon="4.89021">
        <ele>315.5</ele>
        <time>2020-06-28T07:04:20.000Z</time>
      </trkpt>
      <trkpt lat="45.60513" lon="4.8902">
        <ele>315.5</ele>
        <time>2020-06-28T07:04:22.000Z</time>
      </trkpt>
      <trkpt lat="45.60488" lon="4.89025">
        <ele>316.1</ele>
        <time>2020-06-28T07:04:29.000Z</time>
      </trkpt>
      <trkpt lat="45.60469" lon="4.89024">
        <ele>316.8</ele>
        <time>2020-06-28T07:04:36.000Z</time>
      </trkpt>
      <trkpt lat="45.60463" lon="4.89025">
        <ele>317.1</ele>
        <time>2020-06-28T07:04:38.000Z</time>
      </trkpt>
      <trkpt lat="45.60456" lon="4.89024">
        <ele>317.4</ele>
        <time>2020-06-28T07:04:41.000Z</time>
      </trkpt>
      <trkpt lat="45.60439" lon="4.89019">
        <ele>318</ele>
        <time>2020-06-28T07:04:47.000Z</time>
      </trkpt>
      <trkpt lat="45.60413" lon="4.89013">
        <ele>318.6</ele>
        <time>2020-06-28T07:04:53.000Z</time>
      </trkpt>
      <trkpt lat="45.60388" lon="4.89004">
        <ele>319</ele>
        <time>2020-06-28T07:04:59.000Z</time>
      </trkpt>
      <trkpt lat="45.60373" lon="4.88996">
        <ele>319.1</ele>
        <time>2020-06-28T07:05:04.000Z</time>
      </trkpt>
      <trkpt lat="45.60369" lon="4.88994">
        <ele>319.1</ele>
        <time>2020-06-28T07:05:05.000Z</time>
      </trkpt>
      <trkpt lat="45.60358" lon="4.88981">
        <ele>319.2</ele>
        <time>2020-06-28T07:05:09.000Z</time>
      </trkpt>
      <trkpt lat="45.60354" lon="4.88959">
        <ele>319.3</ele>
        <time>2020-06-28T07:05:14.000Z</time>
      </trkpt>
      <trkpt lat="45.6035" lon="4.88915">
        <ele>319.4</ele>
        <time>2020-06-28T07:05:20.000Z</time>
      </trkpt>
      <trkpt lat="45.60352" lon="4.8889">
        <ele>318.6</ele>
        <time>2020-06-28T07:05:24.000Z</time>
      </trkpt>
      <trkpt lat="45.60354" lon="4.88883">
        <ele>318.3</ele>
        <time>2020-06-28T07:05:25.000Z</time>
      </trkpt>
      <trkpt lat="45.60371" lon="4.88855">
        <ele>317.4</ele>
        <time>2020-06-28T07:05:29.000Z</time>
      </trkpt>
      <trkpt lat="45.60376" lon="4.88849">
        <ele>317.4</ele>
        <time>2020-06-28T07:05:30.000Z</time>
      </trkpt>
      <trkpt lat="45.60379" lon="4.88843">
        <ele>317.5</ele>
        <time>2020-06-28T07:05:31.000Z</time>
      </trkpt>
      <trkpt lat="45.60386" lon="4.88833">
        <ele>317.8</ele>
        <time>2020-06-28T07:05:33.000Z</time>
      </trkpt>
      <trkpt lat="45.60396" lon="4.88812">
        <ele>318.3</ele>
        <time>2020-06-28T07:05:37.000Z</time>
      </trkpt>
      <trkpt lat="45.60404" lon="4.88797">
        <ele>318.6</ele>
        <time>2020-06-28T07:05:40.000Z</time>
      </trkpt>
      <trkpt lat="45.60415" lon="4.88777">
        <ele>319.2</ele>
        <time>2020-06-28T07:05:45.000Z</time>
      </trkpt>
      <trkpt lat="45.60424" lon="4.88756">
        <ele>319.4</ele>
        <time>2020-06-28T07:05:50.000Z</time>
      </trkpt>
      <trkpt lat="45.60426" lon="4.88752">
        <ele>319.4</ele>
        <time>2020-06-28T07:05:51.000Z</time>
      </trkpt>
      <trkpt lat="45.60437" lon="4.88728">
        <ele>319</ele>
        <time>2020-06-28T07:05:56.000Z</time>
      </trkpt>
      <trkpt lat="45.60441" lon="4.88719">
        <ele>318.8</ele>
        <time>2020-06-28T07:05:58.000Z</time>
      </trkpt>
      <trkpt lat="45.60456" lon="4.88696">
        <ele>318.1</ele>
        <time>2020-06-28T07:06:04.000Z</time>
      </trkpt>
      <trkpt lat="45.60464" lon="4.8869">
        <ele>317.5</ele>
        <time>2020-06-28T07:06:08.000Z</time>
      </trkpt>
      <trkpt lat="45.60465" lon="4.88688">
        <ele>317.4</ele>
        <time>2020-06-28T07:06:09.000Z</time>
      </trkpt>
      <trkpt lat="45.60465" lon="4.88687">
        <ele>317.3</ele>
        <time>2020-06-28T07:06:10.000Z</time>
      </trkpt>
      <trkpt lat="45.60467" lon="4.88681">
        <ele>317</ele>
        <time>2020-06-28T07:07:03.000Z</time>
      </trkpt>
      <trkpt lat="45.60468" lon="4.88678">
        <ele>316.8</ele>
        <time>2020-06-28T07:07:04.000Z</time>
      </trkpt>
      <trkpt lat="45.60469" lon="4.88675">
        <ele>316.6</ele>
        <time>2020-06-28T07:07:08.000Z</time>
      </trkpt>
      <trkpt lat="45.60468" lon="4.88667">
        <ele>316.1</ele>
        <time>2020-06-28T07:07:54.000Z</time>
      </trkpt>
      <trkpt lat="45.60468" lon="4.88648">
        <ele>314.7</ele>
        <time>2020-06-28T07:07:59.000Z</time>
      </trkpt>
      <trkpt lat="45.60466" lon="4.88622">
        <ele>312.7</ele>
        <time>2020-06-28T07:08:03.000Z</time>
      </trkpt>
      <trkpt lat="45.60463" lon="4.88604">
        <ele>311.6</ele>
        <time>2020-06-28T07:08:05.000Z</time>
      </trkpt>
      <trkpt lat="45.60458" lon="4.88575">
        <ele>310.2</ele>
        <time>2020-06-28T07:08:08.000Z</time>
      </trkpt>
      <trkpt lat="45.60453" lon="4.88555">
        <ele>309.4</ele>
        <time>2020-06-28T07:08:10.000Z</time>
      </trkpt>
      <trkpt lat="45.60446" lon="4.88534">
        <ele>308.8</ele>
        <time>2020-06-28T07:08:12.000Z</time>
      </trkpt>
      <trkpt lat="45.60443" lon="4.88524">
        <ele>308.6</ele>
        <time>2020-06-28T07:08:13.000Z</time>
      </trkpt>
      <trkpt lat="45.6044" lon="4.88513">
        <ele>308.4</ele>
        <time>2020-06-28T07:08:14.000Z</time>
      </trkpt>
      <trkpt lat="45.60436" lon="4.88492">
        <ele>308</ele>
        <time>2020-06-28T07:08:16.000Z</time>
      </trkpt>
      <trkpt lat="45.60433" lon="4.88471">
        <ele>307.5</ele>
        <time>2020-06-28T07:08:18.000Z</time>
      </trkpt>
      <trkpt lat="45.60432" lon="4.88461">
        <ele>307.2</ele>
        <time>2020-06-28T07:08:19.000Z</time>
      </trkpt>
      <trkpt lat="45.60429" lon="4.8844">
        <ele>306.5</ele>
        <time>2020-06-28T07:08:21.000Z</time>
      </trkpt>
      <trkpt lat="45.60425" lon="4.88382">
        <ele>304.6</ele>
        <time>2020-06-28T07:08:26.000Z</time>
      </trkpt>
      <trkpt lat="45.60424" lon="4.88358">
        <ele>304.4</ele>
        <time>2020-06-28T07:08:28.000Z</time>
      </trkpt>
      <trkpt lat="45.60423" lon="4.88314">
        <ele>304.5</ele>
        <time>2020-06-28T07:08:32.000Z</time>
      </trkpt>
      <trkpt lat="45.60422" lon="4.88259">
        <ele>305.5</ele>
        <time>2020-06-28T07:08:38.000Z</time>
      </trkpt>
      <trkpt lat="45.60423" lon="4.88229">
        <ele>306</ele>
        <time>2020-06-28T07:08:42.000Z</time>
      </trkpt>
      <trkpt lat="45.60424" lon="4.88215">
        <ele>306.2</ele>
        <time>2020-06-28T07:08:44.000Z</time>
      </trkpt>
      <trkpt lat="45.60432" lon="4.88168">
        <ele>306.9</ele>
        <time>2020-06-28T07:08:51.000Z</time>
      </trkpt>
      <trkpt lat="45.60433" lon="4.88162">
        <ele>307</ele>
        <time>2020-06-28T07:08:52.000Z</time>
      </trkpt>
      <trkpt lat="45.60436" lon="4.88137">
        <ele>307.4</ele>
        <time>2020-06-28T07:08:56.000Z</time>
      </trkpt>
      <trkpt lat="45.60441" lon="4.88104">
        <ele>307.5</ele>
        <time>2020-06-28T07:09:02.000Z</time>
      </trkpt>
      <trkpt lat="45.6044" lon="4.88095">
        <ele>307.4</ele>
        <time>2020-06-28T07:09:04.000Z</time>
      </trkpt>
      <trkpt lat="45.60438" lon="4.88092">
        <ele>307.3</ele>
        <time>2020-06-28T07:09:05.000Z</time>
      </trkpt>
      <trkpt lat="45.60432" lon="4.88094">
        <ele>308</ele>
        <time>2020-06-28T07:09:08.000Z</time>
      </trkpt>
      <trkpt lat="45.60429" lon="4.88097">
        <ele>308.4</ele>
        <time>2020-06-28T07:09:10.000Z</time>
      </trkpt>
      <trkpt lat="45.60422" lon="4.88105">
        <ele>309.3</ele>
        <time>2020-06-28T07:09:14.000Z</time>
      </trkpt>
      <trkpt lat="45.60416" lon="4.88111">
        <ele>309.9</ele>
        <time>2020-06-28T07:09:17.000Z</time>
      </trkpt>
      <trkpt lat="45.60415" lon="4.88113">
        <ele>310.2</ele>
        <time>2020-06-28T07:09:18.000Z</time>
      </trkpt>
      <trkpt lat="45.60406" lon="4.88123">
        <ele>311.3</ele>
        <time>2020-06-28T07:09:23.000Z</time>
      </trkpt>
      <trkpt lat="45.60399" lon="4.88131">
        <ele>312.2</ele>
        <time>2020-06-28T07:09:27.000Z</time>
      </trkpt>
      <trkpt lat="45.60396" lon="4.88134">
        <ele>312.6</ele>
        <time>2020-06-28T07:09:29.000Z</time>
      </trkpt>
      <trkpt lat="45.60388" lon="4.88139">
        <ele>313.6</ele>
        <time>2020-06-28T07:09:34.000Z</time>
      </trkpt>
      <trkpt lat="45.60384" lon="4.88141">
        <ele>314.1</ele>
        <time>2020-06-28T07:09:36.000Z</time>
      </trkpt>
      <trkpt lat="45.60379" lon="4.88145">
        <ele>314.7</ele>
        <time>2020-06-28T07:09:39.000Z</time>
      </trkpt>
      <trkpt lat="45.60378" lon="4.88146">
        <ele>314.9</ele>
        <time>2020-06-28T07:09:40.000Z</time>
      </trkpt>
      <trkpt lat="45.60371" lon="4.88153">
        <ele>315.9</ele>
        <time>2020-06-28T07:09:45.000Z</time>
      </trkpt>
      <trkpt lat="45.6037" lon="4.88154">
        <ele>316</ele>
        <time>2020-06-28T07:09:46.000Z</time>
      </trkpt>
      <trkpt lat="45.60364" lon="4.88157">
        <ele>316.9</ele>
        <time>2020-06-28T07:09:52.000Z</time>
      </trkpt>
      <trkpt lat="45.60358" lon="4.88161">
        <ele>317.6</ele>
        <time>2020-06-28T07:09:56.000Z</time>
      </trkpt>
      <trkpt lat="45.60354" lon="4.88163">
        <ele>318.2</ele>
        <time>2020-06-28T07:09:59.000Z</time>
      </trkpt>
      <trkpt lat="45.60352" lon="4.88164">
        <ele>318.6</ele>
        <time>2020-06-28T07:10:01.000Z</time>
      </trkpt>
      <trkpt lat="45.60348" lon="4.88166">
        <ele>319</ele>
        <time>2020-06-28T07:10:04.000Z</time>
      </trkpt>
      <trkpt lat="45.60347" lon="4.88166">
        <ele>319.2</ele>
        <time>2020-06-28T07:10:05.000Z</time>
      </trkpt>
      <trkpt lat="45.60344" lon="4.8817">
        <ele>319.7</ele>
        <time>2020-06-28T07:10:08.000Z</time>
      </trkpt>
      <trkpt lat="45.60338" lon="4.88176">
        <ele>320.7</ele>
        <time>2020-06-28T07:10:13.000Z</time>
      </trkpt>
      <trkpt lat="45.60327" lon="4.88184">
        <ele>322.2</ele>
        <time>2020-06-28T07:10:19.000Z</time>
      </trkpt>
      <trkpt lat="45.60322" lon="4.88188">
        <ele>323</ele>
        <time>2020-06-28T07:10:22.000Z</time>
      </trkpt>
      <trkpt lat="45.60317" lon="4.88192">
        <ele>323.7</ele>
        <time>2020-06-28T07:10:25.000Z</time>
      </trkpt>
      <trkpt lat="45.60312" lon="4.88197">
        <ele>324.5</ele>
        <time>2020-06-28T07:10:29.000Z</time>
      </trkpt>
      <trkpt lat="45.60311" lon="4.88198">
        <ele>324.7</ele>
        <time>2020-06-28T07:10:30.000Z</time>
      </trkpt>
      <trkpt lat="45.60301" lon="4.88205">
        <ele>326.1</ele>
        <time>2020-06-28T07:10:35.000Z</time>
      </trkpt>
      <trkpt lat="45.603" lon="4.88206">
        <ele>326.4</ele>
        <time>2020-06-28T07:10:36.000Z</time>
      </trkpt>
      <trkpt lat="45.60293" lon="4.88212">
        <ele>327.5</ele>
        <time>2020-06-28T07:10:40.000Z</time>
      </trkpt>
      <trkpt lat="45.60285" lon="4.88218">
        <ele>328.7</ele>
        <time>2020-06-28T07:10:45.000Z</time>
      </trkpt>
      <trkpt lat="45.60282" lon="4.88222">
        <ele>329.3</ele>
        <time>2020-06-28T07:10:47.000Z</time>
      </trkpt>
      <trkpt lat="45.60276" lon="4.88228">
        <ele>330.3</ele>
        <time>2020-06-28T07:10:50.000Z</time>
      </trkpt>
      <trkpt lat="45.60268" lon="4.88233">
        <ele>331.7</ele>
        <time>2020-06-28T07:10:55.000Z</time>
      </trkpt>
      <trkpt lat="45.60262" lon="4.88235">
        <ele>332.6</ele>
        <time>2020-06-28T07:11:00.000Z</time>
      </trkpt>
      <trkpt lat="45.60258" lon="4.88235">
        <ele>333.4</ele>
        <time>2020-06-28T07:11:03.000Z</time>
      </trkpt>
      <trkpt lat="45.60252" lon="4.88233">
        <ele>334.3</ele>
        <time>2020-06-28T07:11:07.000Z</time>
      </trkpt>
      <trkpt lat="45.6025" lon="4.88232">
        <ele>334.7</ele>
        <time>2020-06-28T07:11:09.000Z</time>
      </trkpt>
      <trkpt lat="45.60249" lon="4.88232">
        <ele>334.9</ele>
        <time>2020-06-28T07:11:10.000Z</time>
      </trkpt>
      <trkpt lat="45.60243" lon="4.8823">
        <ele>335.8</ele>
        <time>2020-06-28T07:11:14.000Z</time>
      </trkpt>
      <trkpt lat="45.60239" lon="4.8823">
        <ele>336.5</ele>
        <time>2020-06-28T07:11:17.000Z</time>
      </trkpt>
      <trkpt lat="45.60237" lon="4.88229">
        <ele>336.8</ele>
        <time>2020-06-28T07:11:18.000Z</time>
      </trkpt>
      <trkpt lat="45.60229" lon="4.88228">
        <ele>338</ele>
        <time>2020-06-28T07:11:23.000Z</time>
      </trkpt>
      <trkpt lat="45.60226" lon="4.88229">
        <ele>338.4</ele>
        <time>2020-06-28T07:11:24.000Z</time>
      </trkpt>
      <trkpt lat="45.60222" lon="4.88228">
        <ele>339.1</ele>
        <time>2020-06-28T07:11:27.000Z</time>
      </trkpt>
      <trkpt lat="45.60214" lon="4.88227">
        <ele>340.3</ele>
        <time>2020-06-28T07:11:31.000Z</time>
      </trkpt>
      <trkpt lat="45.60208" lon="4.88226">
        <ele>341.1</ele>
        <time>2020-06-28T07:11:34.000Z</time>
      </trkpt>
      <trkpt lat="45.60204" lon="4.88225">
        <ele>341.6</ele>
        <time>2020-06-28T07:11:36.000Z</time>
      </trkpt>
      <trkpt lat="45.60203" lon="4.88225">
        <ele>341.9</ele>
        <time>2020-06-28T07:11:37.000Z</time>
      </trkpt>
      <trkpt lat="45.60195" lon="4.88223">
        <ele>342.7</ele>
        <time>2020-06-28T07:11:41.000Z</time>
      </trkpt>
      <trkpt lat="45.60186" lon="4.8822">
        <ele>343.1</ele>
        <time>2020-06-28T07:11:45.000Z</time>
      </trkpt>
      <trkpt lat="45.60166" lon="4.88217">
        <ele>342.3</ele>
        <time>2020-06-28T07:11:50.000Z</time>
      </trkpt>
      <trkpt lat="45.60151" lon="4.88217">
        <ele>341.7</ele>
        <time>2020-06-28T07:11:53.000Z</time>
      </trkpt>
      <trkpt lat="45.6013" lon="4.88219">
        <ele>341</ele>
        <time>2020-06-28T07:11:57.000Z</time>
      </trkpt>
      <trkpt lat="45.60092" lon="4.88223">
        <ele>339.5</ele>
        <time>2020-06-28T07:12:03.000Z</time>
      </trkpt>
      <trkpt lat="45.60059" lon="4.88212">
        <ele>338.1</ele>
        <time>2020-06-28T07:12:08.000Z</time>
      </trkpt>
      <trkpt lat="45.60046" lon="4.88206">
        <ele>337.5</ele>
        <time>2020-06-28T07:12:10.000Z</time>
      </trkpt>
      <trkpt lat="45.60028" lon="4.88197">
        <ele>336.8</ele>
        <time>2020-06-28T07:12:13.000Z</time>
      </trkpt>
      <trkpt lat="45.60015" lon="4.8819">
        <ele>336.3</ele>
        <time>2020-06-28T07:12:15.000Z</time>
      </trkpt>
      <trkpt lat="45.60009" lon="4.88188">
        <ele>336.1</ele>
        <time>2020-06-28T07:12:16.000Z</time>
      </trkpt>
      <trkpt lat="45.5999" lon="4.88182">
        <ele>335.6</ele>
        <time>2020-06-28T07:12:19.000Z</time>
      </trkpt>
      <trkpt lat="45.59978" lon="4.88178">
        <ele>335.4</ele>
        <time>2020-06-28T07:12:21.000Z</time>
      </trkpt>
      <trkpt lat="45.59972" lon="4.88175">
        <ele>335.3</ele>
        <time>2020-06-28T07:12:22.000Z</time>
      </trkpt>
      <trkpt lat="45.59932" lon="4.88156">
        <ele>334.6</ele>
        <time>2020-06-28T07:12:29.000Z</time>
      </trkpt>
      <trkpt lat="45.59915" lon="4.88145">
        <ele>334.4</ele>
        <time>2020-06-28T07:12:32.000Z</time>
      </trkpt>
      <trkpt lat="45.59905" lon="4.88138">
        <ele>334.2</ele>
        <time>2020-06-28T07:12:34.000Z</time>
      </trkpt>
      <trkpt lat="45.599" lon="4.88135">
        <ele>334.2</ele>
        <time>2020-06-28T07:12:35.000Z</time>
      </trkpt>
      <trkpt lat="45.5988" lon="4.88123">
        <ele>334.2</ele>
        <time>2020-06-28T07:12:40.000Z</time>
      </trkpt>
      <trkpt lat="45.59877" lon="4.88121">
        <ele>334</ele>
        <time>2020-06-28T07:12:41.000Z</time>
      </trkpt>
      <trkpt lat="45.59869" lon="4.88115">
        <ele>333.4</ele>
        <time>2020-06-28T07:12:44.000Z</time>
      </trkpt>
      <trkpt lat="45.59868" lon="4.88112">
        <ele>333.3</ele>
        <time>2020-06-28T07:12:45.000Z</time>
      </trkpt>
      <trkpt lat="45.5987" lon="4.881">
        <ele>332.7</ele>
        <time>2020-06-28T07:12:48.000Z</time>
      </trkpt>
      <trkpt lat="45.59871" lon="4.88098">
        <ele>332.6</ele>
        <time>2020-06-28T07:12:49.000Z</time>
      </trkpt>
      <trkpt lat="45.59876" lon="4.88091">
        <ele>332.3</ele>
        <time>2020-06-28T07:12:54.000Z</time>
      </trkpt>
      <trkpt lat="45.5988" lon="4.88086">
        <ele>332.2</ele>
        <time>2020-06-28T07:13:12.000Z</time>
      </trkpt>
      <trkpt lat="45.59883" lon="4.8808">
        <ele>332</ele>
        <time>2020-06-28T07:13:14.000Z</time>
      </trkpt>
      <trkpt lat="45.59895" lon="4.88054">
        <ele>332.4</ele>
        <time>2020-06-28T07:13:19.000Z</time>
      </trkpt>
      <trkpt lat="45.59902" lon="4.88035">
        <ele>333.3</ele>
        <time>2020-06-28T07:13:22.000Z</time>
      </trkpt>
      <trkpt lat="45.59904" lon="4.88029">
        <ele>333.6</ele>
        <time>2020-06-28T07:13:23.000Z</time>
      </trkpt>
      <trkpt lat="45.59906" lon="4.88018">
        <ele>334.3</ele>
        <time>2020-06-28T07:13:25.000Z</time>
      </trkpt>
      <trkpt lat="45.59907" lon="4.88008">
        <ele>334.9</ele>
        <time>2020-06-28T07:13:27.000Z</time>
      </trkpt>
      <trkpt lat="45.59908" lon="4.87997">
        <ele>335.5</ele>
        <time>2020-06-28T07:13:29.000Z</time>
      </trkpt>
      <trkpt lat="45.59909" lon="4.87981">
        <ele>336.3</ele>
        <time>2020-06-28T07:13:32.000Z</time>
      </trkpt>
      <trkpt lat="45.5991" lon="4.87971">
        <ele>336.9</ele>
        <time>2020-06-28T07:13:34.000Z</time>
      </trkpt>
      <trkpt lat="45.59911" lon="4.87961">
        <ele>337.5</ele>
        <time>2020-06-28T07:13:36.000Z</time>
      </trkpt>
      <trkpt lat="45.59912" lon="4.87947">
        <ele>338.2</ele>
        <time>2020-06-28T07:13:39.000Z</time>
      </trkpt>
      <trkpt lat="45.59912" lon="4.87943">
        <ele>338.5</ele>
        <time>2020-06-28T07:13:40.000Z</time>
      </trkpt>
      <trkpt lat="45.59912" lon="4.87938">
        <ele>338.7</ele>
        <time>2020-06-28T07:13:41.000Z</time>
      </trkpt>
      <trkpt lat="45.59915" lon="4.87914">
        <ele>339.8</ele>
        <time>2020-06-28T07:13:46.000Z</time>
      </trkpt>
      <trkpt lat="45.59917" lon="4.87899">
        <ele>340.5</ele>
        <time>2020-06-28T07:13:49.000Z</time>
      </trkpt>
      <trkpt lat="45.59917" lon="4.87895">
        <ele>340.8</ele>
        <time>2020-06-28T07:13:50.000Z</time>
      </trkpt>
      <trkpt lat="45.5992" lon="4.8787">
        <ele>341.9</ele>
        <time>2020-06-28T07:13:55.000Z</time>
      </trkpt>
      <trkpt lat="45.5992" lon="4.87865">
        <ele>342</ele>
        <time>2020-06-28T07:13:56.000Z</time>
      </trkpt>
      <trkpt lat="45.59922" lon="4.87849">
        <ele>342.7</ele>
        <time>2020-06-28T07:14:00.000Z</time>
      </trkpt>
      <trkpt lat="45.59923" lon="4.87845">
        <ele>343</ele>
        <time>2020-06-28T07:14:01.000Z</time>
      </trkpt>
      <trkpt lat="45.5993" lon="4.87833">
        <ele>344.1</ele>
        <time>2020-06-28T07:14:06.000Z</time>
      </trkpt>
      <trkpt lat="45.59933" lon="4.87818">
        <ele>345</ele>
        <time>2020-06-28T07:14:12.000Z</time>
      </trkpt>
      <trkpt lat="45.59933" lon="4.87816">
        <ele>345.1</ele>
        <time>2020-06-28T07:14:13.000Z</time>
      </trkpt>
      <trkpt lat="45.59935" lon="4.87812">
        <ele>345.3</ele>
        <time>2020-06-28T07:14:15.000Z</time>
      </trkpt>
      <trkpt lat="45.59939" lon="4.87808">
        <ele>345.6</ele>
        <time>2020-06-28T07:14:18.000Z</time>
      </trkpt>
      <trkpt lat="45.59941" lon="4.87805">
        <ele>345.8</ele>
        <time>2020-06-28T07:14:20.000Z</time>
      </trkpt>
      <trkpt lat="45.5995" lon="4.87799">
        <ele>346.2</ele>
        <time>2020-06-28T07:14:25.000Z</time>
      </trkpt>
      <trkpt lat="45.59955" lon="4.87794">
        <ele>346.3</ele>
        <time>2020-06-28T07:14:28.000Z</time>
      </trkpt>
      <trkpt lat="45.59959" lon="4.87789">
        <ele>346.4</ele>
        <time>2020-06-28T07:14:30.000Z</time>
      </trkpt>
      <trkpt lat="45.59965" lon="4.87771">
        <ele>346.5</ele>
        <time>2020-06-28T07:14:36.000Z</time>
      </trkpt>
      <trkpt lat="45.59969" lon="4.87755">
        <ele>346.6</ele>
        <time>2020-06-28T07:14:41.000Z</time>
      </trkpt>
      <trkpt lat="45.59976" lon="4.87741">
        <ele>346.5</ele>
        <time>2020-06-28T07:14:46.000Z</time>
      </trkpt>
      <trkpt lat="45.59991" lon="4.87723">
        <ele>346.1</ele>
        <time>2020-06-28T07:14:52.000Z</time>
      </trkpt>
      <trkpt lat="45.60008" lon="4.8771">
        <ele>344.8</ele>
        <time>2020-06-28T07:14:58.000Z</time>
      </trkpt>
      <trkpt lat="45.60012" lon="4.87707">
        <ele>344.3</ele>
        <time>2020-06-28T07:15:00.000Z</time>
      </trkpt>
      <trkpt lat="45.60014" lon="4.87706">
        <ele>344</ele>
        <time>2020-06-28T07:15:01.000Z</time>
      </trkpt>
      <trkpt lat="45.60017" lon="4.87705">
        <ele>343.6</ele>
        <time>2020-06-28T07:15:02.000Z</time>
      </trkpt>
      <trkpt lat="45.60023" lon="4.877">
        <ele>342.5</ele>
        <time>2020-06-28T07:15:04.000Z</time>
      </trkpt>
      <trkpt lat="45.60031" lon="4.87693">
        <ele>340.9</ele>
        <time>2020-06-28T07:15:07.000Z</time>
      </trkpt>
      <trkpt lat="45.6004" lon="4.87684">
        <ele>339</ele>
        <time>2020-06-28T07:15:10.000Z</time>
      </trkpt>
      <trkpt lat="45.60042" lon="4.87682">
        <ele>338.4</ele>
        <time>2020-06-28T07:15:11.000Z</time>
      </trkpt>
      <trkpt lat="45.60044" lon="4.87681">
        <ele>337.8</ele>
        <time>2020-06-28T07:15:12.000Z</time>
      </trkpt>
      <trkpt lat="45.60049" lon="4.87679">
        <ele>336.7</ele>
        <time>2020-06-28T07:15:14.000Z</time>
      </trkpt>
      <trkpt lat="45.60054" lon="4.87677">
        <ele>335.4</ele>
        <time>2020-06-28T07:15:16.000Z</time>
      </trkpt>
      <trkpt lat="45.60057" lon="4.87676">
        <ele>334.7</ele>
        <time>2020-06-28T07:15:17.000Z</time>
      </trkpt>
      <trkpt lat="45.6006" lon="4.87675">
        <ele>334.1</ele>
        <time>2020-06-28T07:15:18.000Z</time>
      </trkpt>
      <trkpt lat="45.60065" lon="4.87676">
        <ele>332.8</ele>
        <time>2020-06-28T07:15:20.000Z</time>
      </trkpt>
      <trkpt lat="45.60072" lon="4.87676">
        <ele>331.1</ele>
        <time>2020-06-28T07:15:22.000Z</time>
      </trkpt>
      <trkpt lat="45.6008" lon="4.87676">
        <ele>328.8</ele>
        <time>2020-06-28T07:15:25.000Z</time>
      </trkpt>
      <trkpt lat="45.60087" lon="4.87676">
        <ele>326.9</ele>
        <time>2020-06-28T07:15:27.000Z</time>
      </trkpt>
      <trkpt lat="45.60089" lon="4.87677">
        <ele>326</ele>
        <time>2020-06-28T07:15:28.000Z</time>
      </trkpt>
      <trkpt lat="45.60091" lon="4.87677">
        <ele>325.3</ele>
        <time>2020-06-28T07:15:29.000Z</time>
      </trkpt>
      <trkpt lat="45.60095" lon="4.87678">
        <ele>324</ele>
        <time>2020-06-28T07:15:31.000Z</time>
      </trkpt>
      <trkpt lat="45.60097" lon="4.87679">
        <ele>323.5</ele>
        <time>2020-06-28T07:15:32.000Z</time>
      </trkpt>
      <trkpt lat="45.60099" lon="4.87679">
        <ele>322.7</ele>
        <time>2020-06-28T07:15:33.000Z</time>
      </trkpt>
      <trkpt lat="45.60102" lon="4.87678">
        <ele>321.8</ele>
        <time>2020-06-28T07:15:34.000Z</time>
      </trkpt>
      <trkpt lat="45.60104" lon="4.87678">
        <ele>321.1</ele>
        <time>2020-06-28T07:15:35.000Z</time>
      </trkpt>
      <trkpt lat="45.60108" lon="4.87678">
        <ele>319.7</ele>
        <time>2020-06-28T07:15:37.000Z</time>
      </trkpt>
      <trkpt lat="45.60111" lon="4.87678">
        <ele>318.8</ele>
        <time>2020-06-28T07:15:38.000Z</time>
      </trkpt>
      <trkpt lat="45.60113" lon="4.87677">
        <ele>317.9</ele>
        <time>2020-06-28T07:15:39.000Z</time>
      </trkpt>
      <trkpt lat="45.60115" lon="4.87677">
        <ele>317.4</ele>
        <time>2020-06-28T07:15:40.000Z</time>
      </trkpt>
      <trkpt lat="45.60118" lon="4.87678">
        <ele>316.3</ele>
        <time>2020-06-28T07:15:42.000Z</time>
      </trkpt>
      <trkpt lat="45.60122" lon="4.87677">
        <ele>314.9</ele>
        <time>2020-06-28T07:15:44.000Z</time>
      </trkpt>
      <trkpt lat="45.60126" lon="4.87674">
        <ele>313.5</ele>
        <time>2020-06-28T07:15:46.000Z</time>
      </trkpt>
      <trkpt lat="45.60129" lon="4.87668">
        <ele>307.8</ele>
        <time>2020-06-28T07:15:48.000Z</time>
      </trkpt>
      <trkpt lat="45.60132" lon="4.87665">
        <ele>307.7</ele>
        <time>2020-06-28T07:15:49.000Z</time>
      </trkpt>
      <trkpt lat="45.60137" lon="4.87657">
        <ele>307.4</ele>
        <time>2020-06-28T07:15:51.000Z</time>
      </trkpt>
      <trkpt lat="45.60141" lon="4.87652">
        <ele>307.1</ele>
        <time>2020-06-28T07:15:52.000Z</time>
      </trkpt>
      <trkpt lat="45.60144" lon="4.87647">
        <ele>306.9</ele>
        <time>2020-06-28T07:15:53.000Z</time>
      </trkpt>
      <trkpt lat="45.60146" lon="4.87643">
        <ele>306.6</ele>
        <time>2020-06-28T07:15:54.000Z</time>
      </trkpt>
      <trkpt lat="45.60151" lon="4.87627">
        <ele>306.1</ele>
        <time>2020-06-28T07:15:58.000Z</time>
      </trkpt>
      <trkpt lat="45.60156" lon="4.87617">
        <ele>306</ele>
        <time>2020-06-28T07:16:01.000Z</time>
      </trkpt>
      <trkpt lat="45.60157" lon="4.87609">
        <ele>306</ele>
        <time>2020-06-28T07:16:03.000Z</time>
      </trkpt>
      <trkpt lat="45.60159" lon="4.876">
        <ele>306</ele>
        <time>2020-06-28T07:16:05.000Z</time>
      </trkpt>
      <trkpt lat="45.60157" lon="4.87582">
        <ele>306.3</ele>
        <time>2020-06-28T07:16:09.000Z</time>
      </trkpt>
      <trkpt lat="45.60151" lon="4.87572">
        <ele>306.7</ele>
        <time>2020-06-28T07:16:13.000Z</time>
      </trkpt>
      <trkpt lat="45.60149" lon="4.87572">
        <ele>306.8</ele>
        <time>2020-06-28T07:16:14.000Z</time>
      </trkpt>
      <trkpt lat="45.60143" lon="4.87571">
        <ele>307.2</ele>
        <time>2020-06-28T07:16:17.000Z</time>
      </trkpt>
      <trkpt lat="45.60139" lon="4.87571">
        <ele>307.5</ele>
        <time>2020-06-28T07:16:19.000Z</time>
      </trkpt>
      <trkpt lat="45.60134" lon="4.87572">
        <ele>307.9</ele>
        <time>2020-06-28T07:16:21.000Z</time>
      </trkpt>
      <trkpt lat="45.60127" lon="4.87574">
        <ele>308.3</ele>
        <time>2020-06-28T07:16:24.000Z</time>
      </trkpt>
      <trkpt lat="45.60125" lon="4.87575">
        <ele>308.3</ele>
        <time>2020-06-28T07:16:25.000Z</time>
      </trkpt>
      <trkpt lat="45.60111" lon="4.87577">
        <ele>308.1</ele>
        <time>2020-06-28T07:16:29.000Z</time>
      </trkpt>
      <trkpt lat="45.60091" lon="4.87576">
        <ele>306.4</ele>
        <time>2020-06-28T07:16:34.000Z</time>
      </trkpt>
      <trkpt lat="45.60071" lon="4.87571">
        <ele>305.8</ele>
        <time>2020-06-28T07:16:39.000Z</time>
      </trkpt>
      <trkpt lat="45.60068" lon="4.87571">
        <ele>305.9</ele>
        <time>2020-06-28T07:16:40.000Z</time>
      </trkpt>
      <trkpt lat="45.60057" lon="4.87564">
        <ele>306.4</ele>
        <time>2020-06-28T07:16:45.000Z</time>
      </trkpt>
      <trkpt lat="45.60049" lon="4.87554">
        <ele>307.1</ele>
        <time>2020-06-28T07:16:49.000Z</time>
      </trkpt>
      <trkpt lat="45.60049" lon="4.87551">
        <ele>307.3</ele>
        <time>2020-06-28T07:16:50.000Z</time>
      </trkpt>
      <trkpt lat="45.6005" lon="4.87549">
        <ele>307.4</ele>
        <time>2020-06-28T07:16:51.000Z</time>
      </trkpt>
      <trkpt lat="45.60052" lon="4.87538">
        <ele>308.4</ele>
        <time>2020-06-28T07:16:56.000Z</time>
      </trkpt>
      <trkpt lat="45.60052" lon="4.87533">
        <ele>308.9</ele>
        <time>2020-06-28T07:16:59.000Z</time>
      </trkpt>
      <trkpt lat="45.60052" lon="4.87528">
        <ele>309.5</ele>
        <time>2020-06-28T07:17:02.000Z</time>
      </trkpt>
      <trkpt lat="45.60051" lon="4.87527">
        <ele>309.7</ele>
        <time>2020-06-28T07:17:03.000Z</time>
      </trkpt>
      <trkpt lat="45.60047" lon="4.87526">
        <ele>310.8</ele>
        <time>2020-06-28T07:17:06.000Z</time>
      </trkpt>
      <trkpt lat="45.60046" lon="4.87526">
        <ele>310.7</ele>
        <time>2020-06-28T07:17:07.000Z</time>
      </trkpt>
      <trkpt lat="45.60043" lon="4.87526">
        <ele>310.7</ele>
        <time>2020-06-28T07:17:09.000Z</time>
      </trkpt>
      <trkpt lat="45.60042" lon="4.87526">
        <ele>310.7</ele>
        <time>2020-06-28T07:17:10.000Z</time>
      </trkpt>
      <trkpt lat="45.6004" lon="4.87526">
        <ele>310.6</ele>
        <time>2020-06-28T07:17:13.000Z</time>
      </trkpt>
      <trkpt lat="45.60038" lon="4.87525">
        <ele>310.6</ele>
        <time>2020-06-28T07:17:15.000Z</time>
      </trkpt>
      <trkpt lat="45.60037" lon="4.87524">
        <ele>310.6</ele>
        <time>2020-06-28T07:17:16.000Z</time>
      </trkpt>
      <trkpt lat="45.60034" lon="4.8752">
        <ele>310.4</ele>
        <time>2020-06-28T07:17:22.000Z</time>
      </trkpt>
      <trkpt lat="45.60049" lon="4.87519">
        <ele>309.5</ele>
        <time>2020-06-28T07:18:16.000Z</time>
      </trkpt>
      <trkpt lat="45.6005" lon="4.87518">
        <ele>309.4</ele>
        <time>2020-06-28T07:18:17.000Z</time>
      </trkpt>
      <trkpt lat="45.60051" lon="4.87518">
        <ele>309.3</ele>
        <time>2020-06-28T07:18:18.000Z</time>
      </trkpt>
      <trkpt lat="45.60052" lon="4.87518">
        <ele>309.2</ele>
        <time>2020-06-28T07:18:19.000Z</time>
      </trkpt>
      <trkpt lat="45.60054" lon="4.87519">
        <ele>309</ele>
        <time>2020-06-28T07:18:21.000Z</time>
      </trkpt>
      <trkpt lat="45.60058" lon="4.87516">
        <ele>308.5</ele>
        <time>2020-06-28T07:18:24.000Z</time>
      </trkpt>
      <trkpt lat="45.60059" lon="4.87514">
        <ele>308.4</ele>
        <time>2020-06-28T07:18:25.000Z</time>
      </trkpt>
      <trkpt lat="45.60059" lon="4.87513">
        <ele>308.2</ele>
        <time>2020-06-28T07:18:26.000Z</time>
      </trkpt>
      <trkpt lat="45.60061" lon="4.87512">
        <ele>308</ele>
        <time>2020-06-28T07:18:30.000Z</time>
      </trkpt>
      <trkpt lat="45.60064" lon="4.87507">
        <ele>307.3</ele>
        <time>2020-06-28T07:18:33.000Z</time>
      </trkpt>
      <trkpt lat="45.60065" lon="4.87503">
        <ele>306.7</ele>
        <time>2020-06-28T07:18:35.000Z</time>
      </trkpt>
      <trkpt lat="45.60065" lon="4.875">
        <ele>306.3</ele>
        <time>2020-06-28T07:18:36.000Z</time>
      </trkpt>
      <trkpt lat="45.60067" lon="4.87496">
        <ele>305.6</ele>
        <time>2020-06-28T07:18:38.000Z</time>
      </trkpt>
      <trkpt lat="45.60069" lon="4.87489">
        <ele>304.6</ele>
        <time>2020-06-28T07:18:41.000Z</time>
      </trkpt>
      <trkpt lat="45.60069" lon="4.87486">
        <ele>304.1</ele>
        <time>2020-06-28T07:18:42.000Z</time>
      </trkpt>
      <trkpt lat="45.60072" lon="4.87481">
        <ele>303.1</ele>
        <time>2020-06-28T07:18:46.000Z</time>
      </trkpt>
      <trkpt lat="45.60074" lon="4.8748">
        <ele>302.7</ele>
        <time>2020-06-28T07:18:47.000Z</time>
      </trkpt>
      <trkpt lat="45.60079" lon="4.87477">
        <ele>301.7</ele>
        <time>2020-06-28T07:18:49.000Z</time>
      </trkpt>
      <trkpt lat="45.60083" lon="4.87475">
        <ele>301.2</ele>
        <time>2020-06-28T07:18:50.000Z</time>
      </trkpt>
      <trkpt lat="45.60101" lon="4.87463">
        <ele>298.8</ele>
        <time>2020-06-28T07:18:54.000Z</time>
      </trkpt>
      <trkpt lat="45.60105" lon="4.87459">
        <ele>298.3</ele>
        <time>2020-06-28T07:18:55.000Z</time>
      </trkpt>
      <trkpt lat="45.60109" lon="4.87454">
        <ele>297.8</ele>
        <time>2020-06-28T07:18:56.000Z</time>
      </trkpt>
      <trkpt lat="45.60112" lon="4.87448">
        <ele>297.4</ele>
        <time>2020-06-28T07:18:57.000Z</time>
      </trkpt>
      <trkpt lat="45.60116" lon="4.87434">
        <ele>296.7</ele>
        <time>2020-06-28T07:18:59.000Z</time>
      </trkpt>
      <trkpt lat="45.60117" lon="4.87427">
        <ele>296.3</ele>
        <time>2020-06-28T07:19:00.000Z</time>
      </trkpt>
      <trkpt lat="45.60119" lon="4.87419">
        <ele>295.9</ele>
        <time>2020-06-28T07:19:01.000Z</time>
      </trkpt>
      <trkpt lat="45.6012" lon="4.87412">
        <ele>295.6</ele>
        <time>2020-06-28T07:19:02.000Z</time>
      </trkpt>
      <trkpt lat="45.60122" lon="4.87397">
        <ele>295</ele>
        <time>2020-06-28T07:19:04.000Z</time>
      </trkpt>
      <trkpt lat="45.60124" lon="4.87381">
        <ele>294.4</ele>
        <time>2020-06-28T07:19:06.000Z</time>
      </trkpt>
      <trkpt lat="45.60126" lon="4.87368">
        <ele>293.9</ele>
        <time>2020-06-28T07:19:08.000Z</time>
      </trkpt>
      <trkpt lat="45.60128" lon="4.87363">
        <ele>293.6</ele>
        <time>2020-06-28T07:19:09.000Z</time>
      </trkpt>
      <trkpt lat="45.6013" lon="4.8736">
        <ele>293.4</ele>
        <time>2020-06-28T07:19:10.000Z</time>
      </trkpt>
      <trkpt lat="45.6013" lon="4.87358">
        <ele>293.3</ele>
        <time>2020-06-28T07:19:11.000Z</time>
      </trkpt>
      <trkpt lat="45.60131" lon="4.87352">
        <ele>293</ele>
        <time>2020-06-28T07:19:13.000Z</time>
      </trkpt>
      <trkpt lat="45.60133" lon="4.87348">
        <ele>292.7</ele>
        <time>2020-06-28T07:19:14.000Z</time>
      </trkpt>
      <trkpt lat="45.60134" lon="4.87345">
        <ele>292.6</ele>
        <time>2020-06-28T07:19:15.000Z</time>
      </trkpt>
      <trkpt lat="45.60141" lon="4.87332">
        <ele>291.6</ele>
        <time>2020-06-28T07:19:18.000Z</time>
      </trkpt>
      <trkpt lat="45.60145" lon="4.87301">
        <ele>289.8</ele>
        <time>2020-06-28T07:19:23.000Z</time>
      </trkpt>
      <trkpt lat="45.60144" lon="4.8729">
        <ele>289</ele>
        <time>2020-06-28T07:19:25.000Z</time>
      </trkpt>
      <trkpt lat="45.60142" lon="4.87274">
        <ele>287.9</ele>
        <time>2020-06-28T07:19:28.000Z</time>
      </trkpt>
      <trkpt lat="45.60143" lon="4.87244">
        <ele>286.1</ele>
        <time>2020-06-28T07:19:33.000Z</time>
      </trkpt>
      <trkpt lat="45.60144" lon="4.87239">
        <ele>285.9</ele>
        <time>2020-06-28T07:19:34.000Z</time>
      </trkpt>
      <trkpt lat="45.60145" lon="4.87227">
        <ele>285.4</ele>
        <time>2020-06-28T07:19:36.000Z</time>
      </trkpt>
      <trkpt lat="45.60143" lon="4.87216">
        <ele>284.9</ele>
        <time>2020-06-28T07:19:38.000Z</time>
      </trkpt>
      <trkpt lat="45.60142" lon="4.87204">
        <ele>284.5</ele>
        <time>2020-06-28T07:19:40.000Z</time>
      </trkpt>
      <trkpt lat="45.60141" lon="4.87198">
        <ele>284.3</ele>
        <time>2020-06-28T07:19:41.000Z</time>
      </trkpt>
      <trkpt lat="45.60137" lon="4.87187">
        <ele>283.9</ele>
        <time>2020-06-28T07:19:43.000Z</time>
      </trkpt>
      <trkpt lat="45.60132" lon="4.87175">
        <ele>283.7</ele>
        <time>2020-06-28T07:19:45.000Z</time>
      </trkpt>
      <trkpt lat="45.60126" lon="4.87161">
        <ele>283.5</ele>
        <time>2020-06-28T07:19:48.000Z</time>
      </trkpt>
      <trkpt lat="45.60122" lon="4.87155">
        <ele>283.4</ele>
        <time>2020-06-28T07:19:50.000Z</time>
      </trkpt>
      <trkpt lat="45.60111" lon="4.87136">
        <ele>283</ele>
        <time>2020-06-28T07:19:55.000Z</time>
      </trkpt>
      <trkpt lat="45.60106" lon="4.87121">
        <ele>282.7</ele>
        <time>2020-06-28T07:19:58.000Z</time>
      </trkpt>
      <trkpt lat="45.60104" lon="4.87111">
        <ele>282.6</ele>
        <time>2020-06-28T07:20:00.000Z</time>
      </trkpt>
      <trkpt lat="45.60103" lon="4.87101">
        <ele>282.4</ele>
        <time>2020-06-28T07:20:02.000Z</time>
      </trkpt>
      <trkpt lat="45.60102" lon="4.8709">
        <ele>282.3</ele>
        <time>2020-06-28T07:20:04.000Z</time>
      </trkpt>
      <trkpt lat="45.60101" lon="4.87085">
        <ele>282.2</ele>
        <time>2020-06-28T07:20:05.000Z</time>
      </trkpt>
      <trkpt lat="45.601" lon="4.8706">
        <ele>281.9</ele>
        <time>2020-06-28T07:20:10.000Z</time>
      </trkpt>
      <trkpt lat="45.60101" lon="4.87055">
        <ele>281.8</ele>
        <time>2020-06-28T07:20:11.000Z</time>
      </trkpt>
      <trkpt lat="45.60101" lon="4.87049">
        <ele>281.8</ele>
        <time>2020-06-28T07:20:12.000Z</time>
      </trkpt>
      <trkpt lat="45.60102" lon="4.87026">
        <ele>281.6</ele>
        <time>2020-06-28T07:20:16.000Z</time>
      </trkpt>
      <trkpt lat="45.60102" lon="4.87015">
        <ele>281.5</ele>
        <time>2020-06-28T07:20:18.000Z</time>
      </trkpt>
      <trkpt lat="45.60101" lon="4.86995">
        <ele>281.1</ele>
        <time>2020-06-28T07:20:21.000Z</time>
      </trkpt>
      <trkpt lat="45.60098" lon="4.86978">
        <ele>280.3</ele>
        <time>2020-06-28T07:20:23.000Z</time>
      </trkpt>
      <trkpt lat="45.60092" lon="4.86952">
        <ele>278.3</ele>
        <time>2020-06-28T07:20:27.000Z</time>
      </trkpt>
      <trkpt lat="45.60089" lon="4.86947">
        <ele>277.7</ele>
        <time>2020-06-28T07:20:28.000Z</time>
      </trkpt>
      <trkpt lat="45.60086" lon="4.86941">
        <ele>277.1</ele>
        <time>2020-06-28T07:20:29.000Z</time>
      </trkpt>
      <trkpt lat="45.60081" lon="4.86931">
        <ele>276.5</ele>
        <time>2020-06-28T07:20:31.000Z</time>
      </trkpt>
      <trkpt lat="45.60079" lon="4.86927">
        <ele>276.7</ele>
        <time>2020-06-28T07:20:32.000Z</time>
      </trkpt>
      <trkpt lat="45.60077" lon="4.86924">
        <ele>276.9</ele>
        <time>2020-06-28T07:20:33.000Z</time>
      </trkpt>
      <trkpt lat="45.60075" lon="4.8692">
        <ele>277.3</ele>
        <time>2020-06-28T07:20:35.000Z</time>
      </trkpt>
      <trkpt lat="45.60074" lon="4.86918">
        <ele>277.5</ele>
        <time>2020-06-28T07:20:36.000Z</time>
      </trkpt>
      <trkpt lat="45.60071" lon="4.86913">
        <ele>278.1</ele>
        <time>2020-06-28T07:20:38.000Z</time>
      </trkpt>
      <trkpt lat="45.6007" lon="4.86911">
        <ele>278.3</ele>
        <time>2020-06-28T07:20:39.000Z</time>
      </trkpt>
      <trkpt lat="45.60069" lon="4.8691">
        <ele>278.6</ele>
        <time>2020-06-28T07:20:40.000Z</time>
      </trkpt>
      <trkpt lat="45.60066" lon="4.86902">
        <ele>279.7</ele>
        <time>2020-06-28T07:20:43.000Z</time>
      </trkpt>
      <trkpt lat="45.60066" lon="4.86893">
        <ele>280.9</ele>
        <time>2020-06-28T07:20:46.000Z</time>
      </trkpt>
      <trkpt lat="45.60066" lon="4.8689">
        <ele>281.2</ele>
        <time>2020-06-28T07:20:47.000Z</time>
      </trkpt>
      <trkpt lat="45.60064" lon="4.86884">
        <ele>282.1</ele>
        <time>2020-06-28T07:20:50.000Z</time>
      </trkpt>
      <trkpt lat="45.60061" lon="4.86878">
        <ele>282.9</ele>
        <time>2020-06-28T07:20:53.000Z</time>
      </trkpt>
      <trkpt lat="45.6006" lon="4.86877">
        <ele>283.1</ele>
        <time>2020-06-28T07:20:54.000Z</time>
      </trkpt>
      <trkpt lat="45.60059" lon="4.86876">
        <ele>283.4</ele>
        <time>2020-06-28T07:20:55.000Z</time>
      </trkpt>
      <trkpt lat="45.60052" lon="4.86872">
        <ele>284.5</ele>
        <time>2020-06-28T07:20:59.000Z</time>
      </trkpt>
      <trkpt lat="45.60051" lon="4.86872">
        <ele>284.8</ele>
        <time>2020-06-28T07:21:00.000Z</time>
      </trkpt>
      <trkpt lat="45.60047" lon="4.86869">
        <ele>285.6</ele>
        <time>2020-06-28T07:21:04.000Z</time>
      </trkpt>
      <trkpt lat="45.60044" lon="4.86869">
        <ele>286.1</ele>
        <time>2020-06-28T07:21:06.000Z</time>
      </trkpt>
      <trkpt lat="45.60041" lon="4.86867">
        <ele>286.7</ele>
        <time>2020-06-28T07:21:08.000Z</time>
      </trkpt>
      <trkpt lat="45.60036" lon="4.86862">
        <ele>287.7</ele>
        <time>2020-06-28T07:21:13.000Z</time>
      </trkpt>
      <trkpt lat="45.60035" lon="4.86859">
        <ele>288.1</ele>
        <time>2020-06-28T07:21:15.000Z</time>
      </trkpt>
      <trkpt lat="45.60035" lon="4.86857">
        <ele>288.3</ele>
        <time>2020-06-28T07:21:16.000Z</time>
      </trkpt>
      <trkpt lat="45.60035" lon="4.86854">
        <ele>288.5</ele>
        <time>2020-06-28T07:21:17.000Z</time>
      </trkpt>
      <trkpt lat="45.60033" lon="4.86847">
        <ele>289.1</ele>
        <time>2020-06-28T07:21:20.000Z</time>
      </trkpt>
      <trkpt lat="45.60032" lon="4.86843">
        <ele>289.4</ele>
        <time>2020-06-28T07:21:22.000Z</time>
      </trkpt>
      <trkpt lat="45.60032" lon="4.86839">
        <ele>289.5</ele>
        <time>2020-06-28T07:21:25.000Z</time>
      </trkpt>
      <trkpt lat="45.60038" lon="4.86816">
        <ele>289.9</ele>
        <time>2020-06-28T07:22:24.000Z</time>
      </trkpt>
      <trkpt lat="45.60037" lon="4.86814">
        <ele>289.9</ele>
        <time>2020-06-28T07:22:25.000Z</time>
      </trkpt>
      <trkpt lat="45.60038" lon="4.86807">
        <ele>289.8</ele>
        <time>2020-06-28T07:22:27.000Z</time>
      </trkpt>
      <trkpt lat="45.60037" lon="4.86799">
        <ele>289.7</ele>
        <time>2020-06-28T07:22:29.000Z</time>
      </trkpt>
      <trkpt lat="45.60034" lon="4.86783">
        <ele>289.5</ele>
        <time>2020-06-28T07:22:33.000Z</time>
      </trkpt>
      <trkpt lat="45.60036" lon="4.86767">
        <ele>289.3</ele>
        <time>2020-06-28T07:22:37.000Z</time>
      </trkpt>
      <trkpt lat="45.60036" lon="4.86763">
        <ele>289.2</ele>
        <time>2020-06-28T07:22:38.000Z</time>
      </trkpt>
      <trkpt lat="45.6004" lon="4.86752">
        <ele>288.9</ele>
        <time>2020-06-28T07:22:42.000Z</time>
      </trkpt>
      <trkpt lat="45.60047" lon="4.86739">
        <ele>288</ele>
        <time>2020-06-28T07:22:45.000Z</time>
      </trkpt>
      <trkpt lat="45.60051" lon="4.86728">
        <ele>287.3</ele>
        <time>2020-06-28T07:22:47.000Z</time>
      </trkpt>
      <trkpt lat="45.60058" lon="4.86713">
        <ele>286.6</ele>
        <time>2020-06-28T07:22:50.000Z</time>
      </trkpt>
      <trkpt lat="45.60061" lon="4.86707">
        <ele>286.5</ele>
        <time>2020-06-28T07:22:51.000Z</time>
      </trkpt>
      <trkpt lat="45.60064" lon="4.867">
        <ele>286.4</ele>
        <time>2020-06-28T07:22:52.000Z</time>
      </trkpt>
      <trkpt lat="45.60065" lon="4.86693">
        <ele>286.3</ele>
        <time>2020-06-28T07:22:53.000Z</time>
      </trkpt>
      <trkpt lat="45.60065" lon="4.86679">
        <ele>286.3</ele>
        <time>2020-06-28T07:22:55.000Z</time>
      </trkpt>
      <trkpt lat="45.60066" lon="4.86667">
        <ele>286.5</ele>
        <time>2020-06-28T07:22:57.000Z</time>
      </trkpt>
      <trkpt lat="45.60065" lon="4.86642">
        <ele>286.9</ele>
        <time>2020-06-28T07:23:01.000Z</time>
      </trkpt>
      <trkpt lat="45.60067" lon="4.86603">
        <ele>287.5</ele>
        <time>2020-06-28T07:23:07.000Z</time>
      </trkpt>
      <trkpt lat="45.6007" lon="4.86567">
        <ele>288.1</ele>
        <time>2020-06-28T07:23:13.000Z</time>
      </trkpt>
      <trkpt lat="45.6007" lon="4.86555">
        <ele>288.1</ele>
        <time>2020-06-28T07:23:15.000Z</time>
      </trkpt>
      <trkpt lat="45.60071" lon="4.86513">
        <ele>287.9</ele>
        <time>2020-06-28T07:23:21.000Z</time>
      </trkpt>
      <trkpt lat="45.60075" lon="4.86452">
        <ele>287</ele>
        <time>2020-06-28T07:23:29.000Z</time>
      </trkpt>
      <trkpt lat="45.60075" lon="4.8644">
        <ele>286.8</ele>
        <time>2020-06-28T07:23:32.000Z</time>
      </trkpt>
      <trkpt lat="45.60075" lon="4.86435">
        <ele>286.7</ele>
        <time>2020-06-28T07:23:35.000Z</time>
      </trkpt>
      <trkpt lat="45.60075" lon="4.86433">
        <ele>286.7</ele>
        <time>2020-06-28T07:23:37.000Z</time>
      </trkpt>
      <trkpt lat="45.60075" lon="4.86432">
        <ele>286.7</ele>
        <time>2020-06-28T07:23:40.000Z</time>
      </trkpt>
      <trkpt lat="45.60065" lon="4.86437">
        <ele>287.7</ele>
        <time>2020-06-28T07:24:12.000Z</time>
      </trkpt>
      <trkpt lat="45.60064" lon="4.86438">
        <ele>287.9</ele>
        <time>2020-06-28T07:24:13.000Z</time>
      </trkpt>
      <trkpt lat="45.6006" lon="4.86441">
        <ele>288.6</ele>
        <time>2020-06-28T07:24:16.000Z</time>
      </trkpt>
      <trkpt lat="45.60057" lon="4.86443">
        <ele>289.7</ele>
        <time>2020-06-28T07:24:18.000Z</time>
      </trkpt>
      <trkpt lat="45.60056" lon="4.86444">
        <ele>289.8</ele>
        <time>2020-06-28T07:24:19.000Z</time>
      </trkpt>
      <trkpt lat="45.60055" lon="4.86445">
        <ele>289.8</ele>
        <time>2020-06-28T07:24:20.000Z</time>
      </trkpt>
      <trkpt lat="45.60054" lon="4.86449">
        <ele>289.9</ele>
        <time>2020-06-28T07:24:22.000Z</time>
      </trkpt>
      <trkpt lat="45.60053" lon="4.86451">
        <ele>289.9</ele>
        <time>2020-06-28T07:24:23.000Z</time>
      </trkpt>
      <trkpt lat="45.60048" lon="4.8646">
        <ele>290.8</ele>
        <time>2020-06-28T07:24:27.000Z</time>
      </trkpt>
      <trkpt lat="45.60046" lon="4.86465">
        <ele>291.1</ele>
        <time>2020-06-28T07:24:29.000Z</time>
      </trkpt>
      <trkpt lat="45.60043" lon="4.86471">
        <ele>291.3</ele>
        <time>2020-06-28T07:24:31.000Z</time>
      </trkpt>
      <trkpt lat="45.60037" lon="4.86482">
        <ele>291.8</ele>
        <time>2020-06-28T07:24:35.000Z</time>
      </trkpt>
      <trkpt lat="45.60036" lon="4.86485">
        <ele>291.9</ele>
        <time>2020-06-28T07:24:36.000Z</time>
      </trkpt>
      <trkpt lat="45.60036" lon="4.86503">
        <ele>292.5</ele>
        <time>2020-06-28T07:24:41.000Z</time>
      </trkpt>
      <trkpt lat="45.60036" lon="4.8652">
        <ele>293</ele>
        <time>2020-06-28T07:24:46.000Z</time>
      </trkpt>
      <trkpt lat="45.60032" lon="4.86539">
        <ele>293.7</ele>
        <time>2020-06-28T07:24:52.000Z</time>
      </trkpt>
      <trkpt lat="45.60026" lon="4.86551">
        <ele>294.3</ele>
        <time>2020-06-28T07:24:58.000Z</time>
      </trkpt>
      <trkpt lat="45.60025" lon="4.86553">
        <ele>294.4</ele>
        <time>2020-06-28T07:24:59.000Z</time>
      </trkpt>
      <trkpt lat="45.60024" lon="4.86557">
        <ele>294.7</ele>
        <time>2020-06-28T07:25:01.000Z</time>
      </trkpt>
      <trkpt lat="45.60024" lon="4.86573">
        <ele>295.4</ele>
        <time>2020-06-28T07:25:06.000Z</time>
      </trkpt>
      <trkpt lat="45.60022" lon="4.86576">
        <ele>295.6</ele>
        <time>2020-06-28T07:25:07.000Z</time>
      </trkpt>
      <trkpt lat="45.60015" lon="4.8659">
        <ele>296.5</ele>
        <time>2020-06-28T07:25:12.000Z</time>
      </trkpt>
      <trkpt lat="45.60012" lon="4.86596">
        <ele>296.9</ele>
        <time>2020-06-28T07:25:14.000Z</time>
      </trkpt>
      <trkpt lat="45.60004" lon="4.86611">
        <ele>298.1</ele>
        <time>2020-06-28T07:25:19.000Z</time>
      </trkpt>
      <trkpt lat="45.60006" lon="4.86616">
        <ele>298.4</ele>
        <time>2020-06-28T07:25:20.000Z</time>
      </trkpt>
      <trkpt lat="45.6" lon="4.86632">
        <ele>299.5</ele>
        <time>2020-06-28T07:25:25.000Z</time>
      </trkpt>
      <trkpt lat="45.59995" lon="4.86639">
        <ele>300.1</ele>
        <time>2020-06-28T07:25:29.000Z</time>
      </trkpt>
      <trkpt lat="45.59995" lon="4.86649">
        <ele>300.7</ele>
        <time>2020-06-28T07:25:32.000Z</time>
      </trkpt>
      <trkpt lat="45.59991" lon="4.86656">
        <ele>301.3</ele>
        <time>2020-06-28T07:25:35.000Z</time>
      </trkpt>
      <trkpt lat="45.59988" lon="4.86661">
        <ele>301.8</ele>
        <time>2020-06-28T07:25:37.000Z</time>
      </trkpt>
      <trkpt lat="45.59984" lon="4.86669">
        <ele>302.5</ele>
        <time>2020-06-28T07:25:41.000Z</time>
      </trkpt>
      <trkpt lat="45.59983" lon="4.8667">
        <ele>302.7</ele>
        <time>2020-06-28T07:25:42.000Z</time>
      </trkpt>
      <trkpt lat="45.59976" lon="4.86682">
        <ele>303.8</ele>
        <time>2020-06-28T07:25:47.000Z</time>
      </trkpt>
      <trkpt lat="45.59974" lon="4.86686">
        <ele>304.3</ele>
        <time>2020-06-28T07:25:49.000Z</time>
      </trkpt>
      <trkpt lat="45.5998" lon="4.86695">
        <ele>305.3</ele>
        <time>2020-06-28T07:25:51.000Z</time>
      </trkpt>
      <trkpt lat="45.59979" lon="4.86699">
        <ele>305.7</ele>
        <time>2020-06-28T07:25:52.000Z</time>
      </trkpt>
      <trkpt lat="45.59975" lon="4.8671">
        <ele>306.9</ele>
        <time>2020-06-28T07:25:56.000Z</time>
      </trkpt>
      <trkpt lat="45.59974" lon="4.86712">
        <ele>307.1</ele>
        <time>2020-06-28T07:25:57.000Z</time>
      </trkpt>
      <trkpt lat="45.59972" lon="4.86713">
        <ele>307.4</ele>
        <time>2020-06-28T07:25:58.000Z</time>
      </trkpt>
      <trkpt lat="45.59967" lon="4.86722">
        <ele>308.5</ele>
        <time>2020-06-28T07:26:03.000Z</time>
      </trkpt>
      <trkpt lat="45.59963" lon="4.8673">
        <ele>309.7</ele>
        <time>2020-06-28T07:26:08.000Z</time>
      </trkpt>
      <trkpt lat="45.5996" lon="4.86733">
        <ele>310.2</ele>
        <time>2020-06-28T07:26:10.000Z</time>
      </trkpt>
      <trkpt lat="45.59958" lon="4.86736">
        <ele>310.6</ele>
        <time>2020-06-28T07:26:12.000Z</time>
      </trkpt>
      <trkpt lat="45.59954" lon="4.86742">
        <ele>311.5</ele>
        <time>2020-06-28T07:26:16.000Z</time>
      </trkpt>
      <trkpt lat="45.59953" lon="4.86744">
        <ele>311.6</ele>
        <time>2020-06-28T07:26:17.000Z</time>
      </trkpt>
      <trkpt lat="45.59947" lon="4.8675">
        <ele>312.6</ele>
        <time>2020-06-28T07:26:21.000Z</time>
      </trkpt>
      <trkpt lat="45.59944" lon="4.86753">
        <ele>313</ele>
        <time>2020-06-28T07:26:23.000Z</time>
      </trkpt>
      <trkpt lat="45.59943" lon="4.86754">
        <ele>313.2</ele>
        <time>2020-06-28T07:26:24.000Z</time>
      </trkpt>
      <trkpt lat="45.59938" lon="4.86764">
        <ele>314.4</ele>
        <time>2020-06-28T07:26:28.000Z</time>
      </trkpt>
      <trkpt lat="45.59937" lon="4.86766">
        <ele>314.6</ele>
        <time>2020-06-28T07:26:29.000Z</time>
      </trkpt>
      <trkpt lat="45.59933" lon="4.86771">
        <ele>315.4</ele>
        <time>2020-06-28T07:26:34.000Z</time>
      </trkpt>
      <trkpt lat="45.59931" lon="4.86774">
        <ele>315.9</ele>
        <time>2020-06-28T07:26:37.000Z</time>
      </trkpt>
      <trkpt lat="45.59931" lon="4.86775">
        <ele>316</ele>
        <time>2020-06-28T07:26:38.000Z</time>
      </trkpt>
      <trkpt lat="45.59928" lon="4.86779">
        <ele>316.7</ele>
        <time>2020-06-28T07:26:41.000Z</time>
      </trkpt>
      <trkpt lat="45.59926" lon="4.86782">
        <ele>317.1</ele>
        <time>2020-06-28T07:26:43.000Z</time>
      </trkpt>
      <trkpt lat="45.59925" lon="4.86783">
        <ele>317.3</ele>
        <time>2020-06-28T07:26:44.000Z</time>
      </trkpt>
      <trkpt lat="45.5992" lon="4.86791">
        <ele>318.6</ele>
        <time>2020-06-28T07:26:49.000Z</time>
      </trkpt>
      <trkpt lat="45.59917" lon="4.86795">
        <ele>319.3</ele>
        <time>2020-06-28T07:26:51.000Z</time>
      </trkpt>
      <trkpt lat="45.59914" lon="4.868">
        <ele>320</ele>
        <time>2020-06-28T07:26:55.000Z</time>
      </trkpt>
      <trkpt lat="45.59912" lon="4.86806">
        <ele>320.8</ele>
        <time>2020-06-28T07:26:58.000Z</time>
      </trkpt>
      <trkpt lat="45.59911" lon="4.86809">
        <ele>321.2</ele>
        <time>2020-06-28T07:27:00.000Z</time>
      </trkpt>
      <trkpt lat="45.5991" lon="4.86813">
        <ele>321.7</ele>
        <time>2020-06-28T07:27:03.000Z</time>
      </trkpt>
      <trkpt lat="45.59908" lon="4.86815">
        <ele>322.2</ele>
        <time>2020-06-28T07:27:05.000Z</time>
      </trkpt>
      <trkpt lat="45.59904" lon="4.8682">
        <ele>323</ele>
        <time>2020-06-28T07:27:08.000Z</time>
      </trkpt>
      <trkpt lat="45.59901" lon="4.86824">
        <ele>323.7</ele>
        <time>2020-06-28T07:27:11.000Z</time>
      </trkpt>
      <trkpt lat="45.59899" lon="4.86828">
        <ele>324.3</ele>
        <time>2020-06-28T07:27:13.000Z</time>
      </trkpt>
      <trkpt lat="45.59897" lon="4.86835">
        <ele>325.2</ele>
        <time>2020-06-28T07:27:18.000Z</time>
      </trkpt>
      <trkpt lat="45.59896" lon="4.86836">
        <ele>325.4</ele>
        <time>2020-06-28T07:27:19.000Z</time>
      </trkpt>
      <trkpt lat="45.59895" lon="4.86842">
        <ele>326.2</ele>
        <time>2020-06-28T07:27:23.000Z</time>
      </trkpt>
      <trkpt lat="45.59895" lon="4.86847">
        <ele>326.8</ele>
        <time>2020-06-28T07:27:25.000Z</time>
      </trkpt>
      <trkpt lat="45.59895" lon="4.86849">
        <ele>327.2</ele>
        <time>2020-06-28T07:27:27.000Z</time>
      </trkpt>
      <trkpt lat="45.59895" lon="4.86854">
        <ele>327.8</ele>
        <time>2020-06-28T07:27:30.000Z</time>
      </trkpt>
      <trkpt lat="45.59895" lon="4.86856">
        <ele>328</ele>
        <time>2020-06-28T07:27:31.000Z</time>
      </trkpt>
      <trkpt lat="45.59894" lon="4.86865">
        <ele>329.2</ele>
        <time>2020-06-28T07:27:36.000Z</time>
      </trkpt>
      <trkpt lat="45.59893" lon="4.86867">
        <ele>329.5</ele>
        <time>2020-06-28T07:27:37.000Z</time>
      </trkpt>
      <trkpt lat="45.59893" lon="4.86874">
        <ele>330.4</ele>
        <time>2020-06-28T07:27:41.000Z</time>
      </trkpt>
      <trkpt lat="45.59892" lon="4.86875">
        <ele>330.6</ele>
        <time>2020-06-28T07:27:42.000Z</time>
      </trkpt>
      <trkpt lat="45.59891" lon="4.8688">
        <ele>331.2</ele>
        <time>2020-06-28T07:27:45.000Z</time>
      </trkpt>
      <trkpt lat="45.59886" lon="4.86887">
        <ele>332.5</ele>
        <time>2020-06-28T07:27:49.000Z</time>
      </trkpt>
      <trkpt lat="45.59884" lon="4.86889">
        <ele>332.9</ele>
        <time>2020-06-28T07:27:50.000Z</time>
      </trkpt>
      <trkpt lat="45.59883" lon="4.86897">
        <ele>334</ele>
        <time>2020-06-28T07:27:54.000Z</time>
      </trkpt>
      <trkpt lat="45.59882" lon="4.86902">
        <ele>334.7</ele>
        <time>2020-06-28T07:27:57.000Z</time>
      </trkpt>
      <trkpt lat="45.59881" lon="4.86903">
        <ele>335</ele>
        <time>2020-06-28T07:27:58.000Z</time>
      </trkpt>
      <trkpt lat="45.59878" lon="4.8691">
        <ele>336</ele>
        <time>2020-06-28T07:28:03.000Z</time>
      </trkpt>
      <trkpt lat="45.59874" lon="4.86919">
        <ele>337.2</ele>
        <time>2020-06-28T07:28:08.000Z</time>
      </trkpt>
      <trkpt lat="45.59874" lon="4.8692">
        <ele>337.4</ele>
        <time>2020-06-28T07:28:09.000Z</time>
      </trkpt>
      <trkpt lat="45.59873" lon="4.86926">
        <ele>338.1</ele>
        <time>2020-06-28T07:28:13.000Z</time>
      </trkpt>
      <trkpt lat="45.59872" lon="4.86932">
        <ele>338.8</ele>
        <time>2020-06-28T07:28:16.000Z</time>
      </trkpt>
      <trkpt lat="45.5987" lon="4.86939">
        <ele>339.6</ele>
        <time>2020-06-28T07:28:20.000Z</time>
      </trkpt>
      <trkpt lat="45.5987" lon="4.86944">
        <ele>340</ele>
        <time>2020-06-28T07:28:23.000Z</time>
      </trkpt>
      <trkpt lat="45.59869" lon="4.86949">
        <ele>340.4</ele>
        <time>2020-06-28T07:28:26.000Z</time>
      </trkpt>
      <trkpt lat="45.59866" lon="4.86956">
        <ele>341.2</ele>
        <time>2020-06-28T07:28:30.000Z</time>
      </trkpt>
      <trkpt lat="45.59863" lon="4.86964">
        <ele>341.8</ele>
        <time>2020-06-28T07:28:34.000Z</time>
      </trkpt>
      <trkpt lat="45.5986" lon="4.8697">
        <ele>342.4</ele>
        <time>2020-06-28T07:28:37.000Z</time>
      </trkpt>
      <trkpt lat="45.59853" lon="4.86982">
        <ele>343.3</ele>
        <time>2020-06-28T07:28:43.000Z</time>
      </trkpt>
      <trkpt lat="45.59852" lon="4.86984">
        <ele>343.4</ele>
        <time>2020-06-28T07:28:44.000Z</time>
      </trkpt>
      <trkpt lat="45.59844" lon="4.86994">
        <ele>344</ele>
        <time>2020-06-28T07:28:49.000Z</time>
      </trkpt>
      <trkpt lat="45.59841" lon="4.87">
        <ele>344.3</ele>
        <time>2020-06-28T07:28:52.000Z</time>
      </trkpt>
      <trkpt lat="45.59836" lon="4.87005">
        <ele>344.5</ele>
        <time>2020-06-28T07:28:55.000Z</time>
      </trkpt>
      <trkpt lat="45.59825" lon="4.87014">
        <ele>345.1</ele>
        <time>2020-06-28T07:29:01.000Z</time>
      </trkpt>
      <trkpt lat="45.59819" lon="4.87017">
        <ele>345.4</ele>
        <time>2020-06-28T07:29:05.000Z</time>
      </trkpt>
      <trkpt lat="45.59818" lon="4.87018">
        <ele>345.4</ele>
        <time>2020-06-28T07:29:06.000Z</time>
      </trkpt>
      <trkpt lat="45.5982" lon="4.87018">
        <ele>345.5</ele>
        <time>2020-06-28T07:29:08.000Z</time>
      </trkpt>
      <trkpt lat="45.59819" lon="4.87018">
        <ele>345.6</ele>
        <time>2020-06-28T07:29:10.000Z</time>
      </trkpt>
      <trkpt lat="45.59816" lon="4.87025">
        <ele>345.8</ele>
        <time>2020-06-28T07:29:14.000Z</time>
      </trkpt>
      <trkpt lat="45.59811" lon="4.87002">
        <ele>349.6</ele>
        <time>2020-06-28T07:31:15.000Z</time>
      </trkpt>
      <trkpt lat="45.5981" lon="4.87001">
        <ele>349.8</ele>
        <time>2020-06-28T07:31:16.000Z</time>
      </trkpt>
      <trkpt lat="45.5981" lon="4.86995">
        <ele>350.3</ele>
        <time>2020-06-28T07:31:19.000Z</time>
      </trkpt>
      <trkpt lat="45.5981" lon="4.86994">
        <ele>350.4</ele>
        <time>2020-06-28T07:31:20.000Z</time>
      </trkpt>
      <trkpt lat="45.59809" lon="4.86986">
        <ele>351.1</ele>
        <time>2020-06-28T07:31:24.000Z</time>
      </trkpt>
      <trkpt lat="45.59806" lon="4.86979">
        <ele>351.8</ele>
        <time>2020-06-28T07:31:28.000Z</time>
      </trkpt>
      <trkpt lat="45.59805" lon="4.86978">
        <ele>352</ele>
        <time>2020-06-28T07:31:29.000Z</time>
      </trkpt>
      <trkpt lat="45.59802" lon="4.86973">
        <ele>352.4</ele>
        <time>2020-06-28T07:31:32.000Z</time>
      </trkpt>
      <trkpt lat="45.59797" lon="4.86965">
        <ele>353.2</ele>
        <time>2020-06-28T07:31:37.000Z</time>
      </trkpt>
      <trkpt lat="45.59796" lon="4.86963">
        <ele>353.4</ele>
        <time>2020-06-28T07:31:38.000Z</time>
      </trkpt>
      <trkpt lat="45.59793" lon="4.86954">
        <ele>354</ele>
        <time>2020-06-28T07:31:42.000Z</time>
      </trkpt>
      <trkpt lat="45.5979" lon="4.86942">
        <ele>354.7</ele>
        <time>2020-06-28T07:31:47.000Z</time>
      </trkpt>
      <trkpt lat="45.59785" lon="4.86921">
        <ele>355.9</ele>
        <time>2020-06-28T07:31:55.000Z</time>
      </trkpt>
      <trkpt lat="45.59785" lon="4.86917">
        <ele>356.1</ele>
        <time>2020-06-28T07:31:56.000Z</time>
      </trkpt>
      <trkpt lat="45.59782" lon="4.86899">
        <ele>356.9</ele>
        <time>2020-06-28T07:32:02.000Z</time>
      </trkpt>
      <trkpt lat="45.59781" lon="4.86892">
        <ele>357.2</ele>
        <time>2020-06-28T07:32:04.000Z</time>
      </trkpt>
      <trkpt lat="45.59778" lon="4.86876">
        <ele>357.5</ele>
        <time>2020-06-28T07:32:08.000Z</time>
      </trkpt>
      <trkpt lat="45.59783" lon="4.86853">
        <ele>357.8</ele>
        <time>2020-06-28T07:32:15.000Z</time>
      </trkpt>
      <trkpt lat="45.59789" lon="4.86828">
        <ele>357.9</ele>
        <time>2020-06-28T07:32:21.000Z</time>
      </trkpt>
      <trkpt lat="45.5979" lon="4.86825">
        <ele>357.9</ele>
        <time>2020-06-28T07:32:22.000Z</time>
      </trkpt>
      <trkpt lat="45.59795" lon="4.868">
        <ele>357.7</ele>
        <time>2020-06-28T07:32:28.000Z</time>
      </trkpt>
      <trkpt lat="45.59798" lon="4.86783">
        <ele>357.6</ele>
        <time>2020-06-28T07:32:32.000Z</time>
      </trkpt>
      <trkpt lat="45.59799" lon="4.86774">
        <ele>357.6</ele>
        <time>2020-06-28T07:32:34.000Z</time>
      </trkpt>
      <trkpt lat="45.598" lon="4.86756">
        <ele>357.3</ele>
        <time>2020-06-28T07:32:37.000Z</time>
      </trkpt>
      <trkpt lat="45.59801" lon="4.86749">
        <ele>357</ele>
        <time>2020-06-28T07:32:38.000Z</time>
      </trkpt>
      <trkpt lat="45.59802" lon="4.86743">
        <ele>356.6</ele>
        <time>2020-06-28T07:32:39.000Z</time>
      </trkpt>
      <trkpt lat="45.59811" lon="4.86699">
        <ele>352.8</ele>
        <time>2020-06-28T07:32:44.000Z</time>
      </trkpt>
      <trkpt lat="45.59813" lon="4.86689">
        <ele>352</ele>
        <time>2020-06-28T07:32:45.000Z</time>
      </trkpt>
      <trkpt lat="45.59815" lon="4.86669">
        <ele>350.8</ele>
        <time>2020-06-28T07:32:47.000Z</time>
      </trkpt>
      <trkpt lat="45.59814" lon="4.86651">
        <ele>350.4</ele>
        <time>2020-06-28T07:32:49.000Z</time>
      </trkpt>
      <trkpt lat="45.59813" lon="4.86644">
        <ele>350.4</ele>
        <time>2020-06-28T07:32:50.000Z</time>
      </trkpt>
      <trkpt lat="45.59811" lon="4.86634">
        <ele>350.5</ele>
        <time>2020-06-28T07:32:52.000Z</time>
      </trkpt>
      <trkpt lat="45.59809" lon="4.86628">
        <ele>350.6</ele>
        <time>2020-06-28T07:32:54.000Z</time>
      </trkpt>
      <trkpt lat="45.59807" lon="4.86622">
        <ele>350.7</ele>
        <time>2020-06-28T07:32:57.000Z</time>
      </trkpt>
      <trkpt lat="45.59802" lon="4.86603">
        <ele>351.1</ele>
        <time>2020-06-28T07:33:03.000Z</time>
      </trkpt>
      <trkpt lat="45.59802" lon="4.86599">
        <ele>351.2</ele>
        <time>2020-06-28T07:33:04.000Z</time>
      </trkpt>
      <trkpt lat="45.59801" lon="4.86588">
        <ele>351.7</ele>
        <time>2020-06-28T07:33:07.000Z</time>
      </trkpt>
      <trkpt lat="45.598" lon="4.86581">
        <ele>352</ele>
        <time>2020-06-28T07:33:09.000Z</time>
      </trkpt>
      <trkpt lat="45.59799" lon="4.8657">
        <ele>352.6</ele>
        <time>2020-06-28T07:33:12.000Z</time>
      </trkpt>
      <trkpt lat="45.59799" lon="4.86566">
        <ele>352.9</ele>
        <time>2020-06-28T07:33:13.000Z</time>
      </trkpt>
      <trkpt lat="45.59799" lon="4.86558">
        <ele>353.5</ele>
        <time>2020-06-28T07:33:16.000Z</time>
      </trkpt>
      <trkpt lat="45.59801" lon="4.86549">
        <ele>354.2</ele>
        <time>2020-06-28T07:33:19.000Z</time>
      </trkpt>
      <trkpt lat="45.59802" lon="4.86539">
        <ele>355</ele>
        <time>2020-06-28T07:33:22.000Z</time>
      </trkpt>
      <trkpt lat="45.59803" lon="4.86536">
        <ele>355.2</ele>
        <time>2020-06-28T07:33:23.000Z</time>
      </trkpt>
      <trkpt lat="45.59809" lon="4.8652">
        <ele>356</ele>
        <time>2020-06-28T07:33:27.000Z</time>
      </trkpt>
      <trkpt lat="45.59816" lon="4.86489">
        <ele>355.7</ele>
        <time>2020-06-28T07:33:33.000Z</time>
      </trkpt>
      <trkpt lat="45.59817" lon="4.86482">
        <ele>355.4</ele>
        <time>2020-06-28T07:33:34.000Z</time>
      </trkpt>
      <trkpt lat="45.59815" lon="4.8646">
        <ele>354.5</ele>
        <time>2020-06-28T07:33:37.000Z</time>
      </trkpt>
      <trkpt lat="45.59812" lon="4.86441">
        <ele>354</ele>
        <time>2020-06-28T07:33:40.000Z</time>
      </trkpt>
      <trkpt lat="45.59812" lon="4.86429">
        <ele>353.7</ele>
        <time>2020-06-28T07:33:42.000Z</time>
      </trkpt>
      <trkpt lat="45.59807" lon="4.8641">
        <ele>353.4</ele>
        <time>2020-06-28T07:33:45.000Z</time>
      </trkpt>
      <trkpt lat="45.59805" lon="4.86405">
        <ele>353.3</ele>
        <time>2020-06-28T07:33:46.000Z</time>
      </trkpt>
      <trkpt lat="45.59788" lon="4.86367">
        <ele>352</ele>
        <time>2020-06-28T07:33:52.000Z</time>
      </trkpt>
      <trkpt lat="45.59785" lon="4.86356">
        <ele>351.7</ele>
        <time>2020-06-28T07:33:54.000Z</time>
      </trkpt>
      <trkpt lat="45.59784" lon="4.86351">
        <ele>351.6</ele>
        <time>2020-06-28T07:33:55.000Z</time>
      </trkpt>
      <trkpt lat="45.59785" lon="4.8634">
        <ele>351.4</ele>
        <time>2020-06-28T07:33:57.000Z</time>
      </trkpt>
      <trkpt lat="45.59785" lon="4.86317">
        <ele>350.7</ele>
        <time>2020-06-28T07:34:00.000Z</time>
      </trkpt>
      <trkpt lat="45.59786" lon="4.863">
        <ele>349.8</ele>
        <time>2020-06-28T07:34:02.000Z</time>
      </trkpt>
      <trkpt lat="45.59785" lon="4.86285">
        <ele>349.2</ele>
        <time>2020-06-28T07:34:04.000Z</time>
      </trkpt>
      <trkpt lat="45.59783" lon="4.86279">
        <ele>349</ele>
        <time>2020-06-28T07:34:05.000Z</time>
      </trkpt>
      <trkpt lat="45.5978" lon="4.86267">
        <ele>348.8</ele>
        <time>2020-06-28T07:34:07.000Z</time>
      </trkpt>
      <trkpt lat="45.59778" lon="4.86255">
        <ele>348.7</ele>
        <time>2020-06-28T07:34:09.000Z</time>
      </trkpt>
      <trkpt lat="45.59775" lon="4.86249">
        <ele>348.7</ele>
        <time>2020-06-28T07:34:10.000Z</time>
      </trkpt>
      <trkpt lat="45.59767" lon="4.86233">
        <ele>348.6</ele>
        <time>2020-06-28T07:34:13.000Z</time>
      </trkpt>
      <trkpt lat="45.59765" lon="4.86228">
        <ele>348.5</ele>
        <time>2020-06-28T07:34:14.000Z</time>
      </trkpt>
      <trkpt lat="45.59754" lon="4.8621">
        <ele>347.8</ele>
        <time>2020-06-28T07:34:17.000Z</time>
      </trkpt>
      <trkpt lat="45.59746" lon="4.86199">
        <ele>347</ele>
        <time>2020-06-28T07:34:19.000Z</time>
      </trkpt>
      <trkpt lat="45.59733" lon="4.86183">
        <ele>345.8</ele>
        <time>2020-06-28T07:34:22.000Z</time>
      </trkpt>
      <trkpt lat="45.59729" lon="4.86177">
        <ele>345.4</ele>
        <time>2020-06-28T07:34:23.000Z</time>
      </trkpt>
      <trkpt lat="45.59721" lon="4.86166">
        <ele>344.8</ele>
        <time>2020-06-28T07:34:25.000Z</time>
      </trkpt>
      <trkpt lat="45.59716" lon="4.8616">
        <ele>344.5</ele>
        <time>2020-06-28T07:34:26.000Z</time>
      </trkpt>
      <trkpt lat="45.59706" lon="4.86149">
        <ele>343.9</ele>
        <time>2020-06-28T07:34:28.000Z</time>
      </trkpt>
      <trkpt lat="45.59685" lon="4.86124">
        <ele>342.7</ele>
        <time>2020-06-28T07:34:33.000Z</time>
      </trkpt>
      <trkpt lat="45.5968" lon="4.86118">
        <ele>342.3</ele>
        <time>2020-06-28T07:34:34.000Z</time>
      </trkpt>
      <trkpt lat="45.59655" lon="4.86084">
        <ele>339.2</ele>
        <time>2020-06-28T07:34:39.000Z</time>
      </trkpt>
      <trkpt lat="45.5965" lon="4.86076">
        <ele>338.6</ele>
        <time>2020-06-28T07:34:40.000Z</time>
      </trkpt>
      <trkpt lat="45.59644" lon="4.86067">
        <ele>338.2</ele>
        <time>2020-06-28T07:34:41.000Z</time>
      </trkpt>
      <trkpt lat="45.59628" lon="4.8605">
        <ele>337.3</ele>
        <time>2020-06-28T07:34:44.000Z</time>
      </trkpt>
      <trkpt lat="45.59625" lon="4.86045">
        <ele>337.1</ele>
        <time>2020-06-28T07:34:45.000Z</time>
      </trkpt>
      <trkpt lat="45.59624" lon="4.8604">
        <ele>337</ele>
        <time>2020-06-28T07:34:46.000Z</time>
      </trkpt>
      <trkpt lat="45.59624" lon="4.86031">
        <ele>336.6</ele>
        <time>2020-06-28T07:34:48.000Z</time>
      </trkpt>
      <trkpt lat="45.59623" lon="4.86029">
        <ele>336.5</ele>
        <time>2020-06-28T07:34:49.000Z</time>
      </trkpt>
      <trkpt lat="45.59623" lon="4.86028">
        <ele>336.5</ele>
        <time>2020-06-28T07:34:50.000Z</time>
      </trkpt>
      <trkpt lat="45.59587" lon="4.86009">
        <ele>338.3</ele>
        <time>2020-06-28T07:36:48.000Z</time>
      </trkpt>
      <trkpt lat="45.59586" lon="4.86007">
        <ele>338.1</ele>
        <time>2020-06-28T07:36:49.000Z</time>
      </trkpt>
      <trkpt lat="45.59579" lon="4.85987">
        <ele>336.1</ele>
        <time>2020-06-28T07:36:54.000Z</time>
      </trkpt>
      <trkpt lat="45.59578" lon="4.85972">
        <ele>334.4</ele>
        <time>2020-06-28T07:36:57.000Z</time>
      </trkpt>
      <trkpt lat="45.59577" lon="4.85968">
        <ele>333.9</ele>
        <time>2020-06-28T07:36:58.000Z</time>
      </trkpt>
      <trkpt lat="45.59575" lon="4.85966">
        <ele>333.4</ele>
        <time>2020-06-28T07:36:59.000Z</time>
      </trkpt>
      <trkpt lat="45.59573" lon="4.85963">
        <ele>332.9</ele>
        <time>2020-06-28T07:37:00.000Z</time>
      </trkpt>
      <trkpt lat="45.59571" lon="4.85962">
        <ele>332.4</ele>
        <time>2020-06-28T07:37:01.000Z</time>
      </trkpt>
      <trkpt lat="45.59567" lon="4.85958">
        <ele>331.6</ele>
        <time>2020-06-28T07:37:03.000Z</time>
      </trkpt>
      <trkpt lat="45.59561" lon="4.85948">
        <ele>329.7</ele>
        <time>2020-06-28T07:37:06.000Z</time>
      </trkpt>
      <trkpt lat="45.59558" lon="4.85944">
        <ele>328.9</ele>
        <time>2020-06-28T07:37:07.000Z</time>
      </trkpt>
      <trkpt lat="45.59555" lon="4.8594">
        <ele>328.2</ele>
        <time>2020-06-28T07:37:08.000Z</time>
      </trkpt>
      <trkpt lat="45.59553" lon="4.85933">
        <ele>327.1</ele>
        <time>2020-06-28T07:37:10.000Z</time>
      </trkpt>
      <trkpt lat="45.59554" lon="4.85929">
        <ele>326.6</ele>
        <time>2020-06-28T07:37:11.000Z</time>
      </trkpt>
      <trkpt lat="45.59557" lon="4.85924">
        <ele>325.5</ele>
        <time>2020-06-28T07:37:13.000Z</time>
      </trkpt>
      <trkpt lat="45.59557" lon="4.85919">
        <ele>324.7</ele>
        <time>2020-06-28T07:37:15.000Z</time>
      </trkpt>
      <trkpt lat="45.59559" lon="4.85915">
        <ele>323.7</ele>
        <time>2020-06-28T07:37:17.000Z</time>
      </trkpt>
      <trkpt lat="45.59563" lon="4.85915">
        <ele>322.7</ele>
        <time>2020-06-28T07:37:19.000Z</time>
      </trkpt>
      <trkpt lat="45.59569" lon="4.85913">
        <ele>321.1</ele>
        <time>2020-06-28T07:37:21.000Z</time>
      </trkpt>
      <trkpt lat="45.59575" lon="4.85907">
        <ele>319.4</ele>
        <time>2020-06-28T07:37:23.000Z</time>
      </trkpt>
      <trkpt lat="45.59579" lon="4.85898">
        <ele>317.9</ele>
        <time>2020-06-28T07:37:25.000Z</time>
      </trkpt>
      <trkpt lat="45.5958" lon="4.85894">
        <ele>317.2</ele>
        <time>2020-06-28T07:37:26.000Z</time>
      </trkpt>
      <trkpt lat="45.59581" lon="4.85884">
        <ele>315.6</ele>
        <time>2020-06-28T07:37:28.000Z</time>
      </trkpt>
      <trkpt lat="45.59581" lon="4.85879">
        <ele>314.8</ele>
        <time>2020-06-28T07:37:29.000Z</time>
      </trkpt>
      <trkpt lat="45.59581" lon="4.85873">
        <ele>313.9</ele>
        <time>2020-06-28T07:37:30.000Z</time>
      </trkpt>
      <trkpt lat="45.59581" lon="4.85868">
        <ele>313</ele>
        <time>2020-06-28T07:37:31.000Z</time>
      </trkpt>
      <trkpt lat="45.59581" lon="4.85862">
        <ele>312.1</ele>
        <time>2020-06-28T07:37:32.000Z</time>
      </trkpt>
      <trkpt lat="45.59584" lon="4.85852">
        <ele>310.2</ele>
        <time>2020-06-28T07:37:34.000Z</time>
      </trkpt>
      <trkpt lat="45.59584" lon="4.85847">
        <ele>309.3</ele>
        <time>2020-06-28T07:37:35.000Z</time>
      </trkpt>
      <trkpt lat="45.59583" lon="4.85842">
        <ele>308.3</ele>
        <time>2020-06-28T07:37:36.000Z</time>
      </trkpt>
      <trkpt lat="45.59581" lon="4.85831">
        <ele>306.1</ele>
        <time>2020-06-28T07:37:38.000Z</time>
      </trkpt>
      <trkpt lat="45.59581" lon="4.85825">
        <ele>305</ele>
        <time>2020-06-28T07:37:39.000Z</time>
      </trkpt>
      <trkpt lat="45.59581" lon="4.85819">
        <ele>303.9</ele>
        <time>2020-06-28T07:37:40.000Z</time>
      </trkpt>
      <trkpt lat="45.59583" lon="4.85809">
        <ele>301.5</ele>
        <time>2020-06-28T07:37:42.000Z</time>
      </trkpt>
      <trkpt lat="45.59584" lon="4.85804">
        <ele>300.9</ele>
        <time>2020-06-28T07:37:43.000Z</time>
      </trkpt>
      <trkpt lat="45.59585" lon="4.85797">
        <ele>300.2</ele>
        <time>2020-06-28T07:37:44.000Z</time>
      </trkpt>
      <trkpt lat="45.59585" lon="4.85789">
        <ele>299.3</ele>
        <time>2020-06-28T07:37:45.000Z</time>
      </trkpt>
      <trkpt lat="45.59586" lon="4.85781">
        <ele>298.5</ele>
        <time>2020-06-28T07:37:46.000Z</time>
      </trkpt>
      <trkpt lat="45.59586" lon="4.85776">
        <ele>297.9</ele>
        <time>2020-06-28T07:37:47.000Z</time>
      </trkpt>
      <trkpt lat="45.59588" lon="4.85771">
        <ele>297.3</ele>
        <time>2020-06-28T07:37:48.000Z</time>
      </trkpt>
      <trkpt lat="45.5959" lon="4.85765">
        <ele>296.6</ele>
        <time>2020-06-28T07:37:49.000Z</time>
      </trkpt>
      <trkpt lat="45.59591" lon="4.85753">
        <ele>295.3</ele>
        <time>2020-06-28T07:37:51.000Z</time>
      </trkpt>
      <trkpt lat="45.59591" lon="4.85747">
        <ele>294.8</ele>
        <time>2020-06-28T07:37:52.000Z</time>
      </trkpt>
      <trkpt lat="45.5959" lon="4.85742">
        <ele>294.2</ele>
        <time>2020-06-28T07:37:53.000Z</time>
      </trkpt>
      <trkpt lat="45.59589" lon="4.85738">
        <ele>293.7</ele>
        <time>2020-06-28T07:37:54.000Z</time>
      </trkpt>
      <trkpt lat="45.59585" lon="4.85727">
        <ele>292.6</ele>
        <time>2020-06-28T07:37:56.000Z</time>
      </trkpt>
      <trkpt lat="45.59582" lon="4.85723">
        <ele>292.1</ele>
        <time>2020-06-28T07:37:57.000Z</time>
      </trkpt>
      <trkpt lat="45.5958" lon="4.8572">
        <ele>291.6</ele>
        <time>2020-06-28T07:37:58.000Z</time>
      </trkpt>
      <trkpt lat="45.59576" lon="4.85717">
        <ele>291.1</ele>
        <time>2020-06-28T07:38:00.000Z</time>
      </trkpt>
      <trkpt lat="45.59574" lon="4.85717">
        <ele>290.9</ele>
        <time>2020-06-28T07:38:01.000Z</time>
      </trkpt>
      <trkpt lat="45.59573" lon="4.85717">
        <ele>290.7</ele>
        <time>2020-06-28T07:38:02.000Z</time>
      </trkpt>
      <trkpt lat="45.59571" lon="4.85717">
        <ele>290.5</ele>
        <time>2020-06-28T07:38:03.000Z</time>
      </trkpt>
      <trkpt lat="45.59568" lon="4.85717">
        <ele>290.3</ele>
        <time>2020-06-28T07:38:04.000Z</time>
      </trkpt>
      <trkpt lat="45.59567" lon="4.85718">
        <ele>290.1</ele>
        <time>2020-06-28T07:38:05.000Z</time>
      </trkpt>
      <trkpt lat="45.59565" lon="4.8572">
        <ele>290</ele>
        <time>2020-06-28T07:38:06.000Z</time>
      </trkpt>
      <trkpt lat="45.59564" lon="4.85721">
        <ele>289.9</ele>
        <time>2020-06-28T07:38:07.000Z</time>
      </trkpt>
      <trkpt lat="45.59558" lon="4.85719">
        <ele>289.7</ele>
        <time>2020-06-28T07:38:10.000Z</time>
      </trkpt>
      <trkpt lat="45.59553" lon="4.85716">
        <ele>289.4</ele>
        <time>2020-06-28T07:38:13.000Z</time>
      </trkpt>
      <trkpt lat="45.59552" lon="4.85717">
        <ele>289.4</ele>
        <time>2020-06-28T07:38:14.000Z</time>
      </trkpt>
      <trkpt lat="45.59544" lon="4.8572">
        <ele>289.1</ele>
        <time>2020-06-28T07:38:18.000Z</time>
      </trkpt>
      <trkpt lat="45.59541" lon="4.85723">
        <ele>288.9</ele>
        <time>2020-06-28T07:38:20.000Z</time>
      </trkpt>
      <trkpt lat="45.5954" lon="4.85723">
        <ele>288.9</ele>
        <time>2020-06-28T07:38:21.000Z</time>
      </trkpt>
      <trkpt lat="45.59538" lon="4.85724">
        <ele>288.8</ele>
        <time>2020-06-28T07:38:23.000Z</time>
      </trkpt>
      <trkpt lat="45.59537" lon="4.85725">
        <ele>288.8</ele>
        <time>2020-06-28T07:38:24.000Z</time>
      </trkpt>
      <trkpt lat="45.59534" lon="4.85731">
        <ele>288.8</ele>
        <time>2020-06-28T07:38:28.000Z</time>
      </trkpt>
      <trkpt lat="45.59533" lon="4.85733">
        <ele>289</ele>
        <time>2020-06-28T07:38:29.000Z</time>
      </trkpt>
      <trkpt lat="45.59528" lon="4.85739">
        <ele>289.8</ele>
        <time>2020-06-28T07:38:33.000Z</time>
      </trkpt>
      <trkpt lat="45.59526" lon="4.85745">
        <ele>290.4</ele>
        <time>2020-06-28T07:38:36.000Z</time>
      </trkpt>
      <trkpt lat="45.59525" lon="4.85746">
        <ele>290.6</ele>
        <time>2020-06-28T07:38:37.000Z</time>
      </trkpt>
      <trkpt lat="45.59524" lon="4.85747">
        <ele>290.7</ele>
        <time>2020-06-28T07:38:38.000Z</time>
      </trkpt>
      <trkpt lat="45.59523" lon="4.85749">
        <ele>290.9</ele>
        <time>2020-06-28T07:38:39.000Z</time>
      </trkpt>
      <trkpt lat="45.5952" lon="4.85751">
        <ele>291.4</ele>
        <time>2020-06-28T07:38:41.000Z</time>
      </trkpt>
      <trkpt lat="45.59517" lon="4.85754">
        <ele>291.8</ele>
        <time>2020-06-28T07:38:43.000Z</time>
      </trkpt>
      <trkpt lat="45.59514" lon="4.85757">
        <ele>292.2</ele>
        <time>2020-06-28T07:38:45.000Z</time>
      </trkpt>
      <trkpt lat="45.59504" lon="4.85767">
        <ele>293.5</ele>
        <time>2020-06-28T07:38:50.000Z</time>
      </trkpt>
      <trkpt lat="45.59502" lon="4.85769">
        <ele>293.8</ele>
        <time>2020-06-28T07:38:51.000Z</time>
      </trkpt>
      <trkpt lat="45.59497" lon="4.85775">
        <ele>294.4</ele>
        <time>2020-06-28T07:38:54.000Z</time>
      </trkpt>
      <trkpt lat="45.59491" lon="4.85783">
        <ele>295.2</ele>
        <time>2020-06-28T07:38:57.000Z</time>
      </trkpt>
      <trkpt lat="45.59486" lon="4.85794">
        <ele>295.9</ele>
        <time>2020-06-28T07:39:01.000Z</time>
      </trkpt>
      <trkpt lat="45.59485" lon="4.85796">
        <ele>296.1</ele>
        <time>2020-06-28T07:39:02.000Z</time>
      </trkpt>
      <trkpt lat="45.59476" lon="4.8581">
        <ele>297.1</ele>
        <time>2020-06-28T07:39:08.000Z</time>
      </trkpt>
      <trkpt lat="45.59472" lon="4.85818">
        <ele>297.6</ele>
        <time>2020-06-28T07:39:11.000Z</time>
      </trkpt>
      <trkpt lat="45.59469" lon="4.8583">
        <ele>298.3</ele>
        <time>2020-06-28T07:39:15.000Z</time>
      </trkpt>
      <trkpt lat="45.59469" lon="4.85833">
        <ele>298.5</ele>
        <time>2020-06-28T07:39:16.000Z</time>
      </trkpt>
      <trkpt lat="45.59469" lon="4.85847">
        <ele>298.9</ele>
        <time>2020-06-28T07:39:21.000Z</time>
      </trkpt>
      <trkpt lat="45.5946" lon="4.85862">
        <ele>299.8</ele>
        <time>2020-06-28T07:39:26.000Z</time>
      </trkpt>
      <trkpt lat="45.59457" lon="4.85869">
        <ele>300</ele>
        <time>2020-06-28T07:39:28.000Z</time>
      </trkpt>
      <trkpt lat="45.59453" lon="4.8588">
        <ele>300.5</ele>
        <time>2020-06-28T07:39:31.000Z</time>
      </trkpt>
      <trkpt lat="45.59449" lon="4.85897">
        <ele>301.5</ele>
        <time>2020-06-28T07:39:35.000Z</time>
      </trkpt>
      <trkpt lat="45.59447" lon="4.85906">
        <ele>301.9</ele>
        <time>2020-06-28T07:39:38.000Z</time>
      </trkpt>
      <trkpt lat="45.59445" lon="4.85908">
        <ele>302</ele>
        <time>2020-06-28T07:39:39.000Z</time>
      </trkpt>
      <trkpt lat="45.59442" lon="4.85911">
        <ele>302</ele>
        <time>2020-06-28T07:39:40.000Z</time>
      </trkpt>
      <trkpt lat="45.59432" lon="4.8592">
        <ele>302</ele>
        <time>2020-06-28T07:39:43.000Z</time>
      </trkpt>
      <trkpt lat="45.5942" lon="4.85933">
        <ele>301.7</ele>
        <time>2020-06-28T07:39:47.000Z</time>
      </trkpt>
      <trkpt lat="45.59409" lon="4.85945">
        <ele>300.6</ele>
        <time>2020-06-28T07:39:51.000Z</time>
      </trkpt>
      <trkpt lat="45.59407" lon="4.85948">
        <ele>300.4</ele>
        <time>2020-06-28T07:39:52.000Z</time>
      </trkpt>
      <trkpt lat="45.59401" lon="4.85953">
        <ele>299.8</ele>
        <time>2020-06-28T07:39:55.000Z</time>
      </trkpt>
      <trkpt lat="45.594" lon="4.85952">
        <ele>299.6</ele>
        <time>2020-06-28T07:39:56.000Z</time>
      </trkpt>
      <trkpt lat="45.59398" lon="4.85952">
        <ele>299.4</ele>
        <time>2020-06-28T07:39:57.000Z</time>
      </trkpt>
      <trkpt lat="45.59397" lon="4.85951">
        <ele>299.2</ele>
        <time>2020-06-28T07:39:58.000Z</time>
      </trkpt>
      <trkpt lat="45.59393" lon="4.85951">
        <ele>298.8</ele>
        <time>2020-06-28T07:40:00.000Z</time>
      </trkpt>
      <trkpt lat="45.59392" lon="4.8595">
        <ele>298.7</ele>
        <time>2020-06-28T07:40:01.000Z</time>
      </trkpt>
      <trkpt lat="45.59378" lon="4.85941">
        <ele>295.2</ele>
        <time>2020-06-28T07:40:12.000Z</time>
      </trkpt>
      <trkpt lat="45.59369" lon="4.85931">
        <ele>292.7</ele>
        <time>2020-06-28T07:40:18.000Z</time>
      </trkpt>
      <trkpt lat="45.59368" lon="4.85927">
        <ele>291.5</ele>
        <time>2020-06-28T07:40:20.000Z</time>
      </trkpt>
      <trkpt lat="45.59364" lon="4.85915">
        <ele>289.6</ele>
        <time>2020-06-28T07:40:26.000Z</time>
      </trkpt>
      <trkpt lat="45.5936" lon="4.85909">
        <ele>288</ele>
        <time>2020-06-28T07:40:29.000Z</time>
      </trkpt>
      <trkpt lat="45.5936" lon="4.85906">
        <ele>287.8</ele>
        <time>2020-06-28T07:40:30.000Z</time>
      </trkpt>
      <trkpt lat="45.59359" lon="4.85904">
        <ele>286.6</ele>
        <time>2020-06-28T07:40:31.000Z</time>
      </trkpt>
      <trkpt lat="45.59356" lon="4.85895">
        <ele>285.8</ele>
        <time>2020-06-28T07:40:35.000Z</time>
      </trkpt>
      <trkpt lat="45.59357" lon="4.85891">
        <ele>285.3</ele>
        <time>2020-06-28T07:40:37.000Z</time>
      </trkpt>
      <trkpt lat="45.5936" lon="4.85882">
        <ele>285.3</ele>
        <time>2020-06-28T07:40:40.000Z</time>
      </trkpt>
      <trkpt lat="45.59363" lon="4.85876">
        <ele>285.6</ele>
        <time>2020-06-28T07:40:42.000Z</time>
      </trkpt>
      <trkpt lat="45.59366" lon="4.85869">
        <ele>285.6</ele>
        <time>2020-06-28T07:40:44.000Z</time>
      </trkpt>
      <trkpt lat="45.59369" lon="4.85858">
        <ele>285.5</ele>
        <time>2020-06-28T07:40:47.000Z</time>
      </trkpt>
      <trkpt lat="45.59371" lon="4.85849">
        <ele>284.7</ele>
        <time>2020-06-28T07:40:49.000Z</time>
      </trkpt>
      <trkpt lat="45.59372" lon="4.85845">
        <ele>284.3</ele>
        <time>2020-06-28T07:40:50.000Z</time>
      </trkpt>
      <trkpt lat="45.59372" lon="4.85841">
        <ele>284.1</ele>
        <time>2020-06-28T07:40:51.000Z</time>
      </trkpt>
      <trkpt lat="45.59373" lon="4.85832">
        <ele>283</ele>
        <time>2020-06-28T07:40:53.000Z</time>
      </trkpt>
      <trkpt lat="45.59373" lon="4.85829">
        <ele>282.4</ele>
        <time>2020-06-28T07:40:54.000Z</time>
      </trkpt>
      <trkpt lat="45.59374" lon="4.85826">
        <ele>281.7</ele>
        <time>2020-06-28T07:40:55.000Z</time>
      </trkpt>
      <trkpt lat="45.59375" lon="4.8582">
        <ele>281.7</ele>
        <time>2020-06-28T07:40:57.000Z</time>
      </trkpt>
      <trkpt lat="45.59375" lon="4.85816">
        <ele>281.1</ele>
        <time>2020-06-28T07:40:58.000Z</time>
      </trkpt>
      <trkpt lat="45.59375" lon="4.85812">
        <ele>280.5</ele>
        <time>2020-06-28T07:40:59.000Z</time>
      </trkpt>
      <trkpt lat="45.59378" lon="4.85802">
        <ele>280</ele>
        <time>2020-06-28T07:41:02.000Z</time>
      </trkpt>
      <trkpt lat="45.59383" lon="4.85797">
        <ele>279.4</ele>
        <time>2020-06-28T07:41:05.000Z</time>
      </trkpt>
      <trkpt lat="45.59391" lon="4.85781">
        <ele>279.5</ele>
        <time>2020-06-28T07:41:10.000Z</time>
      </trkpt>
      <trkpt lat="45.59396" lon="4.85772">
        <ele>278.7</ele>
        <time>2020-06-28T07:41:12.000Z</time>
      </trkpt>
      <trkpt lat="45.59411" lon="4.8575">
        <ele>278.4</ele>
        <time>2020-06-28T07:41:17.000Z</time>
      </trkpt>
      <trkpt lat="45.59422" lon="4.85734">
        <ele>277.3</ele>
        <time>2020-06-28T07:41:22.000Z</time>
      </trkpt>
      <trkpt lat="45.59419" lon="4.85725">
        <ele>275.2</ele>
        <time>2020-06-28T07:41:26.000Z</time>
      </trkpt>
      <trkpt lat="45.59419" lon="4.85723">
        <ele>274.5</ele>
        <time>2020-06-28T07:41:27.000Z</time>
      </trkpt>
      <trkpt lat="45.59416" lon="4.85717">
        <ele>273.4</ele>
        <time>2020-06-28T07:41:29.000Z</time>
      </trkpt>
      <trkpt lat="45.59415" lon="4.85717">
        <ele>273.3</ele>
        <time>2020-06-28T07:41:30.000Z</time>
      </trkpt>
      <trkpt lat="45.59414" lon="4.85717">
        <ele>273.1</ele>
        <time>2020-06-28T07:41:31.000Z</time>
      </trkpt>
      <trkpt lat="45.59411" lon="4.85718">
        <ele>272.6</ele>
        <time>2020-06-28T07:41:34.000Z</time>
      </trkpt>
      <trkpt lat="45.5941" lon="4.85717">
        <ele>272.2</ele>
        <time>2020-06-28T07:41:35.000Z</time>
      </trkpt>
      <trkpt lat="45.59405" lon="4.85716">
        <ele>271.7</ele>
        <time>2020-06-28T07:41:37.000Z</time>
      </trkpt>
      <trkpt lat="45.59392" lon="4.85718">
        <ele>270.2</ele>
        <time>2020-06-28T07:41:42.000Z</time>
      </trkpt>
      <trkpt lat="45.59385" lon="4.85719">
        <ele>269.4</ele>
        <time>2020-06-28T07:41:44.000Z</time>
      </trkpt>
      <trkpt lat="45.59381" lon="4.85717">
        <ele>268.9</ele>
        <time>2020-06-28T07:41:45.000Z</time>
      </trkpt>
      <trkpt lat="45.59376" lon="4.85716">
        <ele>267.8</ele>
        <time>2020-06-28T07:41:46.000Z</time>
      </trkpt>
      <trkpt lat="45.59372" lon="4.85714">
        <ele>267.4</ele>
        <time>2020-06-28T07:41:47.000Z</time>
      </trkpt>
      <trkpt lat="45.59369" lon="4.85713">
        <ele>266.9</ele>
        <time>2020-06-28T07:41:48.000Z</time>
      </trkpt>
      <trkpt lat="45.59367" lon="4.85712">
        <ele>266.4</ele>
        <time>2020-06-28T07:41:49.000Z</time>
      </trkpt>
      <trkpt lat="45.59361" lon="4.85711">
        <ele>265.1</ele>
        <time>2020-06-28T07:41:51.000Z</time>
      </trkpt>
      <trkpt lat="45.59355" lon="4.85709">
        <ele>264.1</ele>
        <time>2020-06-28T07:41:53.000Z</time>
      </trkpt>
      <trkpt lat="45.59349" lon="4.85707">
        <ele>262.9</ele>
        <time>2020-06-28T07:41:56.000Z</time>
      </trkpt>
      <trkpt lat="45.59348" lon="4.85706">
        <ele>262.8</ele>
        <time>2020-06-28T07:41:57.000Z</time>
      </trkpt>
      <trkpt lat="45.59342" lon="4.85704">
        <ele>261.9</ele>
        <time>2020-06-28T07:42:00.000Z</time>
      </trkpt>
      <trkpt lat="45.5934" lon="4.857">
        <ele>261.1</ele>
        <time>2020-06-28T07:42:02.000Z</time>
      </trkpt>
      <trkpt lat="45.5934" lon="4.85696">
        <ele>260.7</ele>
        <time>2020-06-28T07:42:04.000Z</time>
      </trkpt>
      <trkpt lat="45.59342" lon="4.85689">
        <ele>260.3</ele>
        <time>2020-06-28T07:42:07.000Z</time>
      </trkpt>
      <trkpt lat="45.59344" lon="4.85686">
        <ele>259.8</ele>
        <time>2020-06-28T07:42:08.000Z</time>
      </trkpt>
      <trkpt lat="45.59345" lon="4.85682">
        <ele>260</ele>
        <time>2020-06-28T07:42:09.000Z</time>
      </trkpt>
      <trkpt lat="45.59353" lon="4.85661">
        <ele>258.4</ele>
        <time>2020-06-28T07:42:13.000Z</time>
      </trkpt>
      <trkpt lat="45.59362" lon="4.85638">
        <ele>256.4</ele>
        <time>2020-06-28T07:42:17.000Z</time>
      </trkpt>
      <trkpt lat="45.59367" lon="4.85628">
        <ele>255.5</ele>
        <time>2020-06-28T07:42:19.000Z</time>
      </trkpt>
      <trkpt lat="45.59369" lon="4.85624">
        <ele>255.1</ele>
        <time>2020-06-28T07:42:20.000Z</time>
      </trkpt>
      <trkpt lat="45.5937" lon="4.85616">
        <ele>254</ele>
        <time>2020-06-28T07:42:22.000Z</time>
      </trkpt>
      <trkpt lat="45.5937" lon="4.85613">
        <ele>253.8</ele>
        <time>2020-06-28T07:42:23.000Z</time>
      </trkpt>
      <trkpt lat="45.59372" lon="4.85611">
        <ele>253.3</ele>
        <time>2020-06-28T07:42:24.000Z</time>
      </trkpt>
      <trkpt lat="45.59372" lon="4.85607">
        <ele>252.7</ele>
        <time>2020-06-28T07:42:26.000Z</time>
      </trkpt>
      <trkpt lat="45.5937" lon="4.85607">
        <ele>252.4</ele>
        <time>2020-06-28T07:42:28.000Z</time>
      </trkpt>
      <trkpt lat="45.59361" lon="4.85601">
        <ele>251.6</ele>
        <time>2020-06-28T07:42:31.000Z</time>
      </trkpt>
      <trkpt lat="45.5936" lon="4.856">
        <ele>251.5</ele>
        <time>2020-06-28T07:42:32.000Z</time>
      </trkpt>
      <trkpt lat="45.59359" lon="4.85599">
        <ele>250.9</ele>
        <time>2020-06-28T07:42:33.000Z</time>
      </trkpt>
      <trkpt lat="45.59359" lon="4.85595">
        <ele>249.9</ele>
        <time>2020-06-28T07:42:34.000Z</time>
      </trkpt>
      <trkpt lat="45.5936" lon="4.85586">
        <ele>248.8</ele>
        <time>2020-06-28T07:42:37.000Z</time>
      </trkpt>
      <trkpt lat="45.5936" lon="4.85578">
        <ele>247.6</ele>
        <time>2020-06-28T07:42:39.000Z</time>
      </trkpt>
      <trkpt lat="45.5936" lon="4.85573">
        <ele>246.9</ele>
        <time>2020-06-28T07:42:40.000Z</time>
      </trkpt>
      <trkpt lat="45.5936" lon="4.85568">
        <ele>246.9</ele>
        <time>2020-06-28T07:42:41.000Z</time>
      </trkpt>
      <trkpt lat="45.59366" lon="4.85549">
        <ele>246.4</ele>
        <time>2020-06-28T07:42:47.000Z</time>
      </trkpt>
      <trkpt lat="45.59367" lon="4.85545">
        <ele>246.3</ele>
        <time>2020-06-28T07:42:49.000Z</time>
      </trkpt>
      <trkpt lat="45.59367" lon="4.85531">
        <ele>245.9</ele>
        <time>2020-06-28T07:42:54.000Z</time>
      </trkpt>
      <trkpt lat="45.59371" lon="4.85509">
        <ele>245.4</ele>
        <time>2020-06-28T07:43:01.000Z</time>
      </trkpt>
      <trkpt lat="45.59372" lon="4.85503">
        <ele>245.3</ele>
        <time>2020-06-28T07:43:03.000Z</time>
      </trkpt>
      <trkpt lat="45.59374" lon="4.85494">
        <ele>245.2</ele>
        <time>2020-06-28T07:43:06.000Z</time>
      </trkpt>
      <trkpt lat="45.59379" lon="4.85475">
        <ele>244.9</ele>
        <time>2020-06-28T07:43:12.000Z</time>
      </trkpt>
      <trkpt lat="45.59388" lon="4.85456">
        <ele>244.9</ele>
        <time>2020-06-28T07:43:19.000Z</time>
      </trkpt>
      <trkpt lat="45.59395" lon="4.85443">
        <ele>245</ele>
        <time>2020-06-28T07:43:26.000Z</time>
      </trkpt>
      <trkpt lat="45.59395" lon="4.85441">
        <ele>245</ele>
        <time>2020-06-28T07:43:27.000Z</time>
      </trkpt>
      <trkpt lat="45.59394" lon="4.85439">
        <ele>245</ele>
        <time>2020-06-28T07:43:30.000Z</time>
      </trkpt>
      <trkpt lat="45.59391" lon="4.85434">
        <ele>245.1</ele>
        <time>2020-06-28T07:44:11.000Z</time>
      </trkpt>
      <trkpt lat="45.59388" lon="4.85435">
        <ele>245.2</ele>
        <time>2020-06-28T07:44:12.000Z</time>
      </trkpt>
      <trkpt lat="45.59375" lon="4.8545">
        <ele>246.2</ele>
        <time>2020-06-28T07:44:18.000Z</time>
      </trkpt>
      <trkpt lat="45.59361" lon="4.85467">
        <ele>246.8</ele>
        <time>2020-06-28T07:44:24.000Z</time>
      </trkpt>
      <trkpt lat="45.59357" lon="4.85472">
        <ele>247</ele>
        <time>2020-06-28T07:44:26.000Z</time>
      </trkpt>
      <trkpt lat="45.59345" lon="4.85482">
        <ele>247.4</ele>
        <time>2020-06-28T07:44:30.000Z</time>
      </trkpt>
      <trkpt lat="45.59337" lon="4.85489">
        <ele>248.6</ele>
        <time>2020-06-28T07:44:33.000Z</time>
      </trkpt>
      <trkpt lat="45.59327" lon="4.85502">
        <ele>251.2</ele>
        <time>2020-06-28T07:44:39.000Z</time>
      </trkpt>
      <trkpt lat="45.5932" lon="4.8551">
        <ele>251.8</ele>
        <time>2020-06-28T07:44:43.000Z</time>
      </trkpt>
      <trkpt lat="45.59317" lon="4.85513">
        <ele>252.1</ele>
        <time>2020-06-28T07:44:45.000Z</time>
      </trkpt>
      <trkpt lat="45.59313" lon="4.85519">
        <ele>252.6</ele>
        <time>2020-06-28T07:44:48.000Z</time>
      </trkpt>
      <trkpt lat="45.59312" lon="4.85521">
        <ele>253</ele>
        <time>2020-06-28T07:44:49.000Z</time>
      </trkpt>
      <trkpt lat="45.5931" lon="4.85526">
        <ele>253.3</ele>
        <time>2020-06-28T07:44:52.000Z</time>
      </trkpt>
      <trkpt lat="45.59307" lon="4.8553">
        <ele>253.6</ele>
        <time>2020-06-28T07:44:54.000Z</time>
      </trkpt>
      <trkpt lat="45.593" lon="4.85535">
        <ele>254.4</ele>
        <time>2020-06-28T07:44:58.000Z</time>
      </trkpt>
      <trkpt lat="45.59298" lon="4.85536">
        <ele>254.6</ele>
        <time>2020-06-28T07:44:59.000Z</time>
      </trkpt>
      <trkpt lat="45.59291" lon="4.85538">
        <ele>255.5</ele>
        <time>2020-06-28T07:45:03.000Z</time>
      </trkpt>
      <trkpt lat="45.59288" lon="4.85539">
        <ele>256</ele>
        <time>2020-06-28T07:45:05.000Z</time>
      </trkpt>
      <trkpt lat="45.59282" lon="4.8554">
        <ele>256.8</ele>
        <time>2020-06-28T07:45:09.000Z</time>
      </trkpt>
      <trkpt lat="45.59279" lon="4.85541">
        <ele>257.2</ele>
        <time>2020-06-28T07:45:11.000Z</time>
      </trkpt>
      <trkpt lat="45.59277" lon="4.85542">
        <ele>257.5</ele>
        <time>2020-06-28T07:45:12.000Z</time>
      </trkpt>
      <trkpt lat="45.59273" lon="4.85543">
        <ele>258</ele>
        <time>2020-06-28T07:45:14.000Z</time>
      </trkpt>
      <trkpt lat="45.59267" lon="4.85543">
        <ele>258.9</ele>
        <time>2020-06-28T07:45:17.000Z</time>
      </trkpt>
      <trkpt lat="45.59266" lon="4.85544">
        <ele>259.1</ele>
        <time>2020-06-28T07:45:18.000Z</time>
      </trkpt>
      <trkpt lat="45.59262" lon="4.85545">
        <ele>259.7</ele>
        <time>2020-06-28T07:45:22.000Z</time>
      </trkpt>
      <trkpt lat="45.59256" lon="4.85547">
        <ele>260.8</ele>
        <time>2020-06-28T07:45:26.000Z</time>
      </trkpt>
      <trkpt lat="45.59253" lon="4.85546">
        <ele>261.3</ele>
        <time>2020-06-28T07:45:28.000Z</time>
      </trkpt>
      <trkpt lat="45.5925" lon="4.85548">
        <ele>261.7</ele>
        <time>2020-06-28T07:45:30.000Z</time>
      </trkpt>
      <trkpt lat="45.59245" lon="4.85549">
        <ele>262.6</ele>
        <time>2020-06-28T07:45:35.000Z</time>
      </trkpt>
      <trkpt lat="45.59244" lon="4.85549">
        <ele>262.8</ele>
        <time>2020-06-28T07:45:36.000Z</time>
      </trkpt>
      <trkpt lat="45.59234" lon="4.85551">
        <ele>264.4</ele>
        <time>2020-06-28T07:45:41.000Z</time>
      </trkpt>
      <trkpt lat="45.59226" lon="4.85552">
        <ele>265.7</ele>
        <time>2020-06-28T07:45:47.000Z</time>
      </trkpt>
      <trkpt lat="45.59221" lon="4.85552">
        <ele>266.3</ele>
        <time>2020-06-28T07:45:52.000Z</time>
      </trkpt>
      <trkpt lat="45.5922" lon="4.85552">
        <ele>266.5</ele>
        <time>2020-06-28T07:45:54.000Z</time>
      </trkpt>
      <trkpt lat="45.59213" lon="4.85555">
        <ele>267.3</ele>
        <time>2020-06-28T07:45:58.000Z</time>
      </trkpt>
      <trkpt lat="45.59211" lon="4.85557">
        <ele>267.6</ele>
        <time>2020-06-28T07:46:00.000Z</time>
      </trkpt>
      <trkpt lat="45.59207" lon="4.85559">
        <ele>268</ele>
        <time>2020-06-28T07:46:03.000Z</time>
      </trkpt>
      <trkpt lat="45.59202" lon="4.8556">
        <ele>268.6</ele>
        <time>2020-06-28T07:46:07.000Z</time>
      </trkpt>
      <trkpt lat="45.59199" lon="4.85562">
        <ele>269.2</ele>
        <time>2020-06-28T07:46:11.000Z</time>
      </trkpt>
      <trkpt lat="45.59198" lon="4.85561">
        <ele>269.3</ele>
        <time>2020-06-28T07:46:12.000Z</time>
      </trkpt>
      <trkpt lat="45.59196" lon="4.85561">
        <ele>269.5</ele>
        <time>2020-06-28T07:46:13.000Z</time>
      </trkpt>
      <trkpt lat="45.59192" lon="4.85561">
        <ele>270.1</ele>
        <time>2020-06-28T07:46:17.000Z</time>
      </trkpt>
      <trkpt lat="45.59188" lon="4.85563">
        <ele>270.7</ele>
        <time>2020-06-28T07:46:20.000Z</time>
      </trkpt>
      <trkpt lat="45.59185" lon="4.85563">
        <ele>271.1</ele>
        <time>2020-06-28T07:46:22.000Z</time>
      </trkpt>
      <trkpt lat="45.59179" lon="4.85565">
        <ele>272.1</ele>
        <time>2020-06-28T07:46:27.000Z</time>
      </trkpt>
      <trkpt lat="45.59172" lon="4.85568">
        <ele>273.2</ele>
        <time>2020-06-28T07:46:33.000Z</time>
      </trkpt>
      <trkpt lat="45.59165" lon="4.85572">
        <ele>274.5</ele>
        <time>2020-06-28T07:46:39.000Z</time>
      </trkpt>
      <trkpt lat="45.59164" lon="4.85572">
        <ele>274.7</ele>
        <time>2020-06-28T07:46:40.000Z</time>
      </trkpt>
      <trkpt lat="45.59157" lon="4.85574">
        <ele>275.8</ele>
        <time>2020-06-28T07:46:44.000Z</time>
      </trkpt>
      <trkpt lat="45.59155" lon="4.85575">
        <ele>276.3</ele>
        <time>2020-06-28T07:46:46.000Z</time>
      </trkpt>
      <trkpt lat="45.59153" lon="4.85576">
        <ele>276.5</ele>
        <time>2020-06-28T07:46:47.000Z</time>
      </trkpt>
      <trkpt lat="45.59152" lon="4.85576">
        <ele>276.8</ele>
        <time>2020-06-28T07:46:48.000Z</time>
      </trkpt>
      <trkpt lat="45.59146" lon="4.85578">
        <ele>277.9</ele>
        <time>2020-06-28T07:46:52.000Z</time>
      </trkpt>
      <trkpt lat="45.59143" lon="4.85578">
        <ele>278.4</ele>
        <time>2020-06-28T07:46:54.000Z</time>
      </trkpt>
      <trkpt lat="45.59141" lon="4.85578">
        <ele>278.9</ele>
        <time>2020-06-28T07:46:56.000Z</time>
      </trkpt>
      <trkpt lat="45.59135" lon="4.85579">
        <ele>279.8</ele>
        <time>2020-06-28T07:47:00.000Z</time>
      </trkpt>
      <trkpt lat="45.59134" lon="4.85579">
        <ele>280.1</ele>
        <time>2020-06-28T07:47:01.000Z</time>
      </trkpt>
      <trkpt lat="45.59129" lon="4.8558">
        <ele>280.9</ele>
        <time>2020-06-28T07:47:04.000Z</time>
      </trkpt>
      <trkpt lat="45.59127" lon="4.8558">
        <ele>281.1</ele>
        <time>2020-06-28T07:47:05.000Z</time>
      </trkpt>
      <trkpt lat="45.59123" lon="4.8558">
        <ele>281.7</ele>
        <time>2020-06-28T07:47:08.000Z</time>
      </trkpt>
      <trkpt lat="45.5912" lon="4.85581">
        <ele>282.3</ele>
        <time>2020-06-28T07:47:10.000Z</time>
      </trkpt>
      <trkpt lat="45.59115" lon="4.85581">
        <ele>283</ele>
        <time>2020-06-28T07:47:13.000Z</time>
      </trkpt>
      <trkpt lat="45.59112" lon="4.85581">
        <ele>283.5</ele>
        <time>2020-06-28T07:47:15.000Z</time>
      </trkpt>
      <trkpt lat="45.59106" lon="4.8558">
        <ele>284.3</ele>
        <time>2020-06-28T07:47:20.000Z</time>
      </trkpt>
      <trkpt lat="45.59103" lon="4.85579">
        <ele>285.6</ele>
        <time>2020-06-28T07:47:22.000Z</time>
      </trkpt>
      <trkpt lat="45.59102" lon="4.85578">
        <ele>285.9</ele>
        <time>2020-06-28T07:47:23.000Z</time>
      </trkpt>
      <trkpt lat="45.59098" lon="4.85576">
        <ele>286.7</ele>
        <time>2020-06-28T07:47:27.000Z</time>
      </trkpt>
      <trkpt lat="45.59092" lon="4.8557">
        <ele>287.9</ele>
        <time>2020-06-28T07:47:33.000Z</time>
      </trkpt>
      <trkpt lat="45.59091" lon="4.8557">
        <ele>288.2</ele>
        <time>2020-06-28T07:47:34.000Z</time>
      </trkpt>
      <trkpt lat="45.59086" lon="4.85569">
        <ele>289.1</ele>
        <time>2020-06-28T07:47:38.000Z</time>
      </trkpt>
      <trkpt lat="45.59084" lon="4.85567">
        <ele>289.6</ele>
        <time>2020-06-28T07:47:42.000Z</time>
      </trkpt>
      <trkpt lat="45.59082" lon="4.85565">
        <ele>290</ele>
        <time>2020-06-28T07:47:44.000Z</time>
      </trkpt>
      <trkpt lat="45.59078" lon="4.8556">
        <ele>291</ele>
        <time>2020-06-28T07:47:50.000Z</time>
      </trkpt>
      <trkpt lat="45.59077" lon="4.85559">
        <ele>291.2</ele>
        <time>2020-06-28T07:47:51.000Z</time>
      </trkpt>
      <trkpt lat="45.59077" lon="4.85557">
        <ele>291.4</ele>
        <time>2020-06-28T07:47:52.000Z</time>
      </trkpt>
      <trkpt lat="45.59075" lon="4.85552">
        <ele>292.2</ele>
        <time>2020-06-28T07:47:56.000Z</time>
      </trkpt>
      <trkpt lat="45.59072" lon="4.85548">
        <ele>293</ele>
        <time>2020-06-28T07:48:00.000Z</time>
      </trkpt>
      <trkpt lat="45.59071" lon="4.85544">
        <ele>293.7</ele>
        <time>2020-06-28T07:48:03.000Z</time>
      </trkpt>
      <trkpt lat="45.59069" lon="4.85541">
        <ele>294.2</ele>
        <time>2020-06-28T07:48:05.000Z</time>
      </trkpt>
      <trkpt lat="45.59064" lon="4.85537">
        <ele>295.3</ele>
        <time>2020-06-28T07:48:08.000Z</time>
      </trkpt>
      <trkpt lat="45.59062" lon="4.85535">
        <ele>295.9</ele>
        <time>2020-06-28T07:48:10.000Z</time>
      </trkpt>
      <trkpt lat="45.59059" lon="4.85531">
        <ele>296.7</ele>
        <time>2020-06-28T07:48:14.000Z</time>
      </trkpt>
      <trkpt lat="45.59059" lon="4.8553">
        <ele>296.9</ele>
        <time>2020-06-28T07:48:15.000Z</time>
      </trkpt>
      <trkpt lat="45.59056" lon="4.85525">
        <ele>297.9</ele>
        <time>2020-06-28T07:48:20.000Z</time>
      </trkpt>
      <trkpt lat="45.59055" lon="4.85524">
        <ele>298.1</ele>
        <time>2020-06-28T07:48:21.000Z</time>
      </trkpt>
      <trkpt lat="45.59053" lon="4.85521">
        <ele>298.8</ele>
        <time>2020-06-28T07:48:25.000Z</time>
      </trkpt>
      <trkpt lat="45.59051" lon="4.85518">
        <ele>299.4</ele>
        <time>2020-06-28T07:48:28.000Z</time>
      </trkpt>
      <trkpt lat="45.59051" lon="4.85516">
        <ele>299.6</ele>
        <time>2020-06-28T07:48:30.000Z</time>
      </trkpt>
      <trkpt lat="45.58983" lon="4.85372">
        <ele>320.6</ele>
        <time>2020-06-28T07:50:29.000Z</time>
      </trkpt>
      <trkpt lat="45.58979" lon="4.85369">
        <ele>320.9</ele>
        <time>2020-06-28T07:50:32.000Z</time>
      </trkpt>
      <trkpt lat="45.58973" lon="4.85365">
        <ele>321.5</ele>
        <time>2020-06-28T07:50:35.000Z</time>
      </trkpt>
      <trkpt lat="45.58968" lon="4.85356">
        <ele>322</ele>
        <time>2020-06-28T07:50:39.000Z</time>
      </trkpt>
      <trkpt lat="45.58959" lon="4.85346">
        <ele>322.6</ele>
        <time>2020-06-28T07:50:44.000Z</time>
      </trkpt>
      <trkpt lat="45.58949" lon="4.85339">
        <ele>323.3</ele>
        <time>2020-06-28T07:50:50.000Z</time>
      </trkpt>
      <trkpt lat="45.58944" lon="4.85336">
        <ele>323.5</ele>
        <time>2020-06-28T07:50:53.000Z</time>
      </trkpt>
      <trkpt lat="45.5894" lon="4.85334">
        <ele>323.9</ele>
        <time>2020-06-28T07:50:56.000Z</time>
      </trkpt>
      <trkpt lat="45.58937" lon="4.85333">
        <ele>324.2</ele>
        <time>2020-06-28T07:50:58.000Z</time>
      </trkpt>
      <trkpt lat="45.58932" lon="4.85334">
        <ele>324.6</ele>
        <time>2020-06-28T07:51:03.000Z</time>
      </trkpt>
      <trkpt lat="45.58927" lon="4.85334">
        <ele>325</ele>
        <time>2020-06-28T07:51:07.000Z</time>
      </trkpt>
      <trkpt lat="45.58922" lon="4.85334">
        <ele>325.5</ele>
        <time>2020-06-28T07:51:11.000Z</time>
      </trkpt>
      <trkpt lat="45.58921" lon="4.85334">
        <ele>327.1</ele>
        <time>2020-06-28T07:51:12.000Z</time>
      </trkpt>
      <trkpt lat="45.58917" lon="4.85334">
        <ele>328</ele>
        <time>2020-06-28T07:51:15.000Z</time>
      </trkpt>
      <trkpt lat="45.58914" lon="4.85335">
        <ele>328.6</ele>
        <time>2020-06-28T07:51:18.000Z</time>
      </trkpt>
      <trkpt lat="45.58913" lon="4.85336">
        <ele>329</ele>
        <time>2020-06-28T07:51:19.000Z</time>
      </trkpt>
      <trkpt lat="45.58908" lon="4.85336">
        <ele>329.9</ele>
        <time>2020-06-28T07:51:24.000Z</time>
      </trkpt>
      <trkpt lat="45.58903" lon="4.85336">
        <ele>331</ele>
        <time>2020-06-28T07:51:28.000Z</time>
      </trkpt>
      <trkpt lat="45.58896" lon="4.85336">
        <ele>332.1</ele>
        <time>2020-06-28T07:51:32.000Z</time>
      </trkpt>
      <trkpt lat="45.58894" lon="4.85336">
        <ele>332.4</ele>
        <time>2020-06-28T07:51:33.000Z</time>
      </trkpt>
      <trkpt lat="45.58886" lon="4.85337">
        <ele>333.5</ele>
        <time>2020-06-28T07:51:38.000Z</time>
      </trkpt>
      <trkpt lat="45.58884" lon="4.85337">
        <ele>333.6</ele>
        <time>2020-06-28T07:51:39.000Z</time>
      </trkpt>
      <trkpt lat="45.58873" lon="4.85339">
        <ele>334.3</ele>
        <time>2020-06-28T07:51:45.000Z</time>
      </trkpt>
      <trkpt lat="45.5886" lon="4.85339">
        <ele>334.6</ele>
        <time>2020-06-28T07:51:51.000Z</time>
      </trkpt>
      <trkpt lat="45.58847" lon="4.85339">
        <ele>334.6</ele>
        <time>2020-06-28T07:51:56.000Z</time>
      </trkpt>
      <trkpt lat="45.58838" lon="4.85342">
        <ele>334.6</ele>
        <time>2020-06-28T07:52:01.000Z</time>
      </trkpt>
      <trkpt lat="45.58836" lon="4.85343">
        <ele>334.6</ele>
        <time>2020-06-28T07:52:04.000Z</time>
      </trkpt>
      <trkpt lat="45.5883" lon="4.85319">
        <ele>333.2</ele>
        <time>2020-06-28T08:00:41.000Z</time>
      </trkpt>
      <trkpt lat="45.58829" lon="4.85316">
        <ele>333</ele>
        <time>2020-06-28T08:00:42.000Z</time>
      </trkpt>
      <trkpt lat="45.58828" lon="4.85295">
        <ele>331.4</ele>
        <time>2020-06-28T08:00:48.000Z</time>
      </trkpt>
      <trkpt lat="45.5883" lon="4.8529">
        <ele>331.1</ele>
        <time>2020-06-28T08:00:49.000Z</time>
      </trkpt>
      <trkpt lat="45.58835" lon="4.85275">
        <ele>330</ele>
        <time>2020-06-28T08:00:52.000Z</time>
      </trkpt>
      <trkpt lat="45.58836" lon="4.85271">
        <ele>329.7</ele>
        <time>2020-06-28T08:00:53.000Z</time>
      </trkpt>
      <trkpt lat="45.5884" lon="4.85263">
        <ele>329</ele>
        <time>2020-06-28T08:00:55.000Z</time>
      </trkpt>
      <trkpt lat="45.58844" lon="4.85255">
        <ele>328.1</ele>
        <time>2020-06-28T08:00:57.000Z</time>
      </trkpt>
      <trkpt lat="45.58845" lon="4.85251">
        <ele>327.6</ele>
        <time>2020-06-28T08:00:58.000Z</time>
      </trkpt>
      <trkpt lat="45.58847" lon="4.85248">
        <ele>327.2</ele>
        <time>2020-06-28T08:00:59.000Z</time>
      </trkpt>
      <trkpt lat="45.58849" lon="4.85246">
        <ele>326.9</ele>
        <time>2020-06-28T08:01:00.000Z</time>
      </trkpt>
      <trkpt lat="45.58853" lon="4.85241">
        <ele>326.1</ele>
        <time>2020-06-28T08:01:02.000Z</time>
      </trkpt>
      <trkpt lat="45.58859" lon="4.85237">
        <ele>325.2</ele>
        <time>2020-06-28T08:01:04.000Z</time>
      </trkpt>
      <trkpt lat="45.58864" lon="4.85231">
        <ele>324.2</ele>
        <time>2020-06-28T08:01:06.000Z</time>
      </trkpt>
      <trkpt lat="45.58869" lon="4.85224">
        <ele>323.2</ele>
        <time>2020-06-28T08:01:08.000Z</time>
      </trkpt>
      <trkpt lat="45.58872" lon="4.85216">
        <ele>322.2</ele>
        <time>2020-06-28T08:01:10.000Z</time>
      </trkpt>
      <trkpt lat="45.58874" lon="4.85209">
        <ele>321.3</ele>
        <time>2020-06-28T08:01:12.000Z</time>
      </trkpt>
      <trkpt lat="45.58876" lon="4.85206">
        <ele>320.9</ele>
        <time>2020-06-28T08:01:13.000Z</time>
      </trkpt>
      <trkpt lat="45.58878" lon="4.85202">
        <ele>320.3</ele>
        <time>2020-06-28T08:01:14.000Z</time>
      </trkpt>
      <trkpt lat="45.58881" lon="4.85197">
        <ele>319.3</ele>
        <time>2020-06-28T08:01:16.000Z</time>
      </trkpt>
      <trkpt lat="45.58885" lon="4.85189">
        <ele>317.7</ele>
        <time>2020-06-28T08:01:18.000Z</time>
      </trkpt>
      <trkpt lat="45.58888" lon="4.85184">
        <ele>316.8</ele>
        <time>2020-06-28T08:01:19.000Z</time>
      </trkpt>
      <trkpt lat="45.58894" lon="4.85177">
        <ele>314.7</ele>
        <time>2020-06-28T08:01:21.000Z</time>
      </trkpt>
      <trkpt lat="45.589" lon="4.85171">
        <ele>312.6</ele>
        <time>2020-06-28T08:01:23.000Z</time>
      </trkpt>
      <trkpt lat="45.58904" lon="4.85168">
        <ele>311.4</ele>
        <time>2020-06-28T08:01:24.000Z</time>
      </trkpt>
      <trkpt lat="45.58908" lon="4.85165">
        <ele>310.3</ele>
        <time>2020-06-28T08:01:25.000Z</time>
      </trkpt>
      <trkpt lat="45.58911" lon="4.85162">
        <ele>309.4</ele>
        <time>2020-06-28T08:01:26.000Z</time>
      </trkpt>
      <trkpt lat="45.58918" lon="4.85154">
        <ele>307.6</ele>
        <time>2020-06-28T08:01:28.000Z</time>
      </trkpt>
      <trkpt lat="45.58921" lon="4.85151">
        <ele>306.7</ele>
        <time>2020-06-28T08:01:29.000Z</time>
      </trkpt>
      <trkpt lat="45.58925" lon="4.85149">
        <ele>305.9</ele>
        <time>2020-06-28T08:01:30.000Z</time>
      </trkpt>
      <trkpt lat="45.58928" lon="4.85146">
        <ele>305</ele>
        <time>2020-06-28T08:01:31.000Z</time>
      </trkpt>
      <trkpt lat="45.58936" lon="4.85142">
        <ele>303.4</ele>
        <time>2020-06-28T08:01:33.000Z</time>
      </trkpt>
      <trkpt lat="45.58941" lon="4.85139">
        <ele>302.1</ele>
        <time>2020-06-28T08:01:35.000Z</time>
      </trkpt>
      <trkpt lat="45.58946" lon="4.85136">
        <ele>301</ele>
        <time>2020-06-28T08:01:37.000Z</time>
      </trkpt>
      <trkpt lat="45.58951" lon="4.85133">
        <ele>299.6</ele>
        <time>2020-06-28T08:01:39.000Z</time>
      </trkpt>
      <trkpt lat="45.58958" lon="4.85131">
        <ele>298.2</ele>
        <time>2020-06-28T08:01:41.000Z</time>
      </trkpt>
      <trkpt lat="45.58964" lon="4.8513">
        <ele>296.3</ele>
        <time>2020-06-28T08:01:43.000Z</time>
      </trkpt>
      <trkpt lat="45.5897" lon="4.85128">
        <ele>295.4</ele>
        <time>2020-06-28T08:01:45.000Z</time>
      </trkpt>
      <trkpt lat="45.58975" lon="4.85126">
        <ele>294.6</ele>
        <time>2020-06-28T08:01:47.000Z</time>
      </trkpt>
      <trkpt lat="45.5898" lon="4.85125">
        <ele>293.8</ele>
        <time>2020-06-28T08:01:49.000Z</time>
      </trkpt>
      <trkpt lat="45.58989" lon="4.85121">
        <ele>292.2</ele>
        <time>2020-06-28T08:01:52.000Z</time>
      </trkpt>
      <trkpt lat="45.59" lon="4.85118">
        <ele>290.4</ele>
        <time>2020-06-28T08:01:55.000Z</time>
      </trkpt>
      <trkpt lat="45.59008" lon="4.85114">
        <ele>289.1</ele>
        <time>2020-06-28T08:01:57.000Z</time>
      </trkpt>
      <trkpt lat="45.59012" lon="4.85113">
        <ele>288.6</ele>
        <time>2020-06-28T08:01:58.000Z</time>
      </trkpt>
      <trkpt lat="45.5902" lon="4.85111">
        <ele>287.5</ele>
        <time>2020-06-28T08:02:01.000Z</time>
      </trkpt>
      <trkpt lat="45.59023" lon="4.8511">
        <ele>287.2</ele>
        <time>2020-06-28T08:02:03.000Z</time>
      </trkpt>
      <trkpt lat="45.59037" lon="4.85102">
        <ele>285.2</ele>
        <time>2020-06-28T08:02:11.000Z</time>
      </trkpt>
      <trkpt lat="45.59038" lon="4.85096">
        <ele>284.6</ele>
        <time>2020-06-28T08:02:13.000Z</time>
      </trkpt>
      <trkpt lat="45.59041" lon="4.85092">
        <ele>284.1</ele>
        <time>2020-06-28T08:02:15.000Z</time>
      </trkpt>
      <trkpt lat="45.59043" lon="4.85086">
        <ele>283.4</ele>
        <time>2020-06-28T08:02:18.000Z</time>
      </trkpt>
      <trkpt lat="45.59044" lon="4.85078">
        <ele>276.7</ele>
        <time>2020-06-28T08:02:22.000Z</time>
      </trkpt>
      <trkpt lat="45.59061" lon="4.85055">
        <ele>274</ele>
        <time>2020-06-28T08:02:48.000Z</time>
      </trkpt>
      <trkpt lat="45.59062" lon="4.85049">
        <ele>273.5</ele>
        <time>2020-06-28T08:02:50.000Z</time>
      </trkpt>
      <trkpt lat="45.59062" lon="4.85043">
        <ele>273.1</ele>
        <time>2020-06-28T08:02:52.000Z</time>
      </trkpt>
      <trkpt lat="45.59063" lon="4.8504">
        <ele>272.9</ele>
        <time>2020-06-28T08:02:53.000Z</time>
      </trkpt>
      <trkpt lat="45.59069" lon="4.85026">
        <ele>271.7</ele>
        <time>2020-06-28T08:02:58.000Z</time>
      </trkpt>
      <trkpt lat="45.59069" lon="4.85023">
        <ele>271.5</ele>
        <time>2020-06-28T08:02:59.000Z</time>
      </trkpt>
      <trkpt lat="45.5907" lon="4.8502">
        <ele>271.3</ele>
        <time>2020-06-28T08:03:00.000Z</time>
      </trkpt>
      <trkpt lat="45.5907" lon="4.85011">
        <ele>270.6</ele>
        <time>2020-06-28T08:03:03.000Z</time>
      </trkpt>
      <trkpt lat="45.59071" lon="4.85008">
        <ele>270.3</ele>
        <time>2020-06-28T08:03:04.000Z</time>
      </trkpt>
      <trkpt lat="45.59071" lon="4.84999">
        <ele>269.7</ele>
        <time>2020-06-28T08:03:07.000Z</time>
      </trkpt>
      <trkpt lat="45.59072" lon="4.84991">
        <ele>269.1</ele>
        <time>2020-06-28T08:03:09.000Z</time>
      </trkpt>
      <trkpt lat="45.5907" lon="4.84977">
        <ele>268</ele>
        <time>2020-06-28T08:03:12.000Z</time>
      </trkpt>
      <trkpt lat="45.5907" lon="4.84971">
        <ele>267.5</ele>
        <time>2020-06-28T08:03:13.000Z</time>
      </trkpt>
      <trkpt lat="45.59073" lon="4.8495">
        <ele>265.6</ele>
        <time>2020-06-28T08:03:16.000Z</time>
      </trkpt>
      <trkpt lat="45.59075" lon="4.84938">
        <ele>264.6</ele>
        <time>2020-06-28T08:03:18.000Z</time>
      </trkpt>
      <trkpt lat="45.59078" lon="4.84931">
        <ele>264.1</ele>
        <time>2020-06-28T08:03:20.000Z</time>
      </trkpt>
      <trkpt lat="45.5908" lon="4.84928">
        <ele>263.8</ele>
        <time>2020-06-28T08:03:21.000Z</time>
      </trkpt>
      <trkpt lat="45.59083" lon="4.84923">
        <ele>263.3</ele>
        <time>2020-06-28T08:03:22.000Z</time>
      </trkpt>
      <trkpt lat="45.59091" lon="4.84915">
        <ele>262.2</ele>
        <time>2020-06-28T08:03:24.000Z</time>
      </trkpt>
      <trkpt lat="45.59095" lon="4.84913">
        <ele>261.7</ele>
        <time>2020-06-28T08:03:25.000Z</time>
      </trkpt>
      <trkpt lat="45.59104" lon="4.84911">
        <ele>260.9</ele>
        <time>2020-06-28T08:03:27.000Z</time>
      </trkpt>
      <trkpt lat="45.59118" lon="4.84906">
        <ele>259.7</ele>
        <time>2020-06-28T08:03:30.000Z</time>
      </trkpt>
      <trkpt lat="45.59123" lon="4.84903">
        <ele>259.4</ele>
        <time>2020-06-28T08:03:31.000Z</time>
      </trkpt>
      <trkpt lat="45.59127" lon="4.84901">
        <ele>259.1</ele>
        <time>2020-06-28T08:03:32.000Z</time>
      </trkpt>
      <trkpt lat="45.59132" lon="4.84897">
        <ele>258.9</ele>
        <time>2020-06-28T08:03:33.000Z</time>
      </trkpt>
      <trkpt lat="45.59141" lon="4.84886">
        <ele>258.3</ele>
        <time>2020-06-28T08:03:36.000Z</time>
      </trkpt>
      <trkpt lat="45.59143" lon="4.84882">
        <ele>258.2</ele>
        <time>2020-06-28T08:03:37.000Z</time>
      </trkpt>
      <trkpt lat="45.59154" lon="4.84869">
        <ele>257.7</ele>
        <time>2020-06-28T08:03:42.000Z</time>
      </trkpt>
      <trkpt lat="45.59157" lon="4.84862">
        <ele>257.5</ele>
        <time>2020-06-28T08:03:45.000Z</time>
      </trkpt>
      <trkpt lat="45.59156" lon="4.84857">
        <ele>257.5</ele>
        <time>2020-06-28T08:03:47.000Z</time>
      </trkpt>
      <trkpt lat="45.59153" lon="4.84852">
        <ele>257.7</ele>
        <time>2020-06-28T08:03:49.000Z</time>
      </trkpt>
      <trkpt lat="45.59148" lon="4.8484">
        <ele>257.9</ele>
        <time>2020-06-28T08:03:53.000Z</time>
      </trkpt>
      <trkpt lat="45.5914" lon="4.84826">
        <ele>258.2</ele>
        <time>2020-06-28T08:03:58.000Z</time>
      </trkpt>
      <trkpt lat="45.59134" lon="4.8482">
        <ele>258.4</ele>
        <time>2020-06-28T08:04:01.000Z</time>
      </trkpt>
      <trkpt lat="45.5912" lon="4.84817">
        <ele>258.9</ele>
        <time>2020-06-28T08:04:07.000Z</time>
      </trkpt>
      <trkpt lat="45.59117" lon="4.84816">
        <ele>259</ele>
        <time>2020-06-28T08:04:08.000Z</time>
      </trkpt>
      <trkpt lat="45.59101" lon="4.84816">
        <ele>259.7</ele>
        <time>2020-06-28T08:04:14.000Z</time>
      </trkpt>
      <trkpt lat="45.59093" lon="4.84816">
        <ele>260.1</ele>
        <time>2020-06-28T08:04:17.000Z</time>
      </trkpt>
      <trkpt lat="45.59084" lon="4.84817">
        <ele>260.5</ele>
        <time>2020-06-28T08:04:20.000Z</time>
      </trkpt>
      <trkpt lat="45.59074" lon="4.84817">
        <ele>261</ele>
        <time>2020-06-28T08:04:24.000Z</time>
      </trkpt>
      <trkpt lat="45.59071" lon="4.84817">
        <ele>261.2</ele>
        <time>2020-06-28T08:04:25.000Z</time>
      </trkpt>
      <trkpt lat="45.59065" lon="4.84816">
        <ele>261.5</ele>
        <time>2020-06-28T08:04:27.000Z</time>
      </trkpt>
      <trkpt lat="45.59048" lon="4.84814">
        <ele>262.6</ele>
        <time>2020-06-28T08:04:33.000Z</time>
      </trkpt>
      <trkpt lat="45.59046" lon="4.84814">
        <ele>262.8</ele>
        <time>2020-06-28T08:04:34.000Z</time>
      </trkpt>
      <trkpt lat="45.59035" lon="4.8481">
        <ele>263.6</ele>
        <time>2020-06-28T08:04:38.000Z</time>
      </trkpt>
      <trkpt lat="45.59027" lon="4.84806">
        <ele>264.4</ele>
        <time>2020-06-28T08:04:42.000Z</time>
      </trkpt>
      <trkpt lat="45.59021" lon="4.84802">
        <ele>264.9</ele>
        <time>2020-06-28T08:04:45.000Z</time>
      </trkpt>
      <trkpt lat="45.5901" lon="4.84797">
        <ele>266</ele>
        <time>2020-06-28T08:04:50.000Z</time>
      </trkpt>
      <trkpt lat="45.59001" lon="4.84791">
        <ele>267</ele>
        <time>2020-06-28T08:04:55.000Z</time>
      </trkpt>
      <trkpt lat="45.58995" lon="4.84788">
        <ele>267.7</ele>
        <time>2020-06-28T08:04:58.000Z</time>
      </trkpt>
      <trkpt lat="45.58991" lon="4.84788">
        <ele>268.1</ele>
        <time>2020-06-28T08:05:00.000Z</time>
      </trkpt>
      <trkpt lat="45.58983" lon="4.84787">
        <ele>269</ele>
        <time>2020-06-28T08:05:03.000Z</time>
      </trkpt>
      <trkpt lat="45.58978" lon="4.84786">
        <ele>269.6</ele>
        <time>2020-06-28T08:05:05.000Z</time>
      </trkpt>
      <trkpt lat="45.58968" lon="4.84784">
        <ele>271</ele>
        <time>2020-06-28T08:05:10.000Z</time>
      </trkpt>
      <trkpt lat="45.58959" lon="4.84783">
        <ele>272.2</ele>
        <time>2020-06-28T08:05:14.000Z</time>
      </trkpt>
      <trkpt lat="45.58955" lon="4.84781">
        <ele>272.7</ele>
        <time>2020-06-28T08:05:16.000Z</time>
      </trkpt>
      <trkpt lat="45.5895" lon="4.84779">
        <ele>273.4</ele>
        <time>2020-06-28T08:05:18.000Z</time>
      </trkpt>
      <trkpt lat="45.58938" lon="4.84774">
        <ele>275</ele>
        <time>2020-06-28T08:05:23.000Z</time>
      </trkpt>
      <trkpt lat="45.58934" lon="4.84774">
        <ele>275.6</ele>
        <time>2020-06-28T08:05:25.000Z</time>
      </trkpt>
      <trkpt lat="45.5893" lon="4.84773">
        <ele>276.2</ele>
        <time>2020-06-28T08:05:27.000Z</time>
      </trkpt>
      <trkpt lat="45.58921" lon="4.84771">
        <ele>277.3</ele>
        <time>2020-06-28T08:05:31.000Z</time>
      </trkpt>
      <trkpt lat="45.58919" lon="4.8477">
        <ele>277.6</ele>
        <time>2020-06-28T08:05:32.000Z</time>
      </trkpt>
      <trkpt lat="45.58916" lon="4.8477">
        <ele>277.9</ele>
        <time>2020-06-28T08:05:33.000Z</time>
      </trkpt>
      <trkpt lat="45.58907" lon="4.84768">
        <ele>278.9</ele>
        <time>2020-06-28T08:05:37.000Z</time>
      </trkpt>
      <trkpt lat="45.589" lon="4.84767">
        <ele>279.7</ele>
        <time>2020-06-28T08:05:40.000Z</time>
      </trkpt>
      <trkpt lat="45.58891" lon="4.84766">
        <ele>280.5</ele>
        <time>2020-06-28T08:05:44.000Z</time>
      </trkpt>
      <trkpt lat="45.58882" lon="4.84764">
        <ele>281.2</ele>
        <time>2020-06-28T08:05:48.000Z</time>
      </trkpt>
      <trkpt lat="45.58876" lon="4.84764">
        <ele>281.7</ele>
        <time>2020-06-28T08:05:51.000Z</time>
      </trkpt>
      <trkpt lat="45.58869" lon="4.84763">
        <ele>282.4</ele>
        <time>2020-06-28T08:05:54.000Z</time>
      </trkpt>
      <trkpt lat="45.58867" lon="4.84763">
        <ele>282.6</ele>
        <time>2020-06-28T08:05:55.000Z</time>
      </trkpt>
      <trkpt lat="45.58865" lon="4.84762">
        <ele>282.8</ele>
        <time>2020-06-28T08:05:56.000Z</time>
      </trkpt>
      <trkpt lat="45.58858" lon="4.84761">
        <ele>283.5</ele>
        <time>2020-06-28T08:05:59.000Z</time>
      </trkpt>
      <trkpt lat="45.58844" lon="4.84756">
        <ele>284.5</ele>
        <time>2020-06-28T08:06:05.000Z</time>
      </trkpt>
      <trkpt lat="45.58822" lon="4.84747">
        <ele>286</ele>
        <time>2020-06-28T08:06:14.000Z</time>
      </trkpt>
      <trkpt lat="45.58802" lon="4.84739">
        <ele>287.1</ele>
        <time>2020-06-28T08:06:22.000Z</time>
      </trkpt>
      <trkpt lat="45.58796" lon="4.84737">
        <ele>287.4</ele>
        <time>2020-06-28T08:06:24.000Z</time>
      </trkpt>
      <trkpt lat="45.58779" lon="4.84731">
        <ele>287.8</ele>
        <time>2020-06-28T08:06:30.000Z</time>
      </trkpt>
      <trkpt lat="45.58748" lon="4.84721">
        <ele>287.9</ele>
        <time>2020-06-28T08:06:39.000Z</time>
      </trkpt>
      <trkpt lat="45.58716" lon="4.84708">
        <ele>288.4</ele>
        <time>2020-06-28T08:06:48.000Z</time>
      </trkpt>
      <trkpt lat="45.58705" lon="4.84705">
        <ele>288.8</ele>
        <time>2020-06-28T08:06:51.000Z</time>
      </trkpt>
      <trkpt lat="45.58699" lon="4.84702">
        <ele>289</ele>
        <time>2020-06-28T08:06:53.000Z</time>
      </trkpt>
      <trkpt lat="45.58689" lon="4.84699">
        <ele>290.1</ele>
        <time>2020-06-28T08:06:57.000Z</time>
      </trkpt>
      <trkpt lat="45.58687" lon="4.847">
        <ele>290.2</ele>
        <time>2020-06-28T08:06:58.000Z</time>
      </trkpt>
      <trkpt lat="45.58686" lon="4.84704">
        <ele>290.3</ele>
        <time>2020-06-28T08:07:00.000Z</time>
      </trkpt>
      <trkpt lat="45.58686" lon="4.84711">
        <ele>290.5</ele>
        <time>2020-06-28T08:07:02.000Z</time>
      </trkpt>
      <trkpt lat="45.58686" lon="4.84721">
        <ele>290.9</ele>
        <time>2020-06-28T08:07:05.000Z</time>
      </trkpt>
      <trkpt lat="45.58687" lon="4.84728">
        <ele>291.2</ele>
        <time>2020-06-28T08:07:07.000Z</time>
      </trkpt>
      <trkpt lat="45.58688" lon="4.84746">
        <ele>291.8</ele>
        <time>2020-06-28T08:07:12.000Z</time>
      </trkpt>
      <trkpt lat="45.58689" lon="4.8475">
        <ele>292</ele>
        <time>2020-06-28T08:07:13.000Z</time>
      </trkpt>
      <trkpt lat="45.5869" lon="4.84772">
        <ele>293</ele>
        <time>2020-06-28T08:07:19.000Z</time>
      </trkpt>
      <trkpt lat="45.58691" lon="4.84776">
        <ele>293.2</ele>
        <time>2020-06-28T08:07:20.000Z</time>
      </trkpt>
      <trkpt lat="45.58695" lon="4.84805">
        <ele>294.6</ele>
        <time>2020-06-28T08:07:28.000Z</time>
      </trkpt>
      <trkpt lat="45.58695" lon="4.84812">
        <ele>295</ele>
        <time>2020-06-28T08:07:30.000Z</time>
      </trkpt>
      <trkpt lat="45.58698" lon="4.84825">
        <ele>295.7</ele>
        <time>2020-06-28T08:07:34.000Z</time>
      </trkpt>
      <trkpt lat="45.58699" lon="4.84828">
        <ele>295.9</ele>
        <time>2020-06-28T08:07:35.000Z</time>
      </trkpt>
      <trkpt lat="45.58702" lon="4.84841">
        <ele>296.7</ele>
        <time>2020-06-28T08:07:39.000Z</time>
      </trkpt>
      <trkpt lat="45.58705" lon="4.84856">
        <ele>297.7</ele>
        <time>2020-06-28T08:07:43.000Z</time>
      </trkpt>
      <trkpt lat="45.58706" lon="4.84859">
        <ele>297.9</ele>
        <time>2020-06-28T08:07:44.000Z</time>
      </trkpt>
      <trkpt lat="45.58711" lon="4.84882">
        <ele>299.8</ele>
        <time>2020-06-28T08:07:50.000Z</time>
      </trkpt>
      <trkpt lat="45.58714" lon="4.84893">
        <ele>300.7</ele>
        <time>2020-06-28T08:07:53.000Z</time>
      </trkpt>
      <trkpt lat="45.58715" lon="4.849">
        <ele>301.3</ele>
        <time>2020-06-28T08:07:55.000Z</time>
      </trkpt>
      <trkpt lat="45.58718" lon="4.84913">
        <ele>302.4</ele>
        <time>2020-06-28T08:07:59.000Z</time>
      </trkpt>
      <trkpt lat="45.58719" lon="4.84922">
        <ele>303.1</ele>
        <time>2020-06-28T08:08:02.000Z</time>
      </trkpt>
      <trkpt lat="45.58719" lon="4.84925">
        <ele>303.3</ele>
        <time>2020-06-28T08:08:03.000Z</time>
      </trkpt>
      <trkpt lat="45.5872" lon="4.84938">
        <ele>304.2</ele>
        <time>2020-06-28T08:08:07.000Z</time>
      </trkpt>
      <trkpt lat="45.5872" lon="4.8495">
        <ele>305.1</ele>
        <time>2020-06-28T08:08:11.000Z</time>
      </trkpt>
      <trkpt lat="45.5872" lon="4.84953">
        <ele>305.3</ele>
        <time>2020-06-28T08:08:12.000Z</time>
      </trkpt>
      <trkpt lat="45.5872" lon="4.84968">
        <ele>306.3</ele>
        <time>2020-06-28T08:08:17.000Z</time>
      </trkpt>
      <trkpt lat="45.58719" lon="4.84984">
        <ele>307.3</ele>
        <time>2020-06-28T08:08:22.000Z</time>
      </trkpt>
      <trkpt lat="45.58718" lon="4.84992">
        <ele>307.8</ele>
        <time>2020-06-28T08:08:25.000Z</time>
      </trkpt>
      <trkpt lat="45.58716" lon="4.85001">
        <ele>308.3</ele>
        <time>2020-06-28T08:08:28.000Z</time>
      </trkpt>
      <trkpt lat="45.58714" lon="4.85009">
        <ele>308.8</ele>
        <time>2020-06-28T08:08:31.000Z</time>
      </trkpt>
      <trkpt lat="45.58711" lon="4.85017">
        <ele>309.3</ele>
        <time>2020-06-28T08:08:34.000Z</time>
      </trkpt>
      <trkpt lat="45.58707" lon="4.85036">
        <ele>310.4</ele>
        <time>2020-06-28T08:08:40.000Z</time>
      </trkpt>
      <trkpt lat="45.58704" lon="4.85051">
        <ele>311.3</ele>
        <time>2020-06-28T08:08:45.000Z</time>
      </trkpt>
      <trkpt lat="45.58703" lon="4.85054">
        <ele>311.5</ele>
        <time>2020-06-28T08:08:46.000Z</time>
      </trkpt>
      <trkpt lat="45.58707" lon="4.85068">
        <ele>312.5</ele>
        <time>2020-06-28T08:08:51.000Z</time>
      </trkpt>
      <trkpt lat="45.58708" lon="4.8507">
        <ele>312.6</ele>
        <time>2020-06-28T08:08:52.000Z</time>
      </trkpt>
      <trkpt lat="45.58709" lon="4.85082">
        <ele>313.5</ele>
        <time>2020-06-28T08:08:58.000Z</time>
      </trkpt>
      <trkpt lat="45.5871" lon="4.85088">
        <ele>313.8</ele>
        <time>2020-06-28T08:09:01.000Z</time>
      </trkpt>
      <trkpt lat="45.58711" lon="4.85091">
        <ele>314</ele>
        <time>2020-06-28T08:09:03.000Z</time>
      </trkpt>
      <trkpt lat="45.58715" lon="4.85101">
        <ele>314.5</ele>
        <time>2020-06-28T08:09:08.000Z</time>
      </trkpt>
      <trkpt lat="45.58718" lon="4.85107">
        <ele>314.9</ele>
        <time>2020-06-28T08:09:11.000Z</time>
      </trkpt>
      <trkpt lat="45.5872" lon="4.85111">
        <ele>315.2</ele>
        <time>2020-06-28T08:09:13.000Z</time>
      </trkpt>
      <trkpt lat="45.58721" lon="4.85113">
        <ele>315.3</ele>
        <time>2020-06-28T08:09:14.000Z</time>
      </trkpt>
      <trkpt lat="45.58725" lon="4.85121">
        <ele>315.9</ele>
        <time>2020-06-28T08:09:18.000Z</time>
      </trkpt>
      <trkpt lat="45.58727" lon="4.85123">
        <ele>316.1</ele>
        <time>2020-06-28T08:09:19.000Z</time>
      </trkpt>
      <trkpt lat="45.5873" lon="4.85132">
        <ele>316.8</ele>
        <time>2020-06-28T08:09:24.000Z</time>
      </trkpt>
      <trkpt lat="45.5873" lon="4.85135">
        <ele>317</ele>
        <time>2020-06-28T08:09:25.000Z</time>
      </trkpt>
      <trkpt lat="45.58734" lon="4.85143">
        <ele>317.6</ele>
        <time>2020-06-28T08:09:29.000Z</time>
      </trkpt>
      <trkpt lat="45.58735" lon="4.85147">
        <ele>317.9</ele>
        <time>2020-06-28T08:09:31.000Z</time>
      </trkpt>
      <trkpt lat="45.58736" lon="4.85149">
        <ele>318.1</ele>
        <time>2020-06-28T08:09:32.000Z</time>
      </trkpt>
      <trkpt lat="45.58737" lon="4.85153">
        <ele>318.4</ele>
        <time>2020-06-28T08:09:34.000Z</time>
      </trkpt>
      <trkpt lat="45.58739" lon="4.8516">
        <ele>318.9</ele>
        <time>2020-06-28T08:09:37.000Z</time>
      </trkpt>
      <trkpt lat="45.58742" lon="4.85167">
        <ele>319.6</ele>
        <time>2020-06-28T08:09:40.000Z</time>
      </trkpt>
      <trkpt lat="45.58743" lon="4.85168">
        <ele>319.7</ele>
        <time>2020-06-28T08:09:41.000Z</time>
      </trkpt>
      <trkpt lat="45.58746" lon="4.85174">
        <ele>319.8</ele>
        <time>2020-06-28T08:09:44.000Z</time>
      </trkpt>
      <trkpt lat="45.58747" lon="4.85182">
        <ele>319.9</ele>
        <time>2020-06-28T08:09:47.000Z</time>
      </trkpt>
      <trkpt lat="45.58748" lon="4.85184">
        <ele>319.9</ele>
        <time>2020-06-28T08:09:48.000Z</time>
      </trkpt>
      <trkpt lat="45.5875" lon="4.85186">
        <ele>323.8</ele>
        <time>2020-06-28T08:09:49.000Z</time>
      </trkpt>
      <trkpt lat="45.58751" lon="4.85191">
        <ele>324.1</ele>
        <time>2020-06-28T08:09:52.000Z</time>
      </trkpt>
      <trkpt lat="45.58752" lon="4.85193">
        <ele>324.3</ele>
        <time>2020-06-28T08:09:54.000Z</time>
      </trkpt>
      <trkpt lat="45.58754" lon="4.85199">
        <ele>324.7</ele>
        <time>2020-06-28T08:09:57.000Z</time>
      </trkpt>
      <trkpt lat="45.58754" lon="4.85204">
        <ele>325.1</ele>
        <time>2020-06-28T08:10:00.000Z</time>
      </trkpt>
      <trkpt lat="45.58752" lon="4.8521">
        <ele>325.6</ele>
        <time>2020-06-28T08:10:04.000Z</time>
      </trkpt>
      <trkpt lat="45.58752" lon="4.85217">
        <ele>326.2</ele>
        <time>2020-06-28T08:10:07.000Z</time>
      </trkpt>
      <trkpt lat="45.58752" lon="4.85219">
        <ele>326.3</ele>
        <time>2020-06-28T08:10:08.000Z</time>
      </trkpt>
      <trkpt lat="45.58753" lon="4.85228">
        <ele>327</ele>
        <time>2020-06-28T08:10:12.000Z</time>
      </trkpt>
      <trkpt lat="45.58752" lon="4.85233">
        <ele>327.4</ele>
        <time>2020-06-28T08:10:14.000Z</time>
      </trkpt>
      <trkpt lat="45.58756" lon="4.85248">
        <ele>328.7</ele>
        <time>2020-06-28T08:10:20.000Z</time>
      </trkpt>
      <trkpt lat="45.58756" lon="4.85258">
        <ele>329.4</ele>
        <time>2020-06-28T08:10:25.000Z</time>
      </trkpt>
      <trkpt lat="45.58756" lon="4.8526">
        <ele>329.5</ele>
        <time>2020-06-28T08:10:26.000Z</time>
      </trkpt>
      <trkpt lat="45.58756" lon="4.85274">
        <ele>330.5</ele>
        <time>2020-06-28T08:10:33.000Z</time>
      </trkpt>
      <trkpt lat="45.58757" lon="4.85277">
        <ele>330.8</ele>
        <time>2020-06-28T08:10:35.000Z</time>
      </trkpt>
      <trkpt lat="45.58756" lon="4.85284">
        <ele>331.2</ele>
        <time>2020-06-28T08:10:38.000Z</time>
      </trkpt>
      <trkpt lat="45.58755" lon="4.85301">
        <ele>332.6</ele>
        <time>2020-06-28T08:10:45.000Z</time>
      </trkpt>
      <trkpt lat="45.58755" lon="4.85303">
        <ele>332.8</ele>
        <time>2020-06-28T08:10:46.000Z</time>
      </trkpt>
      <trkpt lat="45.58755" lon="4.85313">
        <ele>333.8</ele>
        <time>2020-06-28T08:10:50.000Z</time>
      </trkpt>
      <trkpt lat="45.58754" lon="4.85318">
        <ele>334.3</ele>
        <time>2020-06-28T08:10:52.000Z</time>
      </trkpt>
      <trkpt lat="45.58753" lon="4.85327">
        <ele>335</ele>
        <time>2020-06-28T08:10:55.000Z</time>
      </trkpt>
      <trkpt lat="45.58753" lon="4.8533">
        <ele>335.2</ele>
        <time>2020-06-28T08:10:56.000Z</time>
      </trkpt>
      <trkpt lat="45.58753" lon="4.85333">
        <ele>335.5</ele>
        <time>2020-06-28T08:10:57.000Z</time>
      </trkpt>
      <trkpt lat="45.58753" lon="4.85349">
        <ele>336.3</ele>
        <time>2020-06-28T08:11:01.000Z</time>
      </trkpt>
      <trkpt lat="45.58753" lon="4.85356">
        <ele>336.6</ele>
        <time>2020-06-28T08:11:03.000Z</time>
      </trkpt>
      <trkpt lat="45.58752" lon="4.85369">
        <ele>337.1</ele>
        <time>2020-06-28T08:11:07.000Z</time>
      </trkpt>
      <trkpt lat="45.5875" lon="4.85377">
        <ele>337.3</ele>
        <time>2020-06-28T08:11:10.000Z</time>
      </trkpt>
      <trkpt lat="45.58749" lon="4.85379">
        <ele>337.4</ele>
        <time>2020-06-28T08:11:11.000Z</time>
      </trkpt>
      <trkpt lat="45.58747" lon="4.85381">
        <ele>337.4</ele>
        <time>2020-06-28T08:11:12.000Z</time>
      </trkpt>
      <trkpt lat="45.58746" lon="4.85383">
        <ele>337.5</ele>
        <time>2020-06-28T08:11:13.000Z</time>
      </trkpt>
      <trkpt lat="45.58741" lon="4.85397">
        <ele>337.7</ele>
        <time>2020-06-28T08:11:16.000Z</time>
      </trkpt>
      <trkpt lat="45.58739" lon="4.85404">
        <ele>337.7</ele>
        <time>2020-06-28T08:11:18.000Z</time>
      </trkpt>
      <trkpt lat="45.58738" lon="4.85409">
        <ele>338.9</ele>
        <time>2020-06-28T08:11:20.000Z</time>
      </trkpt>
      <trkpt lat="45.58739" lon="4.85411">
        <ele>339</ele>
        <time>2020-06-28T08:11:21.000Z</time>
      </trkpt>
      <trkpt lat="45.58744" lon="4.85423">
        <ele>339.9</ele>
        <time>2020-06-28T08:11:28.000Z</time>
      </trkpt>
      <trkpt lat="45.58744" lon="4.85426">
        <ele>340.2</ele>
        <time>2020-06-28T08:11:30.000Z</time>
      </trkpt>
      <trkpt lat="45.58744" lon="4.85431">
        <ele>340.7</ele>
        <time>2020-06-28T08:11:32.000Z</time>
      </trkpt>
      <trkpt lat="45.58745" lon="4.85436">
        <ele>341.2</ele>
        <time>2020-06-28T08:11:34.000Z</time>
      </trkpt>
      <trkpt lat="45.58746" lon="4.85444">
        <ele>342.1</ele>
        <time>2020-06-28T08:11:38.000Z</time>
      </trkpt>
      <trkpt lat="45.58745" lon="4.8545">
        <ele>342.9</ele>
        <time>2020-06-28T08:11:41.000Z</time>
      </trkpt>
      <trkpt lat="45.58745" lon="4.85456">
        <ele>343.8</ele>
        <time>2020-06-28T08:11:44.000Z</time>
      </trkpt>
      <trkpt lat="45.58745" lon="4.85465">
        <ele>344.9</ele>
        <time>2020-06-28T08:11:49.000Z</time>
      </trkpt>
      <trkpt lat="45.58745" lon="4.85474">
        <ele>346.1</ele>
        <time>2020-06-28T08:11:53.000Z</time>
      </trkpt>
      <trkpt lat="45.58744" lon="4.85481">
        <ele>346.9</ele>
        <time>2020-06-28T08:11:56.000Z</time>
      </trkpt>
      <trkpt lat="45.58744" lon="4.85483">
        <ele>347.1</ele>
        <time>2020-06-28T08:11:57.000Z</time>
      </trkpt>
      <trkpt lat="45.58744" lon="4.85485">
        <ele>347.3</ele>
        <time>2020-06-28T08:11:58.000Z</time>
      </trkpt>
      <trkpt lat="45.58744" lon="4.85496">
        <ele>348.4</ele>
        <time>2020-06-28T08:12:02.000Z</time>
      </trkpt>
      <trkpt lat="45.58744" lon="4.85499">
        <ele>348.7</ele>
        <time>2020-06-28T08:12:03.000Z</time>
      </trkpt>
      <trkpt lat="45.58744" lon="4.85502">
        <ele>348.9</ele>
        <time>2020-06-28T08:12:04.000Z</time>
      </trkpt>
      <trkpt lat="45.58746" lon="4.85514">
        <ele>349.7</ele>
        <time>2020-06-28T08:12:08.000Z</time>
      </trkpt>
      <trkpt lat="45.58746" lon="4.85524">
        <ele>350.2</ele>
        <time>2020-06-28T08:12:11.000Z</time>
      </trkpt>
      <trkpt lat="45.58745" lon="4.85535">
        <ele>350.7</ele>
        <time>2020-06-28T08:12:14.000Z</time>
      </trkpt>
      <trkpt lat="45.58743" lon="4.85553">
        <ele>351.2</ele>
        <time>2020-06-28T08:12:18.000Z</time>
      </trkpt>
      <trkpt lat="45.58742" lon="4.85573">
        <ele>351.3</ele>
        <time>2020-06-28T08:12:23.000Z</time>
      </trkpt>
      <trkpt lat="45.58741" lon="4.85585">
        <ele>351.3</ele>
        <time>2020-06-28T08:12:29.000Z</time>
      </trkpt>
      <trkpt lat="45.58741" lon="4.85586">
        <ele>351.3</ele>
        <time>2020-06-28T08:12:30.000Z</time>
      </trkpt>
      <trkpt lat="45.58734" lon="4.85603">
        <ele>351.3</ele>
        <time>2020-06-28T08:13:58.000Z</time>
      </trkpt>
      <trkpt lat="45.58732" lon="4.85604">
        <ele>351.3</ele>
        <time>2020-06-28T08:13:59.000Z</time>
      </trkpt>
      <trkpt lat="45.5873" lon="4.85606">
        <ele>351.3</ele>
        <time>2020-06-28T08:14:00.000Z</time>
      </trkpt>
      <trkpt lat="45.58716" lon="4.85617">
        <ele>349.8</ele>
        <time>2020-06-28T08:14:04.000Z</time>
      </trkpt>
      <trkpt lat="45.58711" lon="4.85621">
        <ele>349.2</ele>
        <time>2020-06-28T08:14:05.000Z</time>
      </trkpt>
      <trkpt lat="45.58703" lon="4.85632">
        <ele>347.9</ele>
        <time>2020-06-28T08:14:07.000Z</time>
      </trkpt>
      <trkpt lat="45.58694" lon="4.85645">
        <ele>346.5</ele>
        <time>2020-06-28T08:14:09.000Z</time>
      </trkpt>
      <trkpt lat="45.58689" lon="4.85651">
        <ele>345.8</ele>
        <time>2020-06-28T08:14:10.000Z</time>
      </trkpt>
      <trkpt lat="45.58684" lon="4.85655">
        <ele>345.1</ele>
        <time>2020-06-28T08:14:11.000Z</time>
      </trkpt>
      <trkpt lat="45.58674" lon="4.85664">
        <ele>343.9</ele>
        <time>2020-06-28T08:14:13.000Z</time>
      </trkpt>
      <trkpt lat="45.58668" lon="4.85667">
        <ele>343.4</ele>
        <time>2020-06-28T08:14:14.000Z</time>
      </trkpt>
      <trkpt lat="45.58663" lon="4.85668">
        <ele>342.9</ele>
        <time>2020-06-28T08:14:15.000Z</time>
      </trkpt>
      <trkpt lat="45.58657" lon="4.85669">
        <ele>342.5</ele>
        <time>2020-06-28T08:14:16.000Z</time>
      </trkpt>
      <trkpt lat="45.58647" lon="4.85671">
        <ele>341.8</ele>
        <time>2020-06-28T08:14:18.000Z</time>
      </trkpt>
      <trkpt lat="45.58641" lon="4.85671">
        <ele>341.5</ele>
        <time>2020-06-28T08:14:19.000Z</time>
      </trkpt>
      <trkpt lat="45.58636" lon="4.85671">
        <ele>341.3</ele>
        <time>2020-06-28T08:14:20.000Z</time>
      </trkpt>
      <trkpt lat="45.58617" lon="4.85665">
        <ele>340.5</ele>
        <time>2020-06-28T08:14:23.000Z</time>
      </trkpt>
      <trkpt lat="45.58611" lon="4.8566">
        <ele>340.2</ele>
        <time>2020-06-28T08:14:24.000Z</time>
      </trkpt>
      <trkpt lat="45.58593" lon="4.85644">
        <ele>339.1</ele>
        <time>2020-06-28T08:14:27.000Z</time>
      </trkpt>
      <trkpt lat="45.58588" lon="4.85638">
        <ele>338.6</ele>
        <time>2020-06-28T08:14:28.000Z</time>
      </trkpt>
      <trkpt lat="45.58574" lon="4.85628">
        <ele>337.7</ele>
        <time>2020-06-28T08:14:30.000Z</time>
      </trkpt>
      <trkpt lat="45.58561" lon="4.85618">
        <ele>336.8</ele>
        <time>2020-06-28T08:14:32.000Z</time>
      </trkpt>
      <trkpt lat="45.5854" lon="4.85604">
        <ele>335.2</ele>
        <time>2020-06-28T08:14:35.000Z</time>
      </trkpt>
      <trkpt lat="45.5852" lon="4.85599">
        <ele>333.9</ele>
        <time>2020-06-28T08:14:38.000Z</time>
      </trkpt>
      <trkpt lat="45.58515" lon="4.856">
        <ele>333.5</ele>
        <time>2020-06-28T08:14:40.000Z</time>
      </trkpt>
      <trkpt lat="45.58513" lon="4.85602">
        <ele>333.4</ele>
        <time>2020-06-28T08:14:41.000Z</time>
      </trkpt>
      <trkpt lat="45.58511" lon="4.85605">
        <ele>333.2</ele>
        <time>2020-06-28T08:14:42.000Z</time>
      </trkpt>
      <trkpt lat="45.58507" lon="4.85618">
        <ele>331.5</ele>
        <time>2020-06-28T08:14:44.000Z</time>
      </trkpt>
      <trkpt lat="45.58503" lon="4.8563">
        <ele>331.5</ele>
        <time>2020-06-28T08:14:46.000Z</time>
      </trkpt>
      <trkpt lat="45.58494" lon="4.85651">
        <ele>331.4</ele>
        <time>2020-06-28T08:14:50.000Z</time>
      </trkpt>
      <trkpt lat="45.58492" lon="4.85657">
        <ele>331.3</ele>
        <time>2020-06-28T08:14:51.000Z</time>
      </trkpt>
      <trkpt lat="45.58487" lon="4.85679">
        <ele>330.4</ele>
        <time>2020-06-28T08:14:54.000Z</time>
      </trkpt>
      <trkpt lat="45.58483" lon="4.85695">
        <ele>329.6</ele>
        <time>2020-06-28T08:14:56.000Z</time>
      </trkpt>
      <trkpt lat="45.58485" lon="4.85709">
        <ele>329</ele>
        <time>2020-06-28T08:14:59.000Z</time>
      </trkpt>
      <trkpt lat="45.5849" lon="4.85722">
        <ele>328.7</ele>
        <time>2020-06-28T08:15:03.000Z</time>
      </trkpt>
      <trkpt lat="45.58492" lon="4.85726">
        <ele>328.5</ele>
        <time>2020-06-28T08:15:04.000Z</time>
      </trkpt>
      <trkpt lat="45.58497" lon="4.85739">
        <ele>328</ele>
        <time>2020-06-28T08:15:07.000Z</time>
      </trkpt>
      <trkpt lat="45.58501" lon="4.85749">
        <ele>327.6</ele>
        <time>2020-06-28T08:15:09.000Z</time>
      </trkpt>
      <trkpt lat="45.58506" lon="4.85767">
        <ele>326.6</ele>
        <time>2020-06-28T08:15:12.000Z</time>
      </trkpt>
      <trkpt lat="45.58515" lon="4.85786">
        <ele>325.1</ele>
        <time>2020-06-28T08:15:15.000Z</time>
      </trkpt>
      <trkpt lat="45.58524" lon="4.85803">
        <ele>323.8</ele>
        <time>2020-06-28T08:15:18.000Z</time>
      </trkpt>
      <trkpt lat="45.5853" lon="4.85812">
        <ele>323.1</ele>
        <time>2020-06-28T08:15:20.000Z</time>
      </trkpt>
      <trkpt lat="45.58533" lon="4.85817">
        <ele>322.7</ele>
        <time>2020-06-28T08:15:21.000Z</time>
      </trkpt>
      <trkpt lat="45.58537" lon="4.8582">
        <ele>322.3</ele>
        <time>2020-06-28T08:15:22.000Z</time>
      </trkpt>
      <trkpt lat="45.58545" lon="4.85826">
        <ele>321.5</ele>
        <time>2020-06-28T08:15:24.000Z</time>
      </trkpt>
      <trkpt lat="45.58554" lon="4.85833">
        <ele>320.6</ele>
        <time>2020-06-28T08:15:26.000Z</time>
      </trkpt>
      <trkpt lat="45.58558" lon="4.85838">
        <ele>320.1</ele>
        <time>2020-06-28T08:15:27.000Z</time>
      </trkpt>
      <trkpt lat="45.58571" lon="4.85849">
        <ele>318.8</ele>
        <time>2020-06-28T08:15:30.000Z</time>
      </trkpt>
      <trkpt lat="45.58575" lon="4.85853">
        <ele>318.5</ele>
        <time>2020-06-28T08:15:31.000Z</time>
      </trkpt>
      <trkpt lat="45.58584" lon="4.85856">
        <ele>317.9</ele>
        <time>2020-06-28T08:15:33.000Z</time>
      </trkpt>
      <trkpt lat="45.58596" lon="4.85862">
        <ele>317.1</ele>
        <time>2020-06-28T08:15:36.000Z</time>
      </trkpt>
      <trkpt lat="45.58606" lon="4.85867">
        <ele>316.6</ele>
        <time>2020-06-28T08:15:38.000Z</time>
      </trkpt>
      <trkpt lat="45.5861" lon="4.85872">
        <ele>316.4</ele>
        <time>2020-06-28T08:15:39.000Z</time>
      </trkpt>
      <trkpt lat="45.58622" lon="4.85881">
        <ele>316.1</ele>
        <time>2020-06-28T08:15:41.000Z</time>
      </trkpt>
      <trkpt lat="45.58641" lon="4.85886">
        <ele>315.3</ele>
        <time>2020-06-28T08:15:45.000Z</time>
      </trkpt>
      <trkpt lat="45.58645" lon="4.85885">
        <ele>315.1</ele>
        <time>2020-06-28T08:15:46.000Z</time>
      </trkpt>
      <trkpt lat="45.58661" lon="4.85884">
        <ele>314.3</ele>
        <time>2020-06-28T08:15:50.000Z</time>
      </trkpt>
      <trkpt lat="45.58669" lon="4.85882">
        <ele>313.8</ele>
        <time>2020-06-28T08:15:52.000Z</time>
      </trkpt>
      <trkpt lat="45.58675" lon="4.85878">
        <ele>313.3</ele>
        <time>2020-06-28T08:15:54.000Z</time>
      </trkpt>
      <trkpt lat="45.58677" lon="4.85879">
        <ele>313.2</ele>
        <time>2020-06-28T08:15:55.000Z</time>
      </trkpt>
      <trkpt lat="45.58682" lon="4.8588">
        <ele>312.8</ele>
        <time>2020-06-28T08:15:58.000Z</time>
      </trkpt>
      <trkpt lat="45.58689" lon="4.85883">
        <ele>312.3</ele>
        <time>2020-06-28T08:16:21.000Z</time>
      </trkpt>
      <trkpt lat="45.58688" lon="4.85884">
        <ele>312.3</ele>
        <time>2020-06-28T08:16:22.000Z</time>
      </trkpt>
      <trkpt lat="45.58683" lon="4.85888">
        <ele>311.8</ele>
        <time>2020-06-28T08:16:27.000Z</time>
      </trkpt>
      <trkpt lat="45.58677" lon="4.85892">
        <ele>311.4</ele>
        <time>2020-06-28T08:16:31.000Z</time>
      </trkpt>
      <trkpt lat="45.58675" lon="4.85893">
        <ele>311.2</ele>
        <time>2020-06-28T08:16:32.000Z</time>
      </trkpt>
      <trkpt lat="45.58667" lon="4.85901">
        <ele>310.5</ele>
        <time>2020-06-28T08:16:38.000Z</time>
      </trkpt>
      <trkpt lat="45.58665" lon="4.85905">
        <ele>310.2</ele>
        <time>2020-06-28T08:16:40.000Z</time>
      </trkpt>
      <trkpt lat="45.58665" lon="4.85911">
        <ele>310</ele>
        <time>2020-06-28T08:16:42.000Z</time>
      </trkpt>
      <trkpt lat="45.58666" lon="4.85918">
        <ele>309.6</ele>
        <time>2020-06-28T08:16:44.000Z</time>
      </trkpt>
      <trkpt lat="45.58667" lon="4.85931">
        <ele>308.9</ele>
        <time>2020-06-28T08:16:48.000Z</time>
      </trkpt>
      <trkpt lat="45.58668" lon="4.85935">
        <ele>308.7</ele>
        <time>2020-06-28T08:16:49.000Z</time>
      </trkpt>
      <trkpt lat="45.58666" lon="4.85952">
        <ele>307.9</ele>
        <time>2020-06-28T08:16:53.000Z</time>
      </trkpt>
      <trkpt lat="45.58667" lon="4.8596">
        <ele>307.5</ele>
        <time>2020-06-28T08:16:55.000Z</time>
      </trkpt>
      <trkpt lat="45.58667" lon="4.85965">
        <ele>307.2</ele>
        <time>2020-06-28T08:16:56.000Z</time>
      </trkpt>
      <trkpt lat="45.58669" lon="4.85973">
        <ele>306.8</ele>
        <time>2020-06-28T08:16:58.000Z</time>
      </trkpt>
      <trkpt lat="45.5867" lon="4.85981">
        <ele>306.3</ele>
        <time>2020-06-28T08:17:00.000Z</time>
      </trkpt>
      <trkpt lat="45.58672" lon="4.85986">
        <ele>305.9</ele>
        <time>2020-06-28T08:17:01.000Z</time>
      </trkpt>
      <trkpt lat="45.58674" lon="4.85989">
        <ele>305.7</ele>
        <time>2020-06-28T08:17:02.000Z</time>
      </trkpt>
      <trkpt lat="45.58678" lon="4.85999">
        <ele>298.9</ele>
        <time>2020-06-28T08:17:04.000Z</time>
      </trkpt>
      <trkpt lat="45.58681" lon="4.86006">
        <ele>298.2</ele>
        <time>2020-06-28T08:17:06.000Z</time>
      </trkpt>
      <trkpt lat="45.58682" lon="4.86006">
        <ele>298</ele>
        <time>2020-06-28T08:17:07.000Z</time>
      </trkpt>
      <trkpt lat="45.58684" lon="4.86007">
        <ele>297.7</ele>
        <time>2020-06-28T08:17:08.000Z</time>
      </trkpt>
      <trkpt lat="45.58686" lon="4.86007">
        <ele>297.5</ele>
        <time>2020-06-28T08:17:09.000Z</time>
      </trkpt>
      <trkpt lat="45.58688" lon="4.86006">
        <ele>297.3</ele>
        <time>2020-06-28T08:17:10.000Z</time>
      </trkpt>
      <trkpt lat="45.5869" lon="4.86004">
        <ele>297</ele>
        <time>2020-06-28T08:17:11.000Z</time>
      </trkpt>
      <trkpt lat="45.58691" lon="4.86003">
        <ele>296.8</ele>
        <time>2020-06-28T08:17:12.000Z</time>
      </trkpt>
      <trkpt lat="45.58693" lon="4.86001">
        <ele>296.6</ele>
        <time>2020-06-28T08:17:13.000Z</time>
      </trkpt>
      <trkpt lat="45.58697" lon="4.86002">
        <ele>296.2</ele>
        <time>2020-06-28T08:17:16.000Z</time>
      </trkpt>
      <trkpt lat="45.58701" lon="4.86001">
        <ele>295.7</ele>
        <time>2020-06-28T08:17:18.000Z</time>
      </trkpt>
      <trkpt lat="45.58712" lon="4.85997">
        <ele>294.5</ele>
        <time>2020-06-28T08:17:21.000Z</time>
      </trkpt>
      <trkpt lat="45.58716" lon="4.85993">
        <ele>294</ele>
        <time>2020-06-28T08:17:23.000Z</time>
      </trkpt>
      <trkpt lat="45.5872" lon="4.85988">
        <ele>293.4</ele>
        <time>2020-06-28T08:17:25.000Z</time>
      </trkpt>
      <trkpt lat="45.58723" lon="4.85985">
        <ele>293.1</ele>
        <time>2020-06-28T08:17:27.000Z</time>
      </trkpt>
      <trkpt lat="45.58739" lon="4.85979">
        <ele>291.5</ele>
        <time>2020-06-28T08:17:33.000Z</time>
      </trkpt>
      <trkpt lat="45.58747" lon="4.85976">
        <ele>290.6</ele>
        <time>2020-06-28T08:17:35.000Z</time>
      </trkpt>
      <trkpt lat="45.58756" lon="4.85976">
        <ele>289.6</ele>
        <time>2020-06-28T08:17:38.000Z</time>
      </trkpt>
      <trkpt lat="45.58761" lon="4.85974">
        <ele>288.9</ele>
        <time>2020-06-28T08:17:40.000Z</time>
      </trkpt>
      <trkpt lat="45.5877" lon="4.85969">
        <ele>287.8</ele>
        <time>2020-06-28T08:17:43.000Z</time>
      </trkpt>
      <trkpt lat="45.58778" lon="4.85969">
        <ele>286.9</ele>
        <time>2020-06-28T08:17:45.000Z</time>
      </trkpt>
      <trkpt lat="45.58786" lon="4.85968">
        <ele>286</ele>
        <time>2020-06-28T08:17:47.000Z</time>
      </trkpt>
      <trkpt lat="45.58793" lon="4.85968">
        <ele>285.1</ele>
        <time>2020-06-28T08:17:49.000Z</time>
      </trkpt>
      <trkpt lat="45.58799" lon="4.85969">
        <ele>284.4</ele>
        <time>2020-06-28T08:17:51.000Z</time>
      </trkpt>
      <trkpt lat="45.58807" lon="4.85967">
        <ele>283.7</ele>
        <time>2020-06-28T08:17:53.000Z</time>
      </trkpt>
      <trkpt lat="45.58811" lon="4.85967">
        <ele>283.3</ele>
        <time>2020-06-28T08:17:54.000Z</time>
      </trkpt>
      <trkpt lat="45.58815" lon="4.85967">
        <ele>283</ele>
        <time>2020-06-28T08:17:55.000Z</time>
      </trkpt>
      <trkpt lat="45.58829" lon="4.85966">
        <ele>281.5</ele>
        <time>2020-06-28T08:17:58.000Z</time>
      </trkpt>
      <trkpt lat="45.58838" lon="4.85966">
        <ele>280.4</ele>
        <time>2020-06-28T08:18:01.000Z</time>
      </trkpt>
      <trkpt lat="45.58849" lon="4.85964">
        <ele>279.2</ele>
        <time>2020-06-28T08:18:04.000Z</time>
      </trkpt>
      <trkpt lat="45.58856" lon="4.85962">
        <ele>278.5</ele>
        <time>2020-06-28T08:18:06.000Z</time>
      </trkpt>
      <trkpt lat="45.5886" lon="4.85961">
        <ele>278.1</ele>
        <time>2020-06-28T08:18:07.000Z</time>
      </trkpt>
      <trkpt lat="45.58871" lon="4.85957">
        <ele>276.9</ele>
        <time>2020-06-28T08:18:09.000Z</time>
      </trkpt>
      <trkpt lat="45.58885" lon="4.85954">
        <ele>275.5</ele>
        <time>2020-06-28T08:18:12.000Z</time>
      </trkpt>
      <trkpt lat="45.58906" lon="4.85951">
        <ele>273.6</ele>
        <time>2020-06-28T08:18:15.000Z</time>
      </trkpt>
      <trkpt lat="45.58919" lon="4.85947">
        <ele>272.4</ele>
        <time>2020-06-28T08:18:17.000Z</time>
      </trkpt>
      <trkpt lat="45.58927" lon="4.85945">
        <ele>271.6</ele>
        <time>2020-06-28T08:18:18.000Z</time>
      </trkpt>
      <trkpt lat="45.58936" lon="4.85943">
        <ele>270.8</ele>
        <time>2020-06-28T08:18:19.000Z</time>
      </trkpt>
      <trkpt lat="45.58963" lon="4.85935">
        <ele>268</ele>
        <time>2020-06-28T08:18:22.000Z</time>
      </trkpt>
      <trkpt lat="45.58973" lon="4.85938">
        <ele>267</ele>
        <time>2020-06-28T08:18:23.000Z</time>
      </trkpt>
      <trkpt lat="45.58978" lon="4.8594">
        <ele>266.4</ele>
        <time>2020-06-28T08:18:24.000Z</time>
      </trkpt>
      <trkpt lat="45.58994" lon="4.85946">
        <ele>264.7</ele>
        <time>2020-06-28T08:18:26.000Z</time>
      </trkpt>
      <trkpt lat="45.59013" lon="4.85952">
        <ele>263</ele>
        <time>2020-06-28T08:18:28.000Z</time>
      </trkpt>
      <trkpt lat="45.59021" lon="4.85954">
        <ele>262.4</ele>
        <time>2020-06-28T08:18:29.000Z</time>
      </trkpt>
      <trkpt lat="45.59032" lon="4.85963">
        <ele>261.5</ele>
        <time>2020-06-28T08:18:32.000Z</time>
      </trkpt>
      <trkpt lat="45.59045" lon="4.85973">
        <ele>260.6</ele>
        <time>2020-06-28T08:18:36.000Z</time>
      </trkpt>
      <trkpt lat="45.5905" lon="4.85976">
        <ele>260.2</ele>
        <time>2020-06-28T08:18:37.000Z</time>
      </trkpt>
      <trkpt lat="45.59053" lon="4.85979">
        <ele>259.4</ele>
        <time>2020-06-28T08:18:39.000Z</time>
      </trkpt>
      <trkpt lat="45.59059" lon="4.85992">
        <ele>259.2</ele>
        <time>2020-06-28T08:19:20.000Z</time>
      </trkpt>
      <trkpt lat="45.59057" lon="4.85994">
        <ele>259.4</ele>
        <time>2020-06-28T08:19:21.000Z</time>
      </trkpt>
      <trkpt lat="45.5905" lon="4.86004">
        <ele>259.7</ele>
        <time>2020-06-28T08:19:26.000Z</time>
      </trkpt>
      <trkpt lat="45.59043" lon="4.86012">
        <ele>259.9</ele>
        <time>2020-06-28T08:19:30.000Z</time>
      </trkpt>
      <trkpt lat="45.59034" lon="4.86023">
        <ele>260.3</ele>
        <time>2020-06-28T08:19:35.000Z</time>
      </trkpt>
      <trkpt lat="45.59023" lon="4.86036">
        <ele>260.8</ele>
        <time>2020-06-28T08:19:41.000Z</time>
      </trkpt>
      <trkpt lat="45.59019" lon="4.86041">
        <ele>261</ele>
        <time>2020-06-28T08:19:43.000Z</time>
      </trkpt>
      <trkpt lat="45.59011" lon="4.86049">
        <ele>261.3</ele>
        <time>2020-06-28T08:19:47.000Z</time>
      </trkpt>
      <trkpt lat="45.59004" lon="4.86057">
        <ele>261.9</ele>
        <time>2020-06-28T08:19:51.000Z</time>
      </trkpt>
      <trkpt lat="45.59" lon="4.86062">
        <ele>262.2</ele>
        <time>2020-06-28T08:19:53.000Z</time>
      </trkpt>
      <trkpt lat="45.58996" lon="4.86071">
        <ele>262.6</ele>
        <time>2020-06-28T08:19:56.000Z</time>
      </trkpt>
      <trkpt lat="45.58991" lon="4.8608">
        <ele>263.1</ele>
        <time>2020-06-28T08:19:59.000Z</time>
      </trkpt>
      <trkpt lat="45.58989" lon="4.86082">
        <ele>263.3</ele>
        <time>2020-06-28T08:20:00.000Z</time>
      </trkpt>
      <trkpt lat="45.58982" lon="4.86089">
        <ele>263.8</ele>
        <time>2020-06-28T08:20:03.000Z</time>
      </trkpt>
      <trkpt lat="45.58975" lon="4.86096">
        <ele>264.3</ele>
        <time>2020-06-28T08:20:06.000Z</time>
      </trkpt>
      <trkpt lat="45.5896" lon="4.86109">
        <ele>265.5</ele>
        <time>2020-06-28T08:20:12.000Z</time>
      </trkpt>
      <trkpt lat="45.58956" lon="4.86115">
        <ele>265.7</ele>
        <time>2020-06-28T08:20:14.000Z</time>
      </trkpt>
      <trkpt lat="45.58953" lon="4.86125">
        <ele>266.1</ele>
        <time>2020-06-28T08:20:17.000Z</time>
      </trkpt>
      <trkpt lat="45.58952" lon="4.86144">
        <ele>266.2</ele>
        <time>2020-06-28T08:20:21.000Z</time>
      </trkpt>
      <trkpt lat="45.58953" lon="4.86154">
        <ele>266.1</ele>
        <time>2020-06-28T08:20:23.000Z</time>
      </trkpt>
      <trkpt lat="45.58955" lon="4.8619">
        <ele>266.7</ele>
        <time>2020-06-28T08:20:30.000Z</time>
      </trkpt>
      <trkpt lat="45.58957" lon="4.86248">
        <ele>267.2</ele>
        <time>2020-06-28T08:20:42.000Z</time>
      </trkpt>
      <trkpt lat="45.58958" lon="4.86268">
        <ele>267.2</ele>
        <time>2020-06-28T08:20:46.000Z</time>
      </trkpt>
      <trkpt lat="45.58958" lon="4.86278">
        <ele>267.3</ele>
        <time>2020-06-28T08:20:48.000Z</time>
      </trkpt>
      <trkpt lat="45.58958" lon="4.86288">
        <ele>267.4</ele>
        <time>2020-06-28T08:20:50.000Z</time>
      </trkpt>
      <trkpt lat="45.58958" lon="4.86297">
        <ele>267.5</ele>
        <time>2020-06-28T08:20:52.000Z</time>
      </trkpt>
      <trkpt lat="45.58958" lon="4.86317">
        <ele>267.6</ele>
        <time>2020-06-28T08:20:56.000Z</time>
      </trkpt>
      <trkpt lat="45.58959" lon="4.86331">
        <ele>267.8</ele>
        <time>2020-06-28T08:20:59.000Z</time>
      </trkpt>
      <trkpt lat="45.58959" lon="4.86336">
        <ele>267.8</ele>
        <time>2020-06-28T08:21:00.000Z</time>
      </trkpt>
      <trkpt lat="45.58961" lon="4.86362">
        <ele>268</ele>
        <time>2020-06-28T08:21:05.000Z</time>
      </trkpt>
      <trkpt lat="45.58961" lon="4.86382">
        <ele>268.5</ele>
        <time>2020-06-28T08:21:09.000Z</time>
      </trkpt>
      <trkpt lat="45.58961" lon="4.86411">
        <ele>269.4</ele>
        <time>2020-06-28T08:21:15.000Z</time>
      </trkpt>
      <trkpt lat="45.58961" lon="4.86428">
        <ele>270.1</ele>
        <time>2020-06-28T08:21:19.000Z</time>
      </trkpt>
      <trkpt lat="45.58961" lon="4.86443">
        <ele>270.9</ele>
        <time>2020-06-28T08:21:23.000Z</time>
      </trkpt>
      <trkpt lat="45.58962" lon="4.86465">
        <ele>272.2</ele>
        <time>2020-06-28T08:21:29.000Z</time>
      </trkpt>
      <trkpt lat="45.58962" lon="4.86468">
        <ele>272.4</ele>
        <time>2020-06-28T08:21:30.000Z</time>
      </trkpt>
      <trkpt lat="45.58962" lon="4.86482">
        <ele>273.2</ele>
        <time>2020-06-28T08:21:34.000Z</time>
      </trkpt>
      <trkpt lat="45.58962" lon="4.86492">
        <ele>273.9</ele>
        <time>2020-06-28T08:21:37.000Z</time>
      </trkpt>
      <trkpt lat="45.58962" lon="4.86499">
        <ele>274.3</ele>
        <time>2020-06-28T08:21:39.000Z</time>
      </trkpt>
      <trkpt lat="45.58962" lon="4.86508">
        <ele>274.9</ele>
        <time>2020-06-28T08:21:42.000Z</time>
      </trkpt>
      <trkpt lat="45.58962" lon="4.8652">
        <ele>275.7</ele>
        <time>2020-06-28T08:21:46.000Z</time>
      </trkpt>
      <trkpt lat="45.58962" lon="4.86529">
        <ele>276.4</ele>
        <time>2020-06-28T08:21:49.000Z</time>
      </trkpt>
      <trkpt lat="45.58962" lon="4.86535">
        <ele>276.8</ele>
        <time>2020-06-28T08:21:51.000Z</time>
      </trkpt>
      <trkpt lat="45.58962" lon="4.86554">
        <ele>278</ele>
        <time>2020-06-28T08:21:57.000Z</time>
      </trkpt>
      <trkpt lat="45.58962" lon="4.86557">
        <ele>278.2</ele>
        <time>2020-06-28T08:21:58.000Z</time>
      </trkpt>
      <trkpt lat="45.58962" lon="4.86573">
        <ele>279.2</ele>
        <time>2020-06-28T08:22:03.000Z</time>
      </trkpt>
      <trkpt lat="45.58962" lon="4.86585">
        <ele>280</ele>
        <time>2020-06-28T08:22:07.000Z</time>
      </trkpt>
      <trkpt lat="45.58962" lon="4.86603">
        <ele>281.3</ele>
        <time>2020-06-28T08:22:13.000Z</time>
      </trkpt>
      <trkpt lat="45.58962" lon="4.86611">
        <ele>281.9</ele>
        <time>2020-06-28T08:22:16.000Z</time>
      </trkpt>
      <trkpt lat="45.58963" lon="4.86617">
        <ele>282.3</ele>
        <time>2020-06-28T08:22:18.000Z</time>
      </trkpt>
      <trkpt lat="45.58963" lon="4.86635">
        <ele>283.6</ele>
        <time>2020-06-28T08:22:24.000Z</time>
      </trkpt>
      <trkpt lat="45.58964" lon="4.8664">
        <ele>284</ele>
        <time>2020-06-28T08:22:26.000Z</time>
      </trkpt>
      <trkpt lat="45.58965" lon="4.86649">
        <ele>284.7</ele>
        <time>2020-06-28T08:22:29.000Z</time>
      </trkpt>
      <trkpt lat="45.58967" lon="4.86661">
        <ele>285.6</ele>
        <time>2020-06-28T08:22:33.000Z</time>
      </trkpt>
      <trkpt lat="45.58969" lon="4.86667">
        <ele>286</ele>
        <time>2020-06-28T08:22:35.000Z</time>
      </trkpt>
      <trkpt lat="45.58975" lon="4.86679">
        <ele>286.9</ele>
        <time>2020-06-28T08:22:40.000Z</time>
      </trkpt>
      <trkpt lat="45.58979" lon="4.86676">
        <ele>287.3</ele>
        <time>2020-06-28T08:22:43.000Z</time>
      </trkpt>
      <trkpt lat="45.5898" lon="4.86673">
        <ele>288.7</ele>
        <time>2020-06-28T08:22:44.000Z</time>
      </trkpt>
      <trkpt lat="45.5898" lon="4.86663">
        <ele>289.3</ele>
        <time>2020-06-28T08:22:48.000Z</time>
      </trkpt>
      <trkpt lat="45.5898" lon="4.86657">
        <ele>289.7</ele>
        <time>2020-06-28T08:22:50.000Z</time>
      </trkpt>
      <trkpt lat="45.5898" lon="4.86655">
        <ele>289.9</ele>
        <time>2020-06-28T08:22:51.000Z</time>
      </trkpt>
      <trkpt lat="45.5898" lon="4.86647">
        <ele>290.4</ele>
        <time>2020-06-28T08:22:54.000Z</time>
      </trkpt>
      <trkpt lat="45.58982" lon="4.86639">
        <ele>290.9</ele>
        <time>2020-06-28T08:22:57.000Z</time>
      </trkpt>
      <trkpt lat="45.58983" lon="4.86636">
        <ele>291.1</ele>
        <time>2020-06-28T08:22:58.000Z</time>
      </trkpt>
      <trkpt lat="45.58984" lon="4.86633">
        <ele>291.3</ele>
        <time>2020-06-28T08:22:59.000Z</time>
      </trkpt>
      <trkpt lat="45.58985" lon="4.86628">
        <ele>291.7</ele>
        <time>2020-06-28T08:23:01.000Z</time>
      </trkpt>
      <trkpt lat="45.58989" lon="4.86616">
        <ele>292.3</ele>
        <time>2020-06-28T08:23:05.000Z</time>
      </trkpt>
      <trkpt lat="45.58992" lon="4.86608">
        <ele>292.8</ele>
        <time>2020-06-28T08:23:08.000Z</time>
      </trkpt>
      <trkpt lat="45.59" lon="4.86594">
        <ele>293.5</ele>
        <time>2020-06-28T08:23:13.000Z</time>
      </trkpt>
      <trkpt lat="45.59011" lon="4.86579">
        <ele>294.3</ele>
        <time>2020-06-28T08:23:19.000Z</time>
      </trkpt>
      <trkpt lat="45.59014" lon="4.86575">
        <ele>294.5</ele>
        <time>2020-06-28T08:23:21.000Z</time>
      </trkpt>
      <trkpt lat="45.59027" lon="4.86564">
        <ele>294.9</ele>
        <time>2020-06-28T08:23:28.000Z</time>
      </trkpt>
      <trkpt lat="45.59041" lon="4.86558">
        <ele>294.7</ele>
        <time>2020-06-28T08:23:33.000Z</time>
      </trkpt>
      <trkpt lat="45.59058" lon="4.86556">
        <ele>294.5</ele>
        <time>2020-06-28T08:23:38.000Z</time>
      </trkpt>
      <trkpt lat="45.59069" lon="4.86555">
        <ele>294.2</ele>
        <time>2020-06-28T08:23:41.000Z</time>
      </trkpt>
      <trkpt lat="45.59095" lon="4.86552">
        <ele>293.4</ele>
        <time>2020-06-28T08:23:47.000Z</time>
      </trkpt>
      <trkpt lat="45.59115" lon="4.8655">
        <ele>293</ele>
        <time>2020-06-28T08:23:51.000Z</time>
      </trkpt>
      <trkpt lat="45.59124" lon="4.86543">
        <ele>293</ele>
        <time>2020-06-28T08:23:53.000Z</time>
      </trkpt>
      <trkpt lat="45.59128" lon="4.86539">
        <ele>293</ele>
        <time>2020-06-28T08:23:54.000Z</time>
      </trkpt>
      <trkpt lat="45.59132" lon="4.86534">
        <ele>293</ele>
        <time>2020-06-28T08:23:55.000Z</time>
      </trkpt>
      <trkpt lat="45.59148" lon="4.86518">
        <ele>293.2</ele>
        <time>2020-06-28T08:23:59.000Z</time>
      </trkpt>
      <trkpt lat="45.59171" lon="4.86502">
        <ele>293.9</ele>
        <time>2020-06-28T08:24:05.000Z</time>
      </trkpt>
      <trkpt lat="45.59181" lon="4.86499">
        <ele>294.2</ele>
        <time>2020-06-28T08:24:08.000Z</time>
      </trkpt>
      <trkpt lat="45.59191" lon="4.86499">
        <ele>294.6</ele>
        <time>2020-06-28T08:24:11.000Z</time>
      </trkpt>
      <trkpt lat="45.5921" lon="4.86508">
        <ele>295.8</ele>
        <time>2020-06-28T08:24:17.000Z</time>
      </trkpt>
      <trkpt lat="45.59219" lon="4.86511">
        <ele>296.5</ele>
        <time>2020-06-28T08:24:20.000Z</time>
      </trkpt>
      <trkpt lat="45.59227" lon="4.86514">
        <ele>297.3</ele>
        <time>2020-06-28T08:24:23.000Z</time>
      </trkpt>
      <trkpt lat="45.5923" lon="4.86515">
        <ele>297.6</ele>
        <time>2020-06-28T08:24:24.000Z</time>
      </trkpt>
      <trkpt lat="45.5924" lon="4.8652">
        <ele>298.5</ele>
        <time>2020-06-28T08:24:28.000Z</time>
      </trkpt>
      <trkpt lat="45.59245" lon="4.86522">
        <ele>298.9</ele>
        <time>2020-06-28T08:24:30.000Z</time>
      </trkpt>
      <trkpt lat="45.59259" lon="4.86528">
        <ele>299.9</ele>
        <time>2020-06-28T08:24:35.000Z</time>
      </trkpt>
      <trkpt lat="45.5927" lon="4.86533">
        <ele>300.6</ele>
        <time>2020-06-28T08:24:39.000Z</time>
      </trkpt>
      <trkpt lat="45.59272" lon="4.86534">
        <ele>300.8</ele>
        <time>2020-06-28T08:24:40.000Z</time>
      </trkpt>
      <trkpt lat="45.59285" lon="4.86541">
        <ele>301.4</ele>
        <time>2020-06-28T08:24:45.000Z</time>
      </trkpt>
      <trkpt lat="45.59295" lon="4.86548">
        <ele>301.9</ele>
        <time>2020-06-28T08:24:49.000Z</time>
      </trkpt>
      <trkpt lat="45.59311" lon="4.86563">
        <ele>302.7</ele>
        <time>2020-06-28T08:24:56.000Z</time>
      </trkpt>
      <trkpt lat="45.59315" lon="4.86568">
        <ele>302.9</ele>
        <time>2020-06-28T08:24:58.000Z</time>
      </trkpt>
      <trkpt lat="45.59335" lon="4.86592">
        <ele>303.6</ele>
        <time>2020-06-28T08:25:07.000Z</time>
      </trkpt>
      <trkpt lat="45.59337" lon="4.86595">
        <ele>303.7</ele>
        <time>2020-06-28T08:25:08.000Z</time>
      </trkpt>
      <trkpt lat="45.59355" lon="4.86612">
        <ele>304.1</ele>
        <time>2020-06-28T08:25:15.000Z</time>
      </trkpt>
      <trkpt lat="45.59371" lon="4.86626">
        <ele>304.6</ele>
        <time>2020-06-28T08:25:21.000Z</time>
      </trkpt>
      <trkpt lat="45.59376" lon="4.8663">
        <ele>304.8</ele>
        <time>2020-06-28T08:25:23.000Z</time>
      </trkpt>
      <trkpt lat="45.59391" lon="4.86639">
        <ele>305.5</ele>
        <time>2020-06-28T08:25:29.000Z</time>
      </trkpt>
      <trkpt lat="45.59406" lon="4.86649">
        <ele>306.5</ele>
        <time>2020-06-28T08:25:35.000Z</time>
      </trkpt>
      <trkpt lat="45.5941" lon="4.86653">
        <ele>306.8</ele>
        <time>2020-06-28T08:25:37.000Z</time>
      </trkpt>
      <trkpt lat="45.5942" lon="4.86662">
        <ele>307.8</ele>
        <time>2020-06-28T08:25:42.000Z</time>
      </trkpt>
      <trkpt lat="45.59423" lon="4.86666">
        <ele>308.2</ele>
        <time>2020-06-28T08:25:44.000Z</time>
      </trkpt>
      <trkpt lat="45.59429" lon="4.86672">
        <ele>308.7</ele>
        <time>2020-06-28T08:25:47.000Z</time>
      </trkpt>
      <trkpt lat="45.59441" lon="4.86687">
        <ele>309.8</ele>
        <time>2020-06-28T08:25:53.000Z</time>
      </trkpt>
      <trkpt lat="45.59443" lon="4.8669">
        <ele>309.9</ele>
        <time>2020-06-28T08:25:54.000Z</time>
      </trkpt>
      <trkpt lat="45.59449" lon="4.86706">
        <ele>310.7</ele>
        <time>2020-06-28T08:26:00.000Z</time>
      </trkpt>
      <trkpt lat="45.59451" lon="4.86711">
        <ele>311</ele>
        <time>2020-06-28T08:26:02.000Z</time>
      </trkpt>
      <trkpt lat="45.59453" lon="4.86718">
        <ele>311.3</ele>
        <time>2020-06-28T08:26:04.000Z</time>
      </trkpt>
      <trkpt lat="45.59456" lon="4.86724">
        <ele>311.6</ele>
        <time>2020-06-28T08:26:06.000Z</time>
      </trkpt>
      <trkpt lat="45.59458" lon="4.8673">
        <ele>311.8</ele>
        <time>2020-06-28T08:26:08.000Z</time>
      </trkpt>
      <trkpt lat="45.59461" lon="4.86735">
        <ele>312.1</ele>
        <time>2020-06-28T08:26:10.000Z</time>
      </trkpt>
      <trkpt lat="45.59464" lon="4.86742">
        <ele>312.3</ele>
        <time>2020-06-28T08:26:12.000Z</time>
      </trkpt>
      <trkpt lat="45.59474" lon="4.86757">
        <ele>312.6</ele>
        <time>2020-06-28T08:26:17.000Z</time>
      </trkpt>
      <trkpt lat="45.59483" lon="4.86777">
        <ele>312.7</ele>
        <time>2020-06-28T08:26:22.000Z</time>
      </trkpt>
      <trkpt lat="45.59499" lon="4.86811">
        <ele>313.1</ele>
        <time>2020-06-28T08:26:29.000Z</time>
      </trkpt>
      <trkpt lat="45.59509" lon="4.86836">
        <ele>313.9</ele>
        <time>2020-06-28T08:26:35.000Z</time>
      </trkpt>
      <trkpt lat="45.59512" lon="4.86845">
        <ele>314.2</ele>
        <time>2020-06-28T08:26:38.000Z</time>
      </trkpt>
      <trkpt lat="45.59515" lon="4.8685">
        <ele>314.4</ele>
        <time>2020-06-28T08:26:40.000Z</time>
      </trkpt>
      <trkpt lat="45.59528" lon="4.86862">
        <ele>313.7</ele>
        <time>2020-06-28T08:26:44.000Z</time>
      </trkpt>
      <trkpt lat="45.59542" lon="4.8687">
        <ele>312.3</ele>
        <time>2020-06-28T08:26:47.000Z</time>
      </trkpt>
      <trkpt lat="45.59549" lon="4.86874">
        <ele>311.8</ele>
        <time>2020-06-28T08:26:48.000Z</time>
      </trkpt>
      <trkpt lat="45.59552" lon="4.86876">
        <ele>311.5</ele>
        <time>2020-06-28T08:26:49.000Z</time>
      </trkpt>
      <trkpt lat="45.59559" lon="4.86879">
        <ele>310.9</ele>
        <time>2020-06-28T08:26:52.000Z</time>
      </trkpt>
      <trkpt lat="45.5956" lon="4.8688">
        <ele>310.9</ele>
        <time>2020-06-28T08:26:53.000Z</time>
      </trkpt>
      <trkpt lat="45.59568" lon="4.86878">
        <ele>310.3</ele>
        <time>2020-06-28T08:27:01.000Z</time>
      </trkpt>
      <trkpt lat="45.5957" lon="4.86875">
        <ele>310.1</ele>
        <time>2020-06-28T08:27:03.000Z</time>
      </trkpt>
      <trkpt lat="45.59569" lon="4.8687">
        <ele>308.8</ele>
        <time>2020-06-28T08:27:05.000Z</time>
      </trkpt>
      <trkpt lat="45.59568" lon="4.86866">
        <ele>308.4</ele>
        <time>2020-06-28T08:27:07.000Z</time>
      </trkpt>
      <trkpt lat="45.59568" lon="4.86865">
        <ele>308.4</ele>
        <time>2020-06-28T08:27:09.000Z</time>
      </trkpt>
      <trkpt lat="45.59569" lon="4.86856">
        <ele>307.6</ele>
        <time>2020-06-28T08:27:22.000Z</time>
      </trkpt>
      <trkpt lat="45.5957" lon="4.86855">
        <ele>307.5</ele>
        <time>2020-06-28T08:27:23.000Z</time>
      </trkpt>
      <trkpt lat="45.59571" lon="4.86854">
        <ele>307.4</ele>
        <time>2020-06-28T08:27:28.000Z</time>
      </trkpt>
      <trkpt lat="45.59562" lon="4.8685">
        <ele>306.6</ele>
        <time>2020-06-28T08:27:42.000Z</time>
      </trkpt>
      <trkpt lat="45.59559" lon="4.86844">
        <ele>306.2</ele>
        <time>2020-06-28T08:27:45.000Z</time>
      </trkpt>
      <trkpt lat="45.59565" lon="4.86827">
        <ele>305.1</ele>
        <time>2020-06-28T08:27:50.000Z</time>
      </trkpt>
      <trkpt lat="45.59565" lon="4.86823">
        <ele>304.9</ele>
        <time>2020-06-28T08:27:51.000Z</time>
      </trkpt>
      <trkpt lat="45.59564" lon="4.86816">
        <ele>304.4</ele>
        <time>2020-06-28T08:27:53.000Z</time>
      </trkpt>
      <trkpt lat="45.59563" lon="4.86811">
        <ele>304.1</ele>
        <time>2020-06-28T08:27:54.000Z</time>
      </trkpt>
      <trkpt lat="45.5956" lon="4.86795">
        <ele>303.2</ele>
        <time>2020-06-28T08:27:58.000Z</time>
      </trkpt>
      <trkpt lat="45.59559" lon="4.86791">
        <ele>303</ele>
        <time>2020-06-28T08:27:59.000Z</time>
      </trkpt>
      <trkpt lat="45.59558" lon="4.86777">
        <ele>302.2</ele>
        <time>2020-06-28T08:28:03.000Z</time>
      </trkpt>
      <trkpt lat="45.59557" lon="4.86773">
        <ele>301.9</ele>
        <time>2020-06-28T08:28:04.000Z</time>
      </trkpt>
      <trkpt lat="45.59554" lon="4.86753">
        <ele>300.6</ele>
        <time>2020-06-28T08:28:08.000Z</time>
      </trkpt>
      <trkpt lat="45.59553" lon="4.86741">
        <ele>299.9</ele>
        <time>2020-06-28T08:28:10.000Z</time>
      </trkpt>
      <trkpt lat="45.59552" lon="4.86729">
        <ele>299.1</ele>
        <time>2020-06-28T08:28:12.000Z</time>
      </trkpt>
      <trkpt lat="45.5955" lon="4.86718">
        <ele>298.4</ele>
        <time>2020-06-28T08:28:14.000Z</time>
      </trkpt>
      <trkpt lat="45.59548" lon="4.86712">
        <ele>298.1</ele>
        <time>2020-06-28T08:28:15.000Z</time>
      </trkpt>
      <trkpt lat="45.59546" lon="4.86706">
        <ele>298</ele>
        <time>2020-06-28T08:28:16.000Z</time>
      </trkpt>
      <trkpt lat="45.59543" lon="4.86694">
        <ele>298</ele>
        <time>2020-06-28T08:28:18.000Z</time>
      </trkpt>
      <trkpt lat="45.5954" lon="4.86684">
        <ele>298.4</ele>
        <time>2020-06-28T08:28:20.000Z</time>
      </trkpt>
      <trkpt lat="45.59538" lon="4.86677">
        <ele>298.9</ele>
        <time>2020-06-28T08:28:22.000Z</time>
      </trkpt>
      <trkpt lat="45.59538" lon="4.86675">
        <ele>299</ele>
        <time>2020-06-28T08:28:23.000Z</time>
      </trkpt>
      <trkpt lat="45.59538" lon="4.86671">
        <ele>299.3</ele>
        <time>2020-06-28T08:28:24.000Z</time>
      </trkpt>
      <trkpt lat="45.59537" lon="4.86665">
        <ele>299.8</ele>
        <time>2020-06-28T08:28:26.000Z</time>
      </trkpt>
      <trkpt lat="45.59536" lon="4.86655">
        <ele>300.3</ele>
        <time>2020-06-28T08:28:29.000Z</time>
      </trkpt>
      <trkpt lat="45.59531" lon="4.86643">
        <ele>300.7</ele>
        <time>2020-06-28T08:28:33.000Z</time>
      </trkpt>
      <trkpt lat="45.59529" lon="4.86637">
        <ele>300.8</ele>
        <time>2020-06-28T08:28:35.000Z</time>
      </trkpt>
      <trkpt lat="45.59519" lon="4.86613">
        <ele>300.3</ele>
        <time>2020-06-28T08:28:40.000Z</time>
      </trkpt>
      <trkpt lat="45.59514" lon="4.86602">
        <ele>299.7</ele>
        <time>2020-06-28T08:28:42.000Z</time>
      </trkpt>
      <trkpt lat="45.59507" lon="4.86591">
        <ele>298.8</ele>
        <time>2020-06-28T08:28:44.000Z</time>
      </trkpt>
      <trkpt lat="45.5949" lon="4.86568">
        <ele>297.8</ele>
        <time>2020-06-28T08:28:48.000Z</time>
      </trkpt>
      <trkpt lat="45.59485" lon="4.86562">
        <ele>297.6</ele>
        <time>2020-06-28T08:28:49.000Z</time>
      </trkpt>
      <trkpt lat="45.5948" lon="4.86556">
        <ele>297.4</ele>
        <time>2020-06-28T08:28:50.000Z</time>
      </trkpt>
      <trkpt lat="45.59469" lon="4.86544">
        <ele>296.9</ele>
        <time>2020-06-28T08:28:52.000Z</time>
      </trkpt>
      <trkpt lat="45.59455" lon="4.86531">
        <ele>295.5</ele>
        <time>2020-06-28T08:28:54.000Z</time>
      </trkpt>
      <trkpt lat="45.59441" lon="4.86518">
        <ele>294</ele>
        <time>2020-06-28T08:28:56.000Z</time>
      </trkpt>
      <trkpt lat="45.5943" lon="4.86506">
        <ele>292.9</ele>
        <time>2020-06-28T08:28:58.000Z</time>
      </trkpt>
      <trkpt lat="45.59426" lon="4.865">
        <ele>292.6</ele>
        <time>2020-06-28T08:28:59.000Z</time>
      </trkpt>
      <trkpt lat="45.59422" lon="4.86494">
        <ele>292.1</ele>
        <time>2020-06-28T08:29:01.000Z</time>
      </trkpt>
      <trkpt lat="45.59421" lon="4.8649">
        <ele>291.9</ele>
        <time>2020-06-28T08:29:02.000Z</time>
      </trkpt>
      <trkpt lat="45.59419" lon="4.86487">
        <ele>291.8</ele>
        <time>2020-06-28T08:29:03.000Z</time>
      </trkpt>
      <trkpt lat="45.59411" lon="4.8647">
        <ele>291.9</ele>
        <time>2020-06-28T08:29:08.000Z</time>
      </trkpt>
      <trkpt lat="45.5941" lon="4.86464">
        <ele>292.4</ele>
        <time>2020-06-28T08:29:10.000Z</time>
      </trkpt>
      <trkpt lat="45.59411" lon="4.86455">
        <ele>293.7</ele>
        <time>2020-06-28T08:29:14.000Z</time>
      </trkpt>
      <trkpt lat="45.59412" lon="4.86451">
        <ele>294.5</ele>
        <time>2020-06-28T08:29:17.000Z</time>
      </trkpt>
      <trkpt lat="45.59413" lon="4.86449">
        <ele>295</ele>
        <time>2020-06-28T08:29:19.000Z</time>
      </trkpt>
      <trkpt lat="45.59414" lon="4.86445">
        <ele>295.8</ele>
        <time>2020-06-28T08:29:21.000Z</time>
      </trkpt>
      <trkpt lat="45.59414" lon="4.86443">
        <ele>296.1</ele>
        <time>2020-06-28T08:29:22.000Z</time>
      </trkpt>
      <trkpt lat="45.59415" lon="4.86442">
        <ele>296.4</ele>
        <time>2020-06-28T08:29:23.000Z</time>
      </trkpt>
      <trkpt lat="45.59417" lon="4.86439">
        <ele>297.1</ele>
        <time>2020-06-28T08:29:26.000Z</time>
      </trkpt>
      <trkpt lat="45.59418" lon="4.86437">
        <ele>297.6</ele>
        <time>2020-06-28T08:29:28.000Z</time>
      </trkpt>
      <trkpt lat="45.59421" lon="4.86436">
        <ele>298.2</ele>
        <time>2020-06-28T08:29:31.000Z</time>
      </trkpt>
      <trkpt lat="45.59422" lon="4.86434">
        <ele>298.6</ele>
        <time>2020-06-28T08:29:34.000Z</time>
      </trkpt>
      <trkpt lat="45.59426" lon="4.86432">
        <ele>299.7</ele>
        <time>2020-06-28T08:29:39.000Z</time>
      </trkpt>
      <trkpt lat="45.59427" lon="4.86432">
        <ele>300</ele>
        <time>2020-06-28T08:29:40.000Z</time>
      </trkpt>
      <trkpt lat="45.5943" lon="4.86431">
        <ele>300.5</ele>
        <time>2020-06-28T08:29:42.000Z</time>
      </trkpt>
      <trkpt lat="45.59435" lon="4.86428">
        <ele>301.7</ele>
        <time>2020-06-28T08:29:46.000Z</time>
      </trkpt>
      <trkpt lat="45.59435" lon="4.86427">
        <ele>301.9</ele>
        <time>2020-06-28T08:29:47.000Z</time>
      </trkpt>
      <trkpt lat="45.59438" lon="4.86425">
        <ele>302.6</ele>
        <time>2020-06-28T08:29:50.000Z</time>
      </trkpt>
      <trkpt lat="45.59442" lon="4.86423">
        <ele>303.4</ele>
        <time>2020-06-28T08:29:54.000Z</time>
      </trkpt>
      <trkpt lat="45.59446" lon="4.86423">
        <ele>304.2</ele>
        <time>2020-06-28T08:29:58.000Z</time>
      </trkpt>
      <trkpt lat="45.59447" lon="4.86423">
        <ele>304.4</ele>
        <time>2020-06-28T08:29:59.000Z</time>
      </trkpt>
      <trkpt lat="45.59452" lon="4.86426">
        <ele>305.1</ele>
        <time>2020-06-28T08:30:04.000Z</time>
      </trkpt>
      <trkpt lat="45.59452" lon="4.86427">
        <ele>305.2</ele>
        <time>2020-06-28T08:30:05.000Z</time>
      </trkpt>
      <trkpt lat="45.59455" lon="4.86428">
        <ele>305.5</ele>
        <time>2020-06-28T08:30:07.000Z</time>
      </trkpt>
      <trkpt lat="45.59465" lon="4.86436">
        <ele>306.3</ele>
        <time>2020-06-28T08:30:13.000Z</time>
      </trkpt>
      <trkpt lat="45.59467" lon="4.86439">
        <ele>306.5</ele>
        <time>2020-06-28T08:30:16.000Z</time>
      </trkpt>
      <trkpt lat="45.59468" lon="4.86441">
        <ele>306.5</ele>
        <time>2020-06-28T08:30:18.000Z</time>
      </trkpt>
      <trkpt lat="45.59471" lon="4.8643">
        <ele>306.7</ele>
        <time>2020-06-28T08:33:34.000Z</time>
      </trkpt>
      <trkpt lat="45.59472" lon="4.86431">
        <ele>306.7</ele>
        <time>2020-06-28T08:33:35.000Z</time>
      </trkpt>
      <trkpt lat="45.59475" lon="4.86434">
        <ele>306.8</ele>
        <time>2020-06-28T08:33:37.000Z</time>
      </trkpt>
      <trkpt lat="45.59477" lon="4.86438">
        <ele>306.8</ele>
        <time>2020-06-28T08:33:39.000Z</time>
      </trkpt>
      <trkpt lat="45.5948" lon="4.86445">
        <ele>307</ele>
        <time>2020-06-28T08:33:42.000Z</time>
      </trkpt>
      <trkpt lat="45.5948" lon="4.86448">
        <ele>307</ele>
        <time>2020-06-28T08:33:43.000Z</time>
      </trkpt>
      <trkpt lat="45.59482" lon="4.8645">
        <ele>307.1</ele>
        <time>2020-06-28T08:33:44.000Z</time>
      </trkpt>
      <trkpt lat="45.59488" lon="4.86457">
        <ele>307.5</ele>
        <time>2020-06-28T08:33:48.000Z</time>
      </trkpt>
      <trkpt lat="45.5949" lon="4.86459">
        <ele>307.7</ele>
        <time>2020-06-28T08:33:49.000Z</time>
      </trkpt>
      <trkpt lat="45.59494" lon="4.86461">
        <ele>308</ele>
        <time>2020-06-28T08:33:51.000Z</time>
      </trkpt>
      <trkpt lat="45.59497" lon="4.86462">
        <ele>308.3</ele>
        <time>2020-06-28T08:33:53.000Z</time>
      </trkpt>
      <trkpt lat="45.59498" lon="4.86462">
        <ele>308.4</ele>
        <time>2020-06-28T08:33:54.000Z</time>
      </trkpt>
      <trkpt lat="45.59501" lon="4.86464">
        <ele>308.7</ele>
        <time>2020-06-28T08:33:56.000Z</time>
      </trkpt>
      <trkpt lat="45.59504" lon="4.86465">
        <ele>308.9</ele>
        <time>2020-06-28T08:33:58.000Z</time>
      </trkpt>
      <trkpt lat="45.59508" lon="4.86468">
        <ele>309.2</ele>
        <time>2020-06-28T08:34:00.000Z</time>
      </trkpt>
      <trkpt lat="45.59511" lon="4.86472">
        <ele>309.5</ele>
        <time>2020-06-28T08:34:02.000Z</time>
      </trkpt>
      <trkpt lat="45.59518" lon="4.86483">
        <ele>309.9</ele>
        <time>2020-06-28T08:34:06.000Z</time>
      </trkpt>
      <trkpt lat="45.5952" lon="4.86486">
        <ele>310</ele>
        <time>2020-06-28T08:34:07.000Z</time>
      </trkpt>
      <trkpt lat="45.59529" lon="4.86501">
        <ele>310</ele>
        <time>2020-06-28T08:34:12.000Z</time>
      </trkpt>
      <trkpt lat="45.59542" lon="4.86526">
        <ele>310</ele>
        <time>2020-06-28T08:34:19.000Z</time>
      </trkpt>
      <trkpt lat="45.5955" lon="4.86546">
        <ele>310.6</ele>
        <time>2020-06-28T08:34:25.000Z</time>
      </trkpt>
      <trkpt lat="45.59558" lon="4.86567">
        <ele>311.5</ele>
        <time>2020-06-28T08:34:31.000Z</time>
      </trkpt>
      <trkpt lat="45.59562" lon="4.86573">
        <ele>311.8</ele>
        <time>2020-06-28T08:34:33.000Z</time>
      </trkpt>
      <trkpt lat="45.59572" lon="4.86588">
        <ele>312.3</ele>
        <time>2020-06-28T08:34:36.000Z</time>
      </trkpt>
      <trkpt lat="45.59577" lon="4.86593">
        <ele>312.8</ele>
        <time>2020-06-28T08:34:38.000Z</time>
      </trkpt>
      <trkpt lat="45.59583" lon="4.86595">
        <ele>313.5</ele>
        <time>2020-06-28T08:34:40.000Z</time>
      </trkpt>
      <trkpt lat="45.59585" lon="4.86594">
        <ele>313.8</ele>
        <time>2020-06-28T08:34:41.000Z</time>
      </trkpt>
      <trkpt lat="45.59587" lon="4.86595">
        <ele>314.2</ele>
        <time>2020-06-28T08:34:43.000Z</time>
      </trkpt>
      <trkpt lat="45.59589" lon="4.86595">
        <ele>314.6</ele>
        <time>2020-06-28T08:34:45.000Z</time>
      </trkpt>
      <trkpt lat="45.59594" lon="4.86594">
        <ele>315.8</ele>
        <time>2020-06-28T08:34:49.000Z</time>
      </trkpt>
      <trkpt lat="45.59598" lon="4.86595">
        <ele>316.8</ele>
        <time>2020-06-28T08:34:51.000Z</time>
      </trkpt>
      <trkpt lat="45.59601" lon="4.86594">
        <ele>317.5</ele>
        <time>2020-06-28T08:34:53.000Z</time>
      </trkpt>
      <trkpt lat="45.59604" lon="4.86595">
        <ele>318.3</ele>
        <time>2020-06-28T08:34:54.000Z</time>
      </trkpt>
      <trkpt lat="45.59609" lon="4.86593">
        <ele>320.1</ele>
        <time>2020-06-28T08:34:57.000Z</time>
      </trkpt>
      <trkpt lat="45.5961" lon="4.86593">
        <ele>320.3</ele>
        <time>2020-06-28T08:34:58.000Z</time>
      </trkpt>
      <trkpt lat="45.59613" lon="4.86594">
        <ele>320.8</ele>
        <time>2020-06-28T08:35:00.000Z</time>
      </trkpt>
      <trkpt lat="45.59616" lon="4.86597">
        <ele>321.3</ele>
        <time>2020-06-28T08:35:03.000Z</time>
      </trkpt>
      <trkpt lat="45.59617" lon="4.86599">
        <ele>321.5</ele>
        <time>2020-06-28T08:35:04.000Z</time>
      </trkpt>
      <trkpt lat="45.59618" lon="4.866">
        <ele>321.7</ele>
        <time>2020-06-28T08:35:05.000Z</time>
      </trkpt>
      <trkpt lat="45.59619" lon="4.86601">
        <ele>321.8</ele>
        <time>2020-06-28T08:35:07.000Z</time>
      </trkpt>
      <trkpt lat="45.59636" lon="4.86624">
        <ele>321.9</ele>
        <time>2020-06-28T08:37:02.000Z</time>
      </trkpt>
      <trkpt lat="45.59637" lon="4.86629">
        <ele>321.6</ele>
        <time>2020-06-28T08:37:03.000Z</time>
      </trkpt>
      <trkpt lat="45.59637" lon="4.86641">
        <ele>320.7</ele>
        <time>2020-06-28T08:37:05.000Z</time>
      </trkpt>
      <trkpt lat="45.59637" lon="4.86653">
        <ele>319.9</ele>
        <time>2020-06-28T08:37:07.000Z</time>
      </trkpt>
      <trkpt lat="45.59637" lon="4.86657">
        <ele>319.7</ele>
        <time>2020-06-28T08:37:08.000Z</time>
      </trkpt>
      <trkpt lat="45.59637" lon="4.86663">
        <ele>319.6</ele>
        <time>2020-06-28T08:37:10.000Z</time>
      </trkpt>
      <trkpt lat="45.59639" lon="4.86671">
        <ele>320.2</ele>
        <time>2020-06-28T08:37:12.000Z</time>
      </trkpt>
      <trkpt lat="45.5964" lon="4.86678">
        <ele>320.7</ele>
        <time>2020-06-28T08:37:14.000Z</time>
      </trkpt>
      <trkpt lat="45.5964" lon="4.86684">
        <ele>321.2</ele>
        <time>2020-06-28T08:37:16.000Z</time>
      </trkpt>
      <trkpt lat="45.59641" lon="4.86691">
        <ele>321.8</ele>
        <time>2020-06-28T08:37:18.000Z</time>
      </trkpt>
      <trkpt lat="45.59641" lon="4.86697">
        <ele>322.3</ele>
        <time>2020-06-28T08:37:20.000Z</time>
      </trkpt>
      <trkpt lat="45.59638" lon="4.86705">
        <ele>322.9</ele>
        <time>2020-06-28T08:37:23.000Z</time>
      </trkpt>
      <trkpt lat="45.59637" lon="4.86713">
        <ele>323.5</ele>
        <time>2020-06-28T08:37:26.000Z</time>
      </trkpt>
      <trkpt lat="45.59636" lon="4.86716">
        <ele>323.7</ele>
        <time>2020-06-28T08:37:27.000Z</time>
      </trkpt>
      <trkpt lat="45.59636" lon="4.86727">
        <ele>324.3</ele>
        <time>2020-06-28T08:37:30.000Z</time>
      </trkpt>
      <trkpt lat="45.59636" lon="4.86737">
        <ele>324.7</ele>
        <time>2020-06-28T08:37:33.000Z</time>
      </trkpt>
      <trkpt lat="45.59636" lon="4.86752">
        <ele>325.4</ele>
        <time>2020-06-28T08:37:37.000Z</time>
      </trkpt>
      <trkpt lat="45.59637" lon="4.86763">
        <ele>325.9</ele>
        <time>2020-06-28T08:37:40.000Z</time>
      </trkpt>
      <trkpt lat="45.59639" lon="4.86774">
        <ele>326.4</ele>
        <time>2020-06-28T08:37:43.000Z</time>
      </trkpt>
      <trkpt lat="45.5964" lon="4.8679">
        <ele>327</ele>
        <time>2020-06-28T08:37:48.000Z</time>
      </trkpt>
      <trkpt lat="45.59642" lon="4.86801">
        <ele>327.4</ele>
        <time>2020-06-28T08:37:51.000Z</time>
      </trkpt>
      <trkpt lat="45.59644" lon="4.86815">
        <ele>327.9</ele>
        <time>2020-06-28T08:37:55.000Z</time>
      </trkpt>
      <trkpt lat="45.59646" lon="4.86825">
        <ele>328.3</ele>
        <time>2020-06-28T08:37:58.000Z</time>
      </trkpt>
      <trkpt lat="45.59648" lon="4.86841">
        <ele>328.7</ele>
        <time>2020-06-28T08:38:02.000Z</time>
      </trkpt>
      <trkpt lat="45.59652" lon="4.86872">
        <ele>328.6</ele>
        <time>2020-06-28T08:38:08.000Z</time>
      </trkpt>
      <trkpt lat="45.59655" lon="4.86905">
        <ele>327.5</ele>
        <time>2020-06-28T08:38:13.000Z</time>
      </trkpt>
      <trkpt lat="45.59655" lon="4.86918">
        <ele>326.8</ele>
        <time>2020-06-28T08:38:16.000Z</time>
      </trkpt>
      <trkpt lat="45.59656" lon="4.86924">
        <ele>326.4</ele>
        <time>2020-06-28T08:38:18.000Z</time>
      </trkpt>
      <trkpt lat="45.59658" lon="4.86929">
        <ele>326</ele>
        <time>2020-06-28T08:38:20.000Z</time>
      </trkpt>
      <trkpt lat="45.59658" lon="4.86932">
        <ele>325.8</ele>
        <time>2020-06-28T08:38:22.000Z</time>
      </trkpt>
      <trkpt lat="45.59659" lon="4.86934">
        <ele>325.6</ele>
        <time>2020-06-28T08:38:23.000Z</time>
      </trkpt>
      <trkpt lat="45.59664" lon="4.86945">
        <ele>324.4</ele>
        <time>2020-06-28T08:38:28.000Z</time>
      </trkpt>
      <trkpt lat="45.59668" lon="4.8695">
        <ele>326.9</ele>
        <time>2020-06-28T08:38:31.000Z</time>
      </trkpt>
      <trkpt lat="45.5967" lon="4.86959">
        <ele>327.8</ele>
        <time>2020-06-28T08:38:35.000Z</time>
      </trkpt>
      <trkpt lat="45.59671" lon="4.86961">
        <ele>328</ele>
        <time>2020-06-28T08:38:36.000Z</time>
      </trkpt>
      <trkpt lat="45.59672" lon="4.86962">
        <ele>328.2</ele>
        <time>2020-06-28T08:38:37.000Z</time>
      </trkpt>
      <trkpt lat="45.59677" lon="4.86972">
        <ele>329.2</ele>
        <time>2020-06-28T08:38:41.000Z</time>
      </trkpt>
      <trkpt lat="45.59679" lon="4.86974">
        <ele>329.5</ele>
        <time>2020-06-28T08:38:42.000Z</time>
      </trkpt>
      <trkpt lat="45.59683" lon="4.86983">
        <ele>330.4</ele>
        <time>2020-06-28T08:38:46.000Z</time>
      </trkpt>
      <trkpt lat="45.59687" lon="4.86988">
        <ele>330.9</ele>
        <time>2020-06-28T08:38:49.000Z</time>
      </trkpt>
      <trkpt lat="45.59692" lon="4.86994">
        <ele>331.7</ele>
        <time>2020-06-28T08:38:52.000Z</time>
      </trkpt>
      <trkpt lat="45.59698" lon="4.87001">
        <ele>332.5</ele>
        <time>2020-06-28T08:38:56.000Z</time>
      </trkpt>
      <trkpt lat="45.597" lon="4.87003">
        <ele>332.8</ele>
        <time>2020-06-28T08:38:58.000Z</time>
      </trkpt>
      <trkpt lat="45.59706" lon="4.87007">
        <ele>333.5</ele>
        <time>2020-06-28T08:39:03.000Z</time>
      </trkpt>
      <trkpt lat="45.59708" lon="4.87009">
        <ele>333.7</ele>
        <time>2020-06-28T08:39:04.000Z</time>
      </trkpt>
      <trkpt lat="45.5971" lon="4.87011">
        <ele>334.1</ele>
        <time>2020-06-28T08:39:06.000Z</time>
      </trkpt>
      <trkpt lat="45.59713" lon="4.87014">
        <ele>334.4</ele>
        <time>2020-06-28T08:39:08.000Z</time>
      </trkpt>
      <trkpt lat="45.59714" lon="4.87015">
        <ele>334.6</ele>
        <time>2020-06-28T08:39:09.000Z</time>
      </trkpt>
      <trkpt lat="45.59715" lon="4.87017">
        <ele>334.8</ele>
        <time>2020-06-28T08:39:10.000Z</time>
      </trkpt>
      <trkpt lat="45.59719" lon="4.87021">
        <ele>335.3</ele>
        <time>2020-06-28T08:39:13.000Z</time>
      </trkpt>
      <trkpt lat="45.59729" lon="4.87027">
        <ele>336.5</ele>
        <time>2020-06-28T08:39:20.000Z</time>
      </trkpt>
      <trkpt lat="45.59731" lon="4.87028">
        <ele>336.8</ele>
        <time>2020-06-28T08:39:21.000Z</time>
      </trkpt>
      <trkpt lat="45.59738" lon="4.87031">
        <ele>337.7</ele>
        <time>2020-06-28T08:39:25.000Z</time>
      </trkpt>
      <trkpt lat="45.5974" lon="4.87032">
        <ele>337.9</ele>
        <time>2020-06-28T08:39:26.000Z</time>
      </trkpt>
      <trkpt lat="45.59746" lon="4.87038">
        <ele>338.8</ele>
        <time>2020-06-28T08:39:29.000Z</time>
      </trkpt>
      <trkpt lat="45.59751" lon="4.87041">
        <ele>339.6</ele>
        <time>2020-06-28T08:39:32.000Z</time>
      </trkpt>
      <trkpt lat="45.59754" lon="4.87042">
        <ele>340</ele>
        <time>2020-06-28T08:39:34.000Z</time>
      </trkpt>
      <trkpt lat="45.59762" lon="4.87046">
        <ele>341.1</ele>
        <time>2020-06-28T08:39:38.000Z</time>
      </trkpt>
      <trkpt lat="45.59765" lon="4.87046">
        <ele>341.5</ele>
        <time>2020-06-28T08:39:40.000Z</time>
      </trkpt>
      <trkpt lat="45.59771" lon="4.87047">
        <ele>342.3</ele>
        <time>2020-06-28T08:39:43.000Z</time>
      </trkpt>
      <trkpt lat="45.59775" lon="4.87047">
        <ele>342.9</ele>
        <time>2020-06-28T08:39:45.000Z</time>
      </trkpt>
      <trkpt lat="45.59782" lon="4.87049">
        <ele>343.8</ele>
        <time>2020-06-28T08:39:48.000Z</time>
      </trkpt>
      <trkpt lat="45.59786" lon="4.8705">
        <ele>344.3</ele>
        <time>2020-06-28T08:39:50.000Z</time>
      </trkpt>
      <trkpt lat="45.59792" lon="4.87049">
        <ele>344.9</ele>
        <time>2020-06-28T08:39:53.000Z</time>
      </trkpt>
      <trkpt lat="45.59796" lon="4.87049">
        <ele>345.2</ele>
        <time>2020-06-28T08:39:55.000Z</time>
      </trkpt>
      <trkpt lat="45.59797" lon="4.87049">
        <ele>345.4</ele>
        <time>2020-06-28T08:39:56.000Z</time>
      </trkpt>
      <trkpt lat="45.598" lon="4.87051">
        <ele>345.6</ele>
        <time>2020-06-28T08:39:58.000Z</time>
      </trkpt>
      <trkpt lat="45.59801" lon="4.87053">
        <ele>346.5</ele>
        <time>2020-06-28T08:39:59.000Z</time>
      </trkpt>
      <trkpt lat="45.59804" lon="4.87067">
        <ele>346.5</ele>
        <time>2020-06-28T08:40:05.000Z</time>
      </trkpt>
      <trkpt lat="45.59803" lon="4.8708">
        <ele>346.7</ele>
        <time>2020-06-28T08:40:10.000Z</time>
      </trkpt>
      <trkpt lat="45.59804" lon="4.87096">
        <ele>347.2</ele>
        <time>2020-06-28T08:40:16.000Z</time>
      </trkpt>
      <trkpt lat="45.59804" lon="4.87101">
        <ele>347.4</ele>
        <time>2020-06-28T08:40:18.000Z</time>
      </trkpt>
      <trkpt lat="45.59805" lon="4.87105">
        <ele>347.6</ele>
        <time>2020-06-28T08:40:20.000Z</time>
      </trkpt>
      <trkpt lat="45.59806" lon="4.87112">
        <ele>348.1</ele>
        <time>2020-06-28T08:40:22.000Z</time>
      </trkpt>
      <trkpt lat="45.59808" lon="4.87123">
        <ele>348.9</ele>
        <time>2020-06-28T08:40:25.000Z</time>
      </trkpt>
      <trkpt lat="45.59809" lon="4.87132">
        <ele>349.6</ele>
        <time>2020-06-28T08:40:28.000Z</time>
      </trkpt>
      <trkpt lat="45.5981" lon="4.8714">
        <ele>350.2</ele>
        <time>2020-06-28T08:40:31.000Z</time>
      </trkpt>
      <trkpt lat="45.59811" lon="4.87148">
        <ele>350.8</ele>
        <time>2020-06-28T08:40:34.000Z</time>
      </trkpt>
      <trkpt lat="45.59811" lon="4.87153">
        <ele>351.1</ele>
        <time>2020-06-28T08:40:36.000Z</time>
      </trkpt>
      <trkpt lat="45.59812" lon="4.8716">
        <ele>351.6</ele>
        <time>2020-06-28T08:40:39.000Z</time>
      </trkpt>
      <trkpt lat="45.59812" lon="4.87166">
        <ele>352</ele>
        <time>2020-06-28T08:40:41.000Z</time>
      </trkpt>
      <trkpt lat="45.59814" lon="4.87178">
        <ele>352.6</ele>
        <time>2020-06-28T08:40:45.000Z</time>
      </trkpt>
      <trkpt lat="45.59815" lon="4.8718">
        <ele>352.8</ele>
        <time>2020-06-28T08:40:46.000Z</time>
      </trkpt>
      <trkpt lat="45.59819" lon="4.87192">
        <ele>353.2</ele>
        <time>2020-06-28T08:40:50.000Z</time>
      </trkpt>
      <trkpt lat="45.5982" lon="4.87195">
        <ele>353.3</ele>
        <time>2020-06-28T08:40:51.000Z</time>
      </trkpt>
      <trkpt lat="45.59823" lon="4.87211">
        <ele>353.5</ele>
        <time>2020-06-28T08:40:56.000Z</time>
      </trkpt>
      <trkpt lat="45.59828" lon="4.87227">
        <ele>353.6</ele>
        <time>2020-06-28T08:41:01.000Z</time>
      </trkpt>
      <trkpt lat="45.59837" lon="4.87254">
        <ele>353.3</ele>
        <time>2020-06-28T08:41:07.000Z</time>
      </trkpt>
      <trkpt lat="45.59848" lon="4.87282">
        <ele>353</ele>
        <time>2020-06-28T08:41:12.000Z</time>
      </trkpt>
      <trkpt lat="45.59855" lon="4.87302">
        <ele>352.8</ele>
        <time>2020-06-28T08:41:15.000Z</time>
      </trkpt>
      <trkpt lat="45.59861" lon="4.87315">
        <ele>352.7</ele>
        <time>2020-06-28T08:41:17.000Z</time>
      </trkpt>
      <trkpt lat="45.59866" lon="4.87335">
        <ele>352.6</ele>
        <time>2020-06-28T08:41:21.000Z</time>
      </trkpt>
      <trkpt lat="45.59867" lon="4.87339">
        <ele>352.5</ele>
        <time>2020-06-28T08:41:22.000Z</time>
      </trkpt>
      <trkpt lat="45.59865" lon="4.87346">
        <ele>353.5</ele>
        <time>2020-06-28T08:41:25.000Z</time>
      </trkpt>
      <trkpt lat="45.59861" lon="4.87351">
        <ele>354.3</ele>
        <time>2020-06-28T08:41:28.000Z</time>
      </trkpt>
      <trkpt lat="45.59859" lon="4.87355">
        <ele>354.8</ele>
        <time>2020-06-28T08:41:30.000Z</time>
      </trkpt>
      <trkpt lat="45.59852" lon="4.87369">
        <ele>355.8</ele>
        <time>2020-06-28T08:41:35.000Z</time>
      </trkpt>
      <trkpt lat="45.59848" lon="4.87374">
        <ele>356.2</ele>
        <time>2020-06-28T08:41:37.000Z</time>
      </trkpt>
      <trkpt lat="45.59839" lon="4.87388">
        <ele>356.6</ele>
        <time>2020-06-28T08:41:41.000Z</time>
      </trkpt>
      <trkpt lat="45.59823" lon="4.87412">
        <ele>357.1</ele>
        <time>2020-06-28T08:41:46.000Z</time>
      </trkpt>
      <trkpt lat="45.59819" lon="4.87425">
        <ele>357</ele>
        <time>2020-06-28T08:41:49.000Z</time>
      </trkpt>
      <trkpt lat="45.59818" lon="4.87428">
        <ele>357.1</ele>
        <time>2020-06-28T08:41:50.000Z</time>
      </trkpt>
      <trkpt lat="45.59817" lon="4.87431">
        <ele>357.2</ele>
        <time>2020-06-28T08:41:51.000Z</time>
      </trkpt>
      <trkpt lat="45.5981" lon="4.87442">
        <ele>357.2</ele>
        <time>2020-06-28T08:41:55.000Z</time>
      </trkpt>
      <trkpt lat="45.59804" lon="4.87449">
        <ele>357.4</ele>
        <time>2020-06-28T08:41:58.000Z</time>
      </trkpt>
      <trkpt lat="45.598" lon="4.87455">
        <ele>357.3</ele>
        <time>2020-06-28T08:42:00.000Z</time>
      </trkpt>
      <trkpt lat="45.5979" lon="4.87465">
        <ele>357.1</ele>
        <time>2020-06-28T08:42:05.000Z</time>
      </trkpt>
      <trkpt lat="45.59786" lon="4.87462">
        <ele>357.3</ele>
        <time>2020-06-28T08:42:09.000Z</time>
      </trkpt>
      <trkpt lat="45.59779" lon="4.8746">
        <ele>357.5</ele>
        <time>2020-06-28T08:42:13.000Z</time>
      </trkpt>
      <trkpt lat="45.59776" lon="4.87463">
        <ele>357.5</ele>
        <time>2020-06-28T08:42:14.000Z</time>
      </trkpt>
      <trkpt lat="45.59765" lon="4.87473">
        <ele>357.4</ele>
        <time>2020-06-28T08:42:19.000Z</time>
      </trkpt>
      <trkpt lat="45.5976" lon="4.87478">
        <ele>357.4</ele>
        <time>2020-06-28T08:42:22.000Z</time>
      </trkpt>
      <trkpt lat="45.59754" lon="4.87478">
        <ele>357.4</ele>
        <time>2020-06-28T08:42:24.000Z</time>
      </trkpt>
      <trkpt lat="45.59744" lon="4.87484">
        <ele>357.2</ele>
        <time>2020-06-28T08:42:28.000Z</time>
      </trkpt>
      <trkpt lat="45.59737" lon="4.87493">
        <ele>356.8</ele>
        <time>2020-06-28T08:42:33.000Z</time>
      </trkpt>
      <trkpt lat="45.59735" lon="4.87501">
        <ele>356.7</ele>
        <time>2020-06-28T08:42:35.000Z</time>
      </trkpt>
      <trkpt lat="45.59736" lon="4.87506">
        <ele>356.5</ele>
        <time>2020-06-28T08:42:37.000Z</time>
      </trkpt>
      <trkpt lat="45.59737" lon="4.8751">
        <ele>356.4</ele>
        <time>2020-06-28T08:42:38.000Z</time>
      </trkpt>
      <trkpt lat="45.59743" lon="4.87522">
        <ele>356.2</ele>
        <time>2020-06-28T08:42:41.000Z</time>
      </trkpt>
      <trkpt lat="45.59745" lon="4.87527">
        <ele>355.9</ele>
        <time>2020-06-28T08:42:42.000Z</time>
      </trkpt>
      <trkpt lat="45.59754" lon="4.87544">
        <ele>355</ele>
        <time>2020-06-28T08:42:45.000Z</time>
      </trkpt>
      <trkpt lat="45.59762" lon="4.87557">
        <ele>354.2</ele>
        <time>2020-06-28T08:42:47.000Z</time>
      </trkpt>
      <trkpt lat="45.59766" lon="4.87563">
        <ele>353.5</ele>
        <time>2020-06-28T08:42:48.000Z</time>
      </trkpt>
      <trkpt lat="45.59773" lon="4.87576">
        <ele>352.5</ele>
        <time>2020-06-28T08:42:50.000Z</time>
      </trkpt>
      <trkpt lat="45.59779" lon="4.87587">
        <ele>351.5</ele>
        <time>2020-06-28T08:42:52.000Z</time>
      </trkpt>
      <trkpt lat="45.59781" lon="4.87592">
        <ele>351.2</ele>
        <time>2020-06-28T08:42:53.000Z</time>
      </trkpt>
      <trkpt lat="45.59784" lon="4.87598">
        <ele>350.9</ele>
        <time>2020-06-28T08:42:55.000Z</time>
      </trkpt>
      <trkpt lat="45.59786" lon="4.87602">
        <ele>350.6</ele>
        <time>2020-06-28T08:42:57.000Z</time>
      </trkpt>
      <trkpt lat="45.59787" lon="4.87604">
        <ele>350.3</ele>
        <time>2020-06-28T08:42:58.000Z</time>
      </trkpt>
      <trkpt lat="45.5979" lon="4.87615">
        <ele>349.7</ele>
        <time>2020-06-28T08:43:04.000Z</time>
      </trkpt>
      <trkpt lat="45.59798" lon="4.87635">
        <ele>347.7</ele>
        <time>2020-06-28T08:43:08.000Z</time>
      </trkpt>
      <trkpt lat="45.59799" lon="4.87642">
        <ele>347.3</ele>
        <time>2020-06-28T08:43:09.000Z</time>
      </trkpt>
      <trkpt lat="45.59807" lon="4.87673">
        <ele>344.8</ele>
        <time>2020-06-28T08:43:14.000Z</time>
      </trkpt>
      <trkpt lat="45.59809" lon="4.8768">
        <ele>344.6</ele>
        <time>2020-06-28T08:43:15.000Z</time>
      </trkpt>
      <trkpt lat="45.59811" lon="4.87685">
        <ele>344.4</ele>
        <time>2020-06-28T08:43:16.000Z</time>
      </trkpt>
      <trkpt lat="45.59816" lon="4.87692">
        <ele>343.9</ele>
        <time>2020-06-28T08:43:18.000Z</time>
      </trkpt>
      <trkpt lat="45.59821" lon="4.877">
        <ele>343.5</ele>
        <time>2020-06-28T08:43:20.000Z</time>
      </trkpt>
      <trkpt lat="45.5983" lon="4.87713">
        <ele>342.8</ele>
        <time>2020-06-28T08:43:23.000Z</time>
      </trkpt>
      <trkpt lat="45.59837" lon="4.87722">
        <ele>342.3</ele>
        <time>2020-06-28T08:43:25.000Z</time>
      </trkpt>
      <trkpt lat="45.59844" lon="4.87732">
        <ele>341.9</ele>
        <time>2020-06-28T08:43:27.000Z</time>
      </trkpt>
      <trkpt lat="45.59855" lon="4.87748">
        <ele>341.5</ele>
        <time>2020-06-28T08:43:30.000Z</time>
      </trkpt>
      <trkpt lat="45.59858" lon="4.87754">
        <ele>341.5</ele>
        <time>2020-06-28T08:43:31.000Z</time>
      </trkpt>
      <trkpt lat="45.59868" lon="4.87769">
        <ele>341.5</ele>
        <time>2020-06-28T08:43:34.000Z</time>
      </trkpt>
      <trkpt lat="45.59874" lon="4.87778">
        <ele>341.7</ele>
        <time>2020-06-28T08:43:36.000Z</time>
      </trkpt>
      <trkpt lat="45.59879" lon="4.87787">
        <ele>341.8</ele>
        <time>2020-06-28T08:43:38.000Z</time>
      </trkpt>
      <trkpt lat="45.59885" lon="4.87797">
        <ele>341.6</ele>
        <time>2020-06-28T08:43:40.000Z</time>
      </trkpt>
      <trkpt lat="45.59893" lon="4.87808">
        <ele>341.7</ele>
        <time>2020-06-28T08:43:43.000Z</time>
      </trkpt>
      <trkpt lat="45.59898" lon="4.87812">
        <ele>341.9</ele>
        <time>2020-06-28T08:43:45.000Z</time>
      </trkpt>
      <trkpt lat="45.59907" lon="4.8782">
        <ele>342</ele>
        <time>2020-06-28T08:43:49.000Z</time>
      </trkpt>
      <trkpt lat="45.59919" lon="4.87838">
        <ele>342.5</ele>
        <time>2020-06-28T08:43:54.000Z</time>
      </trkpt>
      <trkpt lat="45.59921" lon="4.87853">
        <ele>342.4</ele>
        <time>2020-06-28T08:43:57.000Z</time>
      </trkpt>
      <trkpt lat="45.59921" lon="4.87859">
        <ele>342.2</ele>
        <time>2020-06-28T08:43:58.000Z</time>
      </trkpt>
      <trkpt lat="45.59918" lon="4.87897">
        <ele>340.6</ele>
        <time>2020-06-28T08:44:03.000Z</time>
      </trkpt>
      <trkpt lat="45.59912" lon="4.87955">
        <ele>337.7</ele>
        <time>2020-06-28T08:44:09.000Z</time>
      </trkpt>
      <trkpt lat="45.5991" lon="4.87965">
        <ele>337</ele>
        <time>2020-06-28T08:44:10.000Z</time>
      </trkpt>
      <trkpt lat="45.59907" lon="4.87999">
        <ele>335.1</ele>
        <time>2020-06-28T08:44:13.000Z</time>
      </trkpt>
      <trkpt lat="45.59903" lon="4.88033">
        <ele>333.1</ele>
        <time>2020-06-28T08:44:16.000Z</time>
      </trkpt>
      <trkpt lat="45.599" lon="4.88045">
        <ele>332.5</ele>
        <time>2020-06-28T08:44:17.000Z</time>
      </trkpt>
      <trkpt lat="45.59892" lon="4.88066">
        <ele>332</ele>
        <time>2020-06-28T08:44:19.000Z</time>
      </trkpt>
      <trkpt lat="45.59888" lon="4.88075">
        <ele>332</ele>
        <time>2020-06-28T08:44:20.000Z</time>
      </trkpt>
      <trkpt lat="45.59884" lon="4.88083">
        <ele>332.2</ele>
        <time>2020-06-28T08:44:21.000Z</time>
      </trkpt>
      <trkpt lat="45.59872" lon="4.88104">
        <ele>333.2</ele>
        <time>2020-06-28T08:44:24.000Z</time>
      </trkpt>
      <trkpt lat="45.59869" lon="4.88118">
        <ele>334.2</ele>
        <time>2020-06-28T08:44:27.000Z</time>
      </trkpt>
      <trkpt lat="45.59871" lon="4.88127">
        <ele>334.4</ele>
        <time>2020-06-28T08:44:30.000Z</time>
      </trkpt>
      <trkpt lat="45.59872" lon="4.8813">
        <ele>334.5</ele>
        <time>2020-06-28T08:44:31.000Z</time>
      </trkpt>
      <trkpt lat="45.59873" lon="4.88133">
        <ele>334.6</ele>
        <time>2020-06-28T08:44:32.000Z</time>
      </trkpt>
      <trkpt lat="45.59874" lon="4.88137">
        <ele>334.7</ele>
        <time>2020-06-28T08:44:33.000Z</time>
      </trkpt>
      <trkpt lat="45.59876" lon="4.88144">
        <ele>335</ele>
        <time>2020-06-28T08:44:35.000Z</time>
      </trkpt>
      <trkpt lat="45.59881" lon="4.88162">
        <ele>335.5</ele>
        <time>2020-06-28T08:44:39.000Z</time>
      </trkpt>
      <trkpt lat="45.59883" lon="4.88172">
        <ele>335.8</ele>
        <time>2020-06-28T08:44:41.000Z</time>
      </trkpt>
      <trkpt lat="45.59889" lon="4.88191">
        <ele>336.4</ele>
        <time>2020-06-28T08:44:45.000Z</time>
      </trkpt>
      <trkpt lat="45.59894" lon="4.88212">
        <ele>337</ele>
        <time>2020-06-28T08:44:49.000Z</time>
      </trkpt>
      <trkpt lat="45.59898" lon="4.88228">
        <ele>337.3</ele>
        <time>2020-06-28T08:44:52.000Z</time>
      </trkpt>
      <trkpt lat="45.59901" lon="4.88238">
        <ele>337.5</ele>
        <time>2020-06-28T08:44:54.000Z</time>
      </trkpt>
      <trkpt lat="45.59907" lon="4.8826">
        <ele>337.6</ele>
        <time>2020-06-28T08:44:58.000Z</time>
      </trkpt>
      <trkpt lat="45.59917" lon="4.88309">
        <ele>336.4</ele>
        <time>2020-06-28T08:45:06.000Z</time>
      </trkpt>
      <trkpt lat="45.59917" lon="4.88317">
        <ele>336.1</ele>
        <time>2020-06-28T08:45:07.000Z</time>
      </trkpt>
      <trkpt lat="45.5992" lon="4.88342">
        <ele>335.1</ele>
        <time>2020-06-28T08:45:10.000Z</time>
      </trkpt>
      <trkpt lat="45.59925" lon="4.88382">
        <ele>333.5</ele>
        <time>2020-06-28T08:45:15.000Z</time>
      </trkpt>
      <trkpt lat="45.59927" lon="4.88391">
        <ele>333.2</ele>
        <time>2020-06-28T08:45:16.000Z</time>
      </trkpt>
      <trkpt lat="45.59929" lon="4.884">
        <ele>332.9</ele>
        <time>2020-06-28T08:45:17.000Z</time>
      </trkpt>
      <trkpt lat="45.59931" lon="4.88417">
        <ele>332.3</ele>
        <time>2020-06-28T08:45:19.000Z</time>
      </trkpt>
      <trkpt lat="45.59932" lon="4.88426">
        <ele>332</ele>
        <time>2020-06-28T08:45:20.000Z</time>
      </trkpt>
      <trkpt lat="45.5993" lon="4.88443">
        <ele>331.4</ele>
        <time>2020-06-28T08:45:22.000Z</time>
      </trkpt>
      <trkpt lat="45.59925" lon="4.88457">
        <ele>330.8</ele>
        <time>2020-06-28T08:45:24.000Z</time>
      </trkpt>
      <trkpt lat="45.59922" lon="4.88464">
        <ele>330.6</ele>
        <time>2020-06-28T08:45:25.000Z</time>
      </trkpt>
      <trkpt lat="45.5992" lon="4.88474">
        <ele>330.3</ele>
        <time>2020-06-28T08:45:26.000Z</time>
      </trkpt>
      <trkpt lat="45.59918" lon="4.88483">
        <ele>330.1</ele>
        <time>2020-06-28T08:45:27.000Z</time>
      </trkpt>
      <trkpt lat="45.59917" lon="4.88498">
        <ele>329.8</ele>
        <time>2020-06-28T08:45:29.000Z</time>
      </trkpt>
      <trkpt lat="45.59929" lon="4.88516">
        <ele>329.4</ele>
        <time>2020-06-28T08:45:32.000Z</time>
      </trkpt>
      <trkpt lat="45.59933" lon="4.88521">
        <ele>329.4</ele>
        <time>2020-06-28T08:45:33.000Z</time>
      </trkpt>
      <trkpt lat="45.5995" lon="4.88541">
        <ele>329.8</ele>
        <time>2020-06-28T08:45:37.000Z</time>
      </trkpt>
      <trkpt lat="45.59957" lon="4.88551">
        <ele>330.6</ele>
        <time>2020-06-28T08:45:40.000Z</time>
      </trkpt>
      <trkpt lat="45.5996" lon="4.88552">
        <ele>330.8</ele>
        <time>2020-06-28T08:45:41.000Z</time>
      </trkpt>
      <trkpt lat="45.59969" lon="4.88558">
        <ele>332.5</ele>
        <time>2020-06-28T08:45:44.000Z</time>
      </trkpt>
      <trkpt lat="45.59974" lon="4.8856">
        <ele>333.2</ele>
        <time>2020-06-28T08:45:46.000Z</time>
      </trkpt>
      <trkpt lat="45.59976" lon="4.88561">
        <ele>333.5</ele>
        <time>2020-06-28T08:45:47.000Z</time>
      </trkpt>
      <trkpt lat="45.5998" lon="4.88566">
        <ele>334.1</ele>
        <time>2020-06-28T08:45:49.000Z</time>
      </trkpt>
      <trkpt lat="45.59982" lon="4.88567">
        <ele>334.4</ele>
        <time>2020-06-28T08:45:50.000Z</time>
      </trkpt>
      <trkpt lat="45.59985" lon="4.88569">
        <ele>334.7</ele>
        <time>2020-06-28T08:45:51.000Z</time>
      </trkpt>
      <trkpt lat="45.59989" lon="4.88572">
        <ele>335.3</ele>
        <time>2020-06-28T08:45:53.000Z</time>
      </trkpt>
      <trkpt lat="45.59998" lon="4.88574">
        <ele>336.3</ele>
        <time>2020-06-28T08:45:57.000Z</time>
      </trkpt>
      <trkpt lat="45.60007" lon="4.88578">
        <ele>337.5</ele>
        <time>2020-06-28T08:46:01.000Z</time>
      </trkpt>
      <trkpt lat="45.60009" lon="4.8858">
        <ele>337.7</ele>
        <time>2020-06-28T08:46:02.000Z</time>
      </trkpt>
      <trkpt lat="45.60014" lon="4.88581">
        <ele>338.3</ele>
        <time>2020-06-28T08:46:04.000Z</time>
      </trkpt>
      <trkpt lat="45.60021" lon="4.88584">
        <ele>339</ele>
        <time>2020-06-28T08:46:07.000Z</time>
      </trkpt>
      <trkpt lat="45.6003" lon="4.88589">
        <ele>339.9</ele>
        <time>2020-06-28T08:46:11.000Z</time>
      </trkpt>
      <trkpt lat="45.60039" lon="4.88595">
        <ele>340.8</ele>
        <time>2020-06-28T08:46:16.000Z</time>
      </trkpt>
      <trkpt lat="45.60046" lon="4.88603">
        <ele>341.7</ele>
        <time>2020-06-28T08:46:20.000Z</time>
      </trkpt>
      <trkpt lat="45.60051" lon="4.88609">
        <ele>342.3</ele>
        <time>2020-06-28T08:46:23.000Z</time>
      </trkpt>
      <trkpt lat="45.60054" lon="4.88613">
        <ele>342.7</ele>
        <time>2020-06-28T08:46:25.000Z</time>
      </trkpt>
      <trkpt lat="45.60058" lon="4.8862">
        <ele>343.2</ele>
        <time>2020-06-28T08:46:28.000Z</time>
      </trkpt>
      <trkpt lat="45.60061" lon="4.88627">
        <ele>343.8</ele>
        <time>2020-06-28T08:46:31.000Z</time>
      </trkpt>
      <trkpt lat="45.60064" lon="4.88634">
        <ele>344.3</ele>
        <time>2020-06-28T08:46:34.000Z</time>
      </trkpt>
      <trkpt lat="45.6007" lon="4.8864">
        <ele>344.9</ele>
        <time>2020-06-28T08:46:37.000Z</time>
      </trkpt>
      <trkpt lat="45.60076" lon="4.88643">
        <ele>345.4</ele>
        <time>2020-06-28T08:46:39.000Z</time>
      </trkpt>
      <trkpt lat="45.60091" lon="4.88647">
        <ele>346.4</ele>
        <time>2020-06-28T08:46:44.000Z</time>
      </trkpt>
      <trkpt lat="45.60094" lon="4.88647">
        <ele>346.6</ele>
        <time>2020-06-28T08:46:45.000Z</time>
      </trkpt>
      <trkpt lat="45.60108" lon="4.88652">
        <ele>347.5</ele>
        <time>2020-06-28T08:46:50.000Z</time>
      </trkpt>
      <trkpt lat="45.60112" lon="4.88653">
        <ele>347.7</ele>
        <time>2020-06-28T08:46:51.000Z</time>
      </trkpt>
      <trkpt lat="45.60128" lon="4.88657">
        <ele>348.7</ele>
        <time>2020-06-28T08:46:56.000Z</time>
      </trkpt>
      <trkpt lat="45.60134" lon="4.88659">
        <ele>349</ele>
        <time>2020-06-28T08:46:58.000Z</time>
      </trkpt>
      <trkpt lat="45.60145" lon="4.88661">
        <ele>349.5</ele>
        <time>2020-06-28T08:47:02.000Z</time>
      </trkpt>
      <trkpt lat="45.60157" lon="4.88663">
        <ele>349.9</ele>
        <time>2020-06-28T08:47:06.000Z</time>
      </trkpt>
      <trkpt lat="45.60167" lon="4.88665">
        <ele>350</ele>
        <time>2020-06-28T08:47:09.000Z</time>
      </trkpt>
      <trkpt lat="45.60176" lon="4.88675">
        <ele>350.1</ele>
        <time>2020-06-28T08:47:13.000Z</time>
      </trkpt>
      <trkpt lat="45.60177" lon="4.88678">
        <ele>350.1</ele>
        <time>2020-06-28T08:47:14.000Z</time>
      </trkpt>
      <trkpt lat="45.60176" lon="4.88688">
        <ele>349.7</ele>
        <time>2020-06-28T08:47:17.000Z</time>
      </trkpt>
      <trkpt lat="45.60169" lon="4.88716">
        <ele>349.1</ele>
        <time>2020-06-28T08:47:24.000Z</time>
      </trkpt>
      <trkpt lat="45.60158" lon="4.88751">
        <ele>348.6</ele>
        <time>2020-06-28T08:47:31.000Z</time>
      </trkpt>
      <trkpt lat="45.60152" lon="4.88776">
        <ele>348.7</ele>
        <time>2020-06-28T08:47:36.000Z</time>
      </trkpt>
      <trkpt lat="45.6015" lon="4.88785">
        <ele>348.8</ele>
        <time>2020-06-28T08:47:38.000Z</time>
      </trkpt>
      <trkpt lat="45.60149" lon="4.88803">
        <ele>349.3</ele>
        <time>2020-06-28T08:47:42.000Z</time>
      </trkpt>
      <trkpt lat="45.60149" lon="4.88813">
        <ele>349.7</ele>
        <time>2020-06-28T08:47:44.000Z</time>
      </trkpt>
      <trkpt lat="45.60153" lon="4.88847">
        <ele>351.2</ele>
        <time>2020-06-28T08:47:52.000Z</time>
      </trkpt>
      <trkpt lat="45.60154" lon="4.88861">
        <ele>351.8</ele>
        <time>2020-06-28T08:47:55.000Z</time>
      </trkpt>
      <trkpt lat="45.60156" lon="4.8888">
        <ele>352.4</ele>
        <time>2020-06-28T08:47:59.000Z</time>
      </trkpt>
      <trkpt lat="45.60157" lon="4.88894">
        <ele>352.8</ele>
        <time>2020-06-28T08:48:02.000Z</time>
      </trkpt>
      <trkpt lat="45.6016" lon="4.88924">
        <ele>353.7</ele>
        <time>2020-06-28T08:48:08.000Z</time>
      </trkpt>
      <trkpt lat="45.60162" lon="4.88943">
        <ele>354.3</ele>
        <time>2020-06-28T08:48:12.000Z</time>
      </trkpt>
      <trkpt lat="45.60162" lon="4.88959">
        <ele>354.7</ele>
        <time>2020-06-28T08:48:15.000Z</time>
      </trkpt>
      <trkpt lat="45.60161" lon="4.88982">
        <ele>355.2</ele>
        <time>2020-06-28T08:48:19.000Z</time>
      </trkpt>
      <trkpt lat="45.6016" lon="4.88988">
        <ele>355.3</ele>
        <time>2020-06-28T08:48:20.000Z</time>
      </trkpt>
      <trkpt lat="45.60154" lon="4.89044">
        <ele>356.6</ele>
        <time>2020-06-28T08:48:29.000Z</time>
      </trkpt>
      <trkpt lat="45.60153" lon="4.89089">
        <ele>357.6</ele>
        <time>2020-06-28T08:48:36.000Z</time>
      </trkpt>
      <trkpt lat="45.60153" lon="4.89095">
        <ele>357.7</ele>
        <time>2020-06-28T08:48:37.000Z</time>
      </trkpt>
      <trkpt lat="45.60154" lon="4.89114">
        <ele>358.1</ele>
        <time>2020-06-28T08:48:40.000Z</time>
      </trkpt>
      <trkpt lat="45.60159" lon="4.89166">
        <ele>359.7</ele>
        <time>2020-06-28T08:48:49.000Z</time>
      </trkpt>
      <trkpt lat="45.60161" lon="4.89176">
        <ele>360.1</ele>
        <time>2020-06-28T08:48:51.000Z</time>
      </trkpt>
      <trkpt lat="45.60164" lon="4.89196">
        <ele>360.6</ele>
        <time>2020-06-28T08:48:55.000Z</time>
      </trkpt>
      <trkpt lat="45.60168" lon="4.89215">
        <ele>361</ele>
        <time>2020-06-28T08:48:59.000Z</time>
      </trkpt>
      <trkpt lat="45.6017" lon="4.8922">
        <ele>361.1</ele>
        <time>2020-06-28T08:49:00.000Z</time>
      </trkpt>
      <trkpt lat="45.6018" lon="4.8926">
        <ele>361.2</ele>
        <time>2020-06-28T08:49:08.000Z</time>
      </trkpt>
      <trkpt lat="45.60192" lon="4.89304">
        <ele>360.1</ele>
        <time>2020-06-28T08:49:15.000Z</time>
      </trkpt>
      <trkpt lat="45.60204" lon="4.89344">
        <ele>358.7</ele>
        <time>2020-06-28T08:49:20.000Z</time>
      </trkpt>
      <trkpt lat="45.60208" lon="4.89352">
        <ele>358.4</ele>
        <time>2020-06-28T08:49:21.000Z</time>
      </trkpt>
      <trkpt lat="45.60223" lon="4.89373">
        <ele>357.5</ele>
        <time>2020-06-28T08:49:24.000Z</time>
      </trkpt>
      <trkpt lat="45.60229" lon="4.89379">
        <ele>357.2</ele>
        <time>2020-06-28T08:49:25.000Z</time>
      </trkpt>
      <trkpt lat="45.60235" lon="4.89385">
        <ele>357</ele>
        <time>2020-06-28T08:49:26.000Z</time>
      </trkpt>
      <trkpt lat="45.60255" lon="4.89412">
        <ele>356.3</ele>
        <time>2020-06-28T08:49:30.000Z</time>
      </trkpt>
      <trkpt lat="45.60263" lon="4.89436">
        <ele>355.8</ele>
        <time>2020-06-28T08:49:33.000Z</time>
      </trkpt>
      <trkpt lat="45.60265" lon="4.89444">
        <ele>355.7</ele>
        <time>2020-06-28T08:49:34.000Z</time>
      </trkpt>
      <trkpt lat="45.60267" lon="4.89468">
        <ele>355.3</ele>
        <time>2020-06-28T08:49:37.000Z</time>
      </trkpt>
      <trkpt lat="45.60269" lon="4.89492">
        <ele>354.8</ele>
        <time>2020-06-28T08:49:40.000Z</time>
      </trkpt>
      <trkpt lat="45.60269" lon="4.895">
        <ele>354.6</ele>
        <time>2020-06-28T08:49:41.000Z</time>
      </trkpt>
      <trkpt lat="45.6027" lon="4.89517">
        <ele>354.2</ele>
        <time>2020-06-28T08:49:43.000Z</time>
      </trkpt>
      <trkpt lat="45.60272" lon="4.89534">
        <ele>353.7</ele>
        <time>2020-06-28T08:49:45.000Z</time>
      </trkpt>
      <trkpt lat="45.60274" lon="4.89542">
        <ele>353.5</ele>
        <time>2020-06-28T08:49:46.000Z</time>
      </trkpt>
      <trkpt lat="45.60277" lon="4.8955">
        <ele>353.3</ele>
        <time>2020-06-28T08:49:47.000Z</time>
      </trkpt>
      <trkpt lat="45.60288" lon="4.8958">
        <ele>352.7</ele>
        <time>2020-06-28T08:49:51.000Z</time>
      </trkpt>
      <trkpt lat="45.60291" lon="4.89587">
        <ele>352.6</ele>
        <time>2020-06-28T08:49:52.000Z</time>
      </trkpt>
      <trkpt lat="45.60294" lon="4.89594">
        <ele>352.5</ele>
        <time>2020-06-28T08:49:53.000Z</time>
      </trkpt>
      <trkpt lat="45.60307" lon="4.89626">
        <ele>352.1</ele>
        <time>2020-06-28T08:49:58.000Z</time>
      </trkpt>
      <trkpt lat="45.60313" lon="4.89638">
        <ele>351.9</ele>
        <time>2020-06-28T08:50:00.000Z</time>
      </trkpt>
      <trkpt lat="45.60316" lon="4.89643">
        <ele>351.8</ele>
        <time>2020-06-28T08:50:01.000Z</time>
      </trkpt>
      <trkpt lat="45.60334" lon="4.89667">
        <ele>351.4</ele>
        <time>2020-06-28T08:50:06.000Z</time>
      </trkpt>
      <trkpt lat="45.60338" lon="4.89671">
        <ele>351.3</ele>
        <time>2020-06-28T08:50:07.000Z</time>
      </trkpt>
      <trkpt lat="45.60369" lon="4.897">
        <ele>350.4</ele>
        <time>2020-06-28T08:50:14.000Z</time>
      </trkpt>
      <trkpt lat="45.60378" lon="4.8971">
        <ele>349.9</ele>
        <time>2020-06-28T08:50:16.000Z</time>
      </trkpt>
      <trkpt lat="45.60398" lon="4.89733">
        <ele>348.5</ele>
        <time>2020-06-28T08:50:20.000Z</time>
      </trkpt>
      <trkpt lat="45.60409" lon="4.89746">
        <ele>347.7</ele>
        <time>2020-06-28T08:50:22.000Z</time>
      </trkpt>
      <trkpt lat="45.60421" lon="4.89759">
        <ele>346.8</ele>
        <time>2020-06-28T08:50:24.000Z</time>
      </trkpt>
      <trkpt lat="45.60433" lon="4.89773">
        <ele>345.9</ele>
        <time>2020-06-28T08:50:26.000Z</time>
      </trkpt>
      <trkpt lat="45.60444" lon="4.89787">
        <ele>345</ele>
        <time>2020-06-28T08:50:28.000Z</time>
      </trkpt>
      <trkpt lat="45.60455" lon="4.89802">
        <ele>343.9</ele>
        <time>2020-06-28T08:50:30.000Z</time>
      </trkpt>
      <trkpt lat="45.60465" lon="4.89819">
        <ele>342.6</ele>
        <time>2020-06-28T08:50:32.000Z</time>
      </trkpt>
      <trkpt lat="45.60475" lon="4.89837">
        <ele>341</ele>
        <time>2020-06-28T08:50:34.000Z</time>
      </trkpt>
      <trkpt lat="45.60487" lon="4.89857">
        <ele>339.1</ele>
        <time>2020-06-28T08:50:36.000Z</time>
      </trkpt>
      <trkpt lat="45.60493" lon="4.89867">
        <ele>338.1</ele>
        <time>2020-06-28T08:50:37.000Z</time>
      </trkpt>
      <trkpt lat="45.60509" lon="4.89886">
        <ele>335.8</ele>
        <time>2020-06-28T08:50:39.000Z</time>
      </trkpt>
      <trkpt lat="45.60516" lon="4.89895">
        <ele>334.7</ele>
        <time>2020-06-28T08:50:40.000Z</time>
      </trkpt>
      <trkpt lat="45.60523" lon="4.89904">
        <ele>333.8</ele>
        <time>2020-06-28T08:50:41.000Z</time>
      </trkpt>
      <trkpt lat="45.60529" lon="4.89912">
        <ele>333</ele>
        <time>2020-06-28T08:50:42.000Z</time>
      </trkpt>
      <trkpt lat="45.60534" lon="4.8992">
        <ele>332.4</ele>
        <time>2020-06-28T08:50:43.000Z</time>
      </trkpt>
      <trkpt lat="45.60538" lon="4.89926">
        <ele>331.8</ele>
        <time>2020-06-28T08:50:44.000Z</time>
      </trkpt>
      <trkpt lat="45.60541" lon="4.89931">
        <ele>331.4</ele>
        <time>2020-06-28T08:50:45.000Z</time>
      </trkpt>
      <trkpt lat="45.60543" lon="4.89936">
        <ele>331.1</ele>
        <time>2020-06-28T08:50:46.000Z</time>
      </trkpt>
      <trkpt lat="45.60549" lon="4.89945">
        <ele>330.4</ele>
        <time>2020-06-28T08:50:48.000Z</time>
      </trkpt>
      <trkpt lat="45.60556" lon="4.89959">
        <ele>329.5</ele>
        <time>2020-06-28T08:50:50.000Z</time>
      </trkpt>
      <trkpt lat="45.60565" lon="4.89974">
        <ele>328.8</ele>
        <time>2020-06-28T08:50:52.000Z</time>
      </trkpt>
      <trkpt lat="45.60578" lon="4.89999">
        <ele>328.2</ele>
        <time>2020-06-28T08:50:55.000Z</time>
      </trkpt>
      <trkpt lat="45.60587" lon="4.90015">
        <ele>328.1</ele>
        <time>2020-06-28T08:50:57.000Z</time>
      </trkpt>
      <trkpt lat="45.60596" lon="4.90031">
        <ele>328.2</ele>
        <time>2020-06-28T08:50:59.000Z</time>
      </trkpt>
      <trkpt lat="45.606" lon="4.90039">
        <ele>328.3</ele>
        <time>2020-06-28T08:51:00.000Z</time>
      </trkpt>
      <trkpt lat="45.60603" lon="4.90046">
        <ele>328.5</ele>
        <time>2020-06-28T08:51:01.000Z</time>
      </trkpt>
      <trkpt lat="45.6061" lon="4.90059">
        <ele>328.9</ele>
        <time>2020-06-28T08:51:03.000Z</time>
      </trkpt>
      <trkpt lat="45.60616" lon="4.90071">
        <ele>329.5</ele>
        <time>2020-06-28T08:51:05.000Z</time>
      </trkpt>
      <trkpt lat="45.60623" lon="4.90087">
        <ele>330.3</ele>
        <time>2020-06-28T08:51:08.000Z</time>
      </trkpt>
      <trkpt lat="45.60628" lon="4.90103">
        <ele>331</ele>
        <time>2020-06-28T08:51:11.000Z</time>
      </trkpt>
      <trkpt lat="45.60631" lon="4.90114">
        <ele>331.5</ele>
        <time>2020-06-28T08:51:13.000Z</time>
      </trkpt>
      <trkpt lat="45.60633" lon="4.90137">
        <ele>332.4</ele>
        <time>2020-06-28T08:51:17.000Z</time>
      </trkpt>
      <trkpt lat="45.60634" lon="4.90142">
        <ele>332.6</ele>
        <time>2020-06-28T08:51:18.000Z</time>
      </trkpt>
      <trkpt lat="45.60635" lon="4.90159">
        <ele>333</ele>
        <time>2020-06-28T08:51:21.000Z</time>
      </trkpt>
      <trkpt lat="45.60635" lon="4.9017">
        <ele>333.2</ele>
        <time>2020-06-28T08:51:23.000Z</time>
      </trkpt>
      <trkpt lat="45.60632" lon="4.90185">
        <ele>333.3</ele>
        <time>2020-06-28T08:51:26.000Z</time>
      </trkpt>
      <trkpt lat="45.6063" lon="4.90195">
        <ele>333.3</ele>
        <time>2020-06-28T08:51:28.000Z</time>
      </trkpt>
      <trkpt lat="45.60626" lon="4.90217">
        <ele>333</ele>
        <time>2020-06-28T08:51:32.000Z</time>
      </trkpt>
      <trkpt lat="45.60623" lon="4.90229">
        <ele>332.7</ele>
        <time>2020-06-28T08:51:34.000Z</time>
      </trkpt>
      <trkpt lat="45.60622" lon="4.90234">
        <ele>332.5</ele>
        <time>2020-06-28T08:51:35.000Z</time>
      </trkpt>
      <trkpt lat="45.60617" lon="4.90284">
        <ele>331.1</ele>
        <time>2020-06-28T08:51:42.000Z</time>
      </trkpt>
      <trkpt lat="45.6062" lon="4.90335">
        <ele>329.4</ele>
        <time>2020-06-28T08:51:48.000Z</time>
      </trkpt>
      <trkpt lat="45.6062" lon="4.90352">
        <ele>329.1</ele>
        <time>2020-06-28T08:51:50.000Z</time>
      </trkpt>
      <trkpt lat="45.60623" lon="4.90387">
        <ele>328.2</ele>
        <time>2020-06-28T08:51:54.000Z</time>
      </trkpt>
      <trkpt lat="45.60629" lon="4.9042">
        <ele>327.8</ele>
        <time>2020-06-28T08:51:58.000Z</time>
      </trkpt>
      <trkpt lat="45.60634" lon="4.90436">
        <ele>327.6</ele>
        <time>2020-06-28T08:52:00.000Z</time>
      </trkpt>
      <trkpt lat="45.60642" lon="4.90459">
        <ele>327.4</ele>
        <time>2020-06-28T08:52:03.000Z</time>
      </trkpt>
      <trkpt lat="45.60648" lon="4.90474">
        <ele>327.3</ele>
        <time>2020-06-28T08:52:05.000Z</time>
      </trkpt>
      <trkpt lat="45.6065" lon="4.90481">
        <ele>327.3</ele>
        <time>2020-06-28T08:52:06.000Z</time>
      </trkpt>
      <trkpt lat="45.60653" lon="4.90489">
        <ele>327.3</ele>
        <time>2020-06-28T08:52:07.000Z</time>
      </trkpt>
      <trkpt lat="45.60663" lon="4.90536">
        <ele>327.1</ele>
        <time>2020-06-28T08:52:13.000Z</time>
      </trkpt>
      <trkpt lat="45.60665" lon="4.90552">
        <ele>327.1</ele>
        <time>2020-06-28T08:52:15.000Z</time>
      </trkpt>
      <trkpt lat="45.60667" lon="4.90576">
        <ele>327</ele>
        <time>2020-06-28T08:52:18.000Z</time>
      </trkpt>
      <trkpt lat="45.60668" lon="4.906">
        <ele>326.8</ele>
        <time>2020-06-28T08:52:21.000Z</time>
      </trkpt>
      <trkpt lat="45.6067" lon="4.90672">
        <ele>326.5</ele>
        <time>2020-06-28T08:52:30.000Z</time>
      </trkpt>
      <trkpt lat="45.60671" lon="4.9068">
        <ele>326.4</ele>
        <time>2020-06-28T08:52:31.000Z</time>
      </trkpt>
      <trkpt lat="45.60672" lon="4.9072">
        <ele>326.2</ele>
        <time>2020-06-28T08:52:36.000Z</time>
      </trkpt>
      <trkpt lat="45.60673" lon="4.90754">
        <ele>325.8</ele>
        <time>2020-06-28T08:52:40.000Z</time>
      </trkpt>
      <trkpt lat="45.60678" lon="4.90813">
        <ele>325.3</ele>
        <time>2020-06-28T08:52:47.000Z</time>
      </trkpt>
      <trkpt lat="45.60681" lon="4.90829">
        <ele>325.2</ele>
        <time>2020-06-28T08:52:49.000Z</time>
      </trkpt>
      <trkpt lat="45.60687" lon="4.90871">
        <ele>325</ele>
        <time>2020-06-28T08:52:54.000Z</time>
      </trkpt>
      <trkpt lat="45.60693" lon="4.9092">
        <ele>324.8</ele>
        <time>2020-06-28T08:53:00.000Z</time>
      </trkpt>
      <trkpt lat="45.60694" lon="4.90928">
        <ele>324.8</ele>
        <time>2020-06-28T08:53:01.000Z</time>
      </trkpt>
      <trkpt lat="45.60697" lon="4.91">
        <ele>324.9</ele>
        <time>2020-06-28T08:53:10.000Z</time>
      </trkpt>
      <trkpt lat="45.60701" lon="4.91039">
        <ele>325.2</ele>
        <time>2020-06-28T08:53:15.000Z</time>
      </trkpt>
      <trkpt lat="45.60703" lon="4.91054">
        <ele>325.4</ele>
        <time>2020-06-28T08:53:17.000Z</time>
      </trkpt>
      <trkpt lat="45.60712" lon="4.91103">
        <ele>325.9</ele>
        <time>2020-06-28T08:53:24.000Z</time>
      </trkpt>
      <trkpt lat="45.60714" lon="4.91116">
        <ele>326.1</ele>
        <time>2020-06-28T08:53:26.000Z</time>
      </trkpt>
      <trkpt lat="45.60716" lon="4.91145">
        <ele>326.5</ele>
        <time>2020-06-28T08:53:30.000Z</time>
      </trkpt>
      <trkpt lat="45.60716" lon="4.91173">
        <ele>326.9</ele>
        <time>2020-06-28T08:53:34.000Z</time>
      </trkpt>
      <trkpt lat="45.60715" lon="4.9118">
        <ele>327.1</ele>
        <time>2020-06-28T08:53:35.000Z</time>
      </trkpt>
      <trkpt lat="45.60715" lon="4.91187">
        <ele>327.2</ele>
        <time>2020-06-28T08:53:36.000Z</time>
      </trkpt>
      <trkpt lat="45.60714" lon="4.91193">
        <ele>327.4</ele>
        <time>2020-06-28T08:53:37.000Z</time>
      </trkpt>
      <trkpt lat="45.60707" lon="4.91205">
        <ele>328.1</ele>
        <time>2020-06-28T08:53:40.000Z</time>
      </trkpt>
      <trkpt lat="45.60695" lon="4.91205">
        <ele>328.3</ele>
        <time>2020-06-28T08:53:43.000Z</time>
      </trkpt>
      <trkpt lat="45.60692" lon="4.91204">
        <ele>328.4</ele>
        <time>2020-06-28T08:53:44.000Z</time>
      </trkpt>
      <trkpt lat="45.60679" lon="4.91204">
        <ele>328.7</ele>
        <time>2020-06-28T08:53:47.000Z</time>
      </trkpt>
      <trkpt lat="45.60675" lon="4.91203">
        <ele>328.9</ele>
        <time>2020-06-28T08:53:48.000Z</time>
      </trkpt>
      <trkpt lat="45.60666" lon="4.91203">
        <ele>329.1</ele>
        <time>2020-06-28T08:53:50.000Z</time>
      </trkpt>
      <trkpt lat="45.60649" lon="4.91202">
        <ele>329.5</ele>
        <time>2020-06-28T08:53:54.000Z</time>
      </trkpt>
      <trkpt lat="45.60631" lon="4.91201">
        <ele>330</ele>
        <time>2020-06-28T08:53:58.000Z</time>
      </trkpt>
      <trkpt lat="45.60622" lon="4.912">
        <ele>330.2</ele>
        <time>2020-06-28T08:54:00.000Z</time>
      </trkpt>
      <trkpt lat="45.60592" lon="4.91203">
        <ele>331.2</ele>
        <time>2020-06-28T08:54:07.000Z</time>
      </trkpt>
      <trkpt lat="45.60566" lon="4.9121">
        <ele>331.9</ele>
        <time>2020-06-28T08:54:13.000Z</time>
      </trkpt>
      <trkpt lat="45.60558" lon="4.91212">
        <ele>332.2</ele>
        <time>2020-06-28T08:54:15.000Z</time>
      </trkpt>
      <trkpt lat="45.60539" lon="4.91217">
        <ele>332.7</ele>
        <time>2020-06-28T08:54:20.000Z</time>
      </trkpt>
      <trkpt lat="45.60527" lon="4.91219">
        <ele>332.7</ele>
        <time>2020-06-28T08:54:23.000Z</time>
      </trkpt>
      <trkpt lat="45.60501" lon="4.91223">
        <ele>332.4</ele>
        <time>2020-06-28T08:54:29.000Z</time>
      </trkpt>
      <trkpt lat="45.60472" lon="4.91226">
        <ele>332</ele>
        <time>2020-06-28T08:54:35.000Z</time>
      </trkpt>
      <trkpt lat="45.60449" lon="4.91226">
        <ele>332.1</ele>
        <time>2020-06-28T08:54:39.000Z</time>
      </trkpt>
      <trkpt lat="45.60438" lon="4.91222">
        <ele>332.2</ele>
        <time>2020-06-28T08:54:41.000Z</time>
      </trkpt>
      <trkpt lat="45.60408" lon="4.91201">
        <ele>332.8</ele>
        <time>2020-06-28T08:54:47.000Z</time>
      </trkpt>
      <trkpt lat="45.60395" lon="4.91191">
        <ele>333.2</ele>
        <time>2020-06-28T08:54:50.000Z</time>
      </trkpt>
      <trkpt lat="45.60385" lon="4.91187">
        <ele>333.4</ele>
        <time>2020-06-28T08:54:52.000Z</time>
      </trkpt>
      <trkpt lat="45.60367" lon="4.91186">
        <ele>333.9</ele>
        <time>2020-06-28T08:54:56.000Z</time>
      </trkpt>
      <trkpt lat="45.60358" lon="4.91181">
        <ele>334.2</ele>
        <time>2020-06-28T08:54:59.000Z</time>
      </trkpt>
      <trkpt lat="45.60357" lon="4.91178">
        <ele>334.2</ele>
        <time>2020-06-28T08:55:00.000Z</time>
      </trkpt>
      <trkpt lat="45.60357" lon="4.91175">
        <ele>334.2</ele>
        <time>2020-06-28T08:55:01.000Z</time>
      </trkpt>
      <trkpt lat="45.60359" lon="4.91167">
        <ele>334.1</ele>
        <time>2020-06-28T08:55:03.000Z</time>
      </trkpt>
      <trkpt lat="45.60359" lon="4.91162">
        <ele>334.1</ele>
        <time>2020-06-28T08:55:04.000Z</time>
      </trkpt>
      <trkpt lat="45.60361" lon="4.91151">
        <ele>333.8</ele>
        <time>2020-06-28T08:55:06.000Z</time>
      </trkpt>
      <trkpt lat="45.60365" lon="4.91133">
        <ele>333</ele>
        <time>2020-06-28T08:55:10.000Z</time>
      </trkpt>
      <trkpt lat="45.60373" lon="4.91118">
        <ele>332</ele>
        <time>2020-06-28T08:55:14.000Z</time>
      </trkpt>
      <trkpt lat="45.60374" lon="4.91113">
        <ele>331.7</ele>
        <time>2020-06-28T08:55:15.000Z</time>
      </trkpt>
      <trkpt lat="45.60376" lon="4.91093">
        <ele>330.7</ele>
        <time>2020-06-28T08:55:18.000Z</time>
      </trkpt>
      <trkpt lat="45.60375" lon="4.91086">
        <ele>330.4</ele>
        <time>2020-06-28T08:55:19.000Z</time>
      </trkpt>
      <trkpt lat="45.60374" lon="4.91075">
        <ele>329.9</ele>
        <time>2020-06-28T08:55:21.000Z</time>
      </trkpt>
      <trkpt lat="45.60373" lon="4.91069">
        <ele>329.7</ele>
        <time>2020-06-28T08:55:22.000Z</time>
      </trkpt>
      <trkpt lat="45.60372" lon="4.91064">
        <ele>329.5</ele>
        <time>2020-06-28T08:55:23.000Z</time>
      </trkpt>
      <trkpt lat="45.60373" lon="4.91058">
        <ele>329.3</ele>
        <time>2020-06-28T08:55:24.000Z</time>
      </trkpt>
      <trkpt lat="45.60375" lon="4.91052">
        <ele>329.1</ele>
        <time>2020-06-28T08:55:25.000Z</time>
      </trkpt>
      <trkpt lat="45.60377" lon="4.91047">
        <ele>328.8</ele>
        <time>2020-06-28T08:55:26.000Z</time>
      </trkpt>
      <trkpt lat="45.60383" lon="4.91039">
        <ele>328.3</ele>
        <time>2020-06-28T08:55:28.000Z</time>
      </trkpt>
      <trkpt lat="45.60387" lon="4.91036">
        <ele>327.9</ele>
        <time>2020-06-28T08:55:29.000Z</time>
      </trkpt>
      <trkpt lat="45.60396" lon="4.91027">
        <ele>327</ele>
        <time>2020-06-28T08:55:31.000Z</time>
      </trkpt>
      <trkpt lat="45.60404" lon="4.91015">
        <ele>326</ele>
        <time>2020-06-28T08:55:33.000Z</time>
      </trkpt>
      <trkpt lat="45.60412" lon="4.91002">
        <ele>325</ele>
        <time>2020-06-28T08:55:35.000Z</time>
      </trkpt>
      <trkpt lat="45.60414" lon="4.90992">
        <ele>324.4</ele>
        <time>2020-06-28T08:55:36.000Z</time>
      </trkpt>
      <trkpt lat="45.60413" lon="4.90971">
        <ele>322.8</ele>
        <time>2020-06-28T08:55:38.000Z</time>
      </trkpt>
      <trkpt lat="45.60411" lon="4.9096">
        <ele>322</ele>
        <time>2020-06-28T08:55:39.000Z</time>
      </trkpt>
      <trkpt lat="45.60408" lon="4.90949">
        <ele>321.1</ele>
        <time>2020-06-28T08:55:40.000Z</time>
      </trkpt>
      <trkpt lat="45.604" lon="4.90928">
        <ele>319.5</ele>
        <time>2020-06-28T08:55:42.000Z</time>
      </trkpt>
      <trkpt lat="45.60397" lon="4.90919">
        <ele>319</ele>
        <time>2020-06-28T08:55:43.000Z</time>
      </trkpt>
      <trkpt lat="45.60392" lon="4.90911">
        <ele>318.5</ele>
        <time>2020-06-28T08:55:44.000Z</time>
      </trkpt>
      <trkpt lat="45.60383" lon="4.909">
        <ele>317.8</ele>
        <time>2020-06-28T08:55:46.000Z</time>
      </trkpt>
      <trkpt lat="45.60372" lon="4.90891">
        <ele>316.8</ele>
        <time>2020-06-28T08:55:48.000Z</time>
      </trkpt>
      <trkpt lat="45.60367" lon="4.90887">
        <ele>316.3</ele>
        <time>2020-06-28T08:55:49.000Z</time>
      </trkpt>
      <trkpt lat="45.6036" lon="4.90882">
        <ele>315.6</ele>
        <time>2020-06-28T08:55:50.000Z</time>
      </trkpt>
      <trkpt lat="45.60344" lon="4.90874">
        <ele>313.6</ele>
        <time>2020-06-28T08:55:52.000Z</time>
      </trkpt>
      <trkpt lat="45.60326" lon="4.90867">
        <ele>311.4</ele>
        <time>2020-06-28T08:55:54.000Z</time>
      </trkpt>
      <trkpt lat="45.60318" lon="4.90864">
        <ele>310.6</ele>
        <time>2020-06-28T08:55:55.000Z</time>
      </trkpt>
      <trkpt lat="45.60311" lon="4.90862">
        <ele>309.9</ele>
        <time>2020-06-28T08:55:56.000Z</time>
      </trkpt>
      <trkpt lat="45.60304" lon="4.90861">
        <ele>309.2</ele>
        <time>2020-06-28T08:55:57.000Z</time>
      </trkpt>
      <trkpt lat="45.60297" lon="4.90859">
        <ele>308.6</ele>
        <time>2020-06-28T08:55:58.000Z</time>
      </trkpt>
      <trkpt lat="45.60291" lon="4.90859">
        <ele>308</ele>
        <time>2020-06-28T08:55:59.000Z</time>
      </trkpt>
      <trkpt lat="45.60286" lon="4.90859">
        <ele>307.4</ele>
        <time>2020-06-28T08:56:00.000Z</time>
      </trkpt>
      <trkpt lat="45.60274" lon="4.90856">
        <ele>305.8</ele>
        <time>2020-06-28T08:56:02.000Z</time>
      </trkpt>
      <trkpt lat="45.60257" lon="4.90866">
        <ele>303.4</ele>
        <time>2020-06-28T08:56:06.000Z</time>
      </trkpt>
      <trkpt lat="45.60253" lon="4.90872">
        <ele>302.5</ele>
        <time>2020-06-28T08:56:08.000Z</time>
      </trkpt>
      <trkpt lat="45.60248" lon="4.90879">
        <ele>301.6</ele>
        <time>2020-06-28T08:56:10.000Z</time>
      </trkpt>
      <trkpt lat="45.60247" lon="4.90881">
        <ele>301.3</ele>
        <time>2020-06-28T08:56:11.000Z</time>
      </trkpt>
      <trkpt lat="45.60247" lon="4.90883">
        <ele>301.1</ele>
        <time>2020-06-28T08:56:12.000Z</time>
      </trkpt>
      <trkpt lat="45.60246" lon="4.90884">
        <ele>300.9</ele>
        <time>2020-06-28T08:56:15.000Z</time>
      </trkpt>
      <trkpt lat="45.60241" lon="4.90895">
        <ele>299.7</ele>
        <time>2020-06-28T08:56:27.000Z</time>
      </trkpt>
      <trkpt lat="45.60237" lon="4.90899">
        <ele>299.3</ele>
        <time>2020-06-28T08:56:29.000Z</time>
      </trkpt>
      <trkpt lat="45.60229" lon="4.90898">
        <ele>298.7</ele>
        <time>2020-06-28T08:56:32.000Z</time>
      </trkpt>
      <trkpt lat="45.60226" lon="4.90896">
        <ele>298.5</ele>
        <time>2020-06-28T08:56:33.000Z</time>
      </trkpt>
      <trkpt lat="45.60224" lon="4.90895">
        <ele>298.4</ele>
        <time>2020-06-28T08:56:34.000Z</time>
      </trkpt>
      <trkpt lat="45.60221" lon="4.90894">
        <ele>298.3</ele>
        <time>2020-06-28T08:56:35.000Z</time>
      </trkpt>
      <trkpt lat="45.60212" lon="4.90895">
        <ele>298.3</ele>
        <time>2020-06-28T08:56:38.000Z</time>
      </trkpt>
      <trkpt lat="45.60209" lon="4.90896">
        <ele>298.4</ele>
        <time>2020-06-28T08:56:39.000Z</time>
      </trkpt>
      <trkpt lat="45.60199" lon="4.90902">
        <ele>298.9</ele>
        <time>2020-06-28T08:56:42.000Z</time>
      </trkpt>
      <trkpt lat="45.60196" lon="4.90904">
        <ele>299</ele>
        <time>2020-06-28T08:56:43.000Z</time>
      </trkpt>
      <trkpt lat="45.60182" lon="4.90911">
        <ele>299.8</ele>
        <time>2020-06-28T08:56:48.000Z</time>
      </trkpt>
      <trkpt lat="45.60175" lon="4.90907">
        <ele>300.2</ele>
        <time>2020-06-28T08:56:52.000Z</time>
      </trkpt>
      <trkpt lat="45.60168" lon="4.90887">
        <ele>300.5</ele>
        <time>2020-06-28T08:56:56.000Z</time>
      </trkpt>
      <trkpt lat="45.60166" lon="4.9088">
        <ele>300.3</ele>
        <time>2020-06-28T08:56:57.000Z</time>
      </trkpt>
      <trkpt lat="45.6016" lon="4.90855">
        <ele>298.2</ele>
        <time>2020-06-28T08:57:01.000Z</time>
      </trkpt>
      <trkpt lat="45.60154" lon="4.90834">
        <ele>295.8</ele>
        <time>2020-06-28T08:57:04.000Z</time>
      </trkpt>
      <trkpt lat="45.60151" lon="4.90828">
        <ele>295</ele>
        <time>2020-06-28T08:57:05.000Z</time>
      </trkpt>
      <trkpt lat="45.60149" lon="4.90822">
        <ele>294.3</ele>
        <time>2020-06-28T08:57:06.000Z</time>
      </trkpt>
      <trkpt lat="45.60145" lon="4.90816">
        <ele>293.4</ele>
        <time>2020-06-28T08:57:07.000Z</time>
      </trkpt>
      <trkpt lat="45.60134" lon="4.90798">
        <ele>290.6</ele>
        <time>2020-06-28T08:57:10.000Z</time>
      </trkpt>
      <trkpt lat="45.60129" lon="4.90791">
        <ele>289.7</ele>
        <time>2020-06-28T08:57:11.000Z</time>
      </trkpt>
      <trkpt lat="45.60125" lon="4.90785">
        <ele>288.8</ele>
        <time>2020-06-28T08:57:12.000Z</time>
      </trkpt>
      <trkpt lat="45.60115" lon="4.90769">
        <ele>287.2</ele>
        <time>2020-06-28T08:57:14.000Z</time>
      </trkpt>
      <trkpt lat="45.60106" lon="4.90751">
        <ele>286</ele>
        <time>2020-06-28T08:57:16.000Z</time>
      </trkpt>
      <trkpt lat="45.60102" lon="4.90742">
        <ele>285.5</ele>
        <time>2020-06-28T08:57:17.000Z</time>
      </trkpt>
      <trkpt lat="45.60098" lon="4.90734">
        <ele>285.1</ele>
        <time>2020-06-28T08:57:18.000Z</time>
      </trkpt>
      <trkpt lat="45.60094" lon="4.90726">
        <ele>284.8</ele>
        <time>2020-06-28T08:57:19.000Z</time>
      </trkpt>
      <trkpt lat="45.60086" lon="4.9071">
        <ele>284.3</ele>
        <time>2020-06-28T08:57:21.000Z</time>
      </trkpt>
      <trkpt lat="45.60081" lon="4.90703">
        <ele>284.2</ele>
        <time>2020-06-28T08:57:22.000Z</time>
      </trkpt>
      <trkpt lat="45.60073" lon="4.9069">
        <ele>284</ele>
        <time>2020-06-28T08:57:24.000Z</time>
      </trkpt>
      <trkpt lat="45.60069" lon="4.90685">
        <ele>284</ele>
        <time>2020-06-28T08:57:25.000Z</time>
      </trkpt>
      <trkpt lat="45.60065" lon="4.90681">
        <ele>284</ele>
        <time>2020-06-28T08:57:26.000Z</time>
      </trkpt>
      <trkpt lat="45.60062" lon="4.90676">
        <ele>284</ele>
        <time>2020-06-28T08:57:27.000Z</time>
      </trkpt>
      <trkpt lat="45.6005" lon="4.90658">
        <ele>283.8</ele>
        <time>2020-06-28T08:57:31.000Z</time>
      </trkpt>
      <trkpt lat="45.60046" lon="4.90653">
        <ele>283.6</ele>
        <time>2020-06-28T08:57:32.000Z</time>
      </trkpt>
      <trkpt lat="45.60037" lon="4.90644">
        <ele>283.1</ele>
        <time>2020-06-28T08:57:34.000Z</time>
      </trkpt>
      <trkpt lat="45.60026" lon="4.90639">
        <ele>282.5</ele>
        <time>2020-06-28T08:57:36.000Z</time>
      </trkpt>
      <trkpt lat="45.60006" lon="4.90633">
        <ele>281.4</ele>
        <time>2020-06-28T08:57:40.000Z</time>
      </trkpt>
      <trkpt lat="45.60002" lon="4.90634">
        <ele>281.3</ele>
        <time>2020-06-28T08:57:41.000Z</time>
      </trkpt>
      <trkpt lat="45.59994" lon="4.90636">
        <ele>280.9</ele>
        <time>2020-06-28T08:57:43.000Z</time>
      </trkpt>
      <trkpt lat="45.59978" lon="4.9064">
        <ele>280.1</ele>
        <time>2020-06-28T08:57:46.000Z</time>
      </trkpt>
      <trkpt lat="45.59968" lon="4.90645">
        <ele>279.6</ele>
        <time>2020-06-28T08:57:48.000Z</time>
      </trkpt>
      <trkpt lat="45.5996" lon="4.90652">
        <ele>279.2</ele>
        <time>2020-06-28T08:57:50.000Z</time>
      </trkpt>
      <trkpt lat="45.59955" lon="4.90655">
        <ele>278.9</ele>
        <time>2020-06-28T08:57:51.000Z</time>
      </trkpt>
      <trkpt lat="45.59945" lon="4.90658">
        <ele>278.5</ele>
        <time>2020-06-28T08:57:53.000Z</time>
      </trkpt>
      <trkpt lat="45.5994" lon="4.90656">
        <ele>278.4</ele>
        <time>2020-06-28T08:57:54.000Z</time>
      </trkpt>
      <trkpt lat="45.59927" lon="4.90643">
        <ele>278.2</ele>
        <time>2020-06-28T08:57:57.000Z</time>
      </trkpt>
      <trkpt lat="45.59921" lon="4.90632">
        <ele>278.2</ele>
        <time>2020-06-28T08:57:59.000Z</time>
      </trkpt>
      <trkpt lat="45.59911" lon="4.90621">
        <ele>278.5</ele>
        <time>2020-06-28T08:58:02.000Z</time>
      </trkpt>
      <trkpt lat="45.59904" lon="4.90616">
        <ele>278.9</ele>
        <time>2020-06-28T08:58:04.000Z</time>
      </trkpt>
      <trkpt lat="45.59896" lon="4.90611">
        <ele>279.4</ele>
        <time>2020-06-28T08:58:06.000Z</time>
      </trkpt>
      <trkpt lat="45.59888" lon="4.90608">
        <ele>280.1</ele>
        <time>2020-06-28T08:58:08.000Z</time>
      </trkpt>
      <trkpt lat="45.5988" lon="4.90607">
        <ele>280.9</ele>
        <time>2020-06-28T08:58:10.000Z</time>
      </trkpt>
      <trkpt lat="45.59867" lon="4.90605">
        <ele>281.9</ele>
        <time>2020-06-28T08:58:13.000Z</time>
      </trkpt>
      <trkpt lat="45.59862" lon="4.90604">
        <ele>282.2</ele>
        <time>2020-06-28T08:58:14.000Z</time>
      </trkpt>
      <trkpt lat="45.59858" lon="4.90603">
        <ele>282.5</ele>
        <time>2020-06-28T08:58:15.000Z</time>
      </trkpt>
      <trkpt lat="45.59847" lon="4.90601">
        <ele>283</ele>
        <time>2020-06-28T08:58:18.000Z</time>
      </trkpt>
      <trkpt lat="45.59836" lon="4.90597">
        <ele>283.4</ele>
        <time>2020-06-28T08:58:21.000Z</time>
      </trkpt>
      <trkpt lat="45.59832" lon="4.90596">
        <ele>283.5</ele>
        <time>2020-06-28T08:58:22.000Z</time>
      </trkpt>
      <trkpt lat="45.59811" lon="4.90587">
        <ele>283.4</ele>
        <time>2020-06-28T08:58:28.000Z</time>
      </trkpt>
      <trkpt lat="45.59807" lon="4.90586">
        <ele>283.3</ele>
        <time>2020-06-28T08:58:29.000Z</time>
      </trkpt>
      <trkpt lat="45.59803" lon="4.90586">
        <ele>283.2</ele>
        <time>2020-06-28T08:58:30.000Z</time>
      </trkpt>
      <trkpt lat="45.59793" lon="4.90585">
        <ele>282.9</ele>
        <time>2020-06-28T08:58:32.000Z</time>
      </trkpt>
      <trkpt lat="45.59788" lon="4.90584">
        <ele>282.7</ele>
        <time>2020-06-28T08:58:33.000Z</time>
      </trkpt>
      <trkpt lat="45.59763" lon="4.90577">
        <ele>282</ele>
        <time>2020-06-28T08:58:38.000Z</time>
      </trkpt>
      <trkpt lat="45.59749" lon="4.90572">
        <ele>281.7</ele>
        <time>2020-06-28T08:58:41.000Z</time>
      </trkpt>
      <trkpt lat="45.59734" lon="4.90572">
        <ele>281.6</ele>
        <time>2020-06-28T08:58:44.000Z</time>
      </trkpt>
      <trkpt lat="45.59704" lon="4.90579">
        <ele>282</ele>
        <time>2020-06-28T08:58:51.000Z</time>
      </trkpt>
      <trkpt lat="45.59682" lon="4.90584">
        <ele>282.5</ele>
        <time>2020-06-28T08:58:56.000Z</time>
      </trkpt>
      <trkpt lat="45.59668" lon="4.90587">
        <ele>282.7</ele>
        <time>2020-06-28T08:58:59.000Z</time>
      </trkpt>
      <trkpt lat="45.59642" lon="4.90593">
        <ele>283.4</ele>
        <time>2020-06-28T08:59:05.000Z</time>
      </trkpt>
      <trkpt lat="45.59622" lon="4.90596">
        <ele>284.1</ele>
        <time>2020-06-28T08:59:10.000Z</time>
      </trkpt>
      <trkpt lat="45.59602" lon="4.90603">
        <ele>284.9</ele>
        <time>2020-06-28T08:59:15.000Z</time>
      </trkpt>
      <trkpt lat="45.59587" lon="4.90608">
        <ele>285.8</ele>
        <time>2020-06-28T08:59:19.000Z</time>
      </trkpt>
      <trkpt lat="45.59576" lon="4.90612">
        <ele>286.3</ele>
        <time>2020-06-28T08:59:22.000Z</time>
      </trkpt>
      <trkpt lat="45.59566" lon="4.90615">
        <ele>286.8</ele>
        <time>2020-06-28T08:59:25.000Z</time>
      </trkpt>
      <trkpt lat="45.59551" lon="4.90618">
        <ele>287.5</ele>
        <time>2020-06-28T08:59:29.000Z</time>
      </trkpt>
      <trkpt lat="45.59522" lon="4.90627">
        <ele>288.5</ele>
        <time>2020-06-28T08:59:37.000Z</time>
      </trkpt>
      <trkpt lat="45.59518" lon="4.90628">
        <ele>288.7</ele>
        <time>2020-06-28T08:59:38.000Z</time>
      </trkpt>
      <trkpt lat="45.595" lon="4.90633">
        <ele>289.5</ele>
        <time>2020-06-28T08:59:44.000Z</time>
      </trkpt>
      <trkpt lat="45.59493" lon="4.90635">
        <ele>289.7</ele>
        <time>2020-06-28T08:59:47.000Z</time>
      </trkpt>
      <trkpt lat="45.59492" lon="4.90637">
        <ele>289.8</ele>
        <time>2020-06-28T08:59:48.000Z</time>
      </trkpt>
      <trkpt lat="45.59495" lon="4.90644">
        <ele>289.9</ele>
        <time>2020-06-28T08:59:52.000Z</time>
      </trkpt>
      <trkpt lat="45.59497" lon="4.90645">
        <ele>291.4</ele>
        <time>2020-06-28T08:59:53.000Z</time>
      </trkpt>
      <trkpt lat="45.59505" lon="4.9065">
        <ele>292.4</ele>
        <time>2020-06-28T08:59:58.000Z</time>
      </trkpt>
      <trkpt lat="45.59508" lon="4.90653">
        <ele>292.9</ele>
        <time>2020-06-28T09:00:00.000Z</time>
      </trkpt>
      <trkpt lat="45.59516" lon="4.90655">
        <ele>293.8</ele>
        <time>2020-06-28T09:00:04.000Z</time>
      </trkpt>
      <trkpt lat="45.59523" lon="4.90659">
        <ele>294.8</ele>
        <time>2020-06-28T09:00:08.000Z</time>
      </trkpt>
      <trkpt lat="45.59526" lon="4.9066">
        <ele>295.3</ele>
        <time>2020-06-28T09:00:10.000Z</time>
      </trkpt>
      <trkpt lat="45.59533" lon="4.90663">
        <ele>296.2</ele>
        <time>2020-06-28T09:00:14.000Z</time>
      </trkpt>
      <trkpt lat="45.59536" lon="4.90665">
        <ele>296.7</ele>
        <time>2020-06-28T09:00:16.000Z</time>
      </trkpt>
      <trkpt lat="45.59545" lon="4.90669">
        <ele>298.1</ele>
        <time>2020-06-28T09:00:21.000Z</time>
      </trkpt>
      <trkpt lat="45.59553" lon="4.90676">
        <ele>299.7</ele>
        <time>2020-06-28T09:00:26.000Z</time>
      </trkpt>
      <trkpt lat="45.59556" lon="4.90679">
        <ele>300.3</ele>
        <time>2020-06-28T09:00:28.000Z</time>
      </trkpt>
      <trkpt lat="45.59559" lon="4.90681">
        <ele>300.9</ele>
        <time>2020-06-28T09:00:30.000Z</time>
      </trkpt>
      <trkpt lat="45.59565" lon="4.90683">
        <ele>302</ele>
        <time>2020-06-28T09:00:34.000Z</time>
      </trkpt>
      <trkpt lat="45.59566" lon="4.90684">
        <ele>302.2</ele>
        <time>2020-06-28T09:00:35.000Z</time>
      </trkpt>
      <trkpt lat="45.59572" lon="4.90687">
        <ele>303.3</ele>
        <time>2020-06-28T09:00:39.000Z</time>
      </trkpt>
      <trkpt lat="45.59576" lon="4.90689">
        <ele>304</ele>
        <time>2020-06-28T09:00:42.000Z</time>
      </trkpt>
      <trkpt lat="45.59579" lon="4.9069">
        <ele>304.5</ele>
        <time>2020-06-28T09:00:44.000Z</time>
      </trkpt>
      <trkpt lat="45.59582" lon="4.90691">
        <ele>305</ele>
        <time>2020-06-28T09:00:46.000Z</time>
      </trkpt>
      <trkpt lat="45.59587" lon="4.90693">
        <ele>306.1</ele>
        <time>2020-06-28T09:00:50.000Z</time>
      </trkpt>
      <trkpt lat="45.5959" lon="4.90695">
        <ele>306.6</ele>
        <time>2020-06-28T09:00:52.000Z</time>
      </trkpt>
      <trkpt lat="45.59594" lon="4.90697">
        <ele>307.3</ele>
        <time>2020-06-28T09:00:55.000Z</time>
      </trkpt>
      <trkpt lat="45.596" lon="4.907">
        <ele>308.2</ele>
        <time>2020-06-28T09:00:59.000Z</time>
      </trkpt>
      <trkpt lat="45.59607" lon="4.90705">
        <ele>309.5</ele>
        <time>2020-06-28T09:01:04.000Z</time>
      </trkpt>
      <trkpt lat="45.59608" lon="4.90706">
        <ele>309.8</ele>
        <time>2020-06-28T09:01:05.000Z</time>
      </trkpt>
      <trkpt lat="45.59612" lon="4.90708">
        <ele>310.4</ele>
        <time>2020-06-28T09:01:08.000Z</time>
      </trkpt>
      <trkpt lat="45.59616" lon="4.90711">
        <ele>311.1</ele>
        <time>2020-06-28T09:01:11.000Z</time>
      </trkpt>
      <trkpt lat="45.59618" lon="4.90714">
        <ele>311.5</ele>
        <time>2020-06-28T09:01:13.000Z</time>
      </trkpt>
      <trkpt lat="45.59624" lon="4.90719">
        <ele>312.9</ele>
        <time>2020-06-28T09:01:18.000Z</time>
      </trkpt>
      <trkpt lat="45.5963" lon="4.90724">
        <ele>314</ele>
        <time>2020-06-28T09:01:22.000Z</time>
      </trkpt>
      <trkpt lat="45.59631" lon="4.90725">
        <ele>314.3</ele>
        <time>2020-06-28T09:01:23.000Z</time>
      </trkpt>
      <trkpt lat="45.59636" lon="4.90728">
        <ele>315.1</ele>
        <time>2020-06-28T09:01:26.000Z</time>
      </trkpt>
      <trkpt lat="45.5964" lon="4.9073">
        <ele>315.9</ele>
        <time>2020-06-28T09:01:29.000Z</time>
      </trkpt>
      <trkpt lat="45.59643" lon="4.90733">
        <ele>316.5</ele>
        <time>2020-06-28T09:01:31.000Z</time>
      </trkpt>
      <trkpt lat="45.59649" lon="4.90738">
        <ele>317.5</ele>
        <time>2020-06-28T09:01:35.000Z</time>
      </trkpt>
      <trkpt lat="45.59651" lon="4.90741">
        <ele>317.9</ele>
        <time>2020-06-28T09:01:37.000Z</time>
      </trkpt>
      <trkpt lat="45.59655" lon="4.90744">
        <ele>318.6</ele>
        <time>2020-06-28T09:01:40.000Z</time>
      </trkpt>
      <trkpt lat="45.5966" lon="4.90749">
        <ele>319.5</ele>
        <time>2020-06-28T09:01:44.000Z</time>
      </trkpt>
      <trkpt lat="45.59665" lon="4.90757">
        <ele>320.5</ele>
        <time>2020-06-28T09:01:48.000Z</time>
      </trkpt>
      <trkpt lat="45.59668" lon="4.9076">
        <ele>320.9</ele>
        <time>2020-06-28T09:01:50.000Z</time>
      </trkpt>
      <trkpt lat="45.5967" lon="4.90763">
        <ele>321.4</ele>
        <time>2020-06-28T09:01:52.000Z</time>
      </trkpt>
      <trkpt lat="45.59673" lon="4.90767">
        <ele>322</ele>
        <time>2020-06-28T09:01:55.000Z</time>
      </trkpt>
      <trkpt lat="45.59677" lon="4.90773">
        <ele>322.7</ele>
        <time>2020-06-28T09:01:58.000Z</time>
      </trkpt>
      <trkpt lat="45.59679" lon="4.90775">
        <ele>322.9</ele>
        <time>2020-06-28T09:01:59.000Z</time>
      </trkpt>
      <trkpt lat="45.59688" lon="4.90789">
        <ele>324.4</ele>
        <time>2020-06-28T09:02:05.000Z</time>
      </trkpt>
      <trkpt lat="45.59699" lon="4.90808">
        <ele>325.8</ele>
        <time>2020-06-28T09:02:13.000Z</time>
      </trkpt>
      <trkpt lat="45.59701" lon="4.90811">
        <ele>325.9</ele>
        <time>2020-06-28T09:02:14.000Z</time>
      </trkpt>
      <trkpt lat="45.59714" lon="4.90829">
        <ele>327.1</ele>
        <time>2020-06-28T09:02:21.000Z</time>
      </trkpt>
      <trkpt lat="45.59721" lon="4.90837">
        <ele>327.5</ele>
        <time>2020-06-28T09:02:24.000Z</time>
      </trkpt>
      <trkpt lat="45.59735" lon="4.90854">
        <ele>328.3</ele>
        <time>2020-06-28T09:02:30.000Z</time>
      </trkpt>
      <trkpt lat="45.59745" lon="4.90865">
        <ele>328.9</ele>
        <time>2020-06-28T09:02:34.000Z</time>
      </trkpt>
      <trkpt lat="45.59759" lon="4.90881">
        <ele>329.6</ele>
        <time>2020-06-28T09:02:40.000Z</time>
      </trkpt>
      <trkpt lat="45.59772" lon="4.90895">
        <ele>330.3</ele>
        <time>2020-06-28T09:02:45.000Z</time>
      </trkpt>
      <trkpt lat="45.59777" lon="4.90901">
        <ele>330.5</ele>
        <time>2020-06-28T09:02:47.000Z</time>
      </trkpt>
      <trkpt lat="45.59792" lon="4.90918">
        <ele>330.6</ele>
        <time>2020-06-28T09:02:52.000Z</time>
      </trkpt>
      <trkpt lat="45.59815" lon="4.90944">
        <ele>329.6</ele>
        <time>2020-06-28T09:02:59.000Z</time>
      </trkpt>
      <trkpt lat="45.59819" lon="4.90948">
        <ele>329.4</ele>
        <time>2020-06-28T09:03:00.000Z</time>
      </trkpt>
      <trkpt lat="45.59848" lon="4.9097">
        <ele>328.4</ele>
        <time>2020-06-28T09:03:06.000Z</time>
      </trkpt>
      <trkpt lat="45.59852" lon="4.90973">
        <ele>328.4</ele>
        <time>2020-06-28T09:03:07.000Z</time>
      </trkpt>
      <trkpt lat="45.59857" lon="4.90976">
        <ele>328.3</ele>
        <time>2020-06-28T09:03:08.000Z</time>
      </trkpt>
      <trkpt lat="45.59869" lon="4.90985">
        <ele>328.3</ele>
        <time>2020-06-28T09:03:11.000Z</time>
      </trkpt>
      <trkpt lat="45.59877" lon="4.90989">
        <ele>328.4</ele>
        <time>2020-06-28T09:03:13.000Z</time>
      </trkpt>
      <trkpt lat="45.59894" lon="4.91">
        <ele>328.5</ele>
        <time>2020-06-28T09:03:17.000Z</time>
      </trkpt>
      <trkpt lat="45.59912" lon="4.91009">
        <ele>329</ele>
        <time>2020-06-28T09:03:21.000Z</time>
      </trkpt>
      <trkpt lat="45.59921" lon="4.91012">
        <ele>329.3</ele>
        <time>2020-06-28T09:03:23.000Z</time>
      </trkpt>
      <trkpt lat="45.59936" lon="4.91024">
        <ele>330.6</ele>
        <time>2020-06-28T09:03:28.000Z</time>
      </trkpt>
      <trkpt lat="45.59948" lon="4.91035">
        <ele>332</ele>
        <time>2020-06-28T09:03:33.000Z</time>
      </trkpt>
      <trkpt lat="45.59953" lon="4.91038">
        <ele>332.6</ele>
        <time>2020-06-28T09:03:35.000Z</time>
      </trkpt>
      <trkpt lat="45.59957" lon="4.91042">
        <ele>333.3</ele>
        <time>2020-06-28T09:03:37.000Z</time>
      </trkpt>
      <trkpt lat="45.59964" lon="4.91047">
        <ele>334.2</ele>
        <time>2020-06-28T09:03:40.000Z</time>
      </trkpt>
      <trkpt lat="45.59968" lon="4.91052">
        <ele>334.8</ele>
        <time>2020-06-28T09:03:42.000Z</time>
      </trkpt>
      <trkpt lat="45.59972" lon="4.91056">
        <ele>335.4</ele>
        <time>2020-06-28T09:03:44.000Z</time>
      </trkpt>
      <trkpt lat="45.5998" lon="4.91062">
        <ele>336.3</ele>
        <time>2020-06-28T09:03:48.000Z</time>
      </trkpt>
      <trkpt lat="45.59982" lon="4.91064">
        <ele>336.5</ele>
        <time>2020-06-28T09:03:49.000Z</time>
      </trkpt>
      <trkpt lat="45.59994" lon="4.91073">
        <ele>337.4</ele>
        <time>2020-06-28T09:03:54.000Z</time>
      </trkpt>
      <trkpt lat="45.59999" lon="4.91076">
        <ele>337.8</ele>
        <time>2020-06-28T09:03:56.000Z</time>
      </trkpt>
      <trkpt lat="45.60008" lon="4.9108">
        <ele>338.2</ele>
        <time>2020-06-28T09:03:59.000Z</time>
      </trkpt>
      <trkpt lat="45.6002" lon="4.91085">
        <ele>338.7</ele>
        <time>2020-06-28T09:04:03.000Z</time>
      </trkpt>
      <trkpt lat="45.60023" lon="4.91087">
        <ele>338.8</ele>
        <time>2020-06-28T09:04:04.000Z</time>
      </trkpt>
      <trkpt lat="45.6004" lon="4.91097">
        <ele>339.5</ele>
        <time>2020-06-28T09:04:10.000Z</time>
      </trkpt>
      <trkpt lat="45.60044" lon="4.91103">
        <ele>339.9</ele>
        <time>2020-06-28T09:04:12.000Z</time>
      </trkpt>
      <trkpt lat="45.60046" lon="4.91111">
        <ele>340.1</ele>
        <time>2020-06-28T09:04:14.000Z</time>
      </trkpt>
      <trkpt lat="45.60047" lon="4.91143">
        <ele>340.8</ele>
        <time>2020-06-28T09:04:21.000Z</time>
      </trkpt>
      <trkpt lat="45.60047" lon="4.9117">
        <ele>341.4</ele>
        <time>2020-06-28T09:04:27.000Z</time>
      </trkpt>
      <trkpt lat="45.60048" lon="4.91184">
        <ele>341.6</ele>
        <time>2020-06-28T09:04:30.000Z</time>
      </trkpt>
      <trkpt lat="45.60056" lon="4.9121">
        <ele>342.1</ele>
        <time>2020-06-28T09:04:36.000Z</time>
      </trkpt>
      <trkpt lat="45.60071" lon="4.91227">
        <ele>342.3</ele>
        <time>2020-06-28T09:04:41.000Z</time>
      </trkpt>
      <trkpt lat="45.60074" lon="4.9123">
        <ele>342.3</ele>
        <time>2020-06-28T09:04:42.000Z</time>
      </trkpt>
      <trkpt lat="45.60098" lon="4.91242">
        <ele>342.5</ele>
        <time>2020-06-28T09:04:48.000Z</time>
      </trkpt>
      <trkpt lat="45.60102" lon="4.91244">
        <ele>342.5</ele>
        <time>2020-06-28T09:04:49.000Z</time>
      </trkpt>
      <trkpt lat="45.6011" lon="4.91248">
        <ele>342.6</ele>
        <time>2020-06-28T09:04:51.000Z</time>
      </trkpt>
      <trkpt lat="45.60113" lon="4.9125">
        <ele>342.7</ele>
        <time>2020-06-28T09:04:52.000Z</time>
      </trkpt>
      <trkpt lat="45.60132" lon="4.91266">
        <ele>342.8</ele>
        <time>2020-06-28T09:04:57.000Z</time>
      </trkpt>
      <trkpt lat="45.60155" lon="4.91294">
        <ele>342.8</ele>
        <time>2020-06-28T09:05:04.000Z</time>
      </trkpt>
      <trkpt lat="45.60173" lon="4.91323">
        <ele>342.3</ele>
        <time>2020-06-28T09:05:10.000Z</time>
      </trkpt>
      <trkpt lat="45.60179" lon="4.91334">
        <ele>342</ele>
        <time>2020-06-28T09:05:12.000Z</time>
      </trkpt>
      <trkpt lat="45.60182" lon="4.9134">
        <ele>341.8</ele>
        <time>2020-06-28T09:05:13.000Z</time>
      </trkpt>
      <trkpt lat="45.6019" lon="4.91365">
        <ele>341</ele>
        <time>2020-06-28T09:05:17.000Z</time>
      </trkpt>
      <trkpt lat="45.6019" lon="4.91399">
        <ele>340.2</ele>
        <time>2020-06-28T09:05:21.000Z</time>
      </trkpt>
      <trkpt lat="45.60188" lon="4.91408">
        <ele>340.2</ele>
        <time>2020-06-28T09:05:22.000Z</time>
      </trkpt>
      <trkpt lat="45.60183" lon="4.91442">
        <ele>340.4</ele>
        <time>2020-06-28T09:05:26.000Z</time>
      </trkpt>
      <trkpt lat="45.60181" lon="4.91457">
        <ele>340.8</ele>
        <time>2020-06-28T09:05:28.000Z</time>
      </trkpt>
      <trkpt lat="45.60179" lon="4.91464">
        <ele>341</ele>
        <time>2020-06-28T09:05:29.000Z</time>
      </trkpt>
      <trkpt lat="45.60175" lon="4.91502">
        <ele>342.2</ele>
        <time>2020-06-28T09:05:35.000Z</time>
      </trkpt>
      <trkpt lat="45.6017" lon="4.91536">
        <ele>343</ele>
        <time>2020-06-28T09:05:41.000Z</time>
      </trkpt>
      <trkpt lat="45.60171" lon="4.91541">
        <ele>343.1</ele>
        <time>2020-06-28T09:05:42.000Z</time>
      </trkpt>
      <trkpt lat="45.60175" lon="4.91556">
        <ele>343.3</ele>
        <time>2020-06-28T09:05:45.000Z</time>
      </trkpt>
      <trkpt lat="45.6018" lon="4.91562">
        <ele>343.4</ele>
        <time>2020-06-28T09:05:47.000Z</time>
      </trkpt>
      <trkpt lat="45.60196" lon="4.91567">
        <ele>343.5</ele>
        <time>2020-06-28T09:05:53.000Z</time>
      </trkpt>
      <trkpt lat="45.60221" lon="4.91575">
        <ele>342.8</ele>
        <time>2020-06-28T09:06:00.000Z</time>
      </trkpt>
      <trkpt lat="45.60247" lon="4.9158">
        <ele>341.4</ele>
        <time>2020-06-28T09:06:06.000Z</time>
      </trkpt>
      <trkpt lat="45.60252" lon="4.91582">
        <ele>341.1</ele>
        <time>2020-06-28T09:06:07.000Z</time>
      </trkpt>
      <trkpt lat="45.60256" lon="4.91583">
        <ele>340.8</ele>
        <time>2020-06-28T09:06:08.000Z</time>
      </trkpt>
      <trkpt lat="45.60261" lon="4.91584">
        <ele>340.4</ele>
        <time>2020-06-28T09:06:09.000Z</time>
      </trkpt>
      <trkpt lat="45.60266" lon="4.91585">
        <ele>340</ele>
        <time>2020-06-28T09:06:10.000Z</time>
      </trkpt>
      <trkpt lat="45.60281" lon="4.91588">
        <ele>338.9</ele>
        <time>2020-06-28T09:06:13.000Z</time>
      </trkpt>
      <trkpt lat="45.60286" lon="4.91589">
        <ele>338.5</ele>
        <time>2020-06-28T09:06:14.000Z</time>
      </trkpt>
      <trkpt lat="45.60302" lon="4.91593">
        <ele>337.4</ele>
        <time>2020-06-28T09:06:17.000Z</time>
      </trkpt>
      <trkpt lat="45.60313" lon="4.91595">
        <ele>336.8</ele>
        <time>2020-06-28T09:06:19.000Z</time>
      </trkpt>
      <trkpt lat="45.60324" lon="4.91597">
        <ele>336.4</ele>
        <time>2020-06-28T09:06:21.000Z</time>
      </trkpt>
      <trkpt lat="45.60329" lon="4.91598">
        <ele>336.2</ele>
        <time>2020-06-28T09:06:22.000Z</time>
      </trkpt>
      <trkpt lat="45.60344" lon="4.91601">
        <ele>335.9</ele>
        <time>2020-06-28T09:06:25.000Z</time>
      </trkpt>
      <trkpt lat="45.60355" lon="4.91602">
        <ele>335.8</ele>
        <time>2020-06-28T09:06:27.000Z</time>
      </trkpt>
      <trkpt lat="45.6036" lon="4.91602">
        <ele>335.7</ele>
        <time>2020-06-28T09:06:28.000Z</time>
      </trkpt>
      <trkpt lat="45.6037" lon="4.91602">
        <ele>335.6</ele>
        <time>2020-06-28T09:06:30.000Z</time>
      </trkpt>
      <trkpt lat="45.60389" lon="4.91597">
        <ele>335.6</ele>
        <time>2020-06-28T09:06:34.000Z</time>
      </trkpt>
      <trkpt lat="45.60414" lon="4.91585">
        <ele>335.8</ele>
        <time>2020-06-28T09:06:40.000Z</time>
      </trkpt>
      <trkpt lat="45.6042" lon="4.91568">
        <ele>336</ele>
        <time>2020-06-28T09:06:44.000Z</time>
      </trkpt>
      <trkpt lat="45.60427" lon="4.91553">
        <ele>336.6</ele>
        <time>2020-06-28T09:06:48.000Z</time>
      </trkpt>
      <trkpt lat="45.6043" lon="4.91551">
        <ele>336.7</ele>
        <time>2020-06-28T09:06:49.000Z</time>
      </trkpt>
      <trkpt lat="45.6045" lon="4.91547">
        <ele>337.5</ele>
        <time>2020-06-28T09:06:55.000Z</time>
      </trkpt>
      <trkpt lat="45.60454" lon="4.91547">
        <ele>337.7</ele>
        <time>2020-06-28T09:06:56.000Z</time>
      </trkpt>
      <trkpt lat="45.60465" lon="4.91546">
        <ele>338.2</ele>
        <time>2020-06-28T09:06:59.000Z</time>
      </trkpt>
      <trkpt lat="45.60476" lon="4.91545">
        <ele>338.7</ele>
        <time>2020-06-28T09:07:02.000Z</time>
      </trkpt>
      <trkpt lat="45.60479" lon="4.91545">
        <ele>338.8</ele>
        <time>2020-06-28T09:07:03.000Z</time>
      </trkpt>
      <trkpt lat="45.60491" lon="4.91543">
        <ele>339.3</ele>
        <time>2020-06-28T09:07:06.000Z</time>
      </trkpt>
      <trkpt lat="45.60495" lon="4.91543">
        <ele>339.4</ele>
        <time>2020-06-28T09:07:07.000Z</time>
      </trkpt>
      <trkpt lat="45.60514" lon="4.9154">
        <ele>339.8</ele>
        <time>2020-06-28T09:07:12.000Z</time>
      </trkpt>
      <trkpt lat="45.60526" lon="4.91539">
        <ele>339.8</ele>
        <time>2020-06-28T09:07:15.000Z</time>
      </trkpt>
      <trkpt lat="45.6054" lon="4.91539">
        <ele>339.8</ele>
        <time>2020-06-28T09:07:19.000Z</time>
      </trkpt>
      <trkpt lat="45.60566" lon="4.91541">
        <ele>339.5</ele>
        <time>2020-06-28T09:07:26.000Z</time>
      </trkpt>
      <trkpt lat="45.60583" lon="4.91542">
        <ele>339.4</ele>
        <time>2020-06-28T09:07:30.000Z</time>
      </trkpt>
      <trkpt lat="45.60596" lon="4.91543">
        <ele>339.3</ele>
        <time>2020-06-28T09:07:33.000Z</time>
      </trkpt>
      <trkpt lat="45.60619" lon="4.91541">
        <ele>338.9</ele>
        <time>2020-06-28T09:07:38.000Z</time>
      </trkpt>
      <trkpt lat="45.60633" lon="4.91539">
        <ele>338.6</ele>
        <time>2020-06-28T09:07:41.000Z</time>
      </trkpt>
      <trkpt lat="45.60643" lon="4.91536">
        <ele>338.2</ele>
        <time>2020-06-28T09:07:43.000Z</time>
      </trkpt>
      <trkpt lat="45.60648" lon="4.91534">
        <ele>338</ele>
        <time>2020-06-28T09:07:44.000Z</time>
      </trkpt>
      <trkpt lat="45.60653" lon="4.91532">
        <ele>337.8</ele>
        <time>2020-06-28T09:07:45.000Z</time>
      </trkpt>
      <trkpt lat="45.60663" lon="4.91529">
        <ele>337.4</ele>
        <time>2020-06-28T09:07:47.000Z</time>
      </trkpt>
      <trkpt lat="45.60674" lon="4.91526">
        <ele>337.1</ele>
        <time>2020-06-28T09:07:49.000Z</time>
      </trkpt>
      <trkpt lat="45.60678" lon="4.91524">
        <ele>336.9</ele>
        <time>2020-06-28T09:07:50.000Z</time>
      </trkpt>
      <trkpt lat="45.60683" lon="4.91522">
        <ele>336.8</ele>
        <time>2020-06-28T09:07:51.000Z</time>
      </trkpt>
      <trkpt lat="45.60695" lon="4.91515">
        <ele>336.6</ele>
        <time>2020-06-28T09:07:54.000Z</time>
      </trkpt>
      <trkpt lat="45.60698" lon="4.91513">
        <ele>336.5</ele>
        <time>2020-06-28T09:07:55.000Z</time>
      </trkpt>
      <trkpt lat="45.607" lon="4.91513">
        <ele>336.5</ele>
        <time>2020-06-28T09:07:56.000Z</time>
      </trkpt>
      <trkpt lat="45.60702" lon="4.91515">
        <ele>336.7</ele>
        <time>2020-06-28T09:07:57.000Z</time>
      </trkpt>
      <trkpt lat="45.60707" lon="4.91527">
        <ele>336.8</ele>
        <time>2020-06-28T09:08:00.000Z</time>
      </trkpt>
      <trkpt lat="45.60709" lon="4.91532">
        <ele>336.9</ele>
        <time>2020-06-28T09:08:01.000Z</time>
      </trkpt>
      <trkpt lat="45.60712" lon="4.91542">
        <ele>337.1</ele>
        <time>2020-06-28T09:08:03.000Z</time>
      </trkpt>
      <trkpt lat="45.60717" lon="4.91556">
        <ele>337.5</ele>
        <time>2020-06-28T09:08:06.000Z</time>
      </trkpt>
      <trkpt lat="45.60719" lon="4.91566">
        <ele>338</ele>
        <time>2020-06-28T09:08:08.000Z</time>
      </trkpt>
      <trkpt lat="45.60721" lon="4.91575">
        <ele>338.5</ele>
        <time>2020-06-28T09:08:10.000Z</time>
      </trkpt>
      <trkpt lat="45.60722" lon="4.91584">
        <ele>339</ele>
        <time>2020-06-28T09:08:12.000Z</time>
      </trkpt>
      <trkpt lat="45.60722" lon="4.91593">
        <ele>339.5</ele>
        <time>2020-06-28T09:08:14.000Z</time>
      </trkpt>
      <trkpt lat="45.60723" lon="4.91597">
        <ele>339.8</ele>
        <time>2020-06-28T09:08:15.000Z</time>
      </trkpt>
      <trkpt lat="45.60724" lon="4.91606">
        <ele>340.2</ele>
        <time>2020-06-28T09:08:17.000Z</time>
      </trkpt>
      <trkpt lat="45.60725" lon="4.91613">
        <ele>340.6</ele>
        <time>2020-06-28T09:08:19.000Z</time>
      </trkpt>
      <trkpt lat="45.60726" lon="4.91621">
        <ele>341</ele>
        <time>2020-06-28T09:08:21.000Z</time>
      </trkpt>
      <trkpt lat="45.60728" lon="4.91631">
        <ele>341.5</ele>
        <time>2020-06-28T09:08:24.000Z</time>
      </trkpt>
      <trkpt lat="45.60729" lon="4.91636">
        <ele>341.8</ele>
        <time>2020-06-28T09:08:26.000Z</time>
      </trkpt>
      <trkpt lat="45.60729" lon="4.91639">
        <ele>341.9</ele>
        <time>2020-06-28T09:08:27.000Z</time>
      </trkpt>
      <trkpt lat="45.6073" lon="4.91656">
        <ele>342.6</ele>
        <time>2020-06-28T09:08:33.000Z</time>
      </trkpt>
      <trkpt lat="45.6073" lon="4.91664">
        <ele>342.9</ele>
        <time>2020-06-28T09:08:35.000Z</time>
      </trkpt>
      <trkpt lat="45.60727" lon="4.91683">
        <ele>343.4</ele>
        <time>2020-06-28T09:08:41.000Z</time>
      </trkpt>
      <trkpt lat="45.60726" lon="4.91687">
        <ele>343.5</ele>
        <time>2020-06-28T09:08:42.000Z</time>
      </trkpt>
      <trkpt lat="45.60719" lon="4.91709">
        <ele>343.5</ele>
        <time>2020-06-28T09:08:46.000Z</time>
      </trkpt>
      <trkpt lat="45.60714" lon="4.9173">
        <ele>343</ele>
        <time>2020-06-28T09:08:51.000Z</time>
      </trkpt>
      <trkpt lat="45.6071" lon="4.91751">
        <ele>342.2</ele>
        <time>2020-06-28T09:08:55.000Z</time>
      </trkpt>
      <trkpt lat="45.60706" lon="4.91764">
        <ele>341.6</ele>
        <time>2020-06-28T09:08:57.000Z</time>
      </trkpt>
      <trkpt lat="45.60698" lon="4.91783">
        <ele>340.6</ele>
        <time>2020-06-28T09:09:00.000Z</time>
      </trkpt>
      <trkpt lat="45.60689" lon="4.91804">
        <ele>339.2</ele>
        <time>2020-06-28T09:09:03.000Z</time>
      </trkpt>
      <trkpt lat="45.60686" lon="4.9181">
        <ele>338.8</ele>
        <time>2020-06-28T09:09:04.000Z</time>
      </trkpt>
      <trkpt lat="45.6068" lon="4.91824">
        <ele>337.8</ele>
        <time>2020-06-28T09:09:06.000Z</time>
      </trkpt>
      <trkpt lat="45.60678" lon="4.91832">
        <ele>337.2</ele>
        <time>2020-06-28T09:09:07.000Z</time>
      </trkpt>
      <trkpt lat="45.60677" lon="4.9184">
        <ele>336.7</ele>
        <time>2020-06-28T09:09:08.000Z</time>
      </trkpt>
      <trkpt lat="45.60679" lon="4.91857">
        <ele>335.4</ele>
        <time>2020-06-28T09:09:10.000Z</time>
      </trkpt>
      <trkpt lat="45.60681" lon="4.91867">
        <ele>334.6</ele>
        <time>2020-06-28T09:09:11.000Z</time>
      </trkpt>
      <trkpt lat="45.60683" lon="4.91877">
        <ele>333.7</ele>
        <time>2020-06-28T09:09:12.000Z</time>
      </trkpt>
      <trkpt lat="45.60685" lon="4.91888">
        <ele>332.8</ele>
        <time>2020-06-28T09:09:13.000Z</time>
      </trkpt>
      <trkpt lat="45.60686" lon="4.91899">
        <ele>331.9</ele>
        <time>2020-06-28T09:09:14.000Z</time>
      </trkpt>
      <trkpt lat="45.60691" lon="4.9193">
        <ele>329.5</ele>
        <time>2020-06-28T09:09:17.000Z</time>
      </trkpt>
      <trkpt lat="45.60692" lon="4.91937">
        <ele>329</ele>
        <time>2020-06-28T09:09:18.000Z</time>
      </trkpt>
      <trkpt lat="45.60692" lon="4.91943">
        <ele>328.6</ele>
        <time>2020-06-28T09:09:19.000Z</time>
      </trkpt>
      <trkpt lat="45.60692" lon="4.91948">
        <ele>328.3</ele>
        <time>2020-06-28T09:09:20.000Z</time>
      </trkpt>
      <trkpt lat="45.60692" lon="4.91951">
        <ele>328.1</ele>
        <time>2020-06-28T09:09:21.000Z</time>
      </trkpt>
      <trkpt lat="45.60692" lon="4.91954">
        <ele>327.9</ele>
        <time>2020-06-28T09:09:22.000Z</time>
      </trkpt>
      <trkpt lat="45.60689" lon="4.91967">
        <ele>326.4</ele>
        <time>2020-06-28T09:09:25.000Z</time>
      </trkpt>
      <trkpt lat="45.60678" lon="4.91979">
        <ele>326.3</ele>
        <time>2020-06-28T09:09:31.000Z</time>
      </trkpt>
      <trkpt lat="45.60671" lon="4.91995">
        <ele>325.9</ele>
        <time>2020-06-28T09:09:37.000Z</time>
      </trkpt>
      <trkpt lat="45.60669" lon="4.91998">
        <ele>325.8</ele>
        <time>2020-06-28T09:09:38.000Z</time>
      </trkpt>
      <trkpt lat="45.60667" lon="4.92004">
        <ele>325.6</ele>
        <time>2020-06-28T09:09:42.000Z</time>
      </trkpt>
      <trkpt lat="45.60665" lon="4.92006">
        <ele>325.5</ele>
        <time>2020-06-28T09:09:44.000Z</time>
      </trkpt>
      <trkpt lat="45.60664" lon="4.9201">
        <ele>325.4</ele>
        <time>2020-06-28T09:09:46.000Z</time>
      </trkpt>
      <trkpt lat="45.6066" lon="4.92017">
        <ele>325.2</ele>
        <time>2020-06-28T09:09:50.000Z</time>
      </trkpt>
      <trkpt lat="45.6065" lon="4.92036">
        <ele>325</ele>
        <time>2020-06-28T09:09:55.000Z</time>
      </trkpt>
      <trkpt lat="45.60639" lon="4.92065">
        <ele>325.3</ele>
        <time>2020-06-28T09:10:02.000Z</time>
      </trkpt>
      <trkpt lat="45.60636" lon="4.92074">
        <ele>325.6</ele>
        <time>2020-06-28T09:10:04.000Z</time>
      </trkpt>
      <trkpt lat="45.60635" lon="4.92084">
        <ele>325.8</ele>
        <time>2020-06-28T09:10:06.000Z</time>
      </trkpt>
      <trkpt lat="45.60632" lon="4.92094">
        <ele>326.1</ele>
        <time>2020-06-28T09:10:08.000Z</time>
      </trkpt>
      <trkpt lat="45.60627" lon="4.92111">
        <ele>326.6</ele>
        <time>2020-06-28T09:10:12.000Z</time>
      </trkpt>
      <trkpt lat="45.60624" lon="4.92124">
        <ele>327.1</ele>
        <time>2020-06-28T09:10:15.000Z</time>
      </trkpt>
      <trkpt lat="45.6062" lon="4.92138">
        <ele>327.8</ele>
        <time>2020-06-28T09:10:18.000Z</time>
      </trkpt>
      <trkpt lat="45.60618" lon="4.92147">
        <ele>328.2</ele>
        <time>2020-06-28T09:10:20.000Z</time>
      </trkpt>
      <trkpt lat="45.60617" lon="4.92156">
        <ele>328.4</ele>
        <time>2020-06-28T09:10:22.000Z</time>
      </trkpt>
      <trkpt lat="45.60614" lon="4.92181">
        <ele>329</ele>
        <time>2020-06-28T09:10:27.000Z</time>
      </trkpt>
      <trkpt lat="45.60614" lon="4.92186">
        <ele>329.1</ele>
        <time>2020-06-28T09:10:28.000Z</time>
      </trkpt>
      <trkpt lat="45.60611" lon="4.92222">
        <ele>329.5</ele>
        <time>2020-06-28T09:10:35.000Z</time>
      </trkpt>
      <trkpt lat="45.60611" lon="4.92261">
        <ele>330</ele>
        <time>2020-06-28T09:10:42.000Z</time>
      </trkpt>
      <trkpt lat="45.60613" lon="4.92298">
        <ele>330.6</ele>
        <time>2020-06-28T09:10:48.000Z</time>
      </trkpt>
      <trkpt lat="45.60613" lon="4.92304">
        <ele>330.6</ele>
        <time>2020-06-28T09:10:49.000Z</time>
      </trkpt>
      <trkpt lat="45.60617" lon="4.92359">
        <ele>330.5</ele>
        <time>2020-06-28T09:10:58.000Z</time>
      </trkpt>
      <trkpt lat="45.60615" lon="4.92389">
        <ele>329.8</ele>
        <time>2020-06-28T09:11:02.000Z</time>
      </trkpt>
      <trkpt lat="45.60615" lon="4.92405">
        <ele>329.3</ele>
        <time>2020-06-28T09:11:04.000Z</time>
      </trkpt>
      <trkpt lat="45.60615" lon="4.92413">
        <ele>329.1</ele>
        <time>2020-06-28T09:11:05.000Z</time>
      </trkpt>
      <trkpt lat="45.60615" lon="4.9244">
        <ele>328.3</ele>
        <time>2020-06-28T09:11:09.000Z</time>
      </trkpt>
      <trkpt lat="45.60616" lon="4.92446">
        <ele>328.1</ele>
        <time>2020-06-28T09:11:10.000Z</time>
      </trkpt>
      <trkpt lat="45.60616" lon="4.92452">
        <ele>327.8</ele>
        <time>2020-06-28T09:11:11.000Z</time>
      </trkpt>
      <trkpt lat="45.60612" lon="4.92467">
        <ele>327.3</ele>
        <time>2020-06-28T09:11:14.000Z</time>
      </trkpt>
      <trkpt lat="45.60606" lon="4.92475">
        <ele>327.1</ele>
        <time>2020-06-28T09:11:17.000Z</time>
      </trkpt>
      <trkpt lat="45.60604" lon="4.92477">
        <ele>327.1</ele>
        <time>2020-06-28T09:11:18.000Z</time>
      </trkpt>
      <trkpt lat="45.60602" lon="4.92478">
        <ele>327.1</ele>
        <time>2020-06-28T09:11:19.000Z</time>
      </trkpt>
      <trkpt lat="45.60594" lon="4.92484">
        <ele>327.3</ele>
        <time>2020-06-28T09:11:22.000Z</time>
      </trkpt>
      <trkpt lat="45.60589" lon="4.92487">
        <ele>327.4</ele>
        <time>2020-06-28T09:11:24.000Z</time>
      </trkpt>
      <trkpt lat="45.60584" lon="4.92491">
        <ele>327.5</ele>
        <time>2020-06-28T09:11:27.000Z</time>
      </trkpt>
      <trkpt lat="45.60581" lon="4.92493">
        <ele>327.6</ele>
        <time>2020-06-28T09:11:29.000Z</time>
      </trkpt>
      <trkpt lat="45.60571" lon="4.92497">
        <ele>327.9</ele>
        <time>2020-06-28T09:11:33.000Z</time>
      </trkpt>
      <trkpt lat="45.60554" lon="4.92506">
        <ele>328.6</ele>
        <time>2020-06-28T09:11:39.000Z</time>
      </trkpt>
      <trkpt lat="45.60552" lon="4.92505">
        <ele>328.7</ele>
        <time>2020-06-28T09:11:40.000Z</time>
      </trkpt>
      <trkpt lat="45.60548" lon="4.92496">
        <ele>329.5</ele>
        <time>2020-06-28T09:11:43.000Z</time>
      </trkpt>
      <trkpt lat="45.60546" lon="4.92493">
        <ele>329.5</ele>
        <time>2020-06-28T09:11:44.000Z</time>
      </trkpt>
      <trkpt lat="45.60537" lon="4.92472">
        <ele>329.6</ele>
        <time>2020-06-28T09:11:49.000Z</time>
      </trkpt>
      <trkpt lat="45.60535" lon="4.92468">
        <ele>329.6</ele>
        <time>2020-06-28T09:11:50.000Z</time>
      </trkpt>
      <trkpt lat="45.60527" lon="4.92451">
        <ele>329.7</ele>
        <time>2020-06-28T09:11:54.000Z</time>
      </trkpt>
      <trkpt lat="45.60519" lon="4.92439">
        <ele>329.9</ele>
        <time>2020-06-28T09:11:57.000Z</time>
      </trkpt>
      <trkpt lat="45.60499" lon="4.92413">
        <ele>330.3</ele>
        <time>2020-06-28T09:12:04.000Z</time>
      </trkpt>
      <trkpt lat="45.60476" lon="4.92385">
        <ele>330.8</ele>
        <time>2020-06-28T09:12:11.000Z</time>
      </trkpt>
      <trkpt lat="45.60445" lon="4.92353">
        <ele>331</ele>
        <time>2020-06-28T09:12:20.000Z</time>
      </trkpt>
      <trkpt lat="45.60436" lon="4.92345">
        <ele>330.8</ele>
        <time>2020-06-28T09:12:22.000Z</time>
      </trkpt>
      <trkpt lat="45.60409" lon="4.92319">
        <ele>330.3</ele>
        <time>2020-06-28T09:12:28.000Z</time>
      </trkpt>
      <trkpt lat="45.60385" lon="4.92295">
        <ele>329.7</ele>
        <time>2020-06-28T09:12:33.000Z</time>
      </trkpt>
      <trkpt lat="45.60365" lon="4.92277">
        <ele>329.3</ele>
        <time>2020-06-28T09:12:37.000Z</time>
      </trkpt>
      <trkpt lat="45.60354" lon="4.92273">
        <ele>329</ele>
        <time>2020-06-28T09:12:40.000Z</time>
      </trkpt>
      <trkpt lat="45.6035" lon="4.92275">
        <ele>328.9</ele>
        <time>2020-06-28T09:12:41.000Z</time>
      </trkpt>
      <trkpt lat="45.60337" lon="4.92282">
        <ele>328.4</ele>
        <time>2020-06-28T09:12:44.000Z</time>
      </trkpt>
      <trkpt lat="45.6031" lon="4.92296">
        <ele>327.8</ele>
        <time>2020-06-28T09:12:49.000Z</time>
      </trkpt>
      <trkpt lat="45.60298" lon="4.92302">
        <ele>327.6</ele>
        <time>2020-06-28T09:12:51.000Z</time>
      </trkpt>
      <trkpt lat="45.60287" lon="4.92308">
        <ele>327.3</ele>
        <time>2020-06-28T09:12:53.000Z</time>
      </trkpt>
      <trkpt lat="45.60242" lon="4.92333">
        <ele>326</ele>
        <time>2020-06-28T09:13:01.000Z</time>
      </trkpt>
      <trkpt lat="45.60236" lon="4.92337">
        <ele>325.8</ele>
        <time>2020-06-28T09:13:02.000Z</time>
      </trkpt>
      <trkpt lat="45.60222" lon="4.92354">
        <ele>325.2</ele>
        <time>2020-06-28T09:13:05.000Z</time>
      </trkpt>
      <trkpt lat="45.60218" lon="4.92361">
        <ele>325</ele>
        <time>2020-06-28T09:13:06.000Z</time>
      </trkpt>
      <trkpt lat="45.60211" lon="4.92377">
        <ele>324.8</ele>
        <time>2020-06-28T09:13:08.000Z</time>
      </trkpt>
      <trkpt lat="45.60209" lon="4.92386">
        <ele>324.7</ele>
        <time>2020-06-28T09:13:09.000Z</time>
      </trkpt>
      <trkpt lat="45.60206" lon="4.92394">
        <ele>324.5</ele>
        <time>2020-06-28T09:13:10.000Z</time>
      </trkpt>
      <trkpt lat="45.60203" lon="4.9241">
        <ele>324.2</ele>
        <time>2020-06-28T09:13:12.000Z</time>
      </trkpt>
      <trkpt lat="45.60203" lon="4.92418">
        <ele>324.1</ele>
        <time>2020-06-28T09:13:13.000Z</time>
      </trkpt>
      <trkpt lat="45.60203" lon="4.92426">
        <ele>323.9</ele>
        <time>2020-06-28T09:13:14.000Z</time>
      </trkpt>
      <trkpt lat="45.60213" lon="4.92457">
        <ele>323.3</ele>
        <time>2020-06-28T09:13:18.000Z</time>
      </trkpt>
      <trkpt lat="45.60225" lon="4.92488">
        <ele>322.6</ele>
        <time>2020-06-28T09:13:22.000Z</time>
      </trkpt>
      <trkpt lat="45.60235" lon="4.92513">
        <ele>321.9</ele>
        <time>2020-06-28T09:13:25.000Z</time>
      </trkpt>
      <trkpt lat="45.60246" lon="4.92544">
        <ele>321</ele>
        <time>2020-06-28T09:13:29.000Z</time>
      </trkpt>
      <trkpt lat="45.60249" lon="4.92553">
        <ele>320.7</ele>
        <time>2020-06-28T09:13:32.000Z</time>
      </trkpt>
      <trkpt lat="45.60249" lon="4.92554">
        <ele>320.7</ele>
        <time>2020-06-28T09:13:33.000Z</time>
      </trkpt>
      <trkpt lat="45.60248" lon="4.9255">
        <ele>320.5</ele>
        <time>2020-06-28T09:13:38.000Z</time>
      </trkpt>
      <trkpt lat="45.60247" lon="4.92544">
        <ele>320.3</ele>
        <time>2020-06-28T09:13:40.000Z</time>
      </trkpt>
      <trkpt lat="45.60244" lon="4.92537">
        <ele>320</ele>
        <time>2020-06-28T09:13:42.000Z</time>
      </trkpt>
      <trkpt lat="45.60244" lon="4.92533">
        <ele>319.9</ele>
        <time>2020-06-28T09:13:43.000Z</time>
      </trkpt>
      <trkpt lat="45.6024" lon="4.9252">
        <ele>320.6</ele>
        <time>2020-06-28T09:13:46.000Z</time>
      </trkpt>
      <trkpt lat="45.60235" lon="4.92507">
        <ele>321.5</ele>
        <time>2020-06-28T09:13:49.000Z</time>
      </trkpt>
      <trkpt lat="45.60231" lon="4.92498">
        <ele>322.1</ele>
        <time>2020-06-28T09:13:51.000Z</time>
      </trkpt>
      <trkpt lat="45.60227" lon="4.92487">
        <ele>322.6</ele>
        <time>2020-06-28T09:13:54.000Z</time>
      </trkpt>
      <trkpt lat="45.60227" lon="4.92485">
        <ele>322.5</ele>
        <time>2020-06-28T09:13:55.000Z</time>
      </trkpt>
      <trkpt lat="45.60227" lon="4.92483">
        <ele>322.4</ele>
        <time>2020-06-28T09:13:57.000Z</time>
      </trkpt>
      <trkpt lat="45.60237" lon="4.92489">
        <ele>321.8</ele>
        <time>2020-06-28T09:14:24.000Z</time>
      </trkpt>
      <trkpt lat="45.60239" lon="4.92492">
        <ele>321.6</ele>
        <time>2020-06-28T09:14:25.000Z</time>
      </trkpt>
      <trkpt lat="45.60242" lon="4.92495">
        <ele>321.4</ele>
        <time>2020-06-28T09:14:26.000Z</time>
      </trkpt>
      <trkpt lat="45.60244" lon="4.92499">
        <ele>321.2</ele>
        <time>2020-06-28T09:14:27.000Z</time>
      </trkpt>
      <trkpt lat="45.60246" lon="4.92508">
        <ele>320.7</ele>
        <time>2020-06-28T09:14:29.000Z</time>
      </trkpt>
      <trkpt lat="45.60251" lon="4.92518">
        <ele>320</ele>
        <time>2020-06-28T09:14:32.000Z</time>
      </trkpt>
      <trkpt lat="45.60254" lon="4.92526">
        <ele>319.4</ele>
        <time>2020-06-28T09:14:34.000Z</time>
      </trkpt>
      <trkpt lat="45.60257" lon="4.92536">
        <ele>318.5</ele>
        <time>2020-06-28T09:14:36.000Z</time>
      </trkpt>
      <trkpt lat="45.60261" lon="4.92543">
        <ele>317.7</ele>
        <time>2020-06-28T09:14:38.000Z</time>
      </trkpt>
      <trkpt lat="45.60266" lon="4.92553">
        <ele>316.4</ele>
        <time>2020-06-28T09:14:41.000Z</time>
      </trkpt>
      <trkpt lat="45.60269" lon="4.92561">
        <ele>315.5</ele>
        <time>2020-06-28T09:14:43.000Z</time>
      </trkpt>
      <trkpt lat="45.60271" lon="4.92576">
        <ele>314</ele>
        <time>2020-06-28T09:14:47.000Z</time>
      </trkpt>
      <trkpt lat="45.60271" lon="4.9258">
        <ele>313.6</ele>
        <time>2020-06-28T09:14:48.000Z</time>
      </trkpt>
      <trkpt lat="45.6027" lon="4.92588">
        <ele>312.9</ele>
        <time>2020-06-28T09:14:50.000Z</time>
      </trkpt>
      <trkpt lat="45.60272" lon="4.92596">
        <ele>312.1</ele>
        <time>2020-06-28T09:14:52.000Z</time>
      </trkpt>
      <trkpt lat="45.60273" lon="4.92599">
        <ele>311.7</ele>
        <time>2020-06-28T09:14:53.000Z</time>
      </trkpt>
      <trkpt lat="45.60278" lon="4.92604">
        <ele>310.7</ele>
        <time>2020-06-28T09:14:55.000Z</time>
      </trkpt>
      <trkpt lat="45.60283" lon="4.92609">
        <ele>309.8</ele>
        <time>2020-06-28T09:14:57.000Z</time>
      </trkpt>
      <trkpt lat="45.60284" lon="4.92613">
        <ele>309.3</ele>
        <time>2020-06-28T09:14:58.000Z</time>
      </trkpt>
      <trkpt lat="45.60286" lon="4.92622">
        <ele>308.5</ele>
        <time>2020-06-28T09:15:00.000Z</time>
      </trkpt>
      <trkpt lat="45.60288" lon="4.9263">
        <ele>307.8</ele>
        <time>2020-06-28T09:15:02.000Z</time>
      </trkpt>
      <trkpt lat="45.60292" lon="4.92638">
        <ele>307</ele>
        <time>2020-06-28T09:15:04.000Z</time>
      </trkpt>
      <trkpt lat="45.60295" lon="4.92647">
        <ele>306.2</ele>
        <time>2020-06-28T09:15:07.000Z</time>
      </trkpt>
      <trkpt lat="45.60296" lon="4.92651">
        <ele>305.9</ele>
        <time>2020-06-28T09:15:08.000Z</time>
      </trkpt>
      <trkpt lat="45.60298" lon="4.92672">
        <ele>304.2</ele>
        <time>2020-06-28T09:15:13.000Z</time>
      </trkpt>
      <trkpt lat="45.60298" lon="4.92677">
        <ele>303.9</ele>
        <time>2020-06-28T09:15:14.000Z</time>
      </trkpt>
      <trkpt lat="45.60297" lon="4.92682">
        <ele>303.7</ele>
        <time>2020-06-28T09:15:15.000Z</time>
      </trkpt>
      <trkpt lat="45.60292" lon="4.92697">
        <ele>303</ele>
        <time>2020-06-28T09:15:19.000Z</time>
      </trkpt>
      <trkpt lat="45.60283" lon="4.92719">
        <ele>302.7</ele>
        <time>2020-06-28T09:15:24.000Z</time>
      </trkpt>
      <trkpt lat="45.60275" lon="4.92745">
        <ele>302.4</ele>
        <time>2020-06-28T09:15:29.000Z</time>
      </trkpt>
      <trkpt lat="45.60273" lon="4.92758">
        <ele>302.2</ele>
        <time>2020-06-28T09:15:32.000Z</time>
      </trkpt>
      <trkpt lat="45.60269" lon="4.92767">
        <ele>301.9</ele>
        <time>2020-06-28T09:15:34.000Z</time>
      </trkpt>
      <trkpt lat="45.60257" lon="4.92791">
        <ele>300.9</ele>
        <time>2020-06-28T09:15:40.000Z</time>
      </trkpt>
      <trkpt lat="45.60254" lon="4.92793">
        <ele>300.9</ele>
        <time>2020-06-28T09:15:41.000Z</time>
      </trkpt>
      <trkpt lat="45.6024" lon="4.92803">
        <ele>300.4</ele>
        <time>2020-06-28T09:15:45.000Z</time>
      </trkpt>
      <trkpt lat="45.60233" lon="4.92809">
        <ele>300.2</ele>
        <time>2020-06-28T09:15:47.000Z</time>
      </trkpt>
      <trkpt lat="45.60222" lon="4.92819">
        <ele>299.7</ele>
        <time>2020-06-28T09:15:50.000Z</time>
      </trkpt>
      <trkpt lat="45.60221" lon="4.92822">
        <ele>299.6</ele>
        <time>2020-06-28T09:15:52.000Z</time>
      </trkpt>
      <trkpt lat="45.60215" lon="4.92832">
        <ele>298.9</ele>
        <time>2020-06-28T09:16:31.000Z</time>
      </trkpt>
      <trkpt lat="45.60213" lon="4.92836">
        <ele>298.6</ele>
        <time>2020-06-28T09:16:32.000Z</time>
      </trkpt>
      <trkpt lat="45.60209" lon="4.92848">
        <ele>297.4</ele>
        <time>2020-06-28T09:16:34.000Z</time>
      </trkpt>
      <trkpt lat="45.60205" lon="4.92856">
        <ele>296.6</ele>
        <time>2020-06-28T09:16:35.000Z</time>
      </trkpt>
      <trkpt lat="45.602" lon="4.92873">
        <ele>294.9</ele>
        <time>2020-06-28T09:16:37.000Z</time>
      </trkpt>
      <trkpt lat="45.60194" lon="4.92891">
        <ele>293.2</ele>
        <time>2020-06-28T09:16:39.000Z</time>
      </trkpt>
      <trkpt lat="45.60192" lon="4.92901">
        <ele>292.4</ele>
        <time>2020-06-28T09:16:40.000Z</time>
      </trkpt>
      <trkpt lat="45.60189" lon="4.92911">
        <ele>291.3</ele>
        <time>2020-06-28T09:16:41.000Z</time>
      </trkpt>
      <trkpt lat="45.60185" lon="4.92932">
        <ele>289.8</ele>
        <time>2020-06-28T09:16:43.000Z</time>
      </trkpt>
      <trkpt lat="45.60182" lon="4.92951">
        <ele>288.4</ele>
        <time>2020-06-28T09:16:45.000Z</time>
      </trkpt>
      <trkpt lat="45.6018" lon="4.92961">
        <ele>287.6</ele>
        <time>2020-06-28T09:16:46.000Z</time>
      </trkpt>
      <trkpt lat="45.60176" lon="4.92981">
        <ele>286</ele>
        <time>2020-06-28T09:16:48.000Z</time>
      </trkpt>
      <trkpt lat="45.60175" lon="4.93001">
        <ele>284.2</ele>
        <time>2020-06-28T09:16:50.000Z</time>
      </trkpt>
      <trkpt lat="45.60176" lon="4.93011">
        <ele>283.3</ele>
        <time>2020-06-28T09:16:51.000Z</time>
      </trkpt>
      <trkpt lat="45.60179" lon="4.93021">
        <ele>282.2</ele>
        <time>2020-06-28T09:16:52.000Z</time>
      </trkpt>
      <trkpt lat="45.60188" lon="4.93053">
        <ele>279</ele>
        <time>2020-06-28T09:16:55.000Z</time>
      </trkpt>
      <trkpt lat="45.60192" lon="4.93074">
        <ele>277</ele>
        <time>2020-06-28T09:16:57.000Z</time>
      </trkpt>
      <trkpt lat="45.60192" lon="4.93093">
        <ele>275.6</ele>
        <time>2020-06-28T09:16:59.000Z</time>
      </trkpt>
      <trkpt lat="45.6019" lon="4.93102">
        <ele>275.1</ele>
        <time>2020-06-28T09:17:00.000Z</time>
      </trkpt>
      <trkpt lat="45.60188" lon="4.93112">
        <ele>274.7</ele>
        <time>2020-06-28T09:17:01.000Z</time>
      </trkpt>
      <trkpt lat="45.60184" lon="4.9312">
        <ele>274.4</ele>
        <time>2020-06-28T09:17:02.000Z</time>
      </trkpt>
      <trkpt lat="45.6018" lon="4.93128">
        <ele>274.1</ele>
        <time>2020-06-28T09:17:03.000Z</time>
      </trkpt>
      <trkpt lat="45.60174" lon="4.93134">
        <ele>273.8</ele>
        <time>2020-06-28T09:17:04.000Z</time>
      </trkpt>
      <trkpt lat="45.60169" lon="4.93139">
        <ele>273.6</ele>
        <time>2020-06-28T09:17:05.000Z</time>
      </trkpt>
      <trkpt lat="45.60162" lon="4.93142">
        <ele>273.5</ele>
        <time>2020-06-28T09:17:06.000Z</time>
      </trkpt>
      <trkpt lat="45.60155" lon="4.93144">
        <ele>273.3</ele>
        <time>2020-06-28T09:17:07.000Z</time>
      </trkpt>
      <trkpt lat="45.60141" lon="4.93143">
        <ele>273.3</ele>
        <time>2020-06-28T09:17:09.000Z</time>
      </trkpt>
      <trkpt lat="45.60134" lon="4.93141">
        <ele>273.3</ele>
        <time>2020-06-28T09:17:10.000Z</time>
      </trkpt>
      <trkpt lat="45.6012" lon="4.93136">
        <ele>273.3</ele>
        <time>2020-06-28T09:17:12.000Z</time>
      </trkpt>
      <trkpt lat="45.60108" lon="4.93127">
        <ele>273</ele>
        <time>2020-06-28T09:17:14.000Z</time>
      </trkpt>
      <trkpt lat="45.60102" lon="4.93121">
        <ele>272.9</ele>
        <time>2020-06-28T09:17:15.000Z</time>
      </trkpt>
      <trkpt lat="45.60097" lon="4.93113">
        <ele>272.7</ele>
        <time>2020-06-28T09:17:16.000Z</time>
      </trkpt>
      <trkpt lat="45.60084" lon="4.93087">
        <ele>272.2</ele>
        <time>2020-06-28T09:17:19.000Z</time>
      </trkpt>
      <trkpt lat="45.60067" lon="4.93062">
        <ele>272.4</ele>
        <time>2020-06-28T09:17:22.000Z</time>
      </trkpt>
      <trkpt lat="45.60062" lon="4.93054">
        <ele>272.5</ele>
        <time>2020-06-28T09:17:23.000Z</time>
      </trkpt>
      <trkpt lat="45.60042" lon="4.93027">
        <ele>273.5</ele>
        <time>2020-06-28T09:17:27.000Z</time>
      </trkpt>
      <trkpt lat="45.60037" lon="4.93022">
        <ele>273.7</ele>
        <time>2020-06-28T09:17:28.000Z</time>
      </trkpt>
      <trkpt lat="45.60009" lon="4.92999">
        <ele>274.8</ele>
        <time>2020-06-28T09:17:34.000Z</time>
      </trkpt>
      <trkpt lat="45.60005" lon="4.92997">
        <ele>274.9</ele>
        <time>2020-06-28T09:17:35.000Z</time>
      </trkpt>
      <trkpt lat="45.59996" lon="4.92992">
        <ele>275</ele>
        <time>2020-06-28T09:17:37.000Z</time>
      </trkpt>
      <trkpt lat="45.59992" lon="4.92989">
        <ele>274.9</ele>
        <time>2020-06-28T09:17:38.000Z</time>
      </trkpt>
      <trkpt lat="45.59984" lon="4.92983">
        <ele>274.8</ele>
        <time>2020-06-28T09:17:40.000Z</time>
      </trkpt>
      <trkpt lat="45.59972" lon="4.92973">
        <ele>274.2</ele>
        <time>2020-06-28T09:17:43.000Z</time>
      </trkpt>
      <trkpt lat="45.59969" lon="4.92969">
        <ele>273.9</ele>
        <time>2020-06-28T09:17:44.000Z</time>
      </trkpt>
      <trkpt lat="45.59961" lon="4.92958">
        <ele>273</ele>
        <time>2020-06-28T09:17:46.000Z</time>
      </trkpt>
      <trkpt lat="45.59953" lon="4.92943">
        <ele>272</ele>
        <time>2020-06-28T09:17:48.000Z</time>
      </trkpt>
      <trkpt lat="45.59947" lon="4.92925">
        <ele>270.9</ele>
        <time>2020-06-28T09:17:50.000Z</time>
      </trkpt>
      <trkpt lat="45.59936" lon="4.92885">
        <ele>269.4</ele>
        <time>2020-06-28T09:17:54.000Z</time>
      </trkpt>
      <trkpt lat="45.59931" lon="4.92875">
        <ele>269.1</ele>
        <time>2020-06-28T09:17:55.000Z</time>
      </trkpt>
      <trkpt lat="45.59925" lon="4.92867">
        <ele>268.9</ele>
        <time>2020-06-28T09:17:56.000Z</time>
      </trkpt>
      <trkpt lat="45.59914" lon="4.9285">
        <ele>268.4</ele>
        <time>2020-06-28T09:17:58.000Z</time>
      </trkpt>
      <trkpt lat="45.59909" lon="4.92841">
        <ele>268.1</ele>
        <time>2020-06-28T09:17:59.000Z</time>
      </trkpt>
      <trkpt lat="45.59904" lon="4.92832">
        <ele>267.8</ele>
        <time>2020-06-28T09:18:00.000Z</time>
      </trkpt>
      <trkpt lat="45.59894" lon="4.92813">
        <ele>267.1</ele>
        <time>2020-06-28T09:18:02.000Z</time>
      </trkpt>
      <trkpt lat="45.59887" lon="4.92805">
        <ele>266.6</ele>
        <time>2020-06-28T09:18:03.000Z</time>
      </trkpt>
      <trkpt lat="45.5988" lon="4.92797">
        <ele>266.3</ele>
        <time>2020-06-28T09:18:04.000Z</time>
      </trkpt>
      <trkpt lat="45.59865" lon="4.92784">
        <ele>266.2</ele>
        <time>2020-06-28T09:18:06.000Z</time>
      </trkpt>
      <trkpt lat="45.59852" lon="4.9278">
        <ele>266.5</ele>
        <time>2020-06-28T09:18:08.000Z</time>
      </trkpt>
      <trkpt lat="45.59846" lon="4.92779">
        <ele>266.7</ele>
        <time>2020-06-28T09:18:09.000Z</time>
      </trkpt>
      <trkpt lat="45.59834" lon="4.92773">
        <ele>267.1</ele>
        <time>2020-06-28T09:18:11.000Z</time>
      </trkpt>
      <trkpt lat="45.59822" lon="4.92766">
        <ele>267.5</ele>
        <time>2020-06-28T09:18:13.000Z</time>
      </trkpt>
      <trkpt lat="45.59802" lon="4.92752">
        <ele>267.3</ele>
        <time>2020-06-28T09:18:18.000Z</time>
      </trkpt>
      <trkpt lat="45.59789" lon="4.92755">
        <ele>265.6</ele>
        <time>2020-06-28T09:18:22.000Z</time>
      </trkpt>
      <trkpt lat="45.59784" lon="4.92759">
        <ele>264.6</ele>
        <time>2020-06-28T09:18:24.000Z</time>
      </trkpt>
      <trkpt lat="45.59775" lon="4.92765">
        <ele>262.7</ele>
        <time>2020-06-28T09:18:27.000Z</time>
      </trkpt>
      <trkpt lat="45.59773" lon="4.92769">
        <ele>262</ele>
        <time>2020-06-28T09:18:28.000Z</time>
      </trkpt>
      <trkpt lat="45.5977" lon="4.92775">
        <ele>260.7</ele>
        <time>2020-06-28T09:18:29.000Z</time>
      </trkpt>
      <trkpt lat="45.59763" lon="4.92788">
        <ele>257.8</ele>
        <time>2020-06-28T09:18:31.000Z</time>
      </trkpt>
      <trkpt lat="45.59758" lon="4.92792">
        <ele>256.4</ele>
        <time>2020-06-28T09:18:32.000Z</time>
      </trkpt>
      <trkpt lat="45.59753" lon="4.92795">
        <ele>255.2</ele>
        <time>2020-06-28T09:18:33.000Z</time>
      </trkpt>
      <trkpt lat="45.59744" lon="4.92798">
        <ele>253</ele>
        <time>2020-06-28T09:18:35.000Z</time>
      </trkpt>
      <trkpt lat="45.59739" lon="4.92798">
        <ele>252.1</ele>
        <time>2020-06-28T09:18:36.000Z</time>
      </trkpt>
      <trkpt lat="45.59733" lon="4.92796">
        <ele>251.2</ele>
        <time>2020-06-28T09:18:37.000Z</time>
      </trkpt>
      <trkpt lat="45.59728" lon="4.92797">
        <ele>250.2</ele>
        <time>2020-06-28T09:18:38.000Z</time>
      </trkpt>
      <trkpt lat="45.59723" lon="4.92798">
        <ele>249.3</ele>
        <time>2020-06-28T09:18:39.000Z</time>
      </trkpt>
      <trkpt lat="45.59713" lon="4.92802">
        <ele>247.7</ele>
        <time>2020-06-28T09:18:41.000Z</time>
      </trkpt>
      <trkpt lat="45.59708" lon="4.92804">
        <ele>246.9</ele>
        <time>2020-06-28T09:18:43.000Z</time>
      </trkpt>
      <trkpt lat="45.59706" lon="4.92802">
        <ele>246.4</ele>
        <time>2020-06-28T09:18:44.000Z</time>
      </trkpt>
      <trkpt lat="45.59702" lon="4.92803">
        <ele>245.8</ele>
        <time>2020-06-28T09:18:46.000Z</time>
      </trkpt>
      <trkpt lat="45.59671" lon="4.92814">
        <ele>239.8</ele>
        <time>2020-06-28T09:19:32.000Z</time>
      </trkpt>
      <trkpt lat="45.59668" lon="4.92815">
        <ele>239</ele>
        <time>2020-06-28T09:19:34.000Z</time>
      </trkpt>
      <trkpt lat="45.59664" lon="4.92818">
        <ele>237.6</ele>
        <time>2020-06-28T09:19:36.000Z</time>
      </trkpt>
      <trkpt lat="45.59659" lon="4.9282">
        <ele>236.3</ele>
        <time>2020-06-28T09:19:38.000Z</time>
      </trkpt>
      <trkpt lat="45.59657" lon="4.9282">
        <ele>235.7</ele>
        <time>2020-06-28T09:19:39.000Z</time>
      </trkpt>
      <trkpt lat="45.59654" lon="4.92821">
        <ele>235</ele>
        <time>2020-06-28T09:19:40.000Z</time>
      </trkpt>
      <trkpt lat="45.5965" lon="4.9282">
        <ele>234</ele>
        <time>2020-06-28T09:19:43.000Z</time>
      </trkpt>
      <trkpt lat="45.5965" lon="4.92821">
        <ele>233.8</ele>
        <time>2020-06-28T09:19:44.000Z</time>
      </trkpt>
      <trkpt lat="45.59617" lon="4.92813">
        <ele>228.9</ele>
        <time>2020-06-28T09:27:47.000Z</time>
      </trkpt>
      <trkpt lat="45.59613" lon="4.92806">
        <ele>228.8</ele>
        <time>2020-06-28T09:27:49.000Z</time>
      </trkpt>
      <trkpt lat="45.5961" lon="4.928">
        <ele>228.8</ele>
        <time>2020-06-28T09:27:51.000Z</time>
      </trkpt>
      <trkpt lat="45.59604" lon="4.92792">
        <ele>228.7</ele>
        <time>2020-06-28T09:27:54.000Z</time>
      </trkpt>
      <trkpt lat="45.59602" lon="4.92789">
        <ele>228.7</ele>
        <time>2020-06-28T09:27:55.000Z</time>
      </trkpt>
      <trkpt lat="45.59587" lon="4.92779">
        <ele>228.5</ele>
        <time>2020-06-28T09:28:01.000Z</time>
      </trkpt>
      <trkpt lat="45.59583" lon="4.92774">
        <ele>228.5</ele>
        <time>2020-06-28T09:28:03.000Z</time>
      </trkpt>
      <trkpt lat="45.59579" lon="4.92765">
        <ele>228.4</ele>
        <time>2020-06-28T09:28:05.000Z</time>
      </trkpt>
      <trkpt lat="45.59577" lon="4.9276">
        <ele>228.4</ele>
        <time>2020-06-28T09:28:06.000Z</time>
      </trkpt>
      <trkpt lat="45.59573" lon="4.92748">
        <ele>228.3</ele>
        <time>2020-06-28T09:28:09.000Z</time>
      </trkpt>
      <trkpt lat="45.59571" lon="4.92739">
        <ele>228.2</ele>
        <time>2020-06-28T09:28:12.000Z</time>
      </trkpt>
      <trkpt lat="45.59567" lon="4.92728">
        <ele>228.1</ele>
        <time>2020-06-28T09:28:16.000Z</time>
      </trkpt>
      <trkpt lat="45.59554" lon="4.92706">
        <ele>227.9</ele>
        <time>2020-06-28T09:28:22.000Z</time>
      </trkpt>
      <trkpt lat="45.5954" lon="4.92684">
        <ele>227.7</ele>
        <time>2020-06-28T09:28:28.000Z</time>
      </trkpt>
      <trkpt lat="45.5953" lon="4.92667">
        <ele>227.6</ele>
        <time>2020-06-28T09:28:32.000Z</time>
      </trkpt>
      <trkpt lat="45.59519" lon="4.92646">
        <ele>227.5</ele>
        <time>2020-06-28T09:28:36.000Z</time>
      </trkpt>
      <trkpt lat="45.59507" lon="4.9263">
        <ele>227.5</ele>
        <time>2020-06-28T09:28:41.000Z</time>
      </trkpt>
      <trkpt lat="45.59497" lon="4.92606">
        <ele>227.7</ele>
        <time>2020-06-28T09:28:47.000Z</time>
      </trkpt>
      <trkpt lat="45.5949" lon="4.92586">
        <ele>226.8</ele>
        <time>2020-06-28T09:28:52.000Z</time>
      </trkpt>
      <trkpt lat="45.59481" lon="4.92569">
        <ele>226.2</ele>
        <time>2020-06-28T09:28:57.000Z</time>
      </trkpt>
      <trkpt lat="45.59468" lon="4.92546">
        <ele>226</ele>
        <time>2020-06-28T09:29:04.000Z</time>
      </trkpt>
      <trkpt lat="45.59457" lon="4.92522">
        <ele>225.8</ele>
        <time>2020-06-28T09:29:11.000Z</time>
      </trkpt>
      <trkpt lat="45.59456" lon="4.92519">
        <ele>225.8</ele>
        <time>2020-06-28T09:29:12.000Z</time>
      </trkpt>
      <trkpt lat="45.59446" lon="4.92507">
        <ele>225.7</ele>
        <time>2020-06-28T09:29:16.000Z</time>
      </trkpt>
      <trkpt lat="45.59429" lon="4.92482">
        <ele>225.4</ele>
        <time>2020-06-28T09:29:23.000Z</time>
      </trkpt>
      <trkpt lat="45.59423" lon="4.92456">
        <ele>225.1</ele>
        <time>2020-06-28T09:29:30.000Z</time>
      </trkpt>
      <trkpt lat="45.59419" lon="4.92446">
        <ele>225</ele>
        <time>2020-06-28T09:29:32.000Z</time>
      </trkpt>
      <trkpt lat="45.59412" lon="4.9243">
        <ele>224.8</ele>
        <time>2020-06-28T09:29:35.000Z</time>
      </trkpt>
      <trkpt lat="45.594" lon="4.92402">
        <ele>224.4</ele>
        <time>2020-06-28T09:29:40.000Z</time>
      </trkpt>
      <trkpt lat="45.59395" lon="4.92393">
        <ele>224.3</ele>
        <time>2020-06-28T09:29:42.000Z</time>
      </trkpt>
      <trkpt lat="45.59381" lon="4.92365">
        <ele>224.2</ele>
        <time>2020-06-28T09:29:47.000Z</time>
      </trkpt>
      <trkpt lat="45.59365" lon="4.92344">
        <ele>224.1</ele>
        <time>2020-06-28T09:29:52.000Z</time>
      </trkpt>
      <trkpt lat="45.59362" lon="4.9234">
        <ele>224.1</ele>
        <time>2020-06-28T09:29:53.000Z</time>
      </trkpt>
      <trkpt lat="45.59354" lon="4.92333">
        <ele>224</ele>
        <time>2020-06-28T09:29:55.000Z</time>
      </trkpt>
      <trkpt lat="45.59346" lon="4.92328">
        <ele>223.9</ele>
        <time>2020-06-28T09:29:57.000Z</time>
      </trkpt>
      <trkpt lat="45.59325" lon="4.92312">
        <ele>223.7</ele>
        <time>2020-06-28T09:30:03.000Z</time>
      </trkpt>
      <trkpt lat="45.59305" lon="4.92293">
        <ele>223.6</ele>
        <time>2020-06-28T09:30:09.000Z</time>
      </trkpt>
      <trkpt lat="45.59292" lon="4.92292">
        <ele>223.5</ele>
        <time>2020-06-28T09:30:12.000Z</time>
      </trkpt>
      <trkpt lat="45.59285" lon="4.92291">
        <ele>223.4</ele>
        <time>2020-06-28T09:30:13.000Z</time>
      </trkpt>
      <trkpt lat="45.5927" lon="4.92292">
        <ele>223.3</ele>
        <time>2020-06-28T09:30:16.000Z</time>
      </trkpt>
      <trkpt lat="45.59266" lon="4.92292">
        <ele>223.2</ele>
        <time>2020-06-28T09:30:17.000Z</time>
      </trkpt>
      <trkpt lat="45.59261" lon="4.92289">
        <ele>223.2</ele>
        <time>2020-06-28T09:30:18.000Z</time>
      </trkpt>
      <trkpt lat="45.59247" lon="4.92277">
        <ele>223</ele>
        <time>2020-06-28T09:30:22.000Z</time>
      </trkpt>
      <trkpt lat="45.59243" lon="4.92273">
        <ele>222.9</ele>
        <time>2020-06-28T09:30:23.000Z</time>
      </trkpt>
      <trkpt lat="45.59236" lon="4.92266">
        <ele>222.8</ele>
        <time>2020-06-28T09:30:25.000Z</time>
      </trkpt>
      <trkpt lat="45.59228" lon="4.92259">
        <ele>222.8</ele>
        <time>2020-06-28T09:30:27.000Z</time>
      </trkpt>
      <trkpt lat="45.59224" lon="4.92255">
        <ele>222.7</ele>
        <time>2020-06-28T09:30:28.000Z</time>
      </trkpt>
      <trkpt lat="45.592" lon="4.92228">
        <ele>222.5</ele>
        <time>2020-06-28T09:30:33.000Z</time>
      </trkpt>
      <trkpt lat="45.59176" lon="4.92204">
        <ele>222.3</ele>
        <time>2020-06-28T09:30:40.000Z</time>
      </trkpt>
      <trkpt lat="45.59161" lon="4.92199">
        <ele>222.2</ele>
        <time>2020-06-28T09:30:45.000Z</time>
      </trkpt>
      <trkpt lat="45.59152" lon="4.92186">
        <ele>222.2</ele>
        <time>2020-06-28T09:30:50.000Z</time>
      </trkpt>
      <trkpt lat="45.59148" lon="4.92163">
        <ele>222</ele>
        <time>2020-06-28T09:30:55.000Z</time>
      </trkpt>
      <trkpt lat="45.59136" lon="4.92144">
        <ele>221.8</ele>
        <time>2020-06-28T09:30:59.000Z</time>
      </trkpt>
      <trkpt lat="45.59131" lon="4.92137">
        <ele>221.8</ele>
        <time>2020-06-28T09:31:01.000Z</time>
      </trkpt>
      <trkpt lat="45.59118" lon="4.92121">
        <ele>221.6</ele>
        <time>2020-06-28T09:31:05.000Z</time>
      </trkpt>
      <trkpt lat="45.59094" lon="4.92081">
        <ele>221</ele>
        <time>2020-06-28T09:31:13.000Z</time>
      </trkpt>
      <trkpt lat="45.59075" lon="4.92053">
        <ele>220.9</ele>
        <time>2020-06-28T09:31:19.000Z</time>
      </trkpt>
      <trkpt lat="45.59071" lon="4.92049">
        <ele>220.9</ele>
        <time>2020-06-28T09:31:20.000Z</time>
      </trkpt>
      <trkpt lat="45.59058" lon="4.92043">
        <ele>220.8</ele>
        <time>2020-06-28T09:31:23.000Z</time>
      </trkpt>
      <trkpt lat="45.59025" lon="4.92029">
        <ele>220.7</ele>
        <time>2020-06-28T09:31:31.000Z</time>
      </trkpt>
      <trkpt lat="45.59002" lon="4.92019">
        <ele>220.8</ele>
        <time>2020-06-28T09:31:36.000Z</time>
      </trkpt>
      <trkpt lat="45.58999" lon="4.92018">
        <ele>220.9</ele>
        <time>2020-06-28T09:31:37.000Z</time>
      </trkpt>
      <trkpt lat="45.5899" lon="4.92015">
        <ele>221.1</ele>
        <time>2020-06-28T09:31:41.000Z</time>
      </trkpt>
      <trkpt lat="45.58989" lon="4.9202">
        <ele>221.2</ele>
        <time>2020-06-28T09:31:44.000Z</time>
      </trkpt>
      <trkpt lat="45.5899" lon="4.92026">
        <ele>221.4</ele>
        <time>2020-06-28T09:31:46.000Z</time>
      </trkpt>
      <trkpt lat="45.58993" lon="4.92044">
        <ele>221.6</ele>
        <time>2020-06-28T09:31:51.000Z</time>
      </trkpt>
      <trkpt lat="45.58996" lon="4.9205">
        <ele>221.7</ele>
        <time>2020-06-28T09:31:53.000Z</time>
      </trkpt>
      <trkpt lat="45.59004" lon="4.92067">
        <ele>223.4</ele>
        <time>2020-06-28T09:32:00.000Z</time>
      </trkpt>
      <trkpt lat="45.59007" lon="4.92072">
        <ele>223.9</ele>
        <time>2020-06-28T09:32:02.000Z</time>
      </trkpt>
      <trkpt lat="45.59011" lon="4.92079">
        <ele>224.6</ele>
        <time>2020-06-28T09:32:05.000Z</time>
      </trkpt>
      <trkpt lat="45.59016" lon="4.92085">
        <ele>225.4</ele>
        <time>2020-06-28T09:32:08.000Z</time>
      </trkpt>
      <trkpt lat="45.59021" lon="4.92089">
        <ele>226.1</ele>
        <time>2020-06-28T09:32:11.000Z</time>
      </trkpt>
      <trkpt lat="45.59027" lon="4.92094">
        <ele>227</ele>
        <time>2020-06-28T09:32:15.000Z</time>
      </trkpt>
      <trkpt lat="45.59038" lon="4.92093">
        <ele>228.4</ele>
        <time>2020-06-28T09:32:20.000Z</time>
      </trkpt>
      <trkpt lat="45.59042" lon="4.92095">
        <ele>229</ele>
        <time>2020-06-28T09:32:22.000Z</time>
      </trkpt>
      <trkpt lat="45.59045" lon="4.92098">
        <ele>229.4</ele>
        <time>2020-06-28T09:32:24.000Z</time>
      </trkpt>
      <trkpt lat="45.59053" lon="4.9211">
        <ele>230.8</ele>
        <time>2020-06-28T09:32:30.000Z</time>
      </trkpt>
      <trkpt lat="45.59059" lon="4.92123">
        <ele>232.1</ele>
        <time>2020-06-28T09:32:36.000Z</time>
      </trkpt>
      <trkpt lat="45.59066" lon="4.92136">
        <ele>233.5</ele>
        <time>2020-06-28T09:32:42.000Z</time>
      </trkpt>
      <trkpt lat="45.59071" lon="4.92143">
        <ele>234.2</ele>
        <time>2020-06-28T09:32:45.000Z</time>
      </trkpt>
      <trkpt lat="45.59074" lon="4.92149">
        <ele>234.8</ele>
        <time>2020-06-28T09:32:48.000Z</time>
      </trkpt>
      <trkpt lat="45.59079" lon="4.92157">
        <ele>235.7</ele>
        <time>2020-06-28T09:32:52.000Z</time>
      </trkpt>
      <trkpt lat="45.5908" lon="4.9216">
        <ele>235.9</ele>
        <time>2020-06-28T09:32:53.000Z</time>
      </trkpt>
      <trkpt lat="45.59085" lon="4.92169">
        <ele>236.7</ele>
        <time>2020-06-28T09:32:57.000Z</time>
      </trkpt>
      <trkpt lat="45.59088" lon="4.92179">
        <ele>237.6</ele>
        <time>2020-06-28T09:33:01.000Z</time>
      </trkpt>
      <trkpt lat="45.59092" lon="4.92191">
        <ele>238.4</ele>
        <time>2020-06-28T09:33:05.000Z</time>
      </trkpt>
      <trkpt lat="45.59095" lon="4.92203">
        <ele>239.3</ele>
        <time>2020-06-28T09:33:09.000Z</time>
      </trkpt>
      <trkpt lat="45.59095" lon="4.92206">
        <ele>239.5</ele>
        <time>2020-06-28T09:33:10.000Z</time>
      </trkpt>
      <trkpt lat="45.59099" lon="4.92221">
        <ele>240.6</ele>
        <time>2020-06-28T09:33:15.000Z</time>
      </trkpt>
      <trkpt lat="45.591" lon="4.92226">
        <ele>241</ele>
        <time>2020-06-28T09:33:17.000Z</time>
      </trkpt>
      <trkpt lat="45.591" lon="4.92241">
        <ele>241.9</ele>
        <time>2020-06-28T09:33:22.000Z</time>
      </trkpt>
      <trkpt lat="45.59099" lon="4.92246">
        <ele>242.3</ele>
        <time>2020-06-28T09:33:24.000Z</time>
      </trkpt>
      <trkpt lat="45.59093" lon="4.92253">
        <ele>243</ele>
        <time>2020-06-28T09:33:28.000Z</time>
      </trkpt>
      <trkpt lat="45.59089" lon="4.92254">
        <ele>243.5</ele>
        <time>2020-06-28T09:33:30.000Z</time>
      </trkpt>
      <trkpt lat="45.5908" lon="4.92254">
        <ele>244.1</ele>
        <time>2020-06-28T09:33:34.000Z</time>
      </trkpt>
      <trkpt lat="45.59073" lon="4.92254">
        <ele>244.6</ele>
        <time>2020-06-28T09:33:37.000Z</time>
      </trkpt>
      <trkpt lat="45.59071" lon="4.92254">
        <ele>244.8</ele>
        <time>2020-06-28T09:33:38.000Z</time>
      </trkpt>
      <trkpt lat="45.59064" lon="4.92252">
        <ele>245.2</ele>
        <time>2020-06-28T09:33:41.000Z</time>
      </trkpt>
      <trkpt lat="45.59051" lon="4.92248">
        <ele>246.1</ele>
        <time>2020-06-28T09:33:47.000Z</time>
      </trkpt>
      <trkpt lat="45.59045" lon="4.92249">
        <ele>246.5</ele>
        <time>2020-06-28T09:33:50.000Z</time>
      </trkpt>
      <trkpt lat="45.59044" lon="4.9225">
        <ele>246.6</ele>
        <time>2020-06-28T09:33:51.000Z</time>
      </trkpt>
      <trkpt lat="45.59038" lon="4.92261">
        <ele>247.4</ele>
        <time>2020-06-28T09:33:56.000Z</time>
      </trkpt>
      <trkpt lat="45.59037" lon="4.92263">
        <ele>247.5</ele>
        <time>2020-06-28T09:33:57.000Z</time>
      </trkpt>
      <trkpt lat="45.59026" lon="4.92277">
        <ele>248.8</ele>
        <time>2020-06-28T09:34:04.000Z</time>
      </trkpt>
      <trkpt lat="45.59024" lon="4.92279">
        <ele>249</ele>
        <time>2020-06-28T09:34:05.000Z</time>
      </trkpt>
      <trkpt lat="45.59016" lon="4.92287">
        <ele>250.1</ele>
        <time>2020-06-28T09:34:10.000Z</time>
      </trkpt>
      <trkpt lat="45.59014" lon="4.92291">
        <ele>250.4</ele>
        <time>2020-06-28T09:34:12.000Z</time>
      </trkpt>
      <trkpt lat="45.59013" lon="4.92293">
        <ele>250.6</ele>
        <time>2020-06-28T09:34:13.000Z</time>
      </trkpt>
      <trkpt lat="45.59008" lon="4.92303">
        <ele>251.5</ele>
        <time>2020-06-28T09:34:17.000Z</time>
      </trkpt>
      <trkpt lat="45.59004" lon="4.92314">
        <ele>252.5</ele>
        <time>2020-06-28T09:34:21.000Z</time>
      </trkpt>
      <trkpt lat="45.59002" lon="4.92322">
        <ele>253.2</ele>
        <time>2020-06-28T09:34:24.000Z</time>
      </trkpt>
      <trkpt lat="45.58999" lon="4.92334">
        <ele>254.4</ele>
        <time>2020-06-28T09:34:29.000Z</time>
      </trkpt>
      <trkpt lat="45.58996" lon="4.92346">
        <ele>255.6</ele>
        <time>2020-06-28T09:34:34.000Z</time>
      </trkpt>
      <trkpt lat="45.58995" lon="4.92354">
        <ele>256.4</ele>
        <time>2020-06-28T09:34:37.000Z</time>
      </trkpt>
      <trkpt lat="45.58994" lon="4.9236">
        <ele>256.9</ele>
        <time>2020-06-28T09:34:39.000Z</time>
      </trkpt>
      <trkpt lat="45.58991" lon="4.92372">
        <ele>258</ele>
        <time>2020-06-28T09:34:43.000Z</time>
      </trkpt>
      <trkpt lat="45.58991" lon="4.92375">
        <ele>258.3</ele>
        <time>2020-06-28T09:34:44.000Z</time>
      </trkpt>
      <trkpt lat="45.58988" lon="4.92389">
        <ele>259.6</ele>
        <time>2020-06-28T09:34:49.000Z</time>
      </trkpt>
      <trkpt lat="45.58987" lon="4.92397">
        <ele>260.2</ele>
        <time>2020-06-28T09:34:52.000Z</time>
      </trkpt>
      <trkpt lat="45.58986" lon="4.92403">
        <ele>260.7</ele>
        <time>2020-06-28T09:34:54.000Z</time>
      </trkpt>
      <trkpt lat="45.58984" lon="4.92415">
        <ele>261.5</ele>
        <time>2020-06-28T09:34:58.000Z</time>
      </trkpt>
      <trkpt lat="45.58984" lon="4.92427">
        <ele>262.3</ele>
        <time>2020-06-28T09:35:02.000Z</time>
      </trkpt>
      <trkpt lat="45.58984" lon="4.92431">
        <ele>262.5</ele>
        <time>2020-06-28T09:35:03.000Z</time>
      </trkpt>
      <trkpt lat="45.58986" lon="4.92448">
        <ele>263.2</ele>
        <time>2020-06-28T09:35:08.000Z</time>
      </trkpt>
      <trkpt lat="45.58987" lon="4.92451">
        <ele>263.3</ele>
        <time>2020-06-28T09:35:09.000Z</time>
      </trkpt>
      <trkpt lat="45.58999" lon="4.92461">
        <ele>263.8</ele>
        <time>2020-06-28T09:35:14.000Z</time>
      </trkpt>
      <trkpt lat="45.59009" lon="4.92469">
        <ele>264.1</ele>
        <time>2020-06-28T09:35:18.000Z</time>
      </trkpt>
      <trkpt lat="45.59021" lon="4.92479">
        <ele>264.1</ele>
        <time>2020-06-28T09:35:22.000Z</time>
      </trkpt>
      <trkpt lat="45.59049" lon="4.92504">
        <ele>264</ele>
        <time>2020-06-28T09:35:30.000Z</time>
      </trkpt>
      <trkpt lat="45.59079" lon="4.92529">
        <ele>264.1</ele>
        <time>2020-06-28T09:35:38.000Z</time>
      </trkpt>
      <trkpt lat="45.59087" lon="4.92535">
        <ele>264.2</ele>
        <time>2020-06-28T09:35:40.000Z</time>
      </trkpt>
      <trkpt lat="45.59102" lon="4.9254">
        <ele>264.7</ele>
        <time>2020-06-28T09:35:44.000Z</time>
      </trkpt>
      <trkpt lat="45.59132" lon="4.92536">
        <ele>266</ele>
        <time>2020-06-28T09:35:52.000Z</time>
      </trkpt>
      <trkpt lat="45.59142" lon="4.92539">
        <ele>266.4</ele>
        <time>2020-06-28T09:35:55.000Z</time>
      </trkpt>
      <trkpt lat="45.5915" lon="4.92543">
        <ele>266.6</ele>
        <time>2020-06-28T09:35:57.000Z</time>
      </trkpt>
      <trkpt lat="45.59164" lon="4.92555">
        <ele>267</ele>
        <time>2020-06-28T09:36:01.000Z</time>
      </trkpt>
      <trkpt lat="45.59182" lon="4.92572">
        <ele>267.8</ele>
        <time>2020-06-28T09:36:06.000Z</time>
      </trkpt>
      <trkpt lat="45.59189" lon="4.9258">
        <ele>268.2</ele>
        <time>2020-06-28T09:36:08.000Z</time>
      </trkpt>
      <trkpt lat="45.59194" lon="4.92594">
        <ele>269</ele>
        <time>2020-06-28T09:36:11.000Z</time>
      </trkpt>
      <trkpt lat="45.59195" lon="4.92603">
        <ele>269.5</ele>
        <time>2020-06-28T09:36:13.000Z</time>
      </trkpt>
      <trkpt lat="45.59195" lon="4.9261">
        <ele>269.9</ele>
        <time>2020-06-28T09:36:15.000Z</time>
      </trkpt>
      <trkpt lat="45.59195" lon="4.92613">
        <ele>270.2</ele>
        <time>2020-06-28T09:36:16.000Z</time>
      </trkpt>
      <trkpt lat="45.59194" lon="4.92625">
        <ele>271</ele>
        <time>2020-06-28T09:36:20.000Z</time>
      </trkpt>
      <trkpt lat="45.59193" lon="4.92633">
        <ele>271.6</ele>
        <time>2020-06-28T09:36:23.000Z</time>
      </trkpt>
      <trkpt lat="45.59193" lon="4.92636">
        <ele>271.8</ele>
        <time>2020-06-28T09:36:24.000Z</time>
      </trkpt>
      <trkpt lat="45.59192" lon="4.92646">
        <ele>272.8</ele>
        <time>2020-06-28T09:36:28.000Z</time>
      </trkpt>
      <trkpt lat="45.5919" lon="4.92656">
        <ele>273.7</ele>
        <time>2020-06-28T09:36:32.000Z</time>
      </trkpt>
      <trkpt lat="45.59188" lon="4.92667">
        <ele>275</ele>
        <time>2020-06-28T09:36:37.000Z</time>
      </trkpt>
      <trkpt lat="45.59187" lon="4.92676">
        <ele>276.1</ele>
        <time>2020-06-28T09:36:41.000Z</time>
      </trkpt>
      <trkpt lat="45.59187" lon="4.92678">
        <ele>276.3</ele>
        <time>2020-06-28T09:36:42.000Z</time>
      </trkpt>
      <trkpt lat="45.59186" lon="4.92686">
        <ele>277.4</ele>
        <time>2020-06-28T09:36:46.000Z</time>
      </trkpt>
      <trkpt lat="45.59185" lon="4.9269">
        <ele>278</ele>
        <time>2020-06-28T09:36:48.000Z</time>
      </trkpt>
      <trkpt lat="45.59185" lon="4.92692">
        <ele>278.3</ele>
        <time>2020-06-28T09:36:49.000Z</time>
      </trkpt>
      <trkpt lat="45.59184" lon="4.92694">
        <ele>278.6</ele>
        <time>2020-06-28T09:36:50.000Z</time>
      </trkpt>
      <trkpt lat="45.59182" lon="4.92701">
        <ele>279.5</ele>
        <time>2020-06-28T09:36:53.000Z</time>
      </trkpt>
      <trkpt lat="45.59181" lon="4.92704">
        <ele>280.1</ele>
        <time>2020-06-28T09:36:55.000Z</time>
      </trkpt>
      <trkpt lat="45.59178" lon="4.9271">
        <ele>281</ele>
        <time>2020-06-28T09:36:58.000Z</time>
      </trkpt>
      <trkpt lat="45.59174" lon="4.9272">
        <ele>282.4</ele>
        <time>2020-06-28T09:37:03.000Z</time>
      </trkpt>
      <trkpt lat="45.59169" lon="4.92728">
        <ele>283.7</ele>
        <time>2020-06-28T09:37:08.000Z</time>
      </trkpt>
      <trkpt lat="45.59166" lon="4.92733">
        <ele>284.3</ele>
        <time>2020-06-28T09:37:11.000Z</time>
      </trkpt>
      <trkpt lat="45.59163" lon="4.92739">
        <ele>285</ele>
        <time>2020-06-28T09:37:14.000Z</time>
      </trkpt>
      <trkpt lat="45.59159" lon="4.92749">
        <ele>285.6</ele>
        <time>2020-06-28T09:37:18.000Z</time>
      </trkpt>
      <trkpt lat="45.59149" lon="4.92768">
        <ele>285.8</ele>
        <time>2020-06-28T09:37:25.000Z</time>
      </trkpt>
      <trkpt lat="45.59143" lon="4.92788">
        <ele>285</ele>
        <time>2020-06-28T09:37:30.000Z</time>
      </trkpt>
      <trkpt lat="45.59147" lon="4.92796">
        <ele>284.5</ele>
        <time>2020-06-28T09:37:32.000Z</time>
      </trkpt>
      <trkpt lat="45.59149" lon="4.92798">
        <ele>284.4</ele>
        <time>2020-06-28T09:37:33.000Z</time>
      </trkpt>
      <trkpt lat="45.59171" lon="4.92821">
        <ele>283.5</ele>
        <time>2020-06-28T09:37:40.000Z</time>
      </trkpt>
      <trkpt lat="45.59174" lon="4.92824">
        <ele>283.5</ele>
        <time>2020-06-28T09:37:41.000Z</time>
      </trkpt>
      <trkpt lat="45.5919" lon="4.92842">
        <ele>283.5</ele>
        <time>2020-06-28T09:37:46.000Z</time>
      </trkpt>
      <trkpt lat="45.59205" lon="4.92859">
        <ele>283.7</ele>
        <time>2020-06-28T09:37:51.000Z</time>
      </trkpt>
      <trkpt lat="45.59221" lon="4.92876">
        <ele>284</ele>
        <time>2020-06-28T09:37:56.000Z</time>
      </trkpt>
      <trkpt lat="45.59233" lon="4.92889">
        <ele>284.3</ele>
        <time>2020-06-28T09:38:00.000Z</time>
      </trkpt>
      <trkpt lat="45.59239" lon="4.92896">
        <ele>284.4</ele>
        <time>2020-06-28T09:38:02.000Z</time>
      </trkpt>
      <trkpt lat="45.59271" lon="4.92931">
        <ele>285.1</ele>
        <time>2020-06-28T09:38:12.000Z</time>
      </trkpt>
      <trkpt lat="45.5929" lon="4.92951">
        <ele>285.6</ele>
        <time>2020-06-28T09:38:18.000Z</time>
      </trkpt>
      <trkpt lat="45.59302" lon="4.92963">
        <ele>286</ele>
        <time>2020-06-28T09:38:22.000Z</time>
      </trkpt>
      <trkpt lat="45.59335" lon="4.92997">
        <ele>286.9</ele>
        <time>2020-06-28T09:38:33.000Z</time>
      </trkpt>
      <trkpt lat="45.59338" lon="4.93">
        <ele>286.9</ele>
        <time>2020-06-28T09:38:34.000Z</time>
      </trkpt>
      <trkpt lat="45.59364" lon="4.93029">
        <ele>287.4</ele>
        <time>2020-06-28T09:38:43.000Z</time>
      </trkpt>
      <trkpt lat="45.5937" lon="4.93036">
        <ele>287.4</ele>
        <time>2020-06-28T09:38:45.000Z</time>
      </trkpt>
      <trkpt lat="45.59387" lon="4.93058">
        <ele>287.5</ele>
        <time>2020-06-28T09:38:51.000Z</time>
      </trkpt>
      <trkpt lat="45.59402" lon="4.93071">
        <ele>288</ele>
        <time>2020-06-28T09:38:56.000Z</time>
      </trkpt>
      <trkpt lat="45.59408" lon="4.93076">
        <ele>288.2</ele>
        <time>2020-06-28T09:38:58.000Z</time>
      </trkpt>
      <trkpt lat="45.59421" lon="4.93097">
        <ele>288.8</ele>
        <time>2020-06-28T09:39:04.000Z</time>
      </trkpt>
      <trkpt lat="45.59428" lon="4.93121">
        <ele>289.5</ele>
        <time>2020-06-28T09:39:09.000Z</time>
      </trkpt>
      <trkpt lat="45.59432" lon="4.93135">
        <ele>290</ele>
        <time>2020-06-28T09:39:12.000Z</time>
      </trkpt>
      <trkpt lat="45.5944" lon="4.93157">
        <ele>291</ele>
        <time>2020-06-28T09:39:17.000Z</time>
      </trkpt>
      <trkpt lat="45.59445" lon="4.93165">
        <ele>291.4</ele>
        <time>2020-06-28T09:39:19.000Z</time>
      </trkpt>
      <trkpt lat="45.59455" lon="4.93178">
        <ele>292.3</ele>
        <time>2020-06-28T09:39:23.000Z</time>
      </trkpt>
      <trkpt lat="45.59468" lon="4.93195">
        <ele>293.4</ele>
        <time>2020-06-28T09:39:28.000Z</time>
      </trkpt>
      <trkpt lat="45.59474" lon="4.93201">
        <ele>293.8</ele>
        <time>2020-06-28T09:39:30.000Z</time>
      </trkpt>
      <trkpt lat="45.59482" lon="4.9321">
        <ele>294.4</ele>
        <time>2020-06-28T09:39:33.000Z</time>
      </trkpt>
      <trkpt lat="45.59496" lon="4.93225">
        <ele>295.2</ele>
        <time>2020-06-28T09:39:38.000Z</time>
      </trkpt>
      <trkpt lat="45.59498" lon="4.93228">
        <ele>295.3</ele>
        <time>2020-06-28T09:39:39.000Z</time>
      </trkpt>
      <trkpt lat="45.59514" lon="4.93246">
        <ele>296.1</ele>
        <time>2020-06-28T09:39:45.000Z</time>
      </trkpt>
      <trkpt lat="45.59524" lon="4.93257">
        <ele>296.8</ele>
        <time>2020-06-28T09:39:49.000Z</time>
      </trkpt>
      <trkpt lat="45.59527" lon="4.93259">
        <ele>296.7</ele>
        <time>2020-06-28T09:39:50.000Z</time>
      </trkpt>
      <trkpt lat="45.59532" lon="4.93258">
        <ele>296.5</ele>
        <time>2020-06-28T09:39:52.000Z</time>
      </trkpt>
      <trkpt lat="45.59538" lon="4.93242">
        <ele>295.4</ele>
        <time>2020-06-28T09:39:55.000Z</time>
      </trkpt>
      <trkpt lat="45.5955" lon="4.93208">
        <ele>291.7</ele>
        <time>2020-06-28T09:39:59.000Z</time>
      </trkpt>
      <trkpt lat="45.59553" lon="4.93199">
        <ele>290.5</ele>
        <time>2020-06-28T09:40:00.000Z</time>
      </trkpt>
      <trkpt lat="45.59563" lon="4.93172">
        <ele>286.7</ele>
        <time>2020-06-28T09:40:03.000Z</time>
      </trkpt>
      <trkpt lat="45.59569" lon="4.93155">
        <ele>284.4</ele>
        <time>2020-06-28T09:40:05.000Z</time>
      </trkpt>
      <trkpt lat="45.59572" lon="4.93148">
        <ele>283.4</ele>
        <time>2020-06-28T09:40:06.000Z</time>
      </trkpt>
      <trkpt lat="45.59575" lon="4.93141">
        <ele>282.6</ele>
        <time>2020-06-28T09:40:07.000Z</time>
      </trkpt>
      <trkpt lat="45.59577" lon="4.93135">
        <ele>281.8</ele>
        <time>2020-06-28T09:40:08.000Z</time>
      </trkpt>
      <trkpt lat="45.59579" lon="4.93129">
        <ele>281.1</ele>
        <time>2020-06-28T09:40:09.000Z</time>
      </trkpt>
      <trkpt lat="45.59582" lon="4.93126">
        <ele>280.6</ele>
        <time>2020-06-28T09:40:10.000Z</time>
      </trkpt>
      <trkpt lat="45.59585" lon="4.93124">
        <ele>280.2</ele>
        <time>2020-06-28T09:40:11.000Z</time>
      </trkpt>
      <trkpt lat="45.5959" lon="4.93126">
        <ele>279.7</ele>
        <time>2020-06-28T09:40:13.000Z</time>
      </trkpt>
      <trkpt lat="45.59596" lon="4.93132">
        <ele>279.4</ele>
        <time>2020-06-28T09:40:15.000Z</time>
      </trkpt>
      <trkpt lat="45.59602" lon="4.93138">
        <ele>279.3</ele>
        <time>2020-06-28T09:40:17.000Z</time>
      </trkpt>
      <trkpt lat="45.59609" lon="4.93145">
        <ele>279.3</ele>
        <time>2020-06-28T09:40:19.000Z</time>
      </trkpt>
      <trkpt lat="45.59612" lon="4.93148">
        <ele>279.3</ele>
        <time>2020-06-28T09:40:20.000Z</time>
      </trkpt>
      <trkpt lat="45.59637" lon="4.9317">
        <ele>279.5</ele>
        <time>2020-06-28T09:40:26.000Z</time>
      </trkpt>
      <trkpt lat="45.59641" lon="4.93174">
        <ele>279.6</ele>
        <time>2020-06-28T09:40:27.000Z</time>
      </trkpt>
      <trkpt lat="45.59662" lon="4.93194">
        <ele>279.5</ele>
        <time>2020-06-28T09:40:32.000Z</time>
      </trkpt>
      <trkpt lat="45.59691" lon="4.9322">
        <ele>278</ele>
        <time>2020-06-28T09:40:38.000Z</time>
      </trkpt>
      <trkpt lat="45.59707" lon="4.93236">
        <ele>276.8</ele>
        <time>2020-06-28T09:40:41.000Z</time>
      </trkpt>
      <trkpt lat="45.59719" lon="4.93247">
        <ele>275.8</ele>
        <time>2020-06-28T09:40:43.000Z</time>
      </trkpt>
      <trkpt lat="45.59725" lon="4.93253">
        <ele>275.4</ele>
        <time>2020-06-28T09:40:44.000Z</time>
      </trkpt>
      <trkpt lat="45.59748" lon="4.93273">
        <ele>276.2</ele>
        <time>2020-06-28T09:40:48.000Z</time>
      </trkpt>
      <trkpt lat="45.59753" lon="4.93278">
        <ele>276.6</ele>
        <time>2020-06-28T09:40:49.000Z</time>
      </trkpt>
      <trkpt lat="45.59777" lon="4.93304">
        <ele>279.5</ele>
        <time>2020-06-28T09:40:55.000Z</time>
      </trkpt>
      <trkpt lat="45.59786" lon="4.93314">
        <ele>280.7</ele>
        <time>2020-06-28T09:40:59.000Z</time>
      </trkpt>
      <trkpt lat="45.59791" lon="4.93319">
        <ele>281.3</ele>
        <time>2020-06-28T09:41:01.000Z</time>
      </trkpt>
      <trkpt lat="45.59796" lon="4.93323">
        <ele>281.8</ele>
        <time>2020-06-28T09:41:03.000Z</time>
      </trkpt>
      <trkpt lat="45.59802" lon="4.93328">
        <ele>282.4</ele>
        <time>2020-06-28T09:41:05.000Z</time>
      </trkpt>
      <trkpt lat="45.59804" lon="4.9333">
        <ele>282.6</ele>
        <time>2020-06-28T09:41:06.000Z</time>
      </trkpt>
      <trkpt lat="45.59813" lon="4.93337">
        <ele>283.5</ele>
        <time>2020-06-28T09:41:09.000Z</time>
      </trkpt>
      <trkpt lat="45.59822" lon="4.93346">
        <ele>284.5</ele>
        <time>2020-06-28T09:41:13.000Z</time>
      </trkpt>
      <trkpt lat="45.59823" lon="4.93348">
        <ele>284.8</ele>
        <time>2020-06-28T09:41:14.000Z</time>
      </trkpt>
      <trkpt lat="45.59837" lon="4.9336">
        <ele>286.4</ele>
        <time>2020-06-28T09:41:20.000Z</time>
      </trkpt>
      <trkpt lat="45.59839" lon="4.93362">
        <ele>286.6</ele>
        <time>2020-06-28T09:41:21.000Z</time>
      </trkpt>
      <trkpt lat="45.59846" lon="4.9337">
        <ele>287.5</ele>
        <time>2020-06-28T09:41:24.000Z</time>
      </trkpt>
      <trkpt lat="45.59853" lon="4.93377">
        <ele>288.2</ele>
        <time>2020-06-28T09:41:27.000Z</time>
      </trkpt>
      <trkpt lat="45.59856" lon="4.93383">
        <ele>288.5</ele>
        <time>2020-06-28T09:41:29.000Z</time>
      </trkpt>
      <trkpt lat="45.59862" lon="4.93389">
        <ele>289.4</ele>
        <time>2020-06-28T09:41:33.000Z</time>
      </trkpt>
      <trkpt lat="45.59863" lon="4.9339">
        <ele>289.6</ele>
        <time>2020-06-28T09:41:34.000Z</time>
      </trkpt>
      <trkpt lat="45.59864" lon="4.93391">
        <ele>289.7</ele>
        <time>2020-06-28T09:41:35.000Z</time>
      </trkpt>
      <trkpt lat="45.59863" lon="4.93396">
        <ele>290.1</ele>
        <time>2020-06-28T09:41:38.000Z</time>
      </trkpt>
      <trkpt lat="45.59863" lon="4.934">
        <ele>290.4</ele>
        <time>2020-06-28T09:41:40.000Z</time>
      </trkpt>
      <trkpt lat="45.59864" lon="4.93408">
        <ele>291</ele>
        <time>2020-06-28T09:41:43.000Z</time>
      </trkpt>
      <trkpt lat="45.59866" lon="4.93413">
        <ele>291.3</ele>
        <time>2020-06-28T09:41:45.000Z</time>
      </trkpt>
      <trkpt lat="45.59867" lon="4.93416">
        <ele>291.5</ele>
        <time>2020-06-28T09:41:46.000Z</time>
      </trkpt>
      <trkpt lat="45.59871" lon="4.93426">
        <ele>292.1</ele>
        <time>2020-06-28T09:41:50.000Z</time>
      </trkpt>
      <trkpt lat="45.59875" lon="4.93433">
        <ele>292.6</ele>
        <time>2020-06-28T09:41:53.000Z</time>
      </trkpt>
      <trkpt lat="45.59881" lon="4.93445">
        <ele>293.5</ele>
        <time>2020-06-28T09:41:58.000Z</time>
      </trkpt>
      <trkpt lat="45.59887" lon="4.93458">
        <ele>294.3</ele>
        <time>2020-06-28T09:42:03.000Z</time>
      </trkpt>
      <trkpt lat="45.59891" lon="4.93466">
        <ele>294.8</ele>
        <time>2020-06-28T09:42:06.000Z</time>
      </trkpt>
      <trkpt lat="45.59894" lon="4.9347">
        <ele>295.1</ele>
        <time>2020-06-28T09:42:08.000Z</time>
      </trkpt>
      <trkpt lat="45.599" lon="4.9348">
        <ele>295.9</ele>
        <time>2020-06-28T09:42:12.000Z</time>
      </trkpt>
      <trkpt lat="45.59907" lon="4.93492">
        <ele>296.8</ele>
        <time>2020-06-28T09:42:17.000Z</time>
      </trkpt>
      <trkpt lat="45.59914" lon="4.93506">
        <ele>297.9</ele>
        <time>2020-06-28T09:42:23.000Z</time>
      </trkpt>
      <trkpt lat="45.59915" lon="4.93509">
        <ele>298.1</ele>
        <time>2020-06-28T09:42:24.000Z</time>
      </trkpt>
      <trkpt lat="45.59921" lon="4.93521">
        <ele>299.1</ele>
        <time>2020-06-28T09:42:29.000Z</time>
      </trkpt>
      <trkpt lat="45.59922" lon="4.93523">
        <ele>299.3</ele>
        <time>2020-06-28T09:42:30.000Z</time>
      </trkpt>
      <trkpt lat="45.59927" lon="4.93534">
        <ele>300.4</ele>
        <time>2020-06-28T09:42:35.000Z</time>
      </trkpt>
      <trkpt lat="45.59931" lon="4.93541">
        <ele>301</ele>
        <time>2020-06-28T09:42:38.000Z</time>
      </trkpt>
      <trkpt lat="45.59935" lon="4.9355">
        <ele>301.8</ele>
        <time>2020-06-28T09:42:42.000Z</time>
      </trkpt>
      <trkpt lat="45.59939" lon="4.93558">
        <ele>302.5</ele>
        <time>2020-06-28T09:42:45.000Z</time>
      </trkpt>
      <trkpt lat="45.59941" lon="4.93563">
        <ele>303</ele>
        <time>2020-06-28T09:42:47.000Z</time>
      </trkpt>
      <trkpt lat="45.59946" lon="4.93573">
        <ele>303.9</ele>
        <time>2020-06-28T09:42:51.000Z</time>
      </trkpt>
      <trkpt lat="45.59949" lon="4.93579">
        <ele>304.6</ele>
        <time>2020-06-28T09:42:54.000Z</time>
      </trkpt>
      <trkpt lat="45.59953" lon="4.93585">
        <ele>305.3</ele>
        <time>2020-06-28T09:42:57.000Z</time>
      </trkpt>
      <trkpt lat="45.59958" lon="4.93596">
        <ele>306.5</ele>
        <time>2020-06-28T09:43:02.000Z</time>
      </trkpt>
      <trkpt lat="45.59959" lon="4.93597">
        <ele>306.7</ele>
        <time>2020-06-28T09:43:03.000Z</time>
      </trkpt>
      <trkpt lat="45.59962" lon="4.93604">
        <ele>307.4</ele>
        <time>2020-06-28T09:43:06.000Z</time>
      </trkpt>
      <trkpt lat="45.59967" lon="4.93609">
        <ele>308.1</ele>
        <time>2020-06-28T09:43:09.000Z</time>
      </trkpt>
      <trkpt lat="45.59968" lon="4.93611">
        <ele>308.3</ele>
        <time>2020-06-28T09:43:10.000Z</time>
      </trkpt>
      <trkpt lat="45.59972" lon="4.93619">
        <ele>309.2</ele>
        <time>2020-06-28T09:43:14.000Z</time>
      </trkpt>
      <trkpt lat="45.59976" lon="4.93625">
        <ele>309.9</ele>
        <time>2020-06-28T09:43:17.000Z</time>
      </trkpt>
      <trkpt lat="45.59979" lon="4.93628">
        <ele>310.3</ele>
        <time>2020-06-28T09:43:19.000Z</time>
      </trkpt>
      <trkpt lat="45.59982" lon="4.93634">
        <ele>311</ele>
        <time>2020-06-28T09:43:22.000Z</time>
      </trkpt>
      <trkpt lat="45.59988" lon="4.93643">
        <ele>312.2</ele>
        <time>2020-06-28T09:43:27.000Z</time>
      </trkpt>
      <trkpt lat="45.59989" lon="4.93645">
        <ele>312.5</ele>
        <time>2020-06-28T09:43:28.000Z</time>
      </trkpt>
      <trkpt lat="45.59994" lon="4.93655">
        <ele>313.6</ele>
        <time>2020-06-28T09:43:33.000Z</time>
      </trkpt>
      <trkpt lat="45.59994" lon="4.93658">
        <ele>313.8</ele>
        <time>2020-06-28T09:43:34.000Z</time>
      </trkpt>
      <trkpt lat="45.59997" lon="4.93667">
        <ele>314.6</ele>
        <time>2020-06-28T09:43:38.000Z</time>
      </trkpt>
      <trkpt lat="45.59998" lon="4.9368">
        <ele>315.8</ele>
        <time>2020-06-28T09:43:43.000Z</time>
      </trkpt>
      <trkpt lat="45.59998" lon="4.93695">
        <ele>316.8</ele>
        <time>2020-06-28T09:43:48.000Z</time>
      </trkpt>
      <trkpt lat="45.59997" lon="4.93707">
        <ele>317.6</ele>
        <time>2020-06-28T09:43:52.000Z</time>
      </trkpt>
      <trkpt lat="45.59996" lon="4.93713">
        <ele>317.9</ele>
        <time>2020-06-28T09:43:54.000Z</time>
      </trkpt>
      <trkpt lat="45.59995" lon="4.93733">
        <ele>319.1</ele>
        <time>2020-06-28T09:44:00.000Z</time>
      </trkpt>
      <trkpt lat="45.59995" lon="4.93739">
        <ele>319.4</ele>
        <time>2020-06-28T09:44:02.000Z</time>
      </trkpt>
      <trkpt lat="45.59994" lon="4.93756">
        <ele>320.2</ele>
        <time>2020-06-28T09:44:07.000Z</time>
      </trkpt>
      <trkpt lat="45.59994" lon="4.93768">
        <ele>321</ele>
        <time>2020-06-28T09:44:11.000Z</time>
      </trkpt>
      <trkpt lat="45.59992" lon="4.93775">
        <ele>321.1</ele>
        <time>2020-06-28T09:44:14.000Z</time>
      </trkpt>
      <trkpt lat="45.59991" lon="4.93779">
        <ele>321.2</ele>
        <time>2020-06-28T09:44:16.000Z</time>
      </trkpt>
      <trkpt lat="45.59994" lon="4.93785">
        <ele>321.3</ele>
        <time>2020-06-28T09:44:21.000Z</time>
      </trkpt>
      <trkpt lat="45.59995" lon="4.93786">
        <ele>321.3</ele>
        <time>2020-06-28T09:44:22.000Z</time>
      </trkpt>
      <trkpt lat="45.6" lon="4.93795">
        <ele>321.5</ele>
        <time>2020-06-28T09:44:29.000Z</time>
      </trkpt>
      <trkpt lat="45.60001" lon="4.93798">
        <ele>321.5</ele>
        <time>2020-06-28T09:44:31.000Z</time>
      </trkpt>
      <trkpt lat="45.60007" lon="4.93807">
        <ele>321.6</ele>
        <time>2020-06-28T09:44:37.000Z</time>
      </trkpt>
      <trkpt lat="45.60008" lon="4.93809">
        <ele>321.7</ele>
        <time>2020-06-28T09:44:38.000Z</time>
      </trkpt>
      <trkpt lat="45.60013" lon="4.9382">
        <ele>322.1</ele>
        <time>2020-06-28T09:44:45.000Z</time>
      </trkpt>
      <trkpt lat="45.60014" lon="4.93822">
        <ele>322.1</ele>
        <time>2020-06-28T09:44:46.000Z</time>
      </trkpt>
      <trkpt lat="45.60016" lon="4.93827">
        <ele>322.3</ele>
        <time>2020-06-28T09:44:49.000Z</time>
      </trkpt>
      <trkpt lat="45.60018" lon="4.93831">
        <ele>322.4</ele>
        <time>2020-06-28T09:44:51.000Z</time>
      </trkpt>
      <trkpt lat="45.60019" lon="4.93833">
        <ele>322.4</ele>
        <time>2020-06-28T09:44:52.000Z</time>
      </trkpt>
      <trkpt lat="45.60025" lon="4.93846">
        <ele>322.7</ele>
        <time>2020-06-28T09:44:58.000Z</time>
      </trkpt>
      <trkpt lat="45.6003" lon="4.93859">
        <ele>323</ele>
        <time>2020-06-28T09:45:03.000Z</time>
      </trkpt>
      <trkpt lat="45.60034" lon="4.93867">
        <ele>323.2</ele>
        <time>2020-06-28T09:45:06.000Z</time>
      </trkpt>
      <trkpt lat="45.60035" lon="4.93871">
        <ele>323.3</ele>
        <time>2020-06-28T09:45:07.000Z</time>
      </trkpt>
      <trkpt lat="45.60039" lon="4.9388">
        <ele>323.5</ele>
        <time>2020-06-28T09:45:10.000Z</time>
      </trkpt>
      <trkpt lat="45.60043" lon="4.93889">
        <ele>323.7</ele>
        <time>2020-06-28T09:45:13.000Z</time>
      </trkpt>
      <trkpt lat="45.60054" lon="4.9391">
        <ele>324.2</ele>
        <time>2020-06-28T09:45:20.000Z</time>
      </trkpt>
      <trkpt lat="45.60056" lon="4.93913">
        <ele>324.3</ele>
        <time>2020-06-28T09:45:21.000Z</time>
      </trkpt>
      <trkpt lat="45.60065" lon="4.93927">
        <ele>324.7</ele>
        <time>2020-06-28T09:45:26.000Z</time>
      </trkpt>
      <trkpt lat="45.60072" lon="4.93942">
        <ele>325.1</ele>
        <time>2020-06-28T09:45:31.000Z</time>
      </trkpt>
      <trkpt lat="45.60078" lon="4.93951">
        <ele>325.3</ele>
        <time>2020-06-28T09:45:34.000Z</time>
      </trkpt>
      <trkpt lat="45.6009" lon="4.93974">
        <ele>325.9</ele>
        <time>2020-06-28T09:45:41.000Z</time>
      </trkpt>
      <trkpt lat="45.60094" lon="4.9398">
        <ele>326.1</ele>
        <time>2020-06-28T09:45:43.000Z</time>
      </trkpt>
      <trkpt lat="45.60109" lon="4.94004">
        <ele>326.7</ele>
        <time>2020-06-28T09:45:50.000Z</time>
      </trkpt>
      <trkpt lat="45.60134" lon="4.94037">
        <ele>327.4</ele>
        <time>2020-06-28T09:46:00.000Z</time>
      </trkpt>
      <trkpt lat="45.60153" lon="4.9407">
        <ele>327.7</ele>
        <time>2020-06-28T09:46:08.000Z</time>
      </trkpt>
      <trkpt lat="45.60164" lon="4.94099">
        <ele>328.1</ele>
        <time>2020-06-28T09:46:14.000Z</time>
      </trkpt>
      <trkpt lat="45.60172" lon="4.94118">
        <ele>328.2</ele>
        <time>2020-06-28T09:46:18.000Z</time>
      </trkpt>
      <trkpt lat="45.60191" lon="4.94164">
        <ele>328.6</ele>
        <time>2020-06-28T09:46:27.000Z</time>
      </trkpt>
      <trkpt lat="45.60211" lon="4.94199">
        <ele>329.3</ele>
        <time>2020-06-28T09:46:35.000Z</time>
      </trkpt>
      <trkpt lat="45.60217" lon="4.94214">
        <ele>329.7</ele>
        <time>2020-06-28T09:46:38.000Z</time>
      </trkpt>
      <trkpt lat="45.60219" lon="4.94228">
        <ele>330.1</ele>
        <time>2020-06-28T09:46:41.000Z</time>
      </trkpt>
      <trkpt lat="45.6022" lon="4.94268">
        <ele>330.6</ele>
        <time>2020-06-28T09:46:48.000Z</time>
      </trkpt>
      <trkpt lat="45.60221" lon="4.94279">
        <ele>330.7</ele>
        <time>2020-06-28T09:46:50.000Z</time>
      </trkpt>
      <trkpt lat="45.60221" lon="4.94334">
        <ele>331.2</ele>
        <time>2020-06-28T09:46:59.000Z</time>
      </trkpt>
      <trkpt lat="45.60223" lon="4.94392">
        <ele>332</ele>
        <time>2020-06-28T09:47:09.000Z</time>
      </trkpt>
      <trkpt lat="45.60224" lon="4.9443">
        <ele>332.7</ele>
        <time>2020-06-28T09:47:16.000Z</time>
      </trkpt>
      <trkpt lat="45.60224" lon="4.94435">
        <ele>332.8</ele>
        <time>2020-06-28T09:47:17.000Z</time>
      </trkpt>
      <trkpt lat="45.60224" lon="4.9445">
        <ele>333.1</ele>
        <time>2020-06-28T09:47:20.000Z</time>
      </trkpt>
      <trkpt lat="45.60225" lon="4.94468">
        <ele>333.5</ele>
        <time>2020-06-28T09:47:24.000Z</time>
      </trkpt>
      <trkpt lat="45.60226" lon="4.94492">
        <ele>334.1</ele>
        <time>2020-06-28T09:47:30.000Z</time>
      </trkpt>
      <trkpt lat="45.60229" lon="4.94503">
        <ele>334.4</ele>
        <time>2020-06-28T09:47:34.000Z</time>
      </trkpt>
      <trkpt lat="45.60231" lon="4.94505">
        <ele>334.5</ele>
        <time>2020-06-28T09:47:35.000Z</time>
      </trkpt>
      <trkpt lat="45.60244" lon="4.94507">
        <ele>335</ele>
        <time>2020-06-28T09:47:40.000Z</time>
      </trkpt>
      <trkpt lat="45.60247" lon="4.94507">
        <ele>335.1</ele>
        <time>2020-06-28T09:47:41.000Z</time>
      </trkpt>
      <trkpt lat="45.60269" lon="4.94504">
        <ele>334.8</ele>
        <time>2020-06-28T09:47:48.000Z</time>
      </trkpt>
      <trkpt lat="45.603" lon="4.94503">
        <ele>333.4</ele>
        <time>2020-06-28T09:47:55.000Z</time>
      </trkpt>
      <trkpt lat="45.60335" lon="4.94497">
        <ele>331.9</ele>
        <time>2020-06-28T09:48:01.000Z</time>
      </trkpt>
      <trkpt lat="45.60348" lon="4.94496">
        <ele>331.4</ele>
        <time>2020-06-28T09:48:03.000Z</time>
      </trkpt>
      <trkpt lat="45.60374" lon="4.94493">
        <ele>330.9</ele>
        <time>2020-06-28T09:48:07.000Z</time>
      </trkpt>
      <trkpt lat="45.60381" lon="4.94493">
        <ele>330.8</ele>
        <time>2020-06-28T09:48:08.000Z</time>
      </trkpt>
      <trkpt lat="45.60387" lon="4.94494">
        <ele>330.8</ele>
        <time>2020-06-28T09:48:09.000Z</time>
      </trkpt>
      <trkpt lat="45.60394" lon="4.94496">
        <ele>330.7</ele>
        <time>2020-06-28T09:48:10.000Z</time>
      </trkpt>
      <trkpt lat="45.60405" lon="4.94504">
        <ele>330.8</ele>
        <time>2020-06-28T09:48:12.000Z</time>
      </trkpt>
      <trkpt lat="45.6041" lon="4.94507">
        <ele>330.8</ele>
        <time>2020-06-28T09:48:13.000Z</time>
      </trkpt>
      <trkpt lat="45.60425" lon="4.94519">
        <ele>330.9</ele>
        <time>2020-06-28T09:48:16.000Z</time>
      </trkpt>
      <trkpt lat="45.60442" lon="4.94532">
        <ele>330.9</ele>
        <time>2020-06-28T09:48:20.000Z</time>
      </trkpt>
      <trkpt lat="45.6046" lon="4.94544">
        <ele>330.9</ele>
        <time>2020-06-28T09:48:24.000Z</time>
      </trkpt>
      <trkpt lat="45.6047" lon="4.94544">
        <ele>330.8</ele>
        <time>2020-06-28T09:48:26.000Z</time>
      </trkpt>
      <trkpt lat="45.60482" lon="4.9453">
        <ele>331.1</ele>
        <time>2020-06-28T09:48:29.000Z</time>
      </trkpt>
      <trkpt lat="45.60486" lon="4.94517">
        <ele>331.3</ele>
        <time>2020-06-28T09:48:31.000Z</time>
      </trkpt>
      <trkpt lat="45.60493" lon="4.9449">
        <ele>331.8</ele>
        <time>2020-06-28T09:48:35.000Z</time>
      </trkpt>
      <trkpt lat="45.60505" lon="4.94446">
        <ele>332.4</ele>
        <time>2020-06-28T09:48:42.000Z</time>
      </trkpt>
      <trkpt lat="45.60513" lon="4.9442">
        <ele>332.7</ele>
        <time>2020-06-28T09:48:46.000Z</time>
      </trkpt>
      <trkpt lat="45.60516" lon="4.94408">
        <ele>332.8</ele>
        <time>2020-06-28T09:48:48.000Z</time>
      </trkpt>
      <trkpt lat="45.60536" lon="4.94338">
        <ele>333.1</ele>
        <time>2020-06-28T09:48:58.000Z</time>
      </trkpt>
      <trkpt lat="45.60558" lon="4.9426">
        <ele>333.6</ele>
        <time>2020-06-28T09:49:09.000Z</time>
      </trkpt>
      <trkpt lat="45.60562" lon="4.94247">
        <ele>333.7</ele>
        <time>2020-06-28T09:49:11.000Z</time>
      </trkpt>
      <trkpt lat="45.60575" lon="4.94206">
        <ele>333.8</ele>
        <time>2020-06-28T09:49:17.000Z</time>
      </trkpt>
      <trkpt lat="45.60584" lon="4.94186">
        <ele>333.8</ele>
        <time>2020-06-28T09:49:20.000Z</time>
      </trkpt>
      <trkpt lat="45.60604" lon="4.94154">
        <ele>333.6</ele>
        <time>2020-06-28T09:49:26.000Z</time>
      </trkpt>
      <trkpt lat="45.60629" lon="4.9411">
        <ele>332.5</ele>
        <time>2020-06-28T09:49:34.000Z</time>
      </trkpt>
      <trkpt lat="45.60651" lon="4.94063">
        <ele>330</ele>
        <time>2020-06-28T09:49:40.000Z</time>
      </trkpt>
      <trkpt lat="45.60669" lon="4.94014">
        <ele>327.5</ele>
        <time>2020-06-28T09:49:45.000Z</time>
      </trkpt>
      <trkpt lat="45.60677" lon="4.93993">
        <ele>326.6</ele>
        <time>2020-06-28T09:49:47.000Z</time>
      </trkpt>
      <trkpt lat="45.60687" lon="4.93972">
        <ele>326</ele>
        <time>2020-06-28T09:49:49.000Z</time>
      </trkpt>
      <trkpt lat="45.60698" lon="4.93953">
        <ele>325.6</ele>
        <time>2020-06-28T09:49:51.000Z</time>
      </trkpt>
      <trkpt lat="45.60703" lon="4.93944">
        <ele>325.5</ele>
        <time>2020-06-28T09:49:52.000Z</time>
      </trkpt>
      <trkpt lat="45.60712" lon="4.93927">
        <ele>325.5</ele>
        <time>2020-06-28T09:49:54.000Z</time>
      </trkpt>
      <trkpt lat="45.60722" lon="4.93912">
        <ele>325.4</ele>
        <time>2020-06-28T09:49:56.000Z</time>
      </trkpt>
      <trkpt lat="45.6073" lon="4.93897">
        <ele>325.4</ele>
        <time>2020-06-28T09:49:58.000Z</time>
      </trkpt>
      <trkpt lat="45.60745" lon="4.9387">
        <ele>325.6</ele>
        <time>2020-06-28T09:50:02.000Z</time>
      </trkpt>
      <trkpt lat="45.6076" lon="4.93845">
        <ele>325.9</ele>
        <time>2020-06-28T09:50:06.000Z</time>
      </trkpt>
      <trkpt lat="45.60781" lon="4.93809">
        <ele>326.5</ele>
        <time>2020-06-28T09:50:12.000Z</time>
      </trkpt>
      <trkpt lat="45.60791" lon="4.93793">
        <ele>327</ele>
        <time>2020-06-28T09:50:15.000Z</time>
      </trkpt>
      <trkpt lat="45.60794" lon="4.93787">
        <ele>327.2</ele>
        <time>2020-06-28T09:50:16.000Z</time>
      </trkpt>
      <trkpt lat="45.60797" lon="4.93782">
        <ele>327.3</ele>
        <time>2020-06-28T09:50:17.000Z</time>
      </trkpt>
      <trkpt lat="45.60812" lon="4.93757">
        <ele>327.9</ele>
        <time>2020-06-28T09:50:22.000Z</time>
      </trkpt>
      <trkpt lat="45.60818" lon="4.93747">
        <ele>328.1</ele>
        <time>2020-06-28T09:50:24.000Z</time>
      </trkpt>
      <trkpt lat="45.60832" lon="4.93723">
        <ele>328.6</ele>
        <time>2020-06-28T09:50:29.000Z</time>
      </trkpt>
      <trkpt lat="45.60838" lon="4.93713">
        <ele>328.6</ele>
        <time>2020-06-28T09:50:31.000Z</time>
      </trkpt>
      <trkpt lat="45.60853" lon="4.93687">
        <ele>328.6</ele>
        <time>2020-06-28T09:50:36.000Z</time>
      </trkpt>
      <trkpt lat="45.60868" lon="4.93661">
        <ele>328.3</ele>
        <time>2020-06-28T09:50:41.000Z</time>
      </trkpt>
      <trkpt lat="45.60889" lon="4.93619">
        <ele>327.6</ele>
        <time>2020-06-28T09:50:48.000Z</time>
      </trkpt>
      <trkpt lat="45.60897" lon="4.93602">
        <ele>327.2</ele>
        <time>2020-06-28T09:50:51.000Z</time>
      </trkpt>
      <trkpt lat="45.60905" lon="4.93592">
        <ele>326.7</ele>
        <time>2020-06-28T09:50:53.000Z</time>
      </trkpt>
      <trkpt lat="45.60916" lon="4.93587">
        <ele>326.3</ele>
        <time>2020-06-28T09:50:55.000Z</time>
      </trkpt>
      <trkpt lat="45.60933" lon="4.93579">
        <ele>325.5</ele>
        <time>2020-06-28T09:50:58.000Z</time>
      </trkpt>
      <trkpt lat="45.60944" lon="4.93574">
        <ele>325</ele>
        <time>2020-06-28T09:51:00.000Z</time>
      </trkpt>
      <trkpt lat="45.60955" lon="4.93569">
        <ele>324.6</ele>
        <time>2020-06-28T09:51:02.000Z</time>
      </trkpt>
      <trkpt lat="45.60966" lon="4.93564">
        <ele>324.1</ele>
        <time>2020-06-28T09:51:04.000Z</time>
      </trkpt>
      <trkpt lat="45.60982" lon="4.93557">
        <ele>323.2</ele>
        <time>2020-06-28T09:51:07.000Z</time>
      </trkpt>
      <trkpt lat="45.60999" lon="4.93549">
        <ele>322.4</ele>
        <time>2020-06-28T09:51:10.000Z</time>
      </trkpt>
      <trkpt lat="45.6101" lon="4.93543">
        <ele>321.9</ele>
        <time>2020-06-28T09:51:12.000Z</time>
      </trkpt>
      <trkpt lat="45.6103" lon="4.93535">
        <ele>321.3</ele>
        <time>2020-06-28T09:51:15.000Z</time>
      </trkpt>
      <trkpt lat="45.61043" lon="4.93529">
        <ele>321</ele>
        <time>2020-06-28T09:51:17.000Z</time>
      </trkpt>
      <trkpt lat="45.61068" lon="4.9352">
        <ele>320.5</ele>
        <time>2020-06-28T09:51:21.000Z</time>
      </trkpt>
      <trkpt lat="45.61087" lon="4.93514">
        <ele>320.5</ele>
        <time>2020-06-28T09:51:24.000Z</time>
      </trkpt>
      <trkpt lat="45.61128" lon="4.93502">
        <ele>319.8</ele>
        <time>2020-06-28T09:51:31.000Z</time>
      </trkpt>
      <trkpt lat="45.6114" lon="4.93498">
        <ele>319.6</ele>
        <time>2020-06-28T09:51:33.000Z</time>
      </trkpt>
      <trkpt lat="45.61158" lon="4.93494">
        <ele>319.4</ele>
        <time>2020-06-28T09:51:36.000Z</time>
      </trkpt>
      <trkpt lat="45.61175" lon="4.93493">
        <ele>319</ele>
        <time>2020-06-28T09:51:39.000Z</time>
      </trkpt>
      <trkpt lat="45.61182" lon="4.93493">
        <ele>318.9</ele>
        <time>2020-06-28T09:51:40.000Z</time>
      </trkpt>
      <trkpt lat="45.61233" lon="4.93489">
        <ele>317.9</ele>
        <time>2020-06-28T09:51:48.000Z</time>
      </trkpt>
      <trkpt lat="45.61245" lon="4.93487">
        <ele>317.6</ele>
        <time>2020-06-28T09:51:50.000Z</time>
      </trkpt>
      <trkpt lat="45.61283" lon="4.93483">
        <ele>316.5</ele>
        <time>2020-06-28T09:51:56.000Z</time>
      </trkpt>
      <trkpt lat="45.61289" lon="4.93482">
        <ele>316.4</ele>
        <time>2020-06-28T09:51:57.000Z</time>
      </trkpt>
      <trkpt lat="45.61301" lon="4.9348">
        <ele>316</ele>
        <time>2020-06-28T09:51:59.000Z</time>
      </trkpt>
      <trkpt lat="45.61319" lon="4.93476">
        <ele>315.5</ele>
        <time>2020-06-28T09:52:02.000Z</time>
      </trkpt>
      <trkpt lat="45.61337" lon="4.9347">
        <ele>314.8</ele>
        <time>2020-06-28T09:52:05.000Z</time>
      </trkpt>
      <trkpt lat="45.61356" lon="4.9346">
        <ele>314.1</ele>
        <time>2020-06-28T09:52:08.000Z</time>
      </trkpt>
      <trkpt lat="45.61374" lon="4.93448">
        <ele>313.5</ele>
        <time>2020-06-28T09:52:11.000Z</time>
      </trkpt>
      <trkpt lat="45.61399" lon="4.93428">
        <ele>312.8</ele>
        <time>2020-06-28T09:52:15.000Z</time>
      </trkpt>
      <trkpt lat="45.61405" lon="4.93423">
        <ele>312.6</ele>
        <time>2020-06-28T09:52:16.000Z</time>
      </trkpt>
      <trkpt lat="45.61442" lon="4.93394">
        <ele>311.5</ele>
        <time>2020-06-28T09:52:22.000Z</time>
      </trkpt>
      <trkpt lat="45.61448" lon="4.9339">
        <ele>311.4</ele>
        <time>2020-06-28T09:52:23.000Z</time>
      </trkpt>
      <trkpt lat="45.6146" lon="4.93381">
        <ele>311</ele>
        <time>2020-06-28T09:52:26.000Z</time>
      </trkpt>
      <trkpt lat="45.61462" lon="4.93379">
        <ele>311</ele>
        <time>2020-06-28T09:52:29.000Z</time>
      </trkpt>
      <trkpt lat="45.61456" lon="4.93383">
        <ele>310.9</ele>
        <time>2020-06-28T09:52:36.000Z</time>
      </trkpt>
      <trkpt lat="45.61453" lon="4.93395">
        <ele>310.9</ele>
        <time>2020-06-28T09:52:41.000Z</time>
      </trkpt>
      <trkpt lat="45.61457" lon="4.93404">
        <ele>310.8</ele>
        <time>2020-06-28T09:52:45.000Z</time>
      </trkpt>
      <trkpt lat="45.6146" lon="4.93411">
        <ele>310.7</ele>
        <time>2020-06-28T09:52:47.000Z</time>
      </trkpt>
      <trkpt lat="45.61474" lon="4.93424">
        <ele>310.3</ele>
        <time>2020-06-28T09:52:52.000Z</time>
      </trkpt>
      <trkpt lat="45.61495" lon="4.93434">
        <ele>310.2</ele>
        <time>2020-06-28T09:52:58.000Z</time>
      </trkpt>
      <trkpt lat="45.61508" lon="4.93443">
        <ele>310.1</ele>
        <time>2020-06-28T09:53:02.000Z</time>
      </trkpt>
      <trkpt lat="45.61509" lon="4.93447">
        <ele>310.1</ele>
        <time>2020-06-28T09:53:03.000Z</time>
      </trkpt>
      <trkpt lat="45.61507" lon="4.93465">
        <ele>309.6</ele>
        <time>2020-06-28T09:53:07.000Z</time>
      </trkpt>
      <trkpt lat="45.61498" lon="4.93497">
        <ele>308.4</ele>
        <time>2020-06-28T09:53:12.000Z</time>
      </trkpt>
      <trkpt lat="45.61495" lon="4.93512">
        <ele>307.9</ele>
        <time>2020-06-28T09:53:14.000Z</time>
      </trkpt>
      <trkpt lat="45.61493" lon="4.93538">
        <ele>307.2</ele>
        <time>2020-06-28T09:53:17.000Z</time>
      </trkpt>
      <trkpt lat="45.61494" lon="4.93547">
        <ele>307</ele>
        <time>2020-06-28T09:53:18.000Z</time>
      </trkpt>
      <trkpt lat="45.61497" lon="4.93563">
        <ele>306.6</ele>
        <time>2020-06-28T09:53:20.000Z</time>
      </trkpt>
      <trkpt lat="45.615" lon="4.9357">
        <ele>306.5</ele>
        <time>2020-06-28T09:53:21.000Z</time>
      </trkpt>
      <trkpt lat="45.61503" lon="4.93576">
        <ele>306.3</ele>
        <time>2020-06-28T09:53:22.000Z</time>
      </trkpt>
      <trkpt lat="45.61513" lon="4.93599">
        <ele>305.4</ele>
        <time>2020-06-28T09:53:26.000Z</time>
      </trkpt>
      <trkpt lat="45.61516" lon="4.93604">
        <ele>305.2</ele>
        <time>2020-06-28T09:53:27.000Z</time>
      </trkpt>
      <trkpt lat="45.61518" lon="4.93611">
        <ele>304.9</ele>
        <time>2020-06-28T09:53:28.000Z</time>
      </trkpt>
      <trkpt lat="45.61526" lon="4.93631">
        <ele>304</ele>
        <time>2020-06-28T09:53:32.000Z</time>
      </trkpt>
      <trkpt lat="45.61531" lon="4.9364">
        <ele>303.5</ele>
        <time>2020-06-28T09:53:34.000Z</time>
      </trkpt>
      <trkpt lat="45.61538" lon="4.93661">
        <ele>302.7</ele>
        <time>2020-06-28T09:53:37.000Z</time>
      </trkpt>
      <trkpt lat="45.6154" lon="4.93667">
        <ele>302.4</ele>
        <time>2020-06-28T09:53:38.000Z</time>
      </trkpt>
      <trkpt lat="45.61551" lon="4.93686">
        <ele>301.6</ele>
        <time>2020-06-28T09:53:41.000Z</time>
      </trkpt>
      <trkpt lat="45.61555" lon="4.93692">
        <ele>301.2</ele>
        <time>2020-06-28T09:53:42.000Z</time>
      </trkpt>
      <trkpt lat="45.61576" lon="4.93723">
        <ele>300</ele>
        <time>2020-06-28T09:53:46.000Z</time>
      </trkpt>
      <trkpt lat="45.61581" lon="4.9373">
        <ele>299.8</ele>
        <time>2020-06-28T09:53:47.000Z</time>
      </trkpt>
      <trkpt lat="45.61586" lon="4.93736">
        <ele>299.6</ele>
        <time>2020-06-28T09:53:48.000Z</time>
      </trkpt>
      <trkpt lat="45.61592" lon="4.93741">
        <ele>299.3</ele>
        <time>2020-06-28T09:53:49.000Z</time>
      </trkpt>
      <trkpt lat="45.61598" lon="4.93742">
        <ele>299</ele>
        <time>2020-06-28T09:53:50.000Z</time>
      </trkpt>
      <trkpt lat="45.61615" lon="4.93739">
        <ele>297.9</ele>
        <time>2020-06-28T09:53:53.000Z</time>
      </trkpt>
      <trkpt lat="45.6162" lon="4.93739">
        <ele>297.5</ele>
        <time>2020-06-28T09:53:54.000Z</time>
      </trkpt>
      <trkpt lat="45.61626" lon="4.93741">
        <ele>296.9</ele>
        <time>2020-06-28T09:53:55.000Z</time>
      </trkpt>
      <trkpt lat="45.61646" lon="4.9374">
        <ele>294.6</ele>
        <time>2020-06-28T09:53:58.000Z</time>
      </trkpt>
      <trkpt lat="45.61668" lon="4.93734">
        <ele>291.5</ele>
        <time>2020-06-28T09:54:02.000Z</time>
      </trkpt>
      <trkpt lat="45.61674" lon="4.93738">
        <ele>290.5</ele>
        <time>2020-06-28T09:54:04.000Z</time>
      </trkpt>
      <trkpt lat="45.61678" lon="4.93742">
        <ele>289.9</ele>
        <time>2020-06-28T09:54:05.000Z</time>
      </trkpt>
      <trkpt lat="45.61682" lon="4.93746">
        <ele>289.3</ele>
        <time>2020-06-28T09:54:06.000Z</time>
      </trkpt>
      <trkpt lat="45.61686" lon="4.93751">
        <ele>288.7</ele>
        <time>2020-06-28T09:54:07.000Z</time>
      </trkpt>
      <trkpt lat="45.61693" lon="4.93755">
        <ele>287.7</ele>
        <time>2020-06-28T09:54:09.000Z</time>
      </trkpt>
      <trkpt lat="45.61697" lon="4.93752">
        <ele>287.2</ele>
        <time>2020-06-28T09:54:11.000Z</time>
      </trkpt>
      <trkpt lat="45.61698" lon="4.9375">
        <ele>287.1</ele>
        <time>2020-06-28T09:54:12.000Z</time>
      </trkpt>
      <trkpt lat="45.61699" lon="4.93748">
        <ele>286.9</ele>
        <time>2020-06-28T09:54:13.000Z</time>
      </trkpt>
      <trkpt lat="45.617" lon="4.93744">
        <ele>286.6</ele>
        <time>2020-06-28T09:54:15.000Z</time>
      </trkpt>
      <trkpt lat="45.61701" lon="4.93743">
        <ele>286.5</ele>
        <time>2020-06-28T09:54:16.000Z</time>
      </trkpt>
      <trkpt lat="45.61701" lon="4.93742">
        <ele>286.5</ele>
        <time>2020-06-28T09:54:17.000Z</time>
      </trkpt>
      <trkpt lat="45.61702" lon="4.93741">
        <ele>286.4</ele>
        <time>2020-06-28T09:54:18.000Z</time>
      </trkpt>
      <trkpt lat="45.61702" lon="4.93733">
        <ele>286.1</ele>
        <time>2020-06-28T09:54:21.000Z</time>
      </trkpt>
      <trkpt lat="45.61703" lon="4.9373">
        <ele>285.9</ele>
        <time>2020-06-28T09:54:23.000Z</time>
      </trkpt>
      <trkpt lat="45.61704" lon="4.93728">
        <ele>285.8</ele>
        <time>2020-06-28T09:54:27.000Z</time>
      </trkpt>
      <trkpt lat="45.61704" lon="4.93707">
        <ele>285.1</ele>
        <time>2020-06-28T09:54:54.000Z</time>
      </trkpt>
      <trkpt lat="45.61705" lon="4.93705">
        <ele>285.1</ele>
        <time>2020-06-28T09:54:55.000Z</time>
      </trkpt>
      <trkpt lat="45.61704" lon="4.93679">
        <ele>284.5</ele>
        <time>2020-06-28T09:55:01.000Z</time>
      </trkpt>
      <trkpt lat="45.61702" lon="4.93666">
        <ele>284.3</ele>
        <time>2020-06-28T09:55:04.000Z</time>
      </trkpt>
      <trkpt lat="45.61702" lon="4.93658">
        <ele>284.2</ele>
        <time>2020-06-28T09:55:06.000Z</time>
      </trkpt>
      <trkpt lat="45.61702" lon="4.9365">
        <ele>284.1</ele>
        <time>2020-06-28T09:55:09.000Z</time>
      </trkpt>
      <trkpt lat="45.61704" lon="4.93643">
        <ele>284</ele>
        <time>2020-06-28T09:55:11.000Z</time>
      </trkpt>
      <trkpt lat="45.61707" lon="4.93633">
        <ele>283.7</ele>
        <time>2020-06-28T09:55:13.000Z</time>
      </trkpt>
      <trkpt lat="45.61712" lon="4.93623">
        <ele>283.2</ele>
        <time>2020-06-28T09:55:15.000Z</time>
      </trkpt>
      <trkpt lat="45.61721" lon="4.93607">
        <ele>282.1</ele>
        <time>2020-06-28T09:55:19.000Z</time>
      </trkpt>
      <trkpt lat="45.61723" lon="4.93605">
        <ele>282</ele>
        <time>2020-06-28T09:55:20.000Z</time>
      </trkpt>
      <trkpt lat="45.61726" lon="4.93605">
        <ele>281.8</ele>
        <time>2020-06-28T09:55:21.000Z</time>
      </trkpt>
      <trkpt lat="45.6173" lon="4.93607">
        <ele>281.5</ele>
        <time>2020-06-28T09:55:23.000Z</time>
      </trkpt>
      <trkpt lat="45.61733" lon="4.93608">
        <ele>281.4</ele>
        <time>2020-06-28T09:55:24.000Z</time>
      </trkpt>
      <trkpt lat="45.61752" lon="4.93618">
        <ele>280.9</ele>
        <time>2020-06-28T09:55:31.000Z</time>
      </trkpt>
      <trkpt lat="45.61761" lon="4.93622">
        <ele>280.9</ele>
        <time>2020-06-28T09:55:34.000Z</time>
      </trkpt>
      <trkpt lat="45.61774" lon="4.93629">
        <ele>280.9</ele>
        <time>2020-06-28T09:55:37.000Z</time>
      </trkpt>
      <trkpt lat="45.61781" lon="4.93631">
        <ele>280.8</ele>
        <time>2020-06-28T09:55:39.000Z</time>
      </trkpt>
      <trkpt lat="45.61791" lon="4.93635">
        <ele>280.8</ele>
        <time>2020-06-28T09:55:42.000Z</time>
      </trkpt>
      <trkpt lat="45.61809" lon="4.93638">
        <ele>280.9</ele>
        <time>2020-06-28T09:55:46.000Z</time>
      </trkpt>
      <trkpt lat="45.61812" lon="4.93639">
        <ele>280.9</ele>
        <time>2020-06-28T09:55:47.000Z</time>
      </trkpt>
      <trkpt lat="45.61823" lon="4.93645">
        <ele>281.1</ele>
        <time>2020-06-28T09:55:50.000Z</time>
      </trkpt>
      <trkpt lat="45.61828" lon="4.93646">
        <ele>281.1</ele>
        <time>2020-06-28T09:55:51.000Z</time>
      </trkpt>
      <trkpt lat="45.6185" lon="4.9365">
        <ele>281.6</ele>
        <time>2020-06-28T09:55:55.000Z</time>
      </trkpt>
      <trkpt lat="45.61854" lon="4.93652">
        <ele>281.6</ele>
        <time>2020-06-28T09:55:56.000Z</time>
      </trkpt>
      <trkpt lat="45.6188" lon="4.93651">
        <ele>282.1</ele>
        <time>2020-06-28T09:56:02.000Z</time>
      </trkpt>
      <trkpt lat="45.61894" lon="4.93653">
        <ele>282.5</ele>
        <time>2020-06-28T09:56:05.000Z</time>
      </trkpt>
      <trkpt lat="45.61912" lon="4.93657">
        <ele>283</ele>
        <time>2020-06-28T09:56:09.000Z</time>
      </trkpt>
      <trkpt lat="45.61916" lon="4.93658">
        <ele>283</ele>
        <time>2020-06-28T09:56:10.000Z</time>
      </trkpt>
      <trkpt lat="45.61935" lon="4.93662">
        <ele>282.8</ele>
        <time>2020-06-28T09:56:13.000Z</time>
      </trkpt>
      <trkpt lat="45.61972" lon="4.93664">
        <ele>279.9</ele>
        <time>2020-06-28T09:56:18.000Z</time>
      </trkpt>
      <trkpt lat="45.61998" lon="4.93667">
        <ele>276.2</ele>
        <time>2020-06-28T09:56:21.000Z</time>
      </trkpt>
      <trkpt lat="45.62006" lon="4.93667">
        <ele>275</ele>
        <time>2020-06-28T09:56:22.000Z</time>
      </trkpt>
      <trkpt lat="45.6202" lon="4.93669">
        <ele>273.1</ele>
        <time>2020-06-28T09:56:24.000Z</time>
      </trkpt>
      <trkpt lat="45.62035" lon="4.93671">
        <ele>271.1</ele>
        <time>2020-06-28T09:56:26.000Z</time>
      </trkpt>
      <trkpt lat="45.62042" lon="4.93671">
        <ele>270</ele>
        <time>2020-06-28T09:56:27.000Z</time>
      </trkpt>
      <trkpt lat="45.6205" lon="4.93673">
        <ele>268.9</ele>
        <time>2020-06-28T09:56:28.000Z</time>
      </trkpt>
      <trkpt lat="45.62058" lon="4.93674">
        <ele>267.8</ele>
        <time>2020-06-28T09:56:29.000Z</time>
      </trkpt>
      <trkpt lat="45.62065" lon="4.93674">
        <ele>266.7</ele>
        <time>2020-06-28T09:56:30.000Z</time>
      </trkpt>
      <trkpt lat="45.62073" lon="4.93674">
        <ele>265.6</ele>
        <time>2020-06-28T09:56:31.000Z</time>
      </trkpt>
      <trkpt lat="45.62081" lon="4.93674">
        <ele>264.5</ele>
        <time>2020-06-28T09:56:32.000Z</time>
      </trkpt>
      <trkpt lat="45.62089" lon="4.93673">
        <ele>263.3</ele>
        <time>2020-06-28T09:56:33.000Z</time>
      </trkpt>
      <trkpt lat="45.62097" lon="4.93672">
        <ele>262.2</ele>
        <time>2020-06-28T09:56:34.000Z</time>
      </trkpt>
      <trkpt lat="45.62104" lon="4.93671">
        <ele>261</ele>
        <time>2020-06-28T09:56:35.000Z</time>
      </trkpt>
      <trkpt lat="45.62118" lon="4.93667">
        <ele>258.9</ele>
        <time>2020-06-28T09:56:37.000Z</time>
      </trkpt>
      <trkpt lat="45.62125" lon="4.93665">
        <ele>257.8</ele>
        <time>2020-06-28T09:56:38.000Z</time>
      </trkpt>
      <trkpt lat="45.62132" lon="4.93663">
        <ele>256.8</ele>
        <time>2020-06-28T09:56:39.000Z</time>
      </trkpt>
      <trkpt lat="45.62146" lon="4.93658">
        <ele>254.8</ele>
        <time>2020-06-28T09:56:41.000Z</time>
      </trkpt>
      <trkpt lat="45.62159" lon="4.93653">
        <ele>253</ele>
        <time>2020-06-28T09:56:43.000Z</time>
      </trkpt>
      <trkpt lat="45.62166" lon="4.93652">
        <ele>252.2</ele>
        <time>2020-06-28T09:56:44.000Z</time>
      </trkpt>
      <trkpt lat="45.62172" lon="4.93651">
        <ele>251.3</ele>
        <time>2020-06-28T09:56:45.000Z</time>
      </trkpt>
      <trkpt lat="45.62186" lon="4.93655">
        <ele>249.5</ele>
        <time>2020-06-28T09:56:47.000Z</time>
      </trkpt>
      <trkpt lat="45.62192" lon="4.93658">
        <ele>248.7</ele>
        <time>2020-06-28T09:56:48.000Z</time>
      </trkpt>
      <trkpt lat="45.62198" lon="4.93661">
        <ele>247.9</ele>
        <time>2020-06-28T09:56:49.000Z</time>
      </trkpt>
      <trkpt lat="45.62203" lon="4.93664">
        <ele>247.3</ele>
        <time>2020-06-28T09:56:50.000Z</time>
      </trkpt>
      <trkpt lat="45.62208" lon="4.93664">
        <ele>246.6</ele>
        <time>2020-06-28T09:56:51.000Z</time>
      </trkpt>
      <trkpt lat="45.62217" lon="4.93657">
        <ele>245.3</ele>
        <time>2020-06-28T09:56:53.000Z</time>
      </trkpt>
      <trkpt lat="45.6222" lon="4.93651">
        <ele>244.7</ele>
        <time>2020-06-28T09:56:54.000Z</time>
      </trkpt>
      <trkpt lat="45.62222" lon="4.93643">
        <ele>244.3</ele>
        <time>2020-06-28T09:56:55.000Z</time>
      </trkpt>
      <trkpt lat="45.62228" lon="4.93626">
        <ele>243.4</ele>
        <time>2020-06-28T09:56:57.000Z</time>
      </trkpt>
      <trkpt lat="45.62231" lon="4.93616">
        <ele>242.7</ele>
        <time>2020-06-28T09:56:58.000Z</time>
      </trkpt>
      <trkpt lat="45.6224" lon="4.93599">
        <ele>241.4</ele>
        <time>2020-06-28T09:57:00.000Z</time>
      </trkpt>
      <trkpt lat="45.62252" lon="4.93587">
        <ele>239.7</ele>
        <time>2020-06-28T09:57:02.000Z</time>
      </trkpt>
      <trkpt lat="45.62267" lon="4.93574">
        <ele>237.8</ele>
        <time>2020-06-28T09:57:04.000Z</time>
      </trkpt>
      <trkpt lat="45.62282" lon="4.93561">
        <ele>235.8</ele>
        <time>2020-06-28T09:57:06.000Z</time>
      </trkpt>
      <trkpt lat="45.62295" lon="4.9355">
        <ele>234.4</ele>
        <time>2020-06-28T09:57:08.000Z</time>
      </trkpt>
      <trkpt lat="45.62307" lon="4.93539">
        <ele>233.4</ele>
        <time>2020-06-28T09:57:10.000Z</time>
      </trkpt>
      <trkpt lat="45.62313" lon="4.93533">
        <ele>233</ele>
        <time>2020-06-28T09:57:11.000Z</time>
      </trkpt>
      <trkpt lat="45.62319" lon="4.93528">
        <ele>232.6</ele>
        <time>2020-06-28T09:57:12.000Z</time>
      </trkpt>
      <trkpt lat="45.62325" lon="4.93521">
        <ele>232.2</ele>
        <time>2020-06-28T09:57:13.000Z</time>
      </trkpt>
      <trkpt lat="45.6233" lon="4.93514">
        <ele>231.8</ele>
        <time>2020-06-28T09:57:14.000Z</time>
      </trkpt>
      <trkpt lat="45.6234" lon="4.93497">
        <ele>231.2</ele>
        <time>2020-06-28T09:57:16.000Z</time>
      </trkpt>
      <trkpt lat="45.62355" lon="4.93474">
        <ele>230.3</ele>
        <time>2020-06-28T09:57:19.000Z</time>
      </trkpt>
      <trkpt lat="45.62362" lon="4.93469">
        <ele>230</ele>
        <time>2020-06-28T09:57:20.000Z</time>
      </trkpt>
      <trkpt lat="45.62368" lon="4.93465">
        <ele>229.7</ele>
        <time>2020-06-28T09:57:21.000Z</time>
      </trkpt>
      <trkpt lat="45.62393" lon="4.93462">
        <ele>228.7</ele>
        <time>2020-06-28T09:57:24.000Z</time>
      </trkpt>
      <trkpt lat="45.62418" lon="4.93454">
        <ele>227.8</ele>
        <time>2020-06-28T09:57:27.000Z</time>
      </trkpt>
      <trkpt lat="45.62426" lon="4.93449">
        <ele>227.5</ele>
        <time>2020-06-28T09:57:28.000Z</time>
      </trkpt>
      <trkpt lat="45.62433" lon="4.93446">
        <ele>227.2</ele>
        <time>2020-06-28T09:57:29.000Z</time>
      </trkpt>
      <trkpt lat="45.62464" lon="4.93431">
        <ele>226</ele>
        <time>2020-06-28T09:57:33.000Z</time>
      </trkpt>
      <trkpt lat="45.6248" lon="4.93426">
        <ele>225.5</ele>
        <time>2020-06-28T09:57:35.000Z</time>
      </trkpt>
      <trkpt lat="45.62511" lon="4.93416">
        <ele>224.5</ele>
        <time>2020-06-28T09:57:39.000Z</time>
      </trkpt>
      <trkpt lat="45.62516" lon="4.93413">
        <ele>224.4</ele>
        <time>2020-06-28T09:57:40.000Z</time>
      </trkpt>
      <trkpt lat="45.62526" lon="4.93405">
        <ele>224.1</ele>
        <time>2020-06-28T09:57:42.000Z</time>
      </trkpt>
      <trkpt lat="45.62528" lon="4.934">
        <ele>223.9</ele>
        <time>2020-06-28T09:57:43.000Z</time>
      </trkpt>
      <trkpt lat="45.62529" lon="4.93389">
        <ele>224.2</ele>
        <time>2020-06-28T09:57:45.000Z</time>
      </trkpt>
      <trkpt lat="45.62529" lon="4.93383">
        <ele>224.2</ele>
        <time>2020-06-28T09:57:46.000Z</time>
      </trkpt>
      <trkpt lat="45.62528" lon="4.93377">
        <ele>224.7</ele>
        <time>2020-06-28T09:57:47.000Z</time>
      </trkpt>
      <trkpt lat="45.62528" lon="4.93367">
        <ele>225.2</ele>
        <time>2020-06-28T09:57:49.000Z</time>
      </trkpt>
      <trkpt lat="45.62528" lon="4.93345">
        <ele>226.1</ele>
        <time>2020-06-28T09:57:53.000Z</time>
      </trkpt>
      <trkpt lat="45.62532" lon="4.93337">
        <ele>226.5</ele>
        <time>2020-06-28T09:57:55.000Z</time>
      </trkpt>
      <trkpt lat="45.62538" lon="4.93329">
        <ele>226.1</ele>
        <time>2020-06-28T09:57:57.000Z</time>
      </trkpt>
      <trkpt lat="45.62548" lon="4.93324">
        <ele>225.1</ele>
        <time>2020-06-28T09:57:59.000Z</time>
      </trkpt>
      <trkpt lat="45.62561" lon="4.9332">
        <ele>224</ele>
        <time>2020-06-28T09:58:01.000Z</time>
      </trkpt>
      <trkpt lat="45.62576" lon="4.93317">
        <ele>222.9</ele>
        <time>2020-06-28T09:58:03.000Z</time>
      </trkpt>
      <trkpt lat="45.6259" lon="4.93312">
        <ele>222.1</ele>
        <time>2020-06-28T09:58:05.000Z</time>
      </trkpt>
      <trkpt lat="45.62601" lon="4.93299">
        <ele>221.3</ele>
        <time>2020-06-28T09:58:07.000Z</time>
      </trkpt>
      <trkpt lat="45.62603" lon="4.93277">
        <ele>220.5</ele>
        <time>2020-06-28T09:58:09.000Z</time>
      </trkpt>
      <trkpt lat="45.62604" lon="4.93266">
        <ele>220.2</ele>
        <time>2020-06-28T09:58:10.000Z</time>
      </trkpt>
      <trkpt lat="45.62604" lon="4.93254">
        <ele>219.8</ele>
        <time>2020-06-28T09:58:11.000Z</time>
      </trkpt>
      <trkpt lat="45.62603" lon="4.93231">
        <ele>219.1</ele>
        <time>2020-06-28T09:58:13.000Z</time>
      </trkpt>
      <trkpt lat="45.62603" lon="4.93196">
        <ele>218.2</ele>
        <time>2020-06-28T09:58:16.000Z</time>
      </trkpt>
      <trkpt lat="45.62603" lon="4.93172">
        <ele>217.5</ele>
        <time>2020-06-28T09:58:18.000Z</time>
      </trkpt>
      <trkpt lat="45.62603" lon="4.93148">
        <ele>216.8</ele>
        <time>2020-06-28T09:58:20.000Z</time>
      </trkpt>
      <trkpt lat="45.62602" lon="4.93126">
        <ele>216.2</ele>
        <time>2020-06-28T09:58:22.000Z</time>
      </trkpt>
      <trkpt lat="45.62602" lon="4.93117">
        <ele>216</ele>
        <time>2020-06-28T09:58:23.000Z</time>
      </trkpt>
      <trkpt lat="45.62602" lon="4.93109">
        <ele>215.9</ele>
        <time>2020-06-28T09:58:24.000Z</time>
      </trkpt>
      <trkpt lat="45.62607" lon="4.93094">
        <ele>215.6</ele>
        <time>2020-06-28T09:58:26.000Z</time>
      </trkpt>
      <trkpt lat="45.62611" lon="4.93091">
        <ele>215.4</ele>
        <time>2020-06-28T09:58:27.000Z</time>
      </trkpt>
      <trkpt lat="45.62622" lon="4.93089">
        <ele>214.9</ele>
        <time>2020-06-28T09:58:29.000Z</time>
      </trkpt>
      <trkpt lat="45.62632" lon="4.93088">
        <ele>214.4</ele>
        <time>2020-06-28T09:58:31.000Z</time>
      </trkpt>
      <trkpt lat="45.62645" lon="4.93089">
        <ele>213.9</ele>
        <time>2020-06-28T09:58:34.000Z</time>
      </trkpt>
      <trkpt lat="45.62649" lon="4.93086">
        <ele>213.8</ele>
        <time>2020-06-28T09:58:36.000Z</time>
      </trkpt>
      <trkpt lat="45.6265" lon="4.93083">
        <ele>213.8</ele>
        <time>2020-06-28T09:58:37.000Z</time>
      </trkpt>
      <trkpt lat="45.62652" lon="4.93078">
        <ele>213.6</ele>
        <time>2020-06-28T09:58:40.000Z</time>
      </trkpt>
      <trkpt lat="45.62655" lon="4.93074">
        <ele>213.6</ele>
        <time>2020-06-28T09:58:41.000Z</time>
      </trkpt>
      <trkpt lat="45.62663" lon="4.93065">
        <ele>213.4</ele>
        <time>2020-06-28T09:58:44.000Z</time>
      </trkpt>
      <trkpt lat="45.62662" lon="4.9306">
        <ele>213.3</ele>
        <time>2020-06-28T09:58:46.000Z</time>
      </trkpt>
      <trkpt lat="45.62662" lon="4.93059">
        <ele>213.3</ele>
        <time>2020-06-28T09:58:48.000Z</time>
      </trkpt>
    </trkseg>
  </trk>
</gpx>